<?xml version="1.0" encoding="UTF-8" standalone="no" ?>
<gpx xmlns="http://www.topografix.com/GPX/1/1" xmlns:xsi="http://www.w3.org/2001/XMLSchema-instance" xsi:schemaLocation="http://www.topografix.com/GPX/1/1 http://www.topografix.com/GPX/1/1/gpx.xsd" version="1.1" creator="VisuGPX - https://www.visugpx.com">
  <metadata>
    <name>Ruoms1</name>
  </metadata>
  <wpt lat="44.55053" lon="4.08641">
    <ele>679.3</ele>
    <name><![CDATA[GMap 44.550529° N]]></name>
    <type><![CDATA[ 4.086412° E]]></type>
  </wpt>
  <trk>
    <name><![CDATA[Ruoms1_1]]></name>
    <trkseg>
      <trkpt lat="44.45663" lon="4.32786">
        <ele>150.8</ele>
        <time>2020-07-21T07:46:47Z</time>
      </trkpt>
      <trkpt lat="44.4566" lon="4.32793">
        <ele>150.2</ele>
        <time>2020-07-21T07:46:45Z</time>
      </trkpt>
      <trkpt lat="44.45657" lon="4.32797">
        <ele>149.8</ele>
        <time>2020-07-21T07:46:44Z</time>
      </trkpt>
      <trkpt lat="44.45656" lon="4.328">
        <ele>149.6</ele>
        <time>2020-07-21T07:46:42Z</time>
      </trkpt>
      <trkpt lat="44.45654" lon="4.32802">
        <ele>149.4</ele>
        <time>2020-07-21T07:46:41Z</time>
      </trkpt>
      <trkpt lat="44.45653" lon="4.32803">
        <ele>149.2</ele>
        <time>2020-07-21T07:46:40Z</time>
      </trkpt>
      <trkpt lat="44.45652" lon="4.32805">
        <ele>149</ele>
        <time>2020-07-21T07:46:39Z</time>
      </trkpt>
      <trkpt lat="44.45649" lon="4.32809">
        <ele>148.6</ele>
        <time>2020-07-21T07:46:37Z</time>
      </trkpt>
      <trkpt lat="44.45643" lon="4.32815">
        <ele>147.9</ele>
        <time>2020-07-21T07:46:36Z</time>
      </trkpt>
      <trkpt lat="44.4564" lon="4.32819">
        <ele>147.5</ele>
        <time>2020-07-21T07:46:34Z</time>
      </trkpt>
      <trkpt lat="44.45638" lon="4.32821">
        <ele>147.3</ele>
        <time>2020-07-21T07:46:33Z</time>
      </trkpt>
      <trkpt lat="44.45636" lon="4.32824">
        <ele>147</ele>
        <time>2020-07-21T07:46:31Z</time>
      </trkpt>
      <trkpt lat="44.45634" lon="4.32826">
        <ele>146.9</ele>
        <time>2020-07-21T07:46:30Z</time>
      </trkpt>
      <trkpt lat="44.45631" lon="4.3283">
        <ele>146.5</ele>
        <time>2020-07-21T07:46:28Z</time>
      </trkpt>
      <trkpt lat="44.45629" lon="4.32833">
        <ele>146.3</ele>
        <time>2020-07-21T07:46:27Z</time>
      </trkpt>
      <trkpt lat="44.45628" lon="4.32837">
        <ele>146.1</ele>
        <time>2020-07-21T07:46:26Z</time>
      </trkpt>
      <trkpt lat="44.45626" lon="4.3284">
        <ele>145.9</ele>
        <time>2020-07-21T07:46:25Z</time>
      </trkpt>
      <trkpt lat="44.45624" lon="4.32844">
        <ele>145.7</ele>
        <time>2020-07-21T07:46:24Z</time>
      </trkpt>
      <trkpt lat="44.45623" lon="4.32849">
        <ele>145.4</ele>
        <time>2020-07-21T07:46:22Z</time>
      </trkpt>
      <trkpt lat="44.4562" lon="4.32857">
        <ele>145</ele>
        <time>2020-07-21T07:46:21Z</time>
      </trkpt>
      <trkpt lat="44.45619" lon="4.32862">
        <ele>144.7</ele>
        <time>2020-07-21T07:46:20Z</time>
      </trkpt>
      <trkpt lat="44.45618" lon="4.32871">
        <ele>144.4</ele>
        <time>2020-07-21T07:46:18Z</time>
      </trkpt>
      <trkpt lat="44.45617" lon="4.3288">
        <ele>144</ele>
        <time>2020-07-21T07:46:17Z</time>
      </trkpt>
      <trkpt lat="44.45614" lon="4.32902">
        <ele>142.9</ele>
        <time>2020-07-21T07:46:16Z</time>
      </trkpt>
      <trkpt lat="44.45612" lon="4.32915">
        <ele>142.3</ele>
        <time>2020-07-21T07:46:15Z</time>
      </trkpt>
      <trkpt lat="44.4561" lon="4.3293">
        <ele>141.7</ele>
        <time>2020-07-21T07:46:13Z</time>
      </trkpt>
      <trkpt lat="44.45607" lon="4.32947">
        <ele>141</ele>
        <time>2020-07-21T07:46:12Z</time>
      </trkpt>
      <trkpt lat="44.45603" lon="4.32964">
        <ele>140.2</ele>
        <time>2020-07-21T07:46:11Z</time>
      </trkpt>
      <trkpt lat="44.45599" lon="4.3298">
        <ele>139.4</ele>
        <time>2020-07-21T07:46:10Z</time>
      </trkpt>
      <trkpt lat="44.45594" lon="4.32998">
        <ele>138.5</ele>
        <time>2020-07-21T07:46:08Z</time>
      </trkpt>
      <trkpt lat="44.4559" lon="4.3301">
        <ele>137.8</ele>
        <time>2020-07-21T07:46:07Z</time>
      </trkpt>
      <trkpt lat="44.4558" lon="4.33035">
        <ele>136.6</ele>
        <time>2020-07-21T07:46:06Z</time>
      </trkpt>
      <trkpt lat="44.45577" lon="4.33052">
        <ele>135.9</ele>
        <time>2020-07-21T07:46:04Z</time>
      </trkpt>
      <trkpt lat="44.45576" lon="4.33054">
        <ele>136</ele>
        <time>2020-07-21T07:46:03Z</time>
      </trkpt>
      <trkpt lat="44.45576" lon="4.33059">
        <ele>135.7</ele>
        <time>2020-07-21T07:46:02Z</time>
      </trkpt>
      <trkpt lat="44.45576" lon="4.33067">
        <ele>135.7</ele>
        <time>2020-07-21T07:46:00Z</time>
      </trkpt>
      <trkpt lat="44.45574" lon="4.33071">
        <ele>135.6</ele>
        <time>2020-07-21T07:45:58Z</time>
      </trkpt>
      <trkpt lat="44.45574" lon="4.33075">
        <ele>135.5</ele>
        <time>2020-07-21T07:45:57Z</time>
      </trkpt>
      <trkpt lat="44.45573" lon="4.33082">
        <ele>135.3</ele>
        <time>2020-07-21T07:45:56Z</time>
      </trkpt>
      <trkpt lat="44.45572" lon="4.33086">
        <ele>135.2</ele>
        <time>2020-07-21T07:45:55Z</time>
      </trkpt>
      <trkpt lat="44.45571" lon="4.33092">
        <ele>135.1</ele>
        <time>2020-07-21T07:45:53Z</time>
      </trkpt>
      <trkpt lat="44.4557" lon="4.33097">
        <ele>135.1</ele>
        <time>2020-07-21T07:45:52Z</time>
      </trkpt>
      <trkpt lat="44.45569" lon="4.33105">
        <ele>135</ele>
        <time>2020-07-21T07:45:51Z</time>
      </trkpt>
      <trkpt lat="44.45568" lon="4.33109">
        <ele>135</ele>
        <time>2020-07-21T07:45:50Z</time>
      </trkpt>
      <trkpt lat="44.45575" lon="4.33108">
        <ele>135.2</ele>
        <time>2020-07-21T07:45:48Z</time>
      </trkpt>
      <trkpt lat="44.45573" lon="4.33115">
        <ele>135.1</ele>
        <time>2020-07-21T07:45:47Z</time>
      </trkpt>
      <trkpt lat="44.45572" lon="4.33119">
        <ele>135.2</ele>
        <time>2020-07-21T07:45:46Z</time>
      </trkpt>
      <trkpt lat="44.45572" lon="4.33123">
        <ele>135</ele>
        <time>2020-07-21T07:45:44Z</time>
      </trkpt>
      <trkpt lat="44.4557" lon="4.33127">
        <ele>134.9</ele>
        <time>2020-07-21T07:45:43Z</time>
      </trkpt>
      <trkpt lat="44.4557" lon="4.3313">
        <ele>134.8</ele>
        <time>2020-07-21T07:45:42Z</time>
      </trkpt>
      <trkpt lat="44.45569" lon="4.33132">
        <ele>134.7</ele>
        <time>2020-07-21T07:45:41Z</time>
      </trkpt>
      <trkpt lat="44.45567" lon="4.33137">
        <ele>134.6</ele>
        <time>2020-07-21T07:45:39Z</time>
      </trkpt>
      <trkpt lat="44.45566" lon="4.33139">
        <ele>134.5</ele>
        <time>2020-07-21T07:45:38Z</time>
      </trkpt>
      <trkpt lat="44.45565" lon="4.33141">
        <ele>134.4</ele>
        <time>2020-07-21T07:45:37Z</time>
      </trkpt>
      <trkpt lat="44.45564" lon="4.33143">
        <ele>134.4</ele>
        <time>2020-07-21T07:45:35Z</time>
      </trkpt>
      <trkpt lat="44.45562" lon="4.33148">
        <ele>134.2</ele>
        <time>2020-07-21T07:45:34Z</time>
      </trkpt>
      <trkpt lat="44.45562" lon="4.3315">
        <ele>134.2</ele>
        <time>2020-07-21T07:45:33Z</time>
      </trkpt>
      <trkpt lat="44.4556" lon="4.33154">
        <ele>134.1</ele>
        <time>2020-07-21T07:45:31Z</time>
      </trkpt>
      <trkpt lat="44.45559" lon="4.33157">
        <ele>134</ele>
        <time>2020-07-21T07:45:30Z</time>
      </trkpt>
      <trkpt lat="44.45558" lon="4.33159">
        <ele>133.9</ele>
        <time>2020-07-21T07:45:29Z</time>
      </trkpt>
      <trkpt lat="44.45555" lon="4.33165">
        <ele>133.7</ele>
        <time>2020-07-21T07:45:27Z</time>
      </trkpt>
      <trkpt lat="44.45552" lon="4.33168">
        <ele>133.6</ele>
        <time>2020-07-21T07:45:26Z</time>
      </trkpt>
      <trkpt lat="44.45552" lon="4.3317">
        <ele>133.6</ele>
        <time>2020-07-21T07:45:25Z</time>
      </trkpt>
      <trkpt lat="44.4555" lon="4.33175">
        <ele>133.5</ele>
        <time>2020-07-21T07:45:24Z</time>
      </trkpt>
      <trkpt lat="44.45548" lon="4.33179">
        <ele>133.4</ele>
        <time>2020-07-21T07:45:22Z</time>
      </trkpt>
      <trkpt lat="44.45546" lon="4.33185">
        <ele>133.3</ele>
        <time>2020-07-21T07:45:21Z</time>
      </trkpt>
      <trkpt lat="44.45546" lon="4.33189">
        <ele>133.3</ele>
        <time>2020-07-21T07:45:20Z</time>
      </trkpt>
      <trkpt lat="44.45548" lon="4.33188">
        <ele>133.3</ele>
        <time>2020-07-21T07:45:17Z</time>
      </trkpt>
      <trkpt lat="44.45548" lon="4.33192">
        <ele>133.2</ele>
        <time>2020-07-21T07:45:16Z</time>
      </trkpt>
      <trkpt lat="44.45548" lon="4.33195">
        <ele>132.7</ele>
        <time>2020-07-21T07:45:15Z</time>
      </trkpt>
      <trkpt lat="44.45548" lon="4.33197">
        <ele>132.7</ele>
        <time>2020-07-21T07:45:14Z</time>
      </trkpt>
      <trkpt lat="44.45548" lon="4.33204">
        <ele>132.5</ele>
        <time>2020-07-21T07:45:12Z</time>
      </trkpt>
      <trkpt lat="44.45549" lon="4.33208">
        <ele>132.3</ele>
        <time>2020-07-21T07:45:11Z</time>
      </trkpt>
      <trkpt lat="44.45549" lon="4.33213">
        <ele>132.2</ele>
        <time>2020-07-21T07:45:10Z</time>
      </trkpt>
      <trkpt lat="44.45551" lon="4.33208">
        <ele>132</ele>
        <time>2020-07-21T07:45:08Z</time>
      </trkpt>
      <trkpt lat="44.45551" lon="4.3321">
        <ele>131.9</ele>
        <time>2020-07-21T07:45:07Z</time>
      </trkpt>
      <trkpt lat="44.45552" lon="4.33215">
        <ele>131.7</ele>
        <time>2020-07-21T07:45:06Z</time>
      </trkpt>
      <trkpt lat="44.45553" lon="4.3322">
        <ele>131.6</ele>
        <time>2020-07-21T07:45:04Z</time>
      </trkpt>
      <trkpt lat="44.45554" lon="4.33224">
        <ele>131.4</ele>
        <time>2020-07-21T07:45:03Z</time>
      </trkpt>
      <trkpt lat="44.45554" lon="4.33226">
        <ele>131.4</ele>
        <time>2020-07-21T07:45:02Z</time>
      </trkpt>
      <trkpt lat="44.45555" lon="4.3323">
        <ele>131.2</ele>
        <time>2020-07-21T07:45:00Z</time>
      </trkpt>
      <trkpt lat="44.45556" lon="4.33236">
        <ele>131</ele>
        <time>2020-07-21T07:44:59Z</time>
      </trkpt>
      <trkpt lat="44.4555" lon="4.3324">
        <ele>130.7</ele>
        <time>2020-07-21T07:44:57Z</time>
      </trkpt>
      <trkpt lat="44.45549" lon="4.33246">
        <ele>130.5</ele>
        <time>2020-07-21T07:44:56Z</time>
      </trkpt>
      <trkpt lat="44.45548" lon="4.33252">
        <ele>130.4</ele>
        <time>2020-07-21T07:44:55Z</time>
      </trkpt>
      <trkpt lat="44.45549" lon="4.33256">
        <ele>130.3</ele>
        <time>2020-07-21T07:44:54Z</time>
      </trkpt>
      <trkpt lat="44.4555" lon="4.33261">
        <ele>130.3</ele>
        <time>2020-07-21T07:44:52Z</time>
      </trkpt>
      <trkpt lat="44.45551" lon="4.33264">
        <ele>130.2</ele>
        <time>2020-07-21T07:44:51Z</time>
      </trkpt>
      <trkpt lat="44.45552" lon="4.33268">
        <ele>130.1</ele>
        <time>2020-07-21T07:44:50Z</time>
      </trkpt>
      <trkpt lat="44.45553" lon="4.33272">
        <ele>130.1</ele>
        <time>2020-07-21T07:44:49Z</time>
      </trkpt>
      <trkpt lat="44.45549" lon="4.33266">
        <ele>129.9</ele>
        <time>2020-07-21T07:44:47Z</time>
      </trkpt>
      <trkpt lat="44.4555" lon="4.33269">
        <ele>129.8</ele>
        <time>2020-07-21T07:44:46Z</time>
      </trkpt>
      <trkpt lat="44.4555" lon="4.33271">
        <ele>129.8</ele>
        <time>2020-07-21T07:44:45Z</time>
      </trkpt>
      <trkpt lat="44.45552" lon="4.33275">
        <ele>129.7</ele>
        <time>2020-07-21T07:44:44Z</time>
      </trkpt>
      <trkpt lat="44.45553" lon="4.33278">
        <ele>129.7</ele>
        <time>2020-07-21T07:44:42Z</time>
      </trkpt>
      <trkpt lat="44.45554" lon="4.33281">
        <ele>129.6</ele>
        <time>2020-07-21T07:44:41Z</time>
      </trkpt>
      <trkpt lat="44.45555" lon="4.33282">
        <ele>129.6</ele>
        <time>2020-07-21T07:44:40Z</time>
      </trkpt>
      <trkpt lat="44.45555" lon="4.33283">
        <ele>129.5</ele>
        <time>2020-07-21T07:44:39Z</time>
      </trkpt>
      <trkpt lat="44.45556" lon="4.33285">
        <ele>129.5</ele>
        <time>2020-07-21T07:44:38Z</time>
      </trkpt>
      <trkpt lat="44.45557" lon="4.33286">
        <ele>129.5</ele>
        <time>2020-07-21T07:44:37Z</time>
      </trkpt>
      <trkpt lat="44.45559" lon="4.33289">
        <ele>129.4</ele>
        <time>2020-07-21T07:44:35Z</time>
      </trkpt>
      <trkpt lat="44.4556" lon="4.3329">
        <ele>129.4</ele>
        <time>2020-07-21T07:44:34Z</time>
      </trkpt>
      <trkpt lat="44.45562" lon="4.33292">
        <ele>129.3</ele>
        <time>2020-07-21T07:44:33Z</time>
      </trkpt>
      <trkpt lat="44.45566" lon="4.33295">
        <ele>129.2</ele>
        <time>2020-07-21T07:44:31Z</time>
      </trkpt>
      <trkpt lat="44.45569" lon="4.33298">
        <ele>127.7</ele>
        <time>2020-07-21T07:44:29Z</time>
      </trkpt>
      <trkpt lat="44.45574" lon="4.33301">
        <ele>127.5</ele>
        <time>2020-07-21T07:44:28Z</time>
      </trkpt>
      <trkpt lat="44.45578" lon="4.33303">
        <ele>127.3</ele>
        <time>2020-07-21T07:44:27Z</time>
      </trkpt>
      <trkpt lat="44.45587" lon="4.33305">
        <ele>126.9</ele>
        <time>2020-07-21T07:44:25Z</time>
      </trkpt>
      <trkpt lat="44.45591" lon="4.33307">
        <ele>126.8</ele>
        <time>2020-07-21T07:44:24Z</time>
      </trkpt>
      <trkpt lat="44.45592" lon="4.33309">
        <ele>126.7</ele>
        <time>2020-07-21T07:44:23Z</time>
      </trkpt>
      <trkpt lat="44.45592" lon="4.33311">
        <ele>126.6</ele>
        <time>2020-07-21T07:44:22Z</time>
      </trkpt>
      <trkpt lat="44.45592" lon="4.33317">
        <ele>126.5</ele>
        <time>2020-07-21T07:44:20Z</time>
      </trkpt>
      <trkpt lat="44.45591" lon="4.33321">
        <ele>126.3</ele>
        <time>2020-07-21T07:44:19Z</time>
      </trkpt>
      <trkpt lat="44.45589" lon="4.3331">
        <ele>126</ele>
        <time>2020-07-21T07:44:17Z</time>
      </trkpt>
      <trkpt lat="44.45586" lon="4.33312">
        <ele>125.9</ele>
        <time>2020-07-21T07:44:16Z</time>
      </trkpt>
      <trkpt lat="44.45583" lon="4.33313">
        <ele>125.8</ele>
        <time>2020-07-21T07:44:15Z</time>
      </trkpt>
      <trkpt lat="44.4558" lon="4.33318">
        <ele>125.6</ele>
        <time>2020-07-21T07:44:13Z</time>
      </trkpt>
      <trkpt lat="44.45578" lon="4.33322">
        <ele>125.5</ele>
        <time>2020-07-21T07:44:12Z</time>
      </trkpt>
      <trkpt lat="44.45577" lon="4.33327">
        <ele>125.4</ele>
        <time>2020-07-21T07:44:11Z</time>
      </trkpt>
      <trkpt lat="44.45582" lon="4.33331">
        <ele>125.2</ele>
        <time>2020-07-21T07:44:09Z</time>
      </trkpt>
      <trkpt lat="44.45589" lon="4.3333">
        <ele>125</ele>
        <time>2020-07-21T07:44:07Z</time>
      </trkpt>
      <trkpt lat="44.45592" lon="4.3333">
        <ele>124.9</ele>
        <time>2020-07-21T07:44:06Z</time>
      </trkpt>
      <trkpt lat="44.456" lon="4.33329">
        <ele>124.6</ele>
        <time>2020-07-21T07:44:04Z</time>
      </trkpt>
      <trkpt lat="44.45604" lon="4.33329">
        <ele>124.5</ele>
        <time>2020-07-21T07:44:03Z</time>
      </trkpt>
      <trkpt lat="44.45614" lon="4.3333">
        <ele>124.2</ele>
        <time>2020-07-21T07:44:01Z</time>
      </trkpt>
      <trkpt lat="44.45624" lon="4.3333">
        <ele>123.9</ele>
        <time>2020-07-21T07:43:59Z</time>
      </trkpt>
      <trkpt lat="44.45629" lon="4.3333">
        <ele>123.8</ele>
        <time>2020-07-21T07:43:58Z</time>
      </trkpt>
      <trkpt lat="44.4564" lon="4.33331">
        <ele>123.6</ele>
        <time>2020-07-21T07:43:56Z</time>
      </trkpt>
      <trkpt lat="44.4565" lon="4.33331">
        <ele>123.4</ele>
        <time>2020-07-21T07:43:54Z</time>
      </trkpt>
      <trkpt lat="44.45658" lon="4.3333">
        <ele>123.3</ele>
        <time>2020-07-21T07:43:52Z</time>
      </trkpt>
      <trkpt lat="44.45662" lon="4.33328">
        <ele>123.3</ele>
        <time>2020-07-21T07:43:51Z</time>
      </trkpt>
      <trkpt lat="44.45671" lon="4.33324">
        <ele>123.2</ele>
        <time>2020-07-21T07:43:49Z</time>
      </trkpt>
      <trkpt lat="44.4568" lon="4.33321">
        <ele>123.2</ele>
        <time>2020-07-21T07:43:47Z</time>
      </trkpt>
      <trkpt lat="44.45691" lon="4.3332">
        <ele>123.1</ele>
        <time>2020-07-21T07:43:45Z</time>
      </trkpt>
      <trkpt lat="44.45703" lon="4.33321">
        <ele>122.9</ele>
        <time>2020-07-21T07:43:43Z</time>
      </trkpt>
      <trkpt lat="44.45716" lon="4.33322">
        <ele>122.6</ele>
        <time>2020-07-21T07:43:41Z</time>
      </trkpt>
      <trkpt lat="44.45728" lon="4.33322">
        <ele>122.5</ele>
        <time>2020-07-21T07:43:39Z</time>
      </trkpt>
      <trkpt lat="44.45741" lon="4.33322">
        <ele>122.4</ele>
        <time>2020-07-21T07:43:37Z</time>
      </trkpt>
      <trkpt lat="44.45747" lon="4.33322">
        <ele>122.4</ele>
        <time>2020-07-21T07:43:36Z</time>
      </trkpt>
      <trkpt lat="44.45759" lon="4.33322">
        <ele>122.4</ele>
        <time>2020-07-21T07:43:34Z</time>
      </trkpt>
      <trkpt lat="44.45771" lon="4.33322">
        <ele>122.6</ele>
        <time>2020-07-21T07:43:32Z</time>
      </trkpt>
      <trkpt lat="44.45778" lon="4.33322">
        <ele>122.6</ele>
        <time>2020-07-21T07:43:31Z</time>
      </trkpt>
      <trkpt lat="44.45784" lon="4.33323">
        <ele>122.7</ele>
        <time>2020-07-21T07:43:30Z</time>
      </trkpt>
      <trkpt lat="44.4579" lon="4.33323">
        <ele>122.8</ele>
        <time>2020-07-21T07:43:29Z</time>
      </trkpt>
      <trkpt lat="44.45802" lon="4.33323">
        <ele>122.9</ele>
        <time>2020-07-21T07:43:27Z</time>
      </trkpt>
      <trkpt lat="44.45809" lon="4.33323">
        <ele>123</ele>
        <time>2020-07-21T07:43:26Z</time>
      </trkpt>
      <trkpt lat="44.45821" lon="4.33323">
        <ele>123.2</ele>
        <time>2020-07-21T07:43:24Z</time>
      </trkpt>
      <trkpt lat="44.45827" lon="4.33323">
        <ele>123.2</ele>
        <time>2020-07-21T07:43:23Z</time>
      </trkpt>
      <trkpt lat="44.45833" lon="4.33323">
        <ele>123.3</ele>
        <time>2020-07-21T07:43:22Z</time>
      </trkpt>
      <trkpt lat="44.45846" lon="4.33323">
        <ele>123.4</ele>
        <time>2020-07-21T07:43:20Z</time>
      </trkpt>
      <trkpt lat="44.45852" lon="4.33323">
        <ele>123.5</ele>
        <time>2020-07-21T07:43:19Z</time>
      </trkpt>
      <trkpt lat="44.45864" lon="4.33322">
        <ele>123.5</ele>
        <time>2020-07-21T07:43:17Z</time>
      </trkpt>
      <trkpt lat="44.45876" lon="4.33321">
        <ele>123.6</ele>
        <time>2020-07-21T07:43:15Z</time>
      </trkpt>
      <trkpt lat="44.45883" lon="4.33321">
        <ele>123.7</ele>
        <time>2020-07-21T07:43:14Z</time>
      </trkpt>
      <trkpt lat="44.45897" lon="4.33319">
        <ele>123.8</ele>
        <time>2020-07-21T07:43:12Z</time>
      </trkpt>
      <trkpt lat="44.45912" lon="4.33316">
        <ele>123.9</ele>
        <time>2020-07-21T07:43:10Z</time>
      </trkpt>
      <trkpt lat="44.45919" lon="4.33315">
        <ele>124</ele>
        <time>2020-07-21T07:43:09Z</time>
      </trkpt>
      <trkpt lat="44.45934" lon="4.33312">
        <ele>124.1</ele>
        <time>2020-07-21T07:43:07Z</time>
      </trkpt>
      <trkpt lat="44.45942" lon="4.33311">
        <ele>124.1</ele>
        <time>2020-07-21T07:43:06Z</time>
      </trkpt>
      <trkpt lat="44.45949" lon="4.3331">
        <ele>124.2</ele>
        <time>2020-07-21T07:43:05Z</time>
      </trkpt>
      <trkpt lat="44.45964" lon="4.33308">
        <ele>124.1</ele>
        <time>2020-07-21T07:43:03Z</time>
      </trkpt>
      <trkpt lat="44.45971" lon="4.33307">
        <ele>124.2</ele>
        <time>2020-07-21T07:43:02Z</time>
      </trkpt>
      <trkpt lat="44.45987" lon="4.33305">
        <ele>124.3</ele>
        <time>2020-07-21T07:43:00Z</time>
      </trkpt>
      <trkpt lat="44.46002" lon="4.33304">
        <ele>124.4</ele>
        <time>2020-07-21T07:42:58Z</time>
      </trkpt>
      <trkpt lat="44.46016" lon="4.33302">
        <ele>124.4</ele>
        <time>2020-07-21T07:42:56Z</time>
      </trkpt>
      <trkpt lat="44.46024" lon="4.33301">
        <ele>124.5</ele>
        <time>2020-07-21T07:42:55Z</time>
      </trkpt>
      <trkpt lat="44.46037" lon="4.333">
        <ele>124.6</ele>
        <time>2020-07-21T07:42:53Z</time>
      </trkpt>
      <trkpt lat="44.46052" lon="4.333">
        <ele>124.8</ele>
        <time>2020-07-21T07:42:51Z</time>
      </trkpt>
      <trkpt lat="44.46066" lon="4.33299">
        <ele>125</ele>
        <time>2020-07-21T07:42:49Z</time>
      </trkpt>
      <trkpt lat="44.4608" lon="4.33299">
        <ele>125.2</ele>
        <time>2020-07-21T07:42:47Z</time>
      </trkpt>
      <trkpt lat="44.46088" lon="4.33299">
        <ele>125.3</ele>
        <time>2020-07-21T07:42:46Z</time>
      </trkpt>
      <trkpt lat="44.46096" lon="4.33299">
        <ele>125.3</ele>
        <time>2020-07-21T07:42:45Z</time>
      </trkpt>
      <trkpt lat="44.4611" lon="4.33298">
        <ele>125.4</ele>
        <time>2020-07-21T07:42:43Z</time>
      </trkpt>
      <trkpt lat="44.46123" lon="4.33297">
        <ele>125.5</ele>
        <time>2020-07-21T07:42:41Z</time>
      </trkpt>
      <trkpt lat="44.46136" lon="4.33294">
        <ele>125.7</ele>
        <time>2020-07-21T07:42:39Z</time>
      </trkpt>
      <trkpt lat="44.46143" lon="4.33291">
        <ele>125.7</ele>
        <time>2020-07-21T07:42:38Z</time>
      </trkpt>
      <trkpt lat="44.46157" lon="4.33287">
        <ele>125.9</ele>
        <time>2020-07-21T07:42:36Z</time>
      </trkpt>
      <trkpt lat="44.46164" lon="4.33285">
        <ele>126</ele>
        <time>2020-07-21T07:42:35Z</time>
      </trkpt>
      <trkpt lat="44.46178" lon="4.33281">
        <ele>126.2</ele>
        <time>2020-07-21T07:42:33Z</time>
      </trkpt>
      <trkpt lat="44.46185" lon="4.33279">
        <ele>126.3</ele>
        <time>2020-07-21T07:42:32Z</time>
      </trkpt>
      <trkpt lat="44.46193" lon="4.33277">
        <ele>126.4</ele>
        <time>2020-07-21T07:42:31Z</time>
      </trkpt>
      <trkpt lat="44.46206" lon="4.33274">
        <ele>126.6</ele>
        <time>2020-07-21T07:42:29Z</time>
      </trkpt>
      <trkpt lat="44.46213" lon="4.33272">
        <ele>126.7</ele>
        <time>2020-07-21T07:42:28Z</time>
      </trkpt>
      <trkpt lat="44.46221" lon="4.33268">
        <ele>126.9</ele>
        <time>2020-07-21T07:42:27Z</time>
      </trkpt>
      <trkpt lat="44.46236" lon="4.33259">
        <ele>127.4</ele>
        <time>2020-07-21T07:42:25Z</time>
      </trkpt>
      <trkpt lat="44.46251" lon="4.33254">
        <ele>127.9</ele>
        <time>2020-07-21T07:42:23Z</time>
      </trkpt>
      <trkpt lat="44.46265" lon="4.33252">
        <ele>128.1</ele>
        <time>2020-07-21T07:42:21Z</time>
      </trkpt>
      <trkpt lat="44.46277" lon="4.33253">
        <ele>128.4</ele>
        <time>2020-07-21T07:42:19Z</time>
      </trkpt>
      <trkpt lat="44.4629" lon="4.33262">
        <ele>128.7</ele>
        <time>2020-07-21T07:42:17Z</time>
      </trkpt>
      <trkpt lat="44.46302" lon="4.33275">
        <ele>128.7</ele>
        <time>2020-07-21T07:42:15Z</time>
      </trkpt>
      <trkpt lat="44.46308" lon="4.33282">
        <ele>128.7</ele>
        <time>2020-07-21T07:42:14Z</time>
      </trkpt>
      <trkpt lat="44.46317" lon="4.33295">
        <ele>128.6</ele>
        <time>2020-07-21T07:42:12Z</time>
      </trkpt>
      <trkpt lat="44.46667" lon="4.33269">
        <ele>132.5</ele>
        <time>2020-07-21T07:41:34Z</time>
      </trkpt>
      <trkpt lat="44.4668" lon="4.33271">
        <ele>132.6</ele>
        <time>2020-07-21T07:41:32Z</time>
      </trkpt>
      <trkpt lat="44.46686" lon="4.33273">
        <ele>132.7</ele>
        <time>2020-07-21T07:41:31Z</time>
      </trkpt>
      <trkpt lat="44.46699" lon="4.33275">
        <ele>132.7</ele>
        <time>2020-07-21T07:41:29Z</time>
      </trkpt>
      <trkpt lat="44.46713" lon="4.33278">
        <ele>132.9</ele>
        <time>2020-07-21T07:41:27Z</time>
      </trkpt>
      <trkpt lat="44.46719" lon="4.3328">
        <ele>133</ele>
        <time>2020-07-21T07:41:26Z</time>
      </trkpt>
      <trkpt lat="44.46732" lon="4.33285">
        <ele>133.2</ele>
        <time>2020-07-21T07:41:24Z</time>
      </trkpt>
      <trkpt lat="44.46739" lon="4.33289">
        <ele>133.4</ele>
        <time>2020-07-21T07:41:23Z</time>
      </trkpt>
      <trkpt lat="44.46752" lon="4.33296">
        <ele>133.7</ele>
        <time>2020-07-21T07:41:21Z</time>
      </trkpt>
      <trkpt lat="44.46758" lon="4.33299">
        <ele>133.7</ele>
        <time>2020-07-21T07:41:20Z</time>
      </trkpt>
      <trkpt lat="44.46764" lon="4.33303">
        <ele>133.8</ele>
        <time>2020-07-21T07:41:19Z</time>
      </trkpt>
      <trkpt lat="44.46773" lon="4.33308">
        <ele>134</ele>
        <time>2020-07-21T07:41:17Z</time>
      </trkpt>
      <trkpt lat="44.46774" lon="4.33308">
        <ele>134</ele>
        <time>2020-07-21T07:41:16Z</time>
      </trkpt>
      <trkpt lat="44.46778" lon="4.33309">
        <ele>134</ele>
        <time>2020-07-21T07:41:14Z</time>
      </trkpt>
      <trkpt lat="44.46779" lon="4.3331">
        <ele>134.1</ele>
        <time>2020-07-21T07:41:13Z</time>
      </trkpt>
      <trkpt lat="44.46779" lon="4.33311">
        <ele>134.1</ele>
        <time>2020-07-21T07:41:12Z</time>
      </trkpt>
      <trkpt lat="44.4678" lon="4.33311">
        <ele>134.1</ele>
        <time>2020-07-21T07:41:10Z</time>
      </trkpt>
      <trkpt lat="44.46781" lon="4.33312">
        <ele>134.1</ele>
        <time>2020-07-21T07:41:09Z</time>
      </trkpt>
      <trkpt lat="44.46782" lon="4.33313">
        <ele>134.1</ele>
        <time>2020-07-21T07:41:08Z</time>
      </trkpt>
      <trkpt lat="44.46783" lon="4.33313">
        <ele>134.1</ele>
        <time>2020-07-21T07:41:07Z</time>
      </trkpt>
      <trkpt lat="44.46784" lon="4.33314">
        <ele>134.1</ele>
        <time>2020-07-21T07:41:05Z</time>
      </trkpt>
      <trkpt lat="44.46785" lon="4.33314">
        <ele>134.1</ele>
        <time>2020-07-21T07:41:02Z</time>
      </trkpt>
      <trkpt lat="44.46786" lon="4.33314">
        <ele>134.1</ele>
        <time>2020-07-21T07:41:00Z</time>
      </trkpt>
      <trkpt lat="44.46792" lon="4.33316">
        <ele>134.1</ele>
        <time>2020-07-21T07:40:58Z</time>
      </trkpt>
      <trkpt lat="44.46798" lon="4.33319">
        <ele>134.1</ele>
        <time>2020-07-21T07:40:56Z</time>
      </trkpt>
      <trkpt lat="44.46805" lon="4.33322">
        <ele>134.1</ele>
        <time>2020-07-21T07:40:54Z</time>
      </trkpt>
      <trkpt lat="44.4681" lon="4.33323">
        <ele>134.2</ele>
        <time>2020-07-21T07:40:53Z</time>
      </trkpt>
      <trkpt lat="44.46818" lon="4.33324">
        <ele>134.2</ele>
        <time>2020-07-21T07:40:51Z</time>
      </trkpt>
      <trkpt lat="44.46822" lon="4.33326">
        <ele>134.2</ele>
        <time>2020-07-21T07:40:50Z</time>
      </trkpt>
      <trkpt lat="44.46827" lon="4.33328">
        <ele>134.3</ele>
        <time>2020-07-21T07:40:49Z</time>
      </trkpt>
      <trkpt lat="44.46837" lon="4.33332">
        <ele>134.3</ele>
        <time>2020-07-21T07:40:47Z</time>
      </trkpt>
      <trkpt lat="44.46842" lon="4.33335">
        <ele>134.4</ele>
        <time>2020-07-21T07:40:46Z</time>
      </trkpt>
      <trkpt lat="44.46848" lon="4.33338">
        <ele>134.5</ele>
        <time>2020-07-21T07:40:45Z</time>
      </trkpt>
      <trkpt lat="44.46854" lon="4.33342">
        <ele>134.5</ele>
        <time>2020-07-21T07:40:44Z</time>
      </trkpt>
      <trkpt lat="44.46861" lon="4.33345">
        <ele>134.6</ele>
        <time>2020-07-21T07:40:43Z</time>
      </trkpt>
      <trkpt lat="44.46874" lon="4.33351">
        <ele>134.7</ele>
        <time>2020-07-21T07:40:41Z</time>
      </trkpt>
      <trkpt lat="44.46889" lon="4.33356">
        <ele>134.8</ele>
        <time>2020-07-21T07:40:39Z</time>
      </trkpt>
      <trkpt lat="44.46896" lon="4.33358">
        <ele>134.9</ele>
        <time>2020-07-21T07:40:38Z</time>
      </trkpt>
      <trkpt lat="44.46903" lon="4.3336">
        <ele>134.9</ele>
        <time>2020-07-21T07:40:37Z</time>
      </trkpt>
      <trkpt lat="44.4691" lon="4.33361">
        <ele>135</ele>
        <time>2020-07-21T07:40:36Z</time>
      </trkpt>
      <trkpt lat="44.46924" lon="4.33365">
        <ele>135.1</ele>
        <time>2020-07-21T07:40:34Z</time>
      </trkpt>
      <trkpt lat="44.46939" lon="4.33369">
        <ele>135.2</ele>
        <time>2020-07-21T07:40:32Z</time>
      </trkpt>
      <trkpt lat="44.46955" lon="4.33374">
        <ele>135.3</ele>
        <time>2020-07-21T07:40:30Z</time>
      </trkpt>
      <trkpt lat="44.4697" lon="4.33381">
        <ele>135.4</ele>
        <time>2020-07-21T07:40:28Z</time>
      </trkpt>
      <trkpt lat="44.46985" lon="4.33389">
        <ele>135.5</ele>
        <time>2020-07-21T07:40:26Z</time>
      </trkpt>
      <trkpt lat="44.46992" lon="4.33393">
        <ele>135.6</ele>
        <time>2020-07-21T07:40:25Z</time>
      </trkpt>
      <trkpt lat="44.47006" lon="4.33401">
        <ele>135.7</ele>
        <time>2020-07-21T07:40:23Z</time>
      </trkpt>
      <trkpt lat="44.47019" lon="4.33407">
        <ele>135.9</ele>
        <time>2020-07-21T07:40:21Z</time>
      </trkpt>
      <trkpt lat="44.47035" lon="4.33409">
        <ele>136.1</ele>
        <time>2020-07-21T07:40:19Z</time>
      </trkpt>
      <trkpt lat="44.47043" lon="4.33409">
        <ele>136.2</ele>
        <time>2020-07-21T07:40:18Z</time>
      </trkpt>
      <trkpt lat="44.47061" lon="4.33409">
        <ele>136.4</ele>
        <time>2020-07-21T07:40:16Z</time>
      </trkpt>
      <trkpt lat="44.4707" lon="4.33408">
        <ele>136.6</ele>
        <time>2020-07-21T07:40:15Z</time>
      </trkpt>
      <trkpt lat="44.4708" lon="4.33407">
        <ele>136.7</ele>
        <time>2020-07-21T07:40:14Z</time>
      </trkpt>
      <trkpt lat="44.4709" lon="4.33405">
        <ele>136.7</ele>
        <time>2020-07-21T07:40:13Z</time>
      </trkpt>
      <trkpt lat="44.47111" lon="4.33396">
        <ele>136.8</ele>
        <time>2020-07-21T07:40:11Z</time>
      </trkpt>
      <trkpt lat="44.47123" lon="4.3339">
        <ele>136.9</ele>
        <time>2020-07-21T07:40:10Z</time>
      </trkpt>
      <trkpt lat="44.47145" lon="4.33385">
        <ele>137.1</ele>
        <time>2020-07-21T07:40:08Z</time>
      </trkpt>
      <trkpt lat="44.47164" lon="4.33387">
        <ele>137.2</ele>
        <time>2020-07-21T07:40:06Z</time>
      </trkpt>
      <trkpt lat="44.47173" lon="4.33389">
        <ele>137.3</ele>
        <time>2020-07-21T07:40:05Z</time>
      </trkpt>
      <trkpt lat="44.4719" lon="4.33394">
        <ele>137.5</ele>
        <time>2020-07-21T07:40:03Z</time>
      </trkpt>
      <trkpt lat="44.47198" lon="4.33398">
        <ele>137.5</ele>
        <time>2020-07-21T07:40:02Z</time>
      </trkpt>
      <trkpt lat="44.47207" lon="4.33401">
        <ele>137.6</ele>
        <time>2020-07-21T07:40:01Z</time>
      </trkpt>
      <trkpt lat="44.47223" lon="4.33409">
        <ele>137.7</ele>
        <time>2020-07-21T07:39:59Z</time>
      </trkpt>
      <trkpt lat="44.47232" lon="4.33414">
        <ele>137.8</ele>
        <time>2020-07-21T07:39:58Z</time>
      </trkpt>
      <trkpt lat="44.47247" lon="4.33426">
        <ele>137.9</ele>
        <time>2020-07-21T07:39:56Z</time>
      </trkpt>
      <trkpt lat="44.47262" lon="4.3344">
        <ele>138.1</ele>
        <time>2020-07-21T07:39:54Z</time>
      </trkpt>
      <trkpt lat="44.47277" lon="4.33456">
        <ele>138.3</ele>
        <time>2020-07-21T07:39:52Z</time>
      </trkpt>
      <trkpt lat="44.47293" lon="4.33472">
        <ele>138.4</ele>
        <time>2020-07-21T07:39:50Z</time>
      </trkpt>
      <trkpt lat="44.47309" lon="4.33488">
        <ele>138.6</ele>
        <time>2020-07-21T07:39:48Z</time>
      </trkpt>
      <trkpt lat="44.47317" lon="4.33497">
        <ele>138.6</ele>
        <time>2020-07-21T07:39:47Z</time>
      </trkpt>
      <trkpt lat="44.47325" lon="4.33505">
        <ele>138.7</ele>
        <time>2020-07-21T07:39:46Z</time>
      </trkpt>
      <trkpt lat="44.47341" lon="4.33524">
        <ele>138.8</ele>
        <time>2020-07-21T07:39:44Z</time>
      </trkpt>
      <trkpt lat="44.4735" lon="4.33533">
        <ele>138.8</ele>
        <time>2020-07-21T07:39:43Z</time>
      </trkpt>
      <trkpt lat="44.47367" lon="4.33552">
        <ele>139</ele>
        <time>2020-07-21T07:39:41Z</time>
      </trkpt>
      <trkpt lat="44.47375" lon="4.33561">
        <ele>139.1</ele>
        <time>2020-07-21T07:39:40Z</time>
      </trkpt>
      <trkpt lat="44.47393" lon="4.33574">
        <ele>139.3</ele>
        <time>2020-07-21T07:39:38Z</time>
      </trkpt>
      <trkpt lat="44.47403" lon="4.33582">
        <ele>139.5</ele>
        <time>2020-07-21T07:39:37Z</time>
      </trkpt>
      <trkpt lat="44.47412" lon="4.3359">
        <ele>139.6</ele>
        <time>2020-07-21T07:39:36Z</time>
      </trkpt>
      <trkpt lat="44.4743" lon="4.33605">
        <ele>139.8</ele>
        <time>2020-07-21T07:39:34Z</time>
      </trkpt>
      <trkpt lat="44.4744" lon="4.33613">
        <ele>139.9</ele>
        <time>2020-07-21T07:39:33Z</time>
      </trkpt>
      <trkpt lat="44.47458" lon="4.33625">
        <ele>140.1</ele>
        <time>2020-07-21T07:39:31Z</time>
      </trkpt>
      <trkpt lat="44.47467" lon="4.33629">
        <ele>140.2</ele>
        <time>2020-07-21T07:39:30Z</time>
      </trkpt>
      <trkpt lat="44.47483" lon="4.33625">
        <ele>140.4</ele>
        <time>2020-07-21T07:39:28Z</time>
      </trkpt>
      <trkpt lat="44.47491" lon="4.3362">
        <ele>140.5</ele>
        <time>2020-07-21T07:39:27Z</time>
      </trkpt>
      <trkpt lat="44.47499" lon="4.33614">
        <ele>140.7</ele>
        <time>2020-07-21T07:39:26Z</time>
      </trkpt>
      <trkpt lat="44.47507" lon="4.33607">
        <ele>140.7</ele>
        <time>2020-07-21T07:39:25Z</time>
      </trkpt>
      <trkpt lat="44.47524" lon="4.33593">
        <ele>140.8</ele>
        <time>2020-07-21T07:39:23Z</time>
      </trkpt>
      <trkpt lat="44.47533" lon="4.33585">
        <ele>141</ele>
        <time>2020-07-21T07:39:22Z</time>
      </trkpt>
      <trkpt lat="44.47549" lon="4.3357">
        <ele>141.4</ele>
        <time>2020-07-21T07:39:20Z</time>
      </trkpt>
      <trkpt lat="44.47558" lon="4.33561">
        <ele>141.6</ele>
        <time>2020-07-21T07:39:19Z</time>
      </trkpt>
      <trkpt lat="44.47566" lon="4.33553">
        <ele>141.8</ele>
        <time>2020-07-21T07:39:18Z</time>
      </trkpt>
      <trkpt lat="44.47583" lon="4.33538">
        <ele>142</ele>
        <time>2020-07-21T07:39:16Z</time>
      </trkpt>
      <trkpt lat="44.47592" lon="4.33531">
        <ele>142.1</ele>
        <time>2020-07-21T07:39:15Z</time>
      </trkpt>
      <trkpt lat="44.4761" lon="4.33515">
        <ele>142.3</ele>
        <time>2020-07-21T07:39:13Z</time>
      </trkpt>
      <trkpt lat="44.47619" lon="4.33507">
        <ele>142.5</ele>
        <time>2020-07-21T07:39:12Z</time>
      </trkpt>
      <trkpt lat="44.47627" lon="4.33499">
        <ele>142.7</ele>
        <time>2020-07-21T07:39:11Z</time>
      </trkpt>
      <trkpt lat="44.47636" lon="4.33491">
        <ele>142.9</ele>
        <time>2020-07-21T07:39:10Z</time>
      </trkpt>
      <trkpt lat="44.47652" lon="4.33472">
        <ele>143.3</ele>
        <time>2020-07-21T07:39:08Z</time>
      </trkpt>
      <trkpt lat="44.47667" lon="4.33451">
        <ele>143.6</ele>
        <time>2020-07-21T07:39:06Z</time>
      </trkpt>
      <trkpt lat="44.4768" lon="4.33429">
        <ele>144</ele>
        <time>2020-07-21T07:39:04Z</time>
      </trkpt>
      <trkpt lat="44.47693" lon="4.33407">
        <ele>144.3</ele>
        <time>2020-07-21T07:39:02Z</time>
      </trkpt>
      <trkpt lat="44.477" lon="4.33395">
        <ele>144.4</ele>
        <time>2020-07-21T07:39:01Z</time>
      </trkpt>
      <trkpt lat="44.47714" lon="4.33376">
        <ele>144.8</ele>
        <time>2020-07-21T07:38:59Z</time>
      </trkpt>
      <trkpt lat="44.47721" lon="4.33366">
        <ele>144.9</ele>
        <time>2020-07-21T07:38:58Z</time>
      </trkpt>
      <trkpt lat="44.47737" lon="4.33349">
        <ele>145.2</ele>
        <time>2020-07-21T07:38:56Z</time>
      </trkpt>
      <trkpt lat="44.47745" lon="4.3334">
        <ele>145.3</ele>
        <time>2020-07-21T07:38:55Z</time>
      </trkpt>
      <trkpt lat="44.4776" lon="4.3332">
        <ele>145.7</ele>
        <time>2020-07-21T07:38:53Z</time>
      </trkpt>
      <trkpt lat="44.47773" lon="4.33299">
        <ele>146</ele>
        <time>2020-07-21T07:38:51Z</time>
      </trkpt>
      <trkpt lat="44.4778" lon="4.33288">
        <ele>146.1</ele>
        <time>2020-07-21T07:38:50Z</time>
      </trkpt>
      <trkpt lat="44.47786" lon="4.33277">
        <ele>146.2</ele>
        <time>2020-07-21T07:38:49Z</time>
      </trkpt>
      <trkpt lat="44.47797" lon="4.33253">
        <ele>146.6</ele>
        <time>2020-07-21T07:38:47Z</time>
      </trkpt>
      <trkpt lat="44.47803" lon="4.3324">
        <ele>146.7</ele>
        <time>2020-07-21T07:38:46Z</time>
      </trkpt>
      <trkpt lat="44.47813" lon="4.33216">
        <ele>147</ele>
        <time>2020-07-21T07:38:44Z</time>
      </trkpt>
      <trkpt lat="44.47819" lon="4.33203">
        <ele>147.2</ele>
        <time>2020-07-21T07:38:43Z</time>
      </trkpt>
      <trkpt lat="44.4783" lon="4.3318">
        <ele>147.6</ele>
        <time>2020-07-21T07:38:41Z</time>
      </trkpt>
      <trkpt lat="44.47836" lon="4.33168">
        <ele>147.7</ele>
        <time>2020-07-21T07:38:40Z</time>
      </trkpt>
      <trkpt lat="44.47843" lon="4.33157">
        <ele>147.9</ele>
        <time>2020-07-21T07:38:39Z</time>
      </trkpt>
      <trkpt lat="44.4785" lon="4.33147">
        <ele>148</ele>
        <time>2020-07-21T07:38:38Z</time>
      </trkpt>
      <trkpt lat="44.47865" lon="4.33128">
        <ele>148.4</ele>
        <time>2020-07-21T07:38:36Z</time>
      </trkpt>
      <trkpt lat="44.47874" lon="4.33119">
        <ele>148.6</ele>
        <time>2020-07-21T07:38:35Z</time>
      </trkpt>
      <trkpt lat="44.4789" lon="4.33102">
        <ele>148.9</ele>
        <time>2020-07-21T07:38:33Z</time>
      </trkpt>
      <trkpt lat="44.47908" lon="4.33086">
        <ele>149.3</ele>
        <time>2020-07-21T07:38:31Z</time>
      </trkpt>
      <trkpt lat="44.47925" lon="4.3307">
        <ele>149.6</ele>
        <time>2020-07-21T07:38:29Z</time>
      </trkpt>
      <trkpt lat="44.47943" lon="4.33054">
        <ele>149.8</ele>
        <time>2020-07-21T07:38:27Z</time>
      </trkpt>
      <trkpt lat="44.47962" lon="4.33039">
        <ele>150.2</ele>
        <time>2020-07-21T07:38:25Z</time>
      </trkpt>
      <trkpt lat="44.4798" lon="4.33026">
        <ele>150.6</ele>
        <time>2020-07-21T07:38:23Z</time>
      </trkpt>
      <trkpt lat="44.47998" lon="4.33013">
        <ele>150.9</ele>
        <time>2020-07-21T07:38:21Z</time>
      </trkpt>
      <trkpt lat="44.48015" lon="4.32996">
        <ele>151.4</ele>
        <time>2020-07-21T07:38:19Z</time>
      </trkpt>
      <trkpt lat="44.48029" lon="4.32976">
        <ele>151.8</ele>
        <time>2020-07-21T07:38:17Z</time>
      </trkpt>
      <trkpt lat="44.48043" lon="4.32954">
        <ele>152.2</ele>
        <time>2020-07-21T07:38:15Z</time>
      </trkpt>
      <trkpt lat="44.48048" lon="4.32942">
        <ele>152.4</ele>
        <time>2020-07-21T07:38:14Z</time>
      </trkpt>
      <trkpt lat="44.48053" lon="4.32929">
        <ele>152.6</ele>
        <time>2020-07-21T07:38:13Z</time>
      </trkpt>
      <trkpt lat="44.48059" lon="4.32902">
        <ele>153</ele>
        <time>2020-07-21T07:38:11Z</time>
      </trkpt>
      <trkpt lat="44.48064" lon="4.32875">
        <ele>153.2</ele>
        <time>2020-07-21T07:38:09Z</time>
      </trkpt>
      <trkpt lat="44.48064" lon="4.32848">
        <ele>153.5</ele>
        <time>2020-07-21T07:38:07Z</time>
      </trkpt>
      <trkpt lat="44.48063" lon="4.32834">
        <ele>153.6</ele>
        <time>2020-07-21T07:38:06Z</time>
      </trkpt>
      <trkpt lat="44.48061" lon="4.32807">
        <ele>154</ele>
        <time>2020-07-21T07:38:04Z</time>
      </trkpt>
      <trkpt lat="44.48064" lon="4.32785">
        <ele>154.3</ele>
        <time>2020-07-21T07:38:02Z</time>
      </trkpt>
      <trkpt lat="44.48077" lon="4.32773">
        <ele>154.6</ele>
        <time>2020-07-21T07:38:00Z</time>
      </trkpt>
      <trkpt lat="44.48086" lon="4.32771">
        <ele>154.7</ele>
        <time>2020-07-21T07:37:59Z</time>
      </trkpt>
      <trkpt lat="44.48096" lon="4.32772">
        <ele>154.9</ele>
        <time>2020-07-21T07:37:58Z</time>
      </trkpt>
      <trkpt lat="44.48106" lon="4.32774">
        <ele>155</ele>
        <time>2020-07-21T07:37:57Z</time>
      </trkpt>
      <trkpt lat="44.48122" lon="4.32776">
        <ele>155.2</ele>
        <time>2020-07-21T07:37:55Z</time>
      </trkpt>
      <trkpt lat="44.48139" lon="4.32767">
        <ele>155.5</ele>
        <time>2020-07-21T07:37:53Z</time>
      </trkpt>
      <trkpt lat="44.48148" lon="4.3276">
        <ele>155.7</ele>
        <time>2020-07-21T07:37:52Z</time>
      </trkpt>
      <trkpt lat="44.48157" lon="4.32751">
        <ele>155.9</ele>
        <time>2020-07-21T07:37:51Z</time>
      </trkpt>
      <trkpt lat="44.48174" lon="4.32734">
        <ele>156.2</ele>
        <time>2020-07-21T07:37:49Z</time>
      </trkpt>
      <trkpt lat="44.48191" lon="4.32715">
        <ele>156.5</ele>
        <time>2020-07-21T07:37:47Z</time>
      </trkpt>
      <trkpt lat="44.482" lon="4.32706">
        <ele>156.7</ele>
        <time>2020-07-21T07:37:46Z</time>
      </trkpt>
      <trkpt lat="44.48209" lon="4.32698">
        <ele>156.9</ele>
        <time>2020-07-21T07:37:45Z</time>
      </trkpt>
      <trkpt lat="44.48217" lon="4.32689">
        <ele>157</ele>
        <time>2020-07-21T07:37:44Z</time>
      </trkpt>
      <trkpt lat="44.48235" lon="4.3267">
        <ele>157.4</ele>
        <time>2020-07-21T07:37:42Z</time>
      </trkpt>
      <trkpt lat="44.48253" lon="4.32652">
        <ele>157.8</ele>
        <time>2020-07-21T07:37:40Z</time>
      </trkpt>
      <trkpt lat="44.48271" lon="4.32634">
        <ele>158.2</ele>
        <time>2020-07-21T07:37:38Z</time>
      </trkpt>
      <trkpt lat="44.48281" lon="4.32626">
        <ele>158.4</ele>
        <time>2020-07-21T07:37:37Z</time>
      </trkpt>
      <trkpt lat="44.48291" lon="4.32619">
        <ele>158.6</ele>
        <time>2020-07-21T07:37:36Z</time>
      </trkpt>
      <trkpt lat="44.48301" lon="4.32613">
        <ele>158.7</ele>
        <time>2020-07-21T07:37:35Z</time>
      </trkpt>
      <trkpt lat="44.48322" lon="4.32605">
        <ele>159.1</ele>
        <time>2020-07-21T07:37:33Z</time>
      </trkpt>
      <trkpt lat="44.48343" lon="4.32599">
        <ele>159.6</ele>
        <time>2020-07-21T07:37:31Z</time>
      </trkpt>
      <trkpt lat="44.48366" lon="4.32589">
        <ele>160.1</ele>
        <time>2020-07-21T07:37:29Z</time>
      </trkpt>
      <trkpt lat="44.48377" lon="4.32583">
        <ele>160.3</ele>
        <time>2020-07-21T07:37:28Z</time>
      </trkpt>
      <trkpt lat="44.48396" lon="4.32578">
        <ele>160.7</ele>
        <time>2020-07-21T07:37:26Z</time>
      </trkpt>
      <trkpt lat="44.48413" lon="4.32586">
        <ele>161</ele>
        <time>2020-07-21T07:37:24Z</time>
      </trkpt>
      <trkpt lat="44.48428" lon="4.32605">
        <ele>161.4</ele>
        <time>2020-07-21T07:37:22Z</time>
      </trkpt>
      <trkpt lat="44.48433" lon="4.32616">
        <ele>161.5</ele>
        <time>2020-07-21T07:37:21Z</time>
      </trkpt>
      <trkpt lat="44.48442" lon="4.32642">
        <ele>161.8</ele>
        <time>2020-07-21T07:37:19Z</time>
      </trkpt>
      <trkpt lat="44.48446" lon="4.32657">
        <ele>161.9</ele>
        <time>2020-07-21T07:37:18Z</time>
      </trkpt>
      <trkpt lat="44.4845" lon="4.32672">
        <ele>162.1</ele>
        <time>2020-07-21T07:37:17Z</time>
      </trkpt>
      <trkpt lat="44.48458" lon="4.32706">
        <ele>162.4</ele>
        <time>2020-07-21T07:37:15Z</time>
      </trkpt>
      <trkpt lat="44.4847" lon="4.32741">
        <ele>162.9</ele>
        <time>2020-07-21T07:37:13Z</time>
      </trkpt>
      <trkpt lat="44.48488" lon="4.32767">
        <ele>163.5</ele>
        <time>2020-07-21T07:37:11Z</time>
      </trkpt>
      <trkpt lat="44.48498" lon="4.32772">
        <ele>163.7</ele>
        <time>2020-07-21T07:37:10Z</time>
      </trkpt>
      <trkpt lat="44.48518" lon="4.3277">
        <ele>163.7</ele>
        <time>2020-07-21T07:37:08Z</time>
      </trkpt>
      <trkpt lat="44.48527" lon="4.32765">
        <ele>163.4</ele>
        <time>2020-07-21T07:37:07Z</time>
      </trkpt>
      <trkpt lat="44.48536" lon="4.32758">
        <ele>163.6</ele>
        <time>2020-07-21T07:37:06Z</time>
      </trkpt>
      <trkpt lat="44.48554" lon="4.32743">
        <ele>163.8</ele>
        <time>2020-07-21T07:37:04Z</time>
      </trkpt>
      <trkpt lat="44.48563" lon="4.32735">
        <ele>163.9</ele>
        <time>2020-07-21T07:37:03Z</time>
      </trkpt>
      <trkpt lat="44.48582" lon="4.3272">
        <ele>164.1</ele>
        <time>2020-07-21T07:37:01Z</time>
      </trkpt>
      <trkpt lat="44.48591" lon="4.32713">
        <ele>164.3</ele>
        <time>2020-07-21T07:37:00Z</time>
      </trkpt>
      <trkpt lat="44.4861" lon="4.327">
        <ele>164.7</ele>
        <time>2020-07-21T07:36:58Z</time>
      </trkpt>
      <trkpt lat="44.48621" lon="4.32695">
        <ele>164.8</ele>
        <time>2020-07-21T07:36:57Z</time>
      </trkpt>
      <trkpt lat="44.48641" lon="4.32693">
        <ele>164.9</ele>
        <time>2020-07-21T07:36:55Z</time>
      </trkpt>
      <trkpt lat="44.48652" lon="4.32693">
        <ele>165</ele>
        <time>2020-07-21T07:36:54Z</time>
      </trkpt>
      <trkpt lat="44.48663" lon="4.32694">
        <ele>165.2</ele>
        <time>2020-07-21T07:36:53Z</time>
      </trkpt>
      <trkpt lat="44.48673" lon="4.32694">
        <ele>165.4</ele>
        <time>2020-07-21T07:36:52Z</time>
      </trkpt>
      <trkpt lat="44.48684" lon="4.3269">
        <ele>165.6</ele>
        <time>2020-07-21T07:36:51Z</time>
      </trkpt>
      <trkpt lat="44.48704" lon="4.3268">
        <ele>165.9</ele>
        <time>2020-07-21T07:36:49Z</time>
      </trkpt>
      <trkpt lat="44.48715" lon="4.32675">
        <ele>166.1</ele>
        <time>2020-07-21T07:36:48Z</time>
      </trkpt>
      <trkpt lat="44.48735" lon="4.32663">
        <ele>166.5</ele>
        <time>2020-07-21T07:36:46Z</time>
      </trkpt>
      <trkpt lat="44.48745" lon="4.32656">
        <ele>166.7</ele>
        <time>2020-07-21T07:36:45Z</time>
      </trkpt>
      <trkpt lat="44.48764" lon="4.32642">
        <ele>167</ele>
        <time>2020-07-21T07:36:43Z</time>
      </trkpt>
      <trkpt lat="44.4878" lon="4.32622">
        <ele>167.3</ele>
        <time>2020-07-21T07:36:41Z</time>
      </trkpt>
      <trkpt lat="44.48786" lon="4.32612">
        <ele>167.5</ele>
        <time>2020-07-21T07:36:40Z</time>
      </trkpt>
      <trkpt lat="44.48793" lon="4.32601">
        <ele>167.6</ele>
        <time>2020-07-21T07:36:39Z</time>
      </trkpt>
      <trkpt lat="44.48807" lon="4.32586">
        <ele>168</ele>
        <time>2020-07-21T07:36:37Z</time>
      </trkpt>
      <trkpt lat="44.48815" lon="4.32582">
        <ele>168.1</ele>
        <time>2020-07-21T07:36:36Z</time>
      </trkpt>
      <trkpt lat="44.48824" lon="4.3258">
        <ele>168.4</ele>
        <time>2020-07-21T07:36:35Z</time>
      </trkpt>
      <trkpt lat="44.48843" lon="4.32576">
        <ele>168.8</ele>
        <time>2020-07-21T07:36:33Z</time>
      </trkpt>
      <trkpt lat="44.4886" lon="4.32565">
        <ele>169</ele>
        <time>2020-07-21T07:36:31Z</time>
      </trkpt>
      <trkpt lat="44.48876" lon="4.32548">
        <ele>169.4</ele>
        <time>2020-07-21T07:36:29Z</time>
      </trkpt>
      <trkpt lat="44.4889" lon="4.32529">
        <ele>169.8</ele>
        <time>2020-07-21T07:36:27Z</time>
      </trkpt>
      <trkpt lat="44.48897" lon="4.3252">
        <ele>170</ele>
        <time>2020-07-21T07:36:26Z</time>
      </trkpt>
      <trkpt lat="44.48911" lon="4.32511">
        <ele>170.4</ele>
        <time>2020-07-21T07:36:24Z</time>
      </trkpt>
      <trkpt lat="44.48919" lon="4.3251">
        <ele>171.2</ele>
        <time>2020-07-21T07:36:23Z</time>
      </trkpt>
      <trkpt lat="44.48938" lon="4.32516">
        <ele>171.5</ele>
        <time>2020-07-21T07:36:21Z</time>
      </trkpt>
      <trkpt lat="44.48948" lon="4.32521">
        <ele>171.8</ele>
        <time>2020-07-21T07:36:20Z</time>
      </trkpt>
      <trkpt lat="44.48964" lon="4.32524">
        <ele>172.1</ele>
        <time>2020-07-21T07:36:18Z</time>
      </trkpt>
      <trkpt lat="44.48976" lon="4.32519">
        <ele>172.3</ele>
        <time>2020-07-21T07:36:16Z</time>
      </trkpt>
      <trkpt lat="44.48986" lon="4.32509">
        <ele>172.3</ele>
        <time>2020-07-21T07:36:14Z</time>
      </trkpt>
      <trkpt lat="44.4899" lon="4.32503">
        <ele>172.2</ele>
        <time>2020-07-21T07:36:13Z</time>
      </trkpt>
      <trkpt lat="44.49" lon="4.32489">
        <ele>172</ele>
        <time>2020-07-21T07:36:11Z</time>
      </trkpt>
      <trkpt lat="44.49004" lon="4.32482">
        <ele>171.9</ele>
        <time>2020-07-21T07:36:10Z</time>
      </trkpt>
      <trkpt lat="44.49008" lon="4.32474">
        <ele>171.8</ele>
        <time>2020-07-21T07:36:09Z</time>
      </trkpt>
      <trkpt lat="44.49013" lon="4.32457">
        <ele>171.6</ele>
        <time>2020-07-21T07:36:07Z</time>
      </trkpt>
      <trkpt lat="44.49015" lon="4.32441">
        <ele>171.4</ele>
        <time>2020-07-21T07:36:05Z</time>
      </trkpt>
      <trkpt lat="44.49016" lon="4.32424">
        <ele>171.2</ele>
        <time>2020-07-21T07:36:03Z</time>
      </trkpt>
      <trkpt lat="44.49017" lon="4.32414">
        <ele>171.1</ele>
        <time>2020-07-21T07:36:02Z</time>
      </trkpt>
      <trkpt lat="44.49017" lon="4.32405">
        <ele>171</ele>
        <time>2020-07-21T07:36:01Z</time>
      </trkpt>
      <trkpt lat="44.49019" lon="4.32385">
        <ele>170.9</ele>
        <time>2020-07-21T07:35:59Z</time>
      </trkpt>
      <trkpt lat="44.49022" lon="4.32365">
        <ele>170.8</ele>
        <time>2020-07-21T07:35:57Z</time>
      </trkpt>
      <trkpt lat="44.49023" lon="4.32354">
        <ele>170.7</ele>
        <time>2020-07-21T07:35:56Z</time>
      </trkpt>
      <trkpt lat="44.49025" lon="4.32334">
        <ele>170.5</ele>
        <time>2020-07-21T07:35:54Z</time>
      </trkpt>
      <trkpt lat="44.49026" lon="4.32315">
        <ele>170.3</ele>
        <time>2020-07-21T07:35:52Z</time>
      </trkpt>
      <trkpt lat="44.49026" lon="4.32305">
        <ele>170.3</ele>
        <time>2020-07-21T07:35:51Z</time>
      </trkpt>
      <trkpt lat="44.49027" lon="4.32296">
        <ele>170.2</ele>
        <time>2020-07-21T07:35:50Z</time>
      </trkpt>
      <trkpt lat="44.49028" lon="4.32277">
        <ele>170.1</ele>
        <time>2020-07-21T07:35:48Z</time>
      </trkpt>
      <trkpt lat="44.49029" lon="4.32259">
        <ele>170</ele>
        <time>2020-07-21T07:35:46Z</time>
      </trkpt>
      <trkpt lat="44.49029" lon="4.32249">
        <ele>170</ele>
        <time>2020-07-21T07:35:45Z</time>
      </trkpt>
      <trkpt lat="44.49029" lon="4.32239">
        <ele>169.9</ele>
        <time>2020-07-21T07:35:44Z</time>
      </trkpt>
      <trkpt lat="44.49028" lon="4.3223">
        <ele>169.8</ele>
        <time>2020-07-21T07:35:43Z</time>
      </trkpt>
      <trkpt lat="44.49026" lon="4.32211">
        <ele>169.6</ele>
        <time>2020-07-21T07:35:41Z</time>
      </trkpt>
      <trkpt lat="44.49021" lon="4.3219">
        <ele>169.4</ele>
        <time>2020-07-21T07:35:39Z</time>
      </trkpt>
      <trkpt lat="44.49018" lon="4.3218">
        <ele>169.3</ele>
        <time>2020-07-21T07:35:38Z</time>
      </trkpt>
      <trkpt lat="44.49014" lon="4.3217">
        <ele>169.2</ele>
        <time>2020-07-21T07:35:37Z</time>
      </trkpt>
      <trkpt lat="44.49005" lon="4.32151">
        <ele>169.3</ele>
        <time>2020-07-21T07:35:35Z</time>
      </trkpt>
      <trkpt lat="44.48998" lon="4.3213">
        <ele>169.4</ele>
        <time>2020-07-21T07:35:33Z</time>
      </trkpt>
      <trkpt lat="44.48996" lon="4.32108">
        <ele>169.3</ele>
        <time>2020-07-21T07:35:31Z</time>
      </trkpt>
      <trkpt lat="44.48997" lon="4.32098">
        <ele>169.3</ele>
        <time>2020-07-21T07:35:30Z</time>
      </trkpt>
      <trkpt lat="44.49" lon="4.32089">
        <ele>169.2</ele>
        <time>2020-07-21T07:35:29Z</time>
      </trkpt>
      <trkpt lat="44.49003" lon="4.32081">
        <ele>169.2</ele>
        <time>2020-07-21T07:35:28Z</time>
      </trkpt>
      <trkpt lat="44.49012" lon="4.32069">
        <ele>169</ele>
        <time>2020-07-21T07:35:26Z</time>
      </trkpt>
      <trkpt lat="44.49017" lon="4.32065">
        <ele>168.9</ele>
        <time>2020-07-21T07:35:25Z</time>
      </trkpt>
      <trkpt lat="44.49022" lon="4.32061">
        <ele>168.9</ele>
        <time>2020-07-21T07:35:24Z</time>
      </trkpt>
      <trkpt lat="44.49034" lon="4.32058">
        <ele>168.6</ele>
        <time>2020-07-21T07:35:22Z</time>
      </trkpt>
      <trkpt lat="44.4904" lon="4.32057">
        <ele>168.5</ele>
        <time>2020-07-21T07:35:21Z</time>
      </trkpt>
      <trkpt lat="44.49046" lon="4.32057">
        <ele>168.4</ele>
        <time>2020-07-21T07:35:20Z</time>
      </trkpt>
      <trkpt lat="44.49059" lon="4.32057">
        <ele>168.2</ele>
        <time>2020-07-21T07:35:18Z</time>
      </trkpt>
      <trkpt lat="44.49071" lon="4.32056">
        <ele>168</ele>
        <time>2020-07-21T07:35:16Z</time>
      </trkpt>
      <trkpt lat="44.49077" lon="4.32055">
        <ele>167.9</ele>
        <time>2020-07-21T07:35:15Z</time>
      </trkpt>
      <trkpt lat="44.49084" lon="4.32053">
        <ele>167.9</ele>
        <time>2020-07-21T07:35:14Z</time>
      </trkpt>
      <trkpt lat="44.49096" lon="4.32049">
        <ele>167.7</ele>
        <time>2020-07-21T07:35:12Z</time>
      </trkpt>
      <trkpt lat="44.49102" lon="4.32048">
        <ele>167.6</ele>
        <time>2020-07-21T07:35:11Z</time>
      </trkpt>
      <trkpt lat="44.49115" lon="4.32046">
        <ele>167.5</ele>
        <time>2020-07-21T07:35:09Z</time>
      </trkpt>
      <trkpt lat="44.49129" lon="4.32046">
        <ele>167.4</ele>
        <time>2020-07-21T07:35:07Z</time>
      </trkpt>
      <trkpt lat="44.49136" lon="4.32047">
        <ele>167.3</ele>
        <time>2020-07-21T07:35:06Z</time>
      </trkpt>
      <trkpt lat="44.49143" lon="4.32048">
        <ele>167.2</ele>
        <time>2020-07-21T07:35:05Z</time>
      </trkpt>
      <trkpt lat="44.4915" lon="4.32051">
        <ele>167.1</ele>
        <time>2020-07-21T07:35:04Z</time>
      </trkpt>
      <trkpt lat="44.49158" lon="4.32055">
        <ele>166.9</ele>
        <time>2020-07-21T07:35:03Z</time>
      </trkpt>
      <trkpt lat="44.49173" lon="4.32066">
        <ele>166.8</ele>
        <time>2020-07-21T07:35:01Z</time>
      </trkpt>
      <trkpt lat="44.4919" lon="4.32078">
        <ele>166.7</ele>
        <time>2020-07-21T07:34:59Z</time>
      </trkpt>
      <trkpt lat="44.49203" lon="4.32081">
        <ele>166.7</ele>
        <time>2020-07-21T07:34:57Z</time>
      </trkpt>
      <trkpt lat="44.49214" lon="4.32075">
        <ele>166.6</ele>
        <time>2020-07-21T07:34:55Z</time>
      </trkpt>
      <trkpt lat="44.49218" lon="4.3207">
        <ele>166.5</ele>
        <time>2020-07-21T07:34:54Z</time>
      </trkpt>
      <trkpt lat="44.49223" lon="4.32055">
        <ele>166.4</ele>
        <time>2020-07-21T07:34:52Z</time>
      </trkpt>
      <trkpt lat="44.49223" lon="4.32048">
        <ele>166.3</ele>
        <time>2020-07-21T07:34:51Z</time>
      </trkpt>
      <trkpt lat="44.4922" lon="4.32038">
        <ele>166.3</ele>
        <time>2020-07-21T07:34:50Z</time>
      </trkpt>
      <trkpt lat="44.49212" lon="4.32019">
        <ele>166.1</ele>
        <time>2020-07-21T07:34:48Z</time>
      </trkpt>
      <trkpt lat="44.49207" lon="4.32">
        <ele>166</ele>
        <time>2020-07-21T07:34:46Z</time>
      </trkpt>
      <trkpt lat="44.49206" lon="4.31981">
        <ele>165.8</ele>
        <time>2020-07-21T07:34:44Z</time>
      </trkpt>
      <trkpt lat="44.49206" lon="4.31972">
        <ele>165.7</ele>
        <time>2020-07-21T07:34:43Z</time>
      </trkpt>
      <trkpt lat="44.49208" lon="4.31953">
        <ele>165.5</ele>
        <time>2020-07-21T07:34:41Z</time>
      </trkpt>
      <trkpt lat="44.49209" lon="4.31943">
        <ele>165.5</ele>
        <time>2020-07-21T07:34:40Z</time>
      </trkpt>
      <trkpt lat="44.49213" lon="4.31924">
        <ele>165.4</ele>
        <time>2020-07-21T07:34:38Z</time>
      </trkpt>
      <trkpt lat="44.49219" lon="4.31904">
        <ele>165.3</ele>
        <time>2020-07-21T07:34:36Z</time>
      </trkpt>
      <trkpt lat="44.49221" lon="4.31894">
        <ele>165.2</ele>
        <time>2020-07-21T07:34:35Z</time>
      </trkpt>
      <trkpt lat="44.49227" lon="4.31873">
        <ele>165</ele>
        <time>2020-07-21T07:34:33Z</time>
      </trkpt>
      <trkpt lat="44.49233" lon="4.31852">
        <ele>164.7</ele>
        <time>2020-07-21T07:34:31Z</time>
      </trkpt>
      <trkpt lat="44.49241" lon="4.31833">
        <ele>164.6</ele>
        <time>2020-07-21T07:34:29Z</time>
      </trkpt>
      <trkpt lat="44.49245" lon="4.31824">
        <ele>164.5</ele>
        <time>2020-07-21T07:34:28Z</time>
      </trkpt>
      <trkpt lat="44.49253" lon="4.31809">
        <ele>164.3</ele>
        <time>2020-07-21T07:34:26Z</time>
      </trkpt>
      <trkpt lat="44.49258" lon="4.31802">
        <ele>164.3</ele>
        <time>2020-07-21T07:34:25Z</time>
      </trkpt>
      <trkpt lat="44.49267" lon="4.31789">
        <ele>164.1</ele>
        <time>2020-07-21T07:34:23Z</time>
      </trkpt>
      <trkpt lat="44.49272" lon="4.31782">
        <ele>164</ele>
        <time>2020-07-21T07:34:22Z</time>
      </trkpt>
      <trkpt lat="44.49278" lon="4.31775">
        <ele>164</ele>
        <time>2020-07-21T07:34:21Z</time>
      </trkpt>
      <trkpt lat="44.4929" lon="4.31763">
        <ele>163.8</ele>
        <time>2020-07-21T07:34:19Z</time>
      </trkpt>
      <trkpt lat="44.49295" lon="4.31756">
        <ele>163.8</ele>
        <time>2020-07-21T07:34:18Z</time>
      </trkpt>
      <trkpt lat="44.49307" lon="4.31744">
        <ele>163.6</ele>
        <time>2020-07-21T07:34:16Z</time>
      </trkpt>
      <trkpt lat="44.49318" lon="4.31731">
        <ele>163.5</ele>
        <time>2020-07-21T07:34:14Z</time>
      </trkpt>
      <trkpt lat="44.4933" lon="4.31718">
        <ele>163.4</ele>
        <time>2020-07-21T07:34:12Z</time>
      </trkpt>
      <trkpt lat="44.49336" lon="4.31712">
        <ele>163.3</ele>
        <time>2020-07-21T07:34:11Z</time>
      </trkpt>
      <trkpt lat="44.49347" lon="4.317">
        <ele>163.2</ele>
        <time>2020-07-21T07:34:09Z</time>
      </trkpt>
      <trkpt lat="44.49359" lon="4.31687">
        <ele>163.1</ele>
        <time>2020-07-21T07:34:07Z</time>
      </trkpt>
      <trkpt lat="44.49371" lon="4.31674">
        <ele>162.9</ele>
        <time>2020-07-21T07:34:05Z</time>
      </trkpt>
      <trkpt lat="44.49382" lon="4.3166">
        <ele>162.8</ele>
        <time>2020-07-21T07:34:03Z</time>
      </trkpt>
      <trkpt lat="44.49387" lon="4.31653">
        <ele>162.7</ele>
        <time>2020-07-21T07:34:02Z</time>
      </trkpt>
      <trkpt lat="44.49398" lon="4.31639">
        <ele>162.5</ele>
        <time>2020-07-21T07:34:00Z</time>
      </trkpt>
      <trkpt lat="44.49403" lon="4.31633">
        <ele>162.4</ele>
        <time>2020-07-21T07:33:59Z</time>
      </trkpt>
      <trkpt lat="44.49408" lon="4.31626">
        <ele>162.4</ele>
        <time>2020-07-21T07:33:58Z</time>
      </trkpt>
      <trkpt lat="44.49414" lon="4.31621">
        <ele>162.4</ele>
        <time>2020-07-21T07:33:57Z</time>
      </trkpt>
      <trkpt lat="44.49425" lon="4.31611">
        <ele>162.3</ele>
        <time>2020-07-21T07:33:55Z</time>
      </trkpt>
      <trkpt lat="44.49431" lon="4.31607">
        <ele>162.3</ele>
        <time>2020-07-21T07:33:54Z</time>
      </trkpt>
      <trkpt lat="44.49437" lon="4.31604">
        <ele>162.3</ele>
        <time>2020-07-21T07:33:53Z</time>
      </trkpt>
      <trkpt lat="44.49443" lon="4.316">
        <ele>162.2</ele>
        <time>2020-07-21T07:33:52Z</time>
      </trkpt>
      <trkpt lat="44.49456" lon="4.31593">
        <ele>162</ele>
        <time>2020-07-21T07:33:50Z</time>
      </trkpt>
      <trkpt lat="44.49462" lon="4.31588">
        <ele>161.9</ele>
        <time>2020-07-21T07:33:49Z</time>
      </trkpt>
      <trkpt lat="44.49469" lon="4.31584">
        <ele>161.8</ele>
        <time>2020-07-21T07:33:48Z</time>
      </trkpt>
      <trkpt lat="44.49482" lon="4.31577">
        <ele>161.6</ele>
        <time>2020-07-21T07:33:46Z</time>
      </trkpt>
      <trkpt lat="44.49496" lon="4.31572">
        <ele>161.5</ele>
        <time>2020-07-21T07:33:44Z</time>
      </trkpt>
      <trkpt lat="44.49503" lon="4.3157">
        <ele>161.4</ele>
        <time>2020-07-21T07:33:43Z</time>
      </trkpt>
      <trkpt lat="44.49519" lon="4.31566">
        <ele>161.3</ele>
        <time>2020-07-21T07:33:41Z</time>
      </trkpt>
      <trkpt lat="44.49527" lon="4.31565">
        <ele>161.3</ele>
        <time>2020-07-21T07:33:40Z</time>
      </trkpt>
      <trkpt lat="44.49534" lon="4.31565">
        <ele>161.2</ele>
        <time>2020-07-21T07:33:39Z</time>
      </trkpt>
      <trkpt lat="44.4955" lon="4.31565">
        <ele>161.2</ele>
        <time>2020-07-21T07:33:37Z</time>
      </trkpt>
      <trkpt lat="44.49557" lon="4.31565">
        <ele>161.1</ele>
        <time>2020-07-21T07:33:36Z</time>
      </trkpt>
      <trkpt lat="44.49572" lon="4.31568">
        <ele>160.9</ele>
        <time>2020-07-21T07:33:34Z</time>
      </trkpt>
      <trkpt lat="44.49579" lon="4.3157">
        <ele>160.8</ele>
        <time>2020-07-21T07:33:33Z</time>
      </trkpt>
      <trkpt lat="44.49594" lon="4.31573">
        <ele>160.6</ele>
        <time>2020-07-21T07:33:31Z</time>
      </trkpt>
      <trkpt lat="44.49602" lon="4.31575">
        <ele>160.6</ele>
        <time>2020-07-21T07:33:30Z</time>
      </trkpt>
      <trkpt lat="44.49616" lon="4.31579">
        <ele>160.5</ele>
        <time>2020-07-21T07:33:28Z</time>
      </trkpt>
      <trkpt lat="44.49624" lon="4.31582">
        <ele>160.5</ele>
        <time>2020-07-21T07:33:27Z</time>
      </trkpt>
      <trkpt lat="44.49632" lon="4.31584">
        <ele>160.5</ele>
        <time>2020-07-21T07:33:26Z</time>
      </trkpt>
      <trkpt lat="44.49647" lon="4.31589">
        <ele>160.4</ele>
        <time>2020-07-21T07:33:24Z</time>
      </trkpt>
      <trkpt lat="44.49654" lon="4.31592">
        <ele>160.3</ele>
        <time>2020-07-21T07:33:23Z</time>
      </trkpt>
      <trkpt lat="44.49669" lon="4.31596">
        <ele>160.2</ele>
        <time>2020-07-21T07:33:21Z</time>
      </trkpt>
      <trkpt lat="44.49683" lon="4.31598">
        <ele>160.3</ele>
        <time>2020-07-21T07:33:19Z</time>
      </trkpt>
      <trkpt lat="44.4969" lon="4.31599">
        <ele>160.3</ele>
        <time>2020-07-21T07:33:18Z</time>
      </trkpt>
      <trkpt lat="44.49704" lon="4.31601">
        <ele>160.3</ele>
        <time>2020-07-21T07:33:16Z</time>
      </trkpt>
      <trkpt lat="44.49711" lon="4.31602">
        <ele>160.3</ele>
        <time>2020-07-21T07:33:15Z</time>
      </trkpt>
      <trkpt lat="44.49719" lon="4.31602">
        <ele>160.2</ele>
        <time>2020-07-21T07:33:14Z</time>
      </trkpt>
      <trkpt lat="44.49726" lon="4.31603">
        <ele>160.2</ele>
        <time>2020-07-21T07:33:13Z</time>
      </trkpt>
      <trkpt lat="44.49741" lon="4.31603">
        <ele>160.1</ele>
        <time>2020-07-21T07:33:11Z</time>
      </trkpt>
      <trkpt lat="44.49755" lon="4.31602">
        <ele>159.9</ele>
        <time>2020-07-21T07:33:09Z</time>
      </trkpt>
      <trkpt lat="44.49763" lon="4.316">
        <ele>159.9</ele>
        <time>2020-07-21T07:33:08Z</time>
      </trkpt>
      <trkpt lat="44.4977" lon="4.31598">
        <ele>159.8</ele>
        <time>2020-07-21T07:33:07Z</time>
      </trkpt>
      <trkpt lat="44.49785" lon="4.31591">
        <ele>159.7</ele>
        <time>2020-07-21T07:33:05Z</time>
      </trkpt>
      <trkpt lat="44.49792" lon="4.31586">
        <ele>159.6</ele>
        <time>2020-07-21T07:33:04Z</time>
      </trkpt>
      <trkpt lat="44.498" lon="4.3158">
        <ele>159.5</ele>
        <time>2020-07-21T07:33:03Z</time>
      </trkpt>
      <trkpt lat="44.49815" lon="4.31569">
        <ele>159.4</ele>
        <time>2020-07-21T07:33:01Z</time>
      </trkpt>
      <trkpt lat="44.49823" lon="4.31564">
        <ele>159.4</ele>
        <time>2020-07-21T07:33:00Z</time>
      </trkpt>
      <trkpt lat="44.49838" lon="4.31558">
        <ele>159.2</ele>
        <time>2020-07-21T07:32:58Z</time>
      </trkpt>
      <trkpt lat="44.49854" lon="4.31559">
        <ele>159</ele>
        <time>2020-07-21T07:32:56Z</time>
      </trkpt>
      <trkpt lat="44.49862" lon="4.31562">
        <ele>159</ele>
        <time>2020-07-21T07:32:55Z</time>
      </trkpt>
      <trkpt lat="44.49874" lon="4.31571">
        <ele>158.9</ele>
        <time>2020-07-21T07:32:53Z</time>
      </trkpt>
      <trkpt lat="44.4988" lon="4.31577">
        <ele>158.8</ele>
        <time>2020-07-21T07:32:52Z</time>
      </trkpt>
      <trkpt lat="44.49891" lon="4.31591">
        <ele>158.6</ele>
        <time>2020-07-21T07:32:50Z</time>
      </trkpt>
      <trkpt lat="44.49896" lon="4.31599">
        <ele>158.5</ele>
        <time>2020-07-21T07:32:49Z</time>
      </trkpt>
      <trkpt lat="44.49902" lon="4.31606">
        <ele>158.3</ele>
        <time>2020-07-21T07:32:48Z</time>
      </trkpt>
      <trkpt lat="44.49908" lon="4.31614">
        <ele>158.2</ele>
        <time>2020-07-21T07:32:47Z</time>
      </trkpt>
      <trkpt lat="44.49915" lon="4.31621">
        <ele>158</ele>
        <time>2020-07-21T07:32:46Z</time>
      </trkpt>
      <trkpt lat="44.49927" lon="4.31635">
        <ele>157.7</ele>
        <time>2020-07-21T07:32:44Z</time>
      </trkpt>
      <trkpt lat="44.49933" lon="4.31641">
        <ele>157.6</ele>
        <time>2020-07-21T07:32:43Z</time>
      </trkpt>
      <trkpt lat="44.49947" lon="4.31654">
        <ele>157.5</ele>
        <time>2020-07-21T07:32:41Z</time>
      </trkpt>
      <trkpt lat="44.4996" lon="4.31666">
        <ele>157.4</ele>
        <time>2020-07-21T07:32:39Z</time>
      </trkpt>
      <trkpt lat="44.49967" lon="4.31672">
        <ele>157.3</ele>
        <time>2020-07-21T07:32:38Z</time>
      </trkpt>
      <trkpt lat="44.49981" lon="4.31682">
        <ele>157.3</ele>
        <time>2020-07-21T07:32:36Z</time>
      </trkpt>
      <trkpt lat="44.49988" lon="4.31687">
        <ele>157.3</ele>
        <time>2020-07-21T07:32:35Z</time>
      </trkpt>
      <trkpt lat="44.49996" lon="4.31692">
        <ele>157.3</ele>
        <time>2020-07-21T07:32:34Z</time>
      </trkpt>
      <trkpt lat="44.50011" lon="4.31702">
        <ele>156.7</ele>
        <time>2020-07-21T07:32:32Z</time>
      </trkpt>
      <trkpt lat="44.50019" lon="4.31707">
        <ele>156.5</ele>
        <time>2020-07-21T07:32:31Z</time>
      </trkpt>
      <trkpt lat="44.50028" lon="4.31711">
        <ele>156.3</ele>
        <time>2020-07-21T07:32:30Z</time>
      </trkpt>
      <trkpt lat="44.50044" lon="4.31719">
        <ele>155.9</ele>
        <time>2020-07-21T07:32:28Z</time>
      </trkpt>
      <trkpt lat="44.50052" lon="4.31723">
        <ele>155.7</ele>
        <time>2020-07-21T07:32:27Z</time>
      </trkpt>
      <trkpt lat="44.50068" lon="4.31727">
        <ele>155.4</ele>
        <time>2020-07-21T07:32:25Z</time>
      </trkpt>
      <trkpt lat="44.50077" lon="4.31728">
        <ele>155.3</ele>
        <time>2020-07-21T07:32:24Z</time>
      </trkpt>
      <trkpt lat="44.50085" lon="4.31728">
        <ele>155.1</ele>
        <time>2020-07-21T07:32:23Z</time>
      </trkpt>
      <trkpt lat="44.501" lon="4.31722">
        <ele>154.8</ele>
        <time>2020-07-21T07:32:21Z</time>
      </trkpt>
      <trkpt lat="44.50114" lon="4.31713">
        <ele>154.6</ele>
        <time>2020-07-21T07:32:19Z</time>
      </trkpt>
      <trkpt lat="44.5012" lon="4.31708">
        <ele>154.4</ele>
        <time>2020-07-21T07:32:18Z</time>
      </trkpt>
      <trkpt lat="44.50132" lon="4.31694">
        <ele>154.1</ele>
        <time>2020-07-21T07:32:16Z</time>
      </trkpt>
      <trkpt lat="44.50143" lon="4.31679">
        <ele>153.8</ele>
        <time>2020-07-21T07:32:14Z</time>
      </trkpt>
      <trkpt lat="44.50148" lon="4.3167">
        <ele>153.5</ele>
        <time>2020-07-21T07:32:13Z</time>
      </trkpt>
      <trkpt lat="44.50156" lon="4.31652">
        <ele>153.1</ele>
        <time>2020-07-21T07:32:11Z</time>
      </trkpt>
      <trkpt lat="44.50162" lon="4.31633">
        <ele>152.8</ele>
        <time>2020-07-21T07:32:09Z</time>
      </trkpt>
      <trkpt lat="44.50164" lon="4.31624">
        <ele>152.7</ele>
        <time>2020-07-21T07:32:08Z</time>
      </trkpt>
      <trkpt lat="44.50167" lon="4.31604">
        <ele>152.6</ele>
        <time>2020-07-21T07:32:06Z</time>
      </trkpt>
      <trkpt lat="44.50168" lon="4.31593">
        <ele>152.5</ele>
        <time>2020-07-21T07:32:05Z</time>
      </trkpt>
      <trkpt lat="44.5017" lon="4.31572">
        <ele>152.3</ele>
        <time>2020-07-21T07:32:03Z</time>
      </trkpt>
      <trkpt lat="44.50171" lon="4.31552">
        <ele>152.1</ele>
        <time>2020-07-21T07:32:01Z</time>
      </trkpt>
      <trkpt lat="44.50172" lon="4.31542">
        <ele>152.1</ele>
        <time>2020-07-21T07:32:00Z</time>
      </trkpt>
      <trkpt lat="44.50172" lon="4.31532">
        <ele>152</ele>
        <time>2020-07-21T07:31:59Z</time>
      </trkpt>
      <trkpt lat="44.50171" lon="4.31512">
        <ele>151.9</ele>
        <time>2020-07-21T07:31:57Z</time>
      </trkpt>
      <trkpt lat="44.50171" lon="4.31502">
        <ele>151.8</ele>
        <time>2020-07-21T07:31:56Z</time>
      </trkpt>
      <trkpt lat="44.5017" lon="4.31482">
        <ele>151.6</ele>
        <time>2020-07-21T07:31:54Z</time>
      </trkpt>
      <trkpt lat="44.50169" lon="4.31471">
        <ele>151.5</ele>
        <time>2020-07-21T07:31:53Z</time>
      </trkpt>
      <trkpt lat="44.50167" lon="4.31449">
        <ele>151.3</ele>
        <time>2020-07-21T07:31:51Z</time>
      </trkpt>
      <trkpt lat="44.50168" lon="4.31425">
        <ele>151.1</ele>
        <time>2020-07-21T07:31:49Z</time>
      </trkpt>
      <trkpt lat="44.50169" lon="4.31412">
        <ele>151</ele>
        <time>2020-07-21T07:31:48Z</time>
      </trkpt>
      <trkpt lat="44.50171" lon="4.314">
        <ele>150.9</ele>
        <time>2020-07-21T07:31:47Z</time>
      </trkpt>
      <trkpt lat="44.50173" lon="4.31387">
        <ele>150.8</ele>
        <time>2020-07-21T07:31:46Z</time>
      </trkpt>
      <trkpt lat="44.50182" lon="4.31364">
        <ele>150.6</ele>
        <time>2020-07-21T07:31:44Z</time>
      </trkpt>
      <trkpt lat="44.50188" lon="4.31354">
        <ele>150.6</ele>
        <time>2020-07-21T07:31:43Z</time>
      </trkpt>
      <trkpt lat="44.50203" lon="4.31336">
        <ele>150.6</ele>
        <time>2020-07-21T07:31:41Z</time>
      </trkpt>
      <trkpt lat="44.50219" lon="4.31322">
        <ele>150.7</ele>
        <time>2020-07-21T07:31:39Z</time>
      </trkpt>
      <trkpt lat="44.50237" lon="4.31309">
        <ele>150.8</ele>
        <time>2020-07-21T07:31:37Z</time>
      </trkpt>
      <trkpt lat="44.50255" lon="4.31295">
        <ele>150.9</ele>
        <time>2020-07-21T07:31:35Z</time>
      </trkpt>
      <trkpt lat="44.50273" lon="4.31282">
        <ele>151.4</ele>
        <time>2020-07-21T07:31:33Z</time>
      </trkpt>
      <trkpt lat="44.50292" lon="4.31272">
        <ele>152.1</ele>
        <time>2020-07-21T07:31:31Z</time>
      </trkpt>
      <trkpt lat="44.50311" lon="4.31262">
        <ele>153</ele>
        <time>2020-07-21T07:31:29Z</time>
      </trkpt>
      <trkpt lat="44.50328" lon="4.31252">
        <ele>154</ele>
        <time>2020-07-21T07:31:27Z</time>
      </trkpt>
      <trkpt lat="44.50344" lon="4.3124">
        <ele>154.6</ele>
        <time>2020-07-21T07:31:25Z</time>
      </trkpt>
      <trkpt lat="44.50359" lon="4.31228">
        <ele>155.1</ele>
        <time>2020-07-21T07:31:23Z</time>
      </trkpt>
      <trkpt lat="44.50375" lon="4.31216">
        <ele>155.6</ele>
        <time>2020-07-21T07:31:21Z</time>
      </trkpt>
      <trkpt lat="44.50382" lon="4.31209">
        <ele>155.9</ele>
        <time>2020-07-21T07:31:20Z</time>
      </trkpt>
      <trkpt lat="44.50397" lon="4.31192">
        <ele>156.4</ele>
        <time>2020-07-21T07:31:18Z</time>
      </trkpt>
      <trkpt lat="44.50403" lon="4.31182">
        <ele>156.6</ele>
        <time>2020-07-21T07:31:17Z</time>
      </trkpt>
      <trkpt lat="44.50414" lon="4.3116">
        <ele>157</ele>
        <time>2020-07-21T07:31:15Z</time>
      </trkpt>
      <trkpt lat="44.50419" lon="4.31149">
        <ele>157.3</ele>
        <time>2020-07-21T07:31:14Z</time>
      </trkpt>
      <trkpt lat="44.50424" lon="4.31138">
        <ele>157.5</ele>
        <time>2020-07-21T07:31:13Z</time>
      </trkpt>
      <trkpt lat="44.50433" lon="4.31117">
        <ele>157.6</ele>
        <time>2020-07-21T07:31:11Z</time>
      </trkpt>
      <trkpt lat="44.50438" lon="4.31107">
        <ele>157.7</ele>
        <time>2020-07-21T07:31:10Z</time>
      </trkpt>
      <trkpt lat="44.50443" lon="4.31098">
        <ele>157.9</ele>
        <time>2020-07-21T07:31:09Z</time>
      </trkpt>
      <trkpt lat="44.50448" lon="4.31088">
        <ele>158.1</ele>
        <time>2020-07-21T07:31:08Z</time>
      </trkpt>
      <trkpt lat="44.50452" lon="4.3108">
        <ele>158.3</ele>
        <time>2020-07-21T07:31:07Z</time>
      </trkpt>
      <trkpt lat="44.50461" lon="4.31062">
        <ele>158.7</ele>
        <time>2020-07-21T07:31:05Z</time>
      </trkpt>
      <trkpt lat="44.50469" lon="4.31043">
        <ele>159.1</ele>
        <time>2020-07-21T07:31:03Z</time>
      </trkpt>
      <trkpt lat="44.50474" lon="4.31033">
        <ele>159.2</ele>
        <time>2020-07-21T07:31:02Z</time>
      </trkpt>
      <trkpt lat="44.5048" lon="4.31012">
        <ele>159.7</ele>
        <time>2020-07-21T07:31:00Z</time>
      </trkpt>
      <trkpt lat="44.50481" lon="4.3099">
        <ele>160.4</ele>
        <time>2020-07-21T07:30:58Z</time>
      </trkpt>
      <trkpt lat="44.50479" lon="4.30966">
        <ele>160.1</ele>
        <time>2020-07-21T07:30:56Z</time>
      </trkpt>
      <trkpt lat="44.50474" lon="4.30941">
        <ele>159.8</ele>
        <time>2020-07-21T07:30:54Z</time>
      </trkpt>
      <trkpt lat="44.50468" lon="4.30915">
        <ele>159.5</ele>
        <time>2020-07-21T07:30:52Z</time>
      </trkpt>
      <trkpt lat="44.50462" lon="4.30886">
        <ele>159.4</ele>
        <time>2020-07-21T07:30:50Z</time>
      </trkpt>
      <trkpt lat="44.50459" lon="4.30871">
        <ele>159.6</ele>
        <time>2020-07-21T07:30:49Z</time>
      </trkpt>
      <trkpt lat="44.50454" lon="4.3084">
        <ele>159.9</ele>
        <time>2020-07-21T07:30:47Z</time>
      </trkpt>
      <trkpt lat="44.50453" lon="4.30823">
        <ele>160</ele>
        <time>2020-07-21T07:30:46Z</time>
      </trkpt>
      <trkpt lat="44.50454" lon="4.3079">
        <ele>160.5</ele>
        <time>2020-07-21T07:30:44Z</time>
      </trkpt>
      <trkpt lat="44.50457" lon="4.30773">
        <ele>160.9</ele>
        <time>2020-07-21T07:30:43Z</time>
      </trkpt>
      <trkpt lat="44.50464" lon="4.30741">
        <ele>162.2</ele>
        <time>2020-07-21T07:30:41Z</time>
      </trkpt>
      <trkpt lat="44.50469" lon="4.30725">
        <ele>162.9</ele>
        <time>2020-07-21T07:30:40Z</time>
      </trkpt>
      <trkpt lat="44.50478" lon="4.30696">
        <ele>164.4</ele>
        <time>2020-07-21T07:30:38Z</time>
      </trkpt>
      <trkpt lat="44.50482" lon="4.30682">
        <ele>165.1</ele>
        <time>2020-07-21T07:30:37Z</time>
      </trkpt>
      <trkpt lat="44.50487" lon="4.30656">
        <ele>166.4</ele>
        <time>2020-07-21T07:30:35Z</time>
      </trkpt>
      <trkpt lat="44.50488" lon="4.30632">
        <ele>167.4</ele>
        <time>2020-07-21T07:30:33Z</time>
      </trkpt>
      <trkpt lat="44.50486" lon="4.30609">
        <ele>168.1</ele>
        <time>2020-07-21T07:30:31Z</time>
      </trkpt>
      <trkpt lat="44.50485" lon="4.30598">
        <ele>168.3</ele>
        <time>2020-07-21T07:30:30Z</time>
      </trkpt>
      <trkpt lat="44.50483" lon="4.30588">
        <ele>168.5</ele>
        <time>2020-07-21T07:30:29Z</time>
      </trkpt>
      <trkpt lat="44.50479" lon="4.30567">
        <ele>168.8</ele>
        <time>2020-07-21T07:30:27Z</time>
      </trkpt>
      <trkpt lat="44.50474" lon="4.30546">
        <ele>169</ele>
        <time>2020-07-21T07:30:25Z</time>
      </trkpt>
      <trkpt lat="44.50472" lon="4.30535">
        <ele>169</ele>
        <time>2020-07-21T07:30:24Z</time>
      </trkpt>
      <trkpt lat="44.50466" lon="4.30513">
        <ele>169.2</ele>
        <time>2020-07-21T07:30:22Z</time>
      </trkpt>
      <trkpt lat="44.50463" lon="4.30502">
        <ele>169.2</ele>
        <time>2020-07-21T07:30:21Z</time>
      </trkpt>
      <trkpt lat="44.50457" lon="4.30479">
        <ele>169.4</ele>
        <time>2020-07-21T07:30:19Z</time>
      </trkpt>
      <trkpt lat="44.50454" lon="4.30468">
        <ele>169.5</ele>
        <time>2020-07-21T07:30:18Z</time>
      </trkpt>
      <trkpt lat="44.50447" lon="4.30446">
        <ele>169.8</ele>
        <time>2020-07-21T07:30:16Z</time>
      </trkpt>
      <trkpt lat="44.50441" lon="4.30424">
        <ele>170</ele>
        <time>2020-07-21T07:30:14Z</time>
      </trkpt>
      <trkpt lat="44.50437" lon="4.30413">
        <ele>170.2</ele>
        <time>2020-07-21T07:30:13Z</time>
      </trkpt>
      <trkpt lat="44.5043" lon="4.30393">
        <ele>170.4</ele>
        <time>2020-07-21T07:30:11Z</time>
      </trkpt>
      <trkpt lat="44.50426" lon="4.30382">
        <ele>170.5</ele>
        <time>2020-07-21T07:30:10Z</time>
      </trkpt>
      <trkpt lat="44.50422" lon="4.30372">
        <ele>170.7</ele>
        <time>2020-07-21T07:30:09Z</time>
      </trkpt>
      <trkpt lat="44.50418" lon="4.30362">
        <ele>170.8</ele>
        <time>2020-07-21T07:30:08Z</time>
      </trkpt>
      <trkpt lat="44.5041" lon="4.30341">
        <ele>171.2</ele>
        <time>2020-07-21T07:30:06Z</time>
      </trkpt>
      <trkpt lat="44.50402" lon="4.3032">
        <ele>171.5</ele>
        <time>2020-07-21T07:30:04Z</time>
      </trkpt>
      <trkpt lat="44.50394" lon="4.30297">
        <ele>171.8</ele>
        <time>2020-07-21T07:30:02Z</time>
      </trkpt>
      <trkpt lat="44.50391" lon="4.30285">
        <ele>172</ele>
        <time>2020-07-21T07:30:01Z</time>
      </trkpt>
      <trkpt lat="44.50385" lon="4.30261">
        <ele>172.5</ele>
        <time>2020-07-21T07:29:59Z</time>
      </trkpt>
      <trkpt lat="44.50383" lon="4.30249">
        <ele>172.7</ele>
        <time>2020-07-21T07:29:58Z</time>
      </trkpt>
      <trkpt lat="44.5038" lon="4.30226">
        <ele>173.1</ele>
        <time>2020-07-21T07:29:56Z</time>
      </trkpt>
      <trkpt lat="44.50378" lon="4.30203">
        <ele>173.5</ele>
        <time>2020-07-21T07:29:54Z</time>
      </trkpt>
      <trkpt lat="44.50378" lon="4.30192">
        <ele>173.8</ele>
        <time>2020-07-21T07:29:53Z</time>
      </trkpt>
      <trkpt lat="44.50377" lon="4.3018">
        <ele>174</ele>
        <time>2020-07-21T07:29:52Z</time>
      </trkpt>
      <trkpt lat="44.50377" lon="4.30168">
        <ele>174.2</ele>
        <time>2020-07-21T07:29:51Z</time>
      </trkpt>
      <trkpt lat="44.50377" lon="4.30157">
        <ele>174.3</ele>
        <time>2020-07-21T07:29:50Z</time>
      </trkpt>
      <trkpt lat="44.50377" lon="4.30135">
        <ele>174.2</ele>
        <time>2020-07-21T07:29:48Z</time>
      </trkpt>
      <trkpt lat="44.50377" lon="4.30124">
        <ele>174.1</ele>
        <time>2020-07-21T07:29:47Z</time>
      </trkpt>
      <trkpt lat="44.50376" lon="4.30115">
        <ele>174.2</ele>
        <time>2020-07-21T07:29:46Z</time>
      </trkpt>
      <trkpt lat="44.50376" lon="4.30106">
        <ele>174.2</ele>
        <time>2020-07-21T07:29:45Z</time>
      </trkpt>
      <trkpt lat="44.50375" lon="4.3009">
        <ele>174.3</ele>
        <time>2020-07-21T07:29:43Z</time>
      </trkpt>
      <trkpt lat="44.50372" lon="4.30074">
        <ele>174.3</ele>
        <time>2020-07-21T07:29:41Z</time>
      </trkpt>
      <trkpt lat="44.50371" lon="4.30069">
        <ele>174.4</ele>
        <time>2020-07-21T07:29:40Z</time>
      </trkpt>
      <trkpt lat="44.50371" lon="4.30071">
        <ele>174.4</ele>
        <time>2020-07-21T07:29:38Z</time>
      </trkpt>
      <trkpt lat="44.50369" lon="4.30072">
        <ele>174.4</ele>
        <time>2020-07-21T07:29:37Z</time>
      </trkpt>
      <trkpt lat="44.50368" lon="4.30073">
        <ele>174.4</ele>
        <time>2020-07-21T07:29:36Z</time>
      </trkpt>
      <trkpt lat="44.50368" lon="4.30073">
        <ele>174.4</ele>
        <time>2020-07-21T07:29:34Z</time>
      </trkpt>
      <trkpt lat="44.50368" lon="4.30071">
        <ele>174.4</ele>
        <time>2020-07-21T07:29:32Z</time>
      </trkpt>
      <trkpt lat="44.50368" lon="4.30071">
        <ele>174.4</ele>
        <time>2020-07-21T07:29:31Z</time>
      </trkpt>
      <trkpt lat="44.50367" lon="4.30071">
        <ele>174.4</ele>
        <time>2020-07-21T07:29:29Z</time>
      </trkpt>
      <trkpt lat="44.50367" lon="4.30071">
        <ele>174.4</ele>
        <time>2020-07-21T07:29:28Z</time>
      </trkpt>
      <trkpt lat="44.50366" lon="4.30071">
        <ele>174.4</ele>
        <time>2020-07-21T07:29:26Z</time>
      </trkpt>
      <trkpt lat="44.50366" lon="4.30071">
        <ele>174.4</ele>
        <time>2020-07-21T07:29:24Z</time>
      </trkpt>
      <trkpt lat="44.50368" lon="4.3007">
        <ele>174.4</ele>
        <time>2020-07-21T07:29:22Z</time>
      </trkpt>
      <trkpt lat="44.50369" lon="4.30071">
        <ele>174.4</ele>
        <time>2020-07-21T07:29:21Z</time>
      </trkpt>
      <trkpt lat="44.50375" lon="4.30074">
        <ele>174.5</ele>
        <time>2020-07-21T07:29:19Z</time>
      </trkpt>
      <trkpt lat="44.50375" lon="4.30074">
        <ele>174.5</ele>
        <time>2020-07-21T07:29:18Z</time>
      </trkpt>
      <trkpt lat="44.50376" lon="4.30075">
        <ele>174.5</ele>
        <time>2020-07-21T07:29:16Z</time>
      </trkpt>
      <trkpt lat="44.50377" lon="4.30076">
        <ele>174.5</ele>
        <time>2020-07-21T07:29:15Z</time>
      </trkpt>
      <trkpt lat="44.50376" lon="4.30078">
        <ele>174.5</ele>
        <time>2020-07-21T07:29:13Z</time>
      </trkpt>
      <trkpt lat="44.50376" lon="4.30077">
        <ele>174.5</ele>
        <time>2020-07-21T07:29:11Z</time>
      </trkpt>
      <trkpt lat="44.5038" lon="4.30089">
        <ele>174.5</ele>
        <time>2020-07-21T07:29:09Z</time>
      </trkpt>
      <trkpt lat="44.50383" lon="4.3008">
        <ele>176.1</ele>
        <time>2020-07-21T07:29:07Z</time>
      </trkpt>
      <trkpt lat="44.50384" lon="4.30072">
        <ele>176.1</ele>
        <time>2020-07-21T07:29:06Z</time>
      </trkpt>
      <trkpt lat="44.50385" lon="4.30064">
        <ele>176</ele>
        <time>2020-07-21T07:29:05Z</time>
      </trkpt>
      <trkpt lat="44.50388" lon="4.30046">
        <ele>176</ele>
        <time>2020-07-21T07:29:03Z</time>
      </trkpt>
      <trkpt lat="44.50391" lon="4.30035">
        <ele>176.1</ele>
        <time>2020-07-21T07:29:02Z</time>
      </trkpt>
      <trkpt lat="44.50397" lon="4.30014">
        <ele>176.4</ele>
        <time>2020-07-21T07:29:00Z</time>
      </trkpt>
      <trkpt lat="44.50403" lon="4.29995">
        <ele>176.9</ele>
        <time>2020-07-21T07:28:58Z</time>
      </trkpt>
      <trkpt lat="44.5041" lon="4.29976">
        <ele>177.3</ele>
        <time>2020-07-21T07:28:56Z</time>
      </trkpt>
      <trkpt lat="44.50413" lon="4.29966">
        <ele>177.6</ele>
        <time>2020-07-21T07:28:55Z</time>
      </trkpt>
      <trkpt lat="44.50418" lon="4.29947">
        <ele>178.2</ele>
        <time>2020-07-21T07:28:53Z</time>
      </trkpt>
      <trkpt lat="44.50422" lon="4.29929">
        <ele>178.8</ele>
        <time>2020-07-21T07:28:51Z</time>
      </trkpt>
      <trkpt lat="44.50424" lon="4.29921">
        <ele>179.1</ele>
        <time>2020-07-21T07:28:50Z</time>
      </trkpt>
      <trkpt lat="44.50427" lon="4.29904">
        <ele>179.6</ele>
        <time>2020-07-21T07:28:48Z</time>
      </trkpt>
      <trkpt lat="44.50429" lon="4.29897">
        <ele>179.9</ele>
        <time>2020-07-21T07:28:47Z</time>
      </trkpt>
      <trkpt lat="44.50434" lon="4.29882">
        <ele>180.3</ele>
        <time>2020-07-21T07:28:45Z</time>
      </trkpt>
      <trkpt lat="44.50436" lon="4.29875">
        <ele>180.5</ele>
        <time>2020-07-21T07:28:44Z</time>
      </trkpt>
      <trkpt lat="44.50438" lon="4.29868">
        <ele>180.7</ele>
        <time>2020-07-21T07:28:43Z</time>
      </trkpt>
      <trkpt lat="44.50442" lon="4.29855">
        <ele>180.8</ele>
        <time>2020-07-21T07:28:41Z</time>
      </trkpt>
      <trkpt lat="44.50444" lon="4.29848">
        <ele>180.9</ele>
        <time>2020-07-21T07:28:40Z</time>
      </trkpt>
      <trkpt lat="44.50446" lon="4.29841">
        <ele>180.8</ele>
        <time>2020-07-21T07:28:39Z</time>
      </trkpt>
      <trkpt lat="44.50448" lon="4.29834">
        <ele>180.7</ele>
        <time>2020-07-21T07:28:38Z</time>
      </trkpt>
      <trkpt lat="44.50453" lon="4.29819">
        <ele>180.5</ele>
        <time>2020-07-21T07:28:36Z</time>
      </trkpt>
      <trkpt lat="44.50456" lon="4.29813">
        <ele>180.3</ele>
        <time>2020-07-21T07:28:35Z</time>
      </trkpt>
      <trkpt lat="44.5046" lon="4.298">
        <ele>179.8</ele>
        <time>2020-07-21T07:28:33Z</time>
      </trkpt>
      <trkpt lat="44.50462" lon="4.29794">
        <ele>179.5</ele>
        <time>2020-07-21T07:28:32Z</time>
      </trkpt>
      <trkpt lat="44.50467" lon="4.2978">
        <ele>178.6</ele>
        <time>2020-07-21T07:28:30Z</time>
      </trkpt>
      <trkpt lat="44.50473" lon="4.29762">
        <ele>177.2</ele>
        <time>2020-07-21T07:28:28Z</time>
      </trkpt>
      <trkpt lat="44.50477" lon="4.29753">
        <ele>176.4</ele>
        <time>2020-07-21T07:28:27Z</time>
      </trkpt>
      <trkpt lat="44.50484" lon="4.29732">
        <ele>175.1</ele>
        <time>2020-07-21T07:28:25Z</time>
      </trkpt>
      <trkpt lat="44.50489" lon="4.29722">
        <ele>174.7</ele>
        <time>2020-07-21T07:28:24Z</time>
      </trkpt>
      <trkpt lat="44.50498" lon="4.297">
        <ele>174.1</ele>
        <time>2020-07-21T07:28:22Z</time>
      </trkpt>
      <trkpt lat="44.50504" lon="4.29689">
        <ele>174</ele>
        <time>2020-07-21T07:28:21Z</time>
      </trkpt>
      <trkpt lat="44.50517" lon="4.29667">
        <ele>174</ele>
        <time>2020-07-21T07:28:19Z</time>
      </trkpt>
      <trkpt lat="44.50524" lon="4.29656">
        <ele>174.1</ele>
        <time>2020-07-21T07:28:18Z</time>
      </trkpt>
      <trkpt lat="44.5054" lon="4.29634">
        <ele>174.5</ele>
        <time>2020-07-21T07:28:16Z</time>
      </trkpt>
      <trkpt lat="44.50549" lon="4.29625">
        <ele>175</ele>
        <time>2020-07-21T07:28:15Z</time>
      </trkpt>
      <trkpt lat="44.50565" lon="4.29608">
        <ele>176.4</ele>
        <time>2020-07-21T07:28:13Z</time>
      </trkpt>
      <trkpt lat="44.50579" lon="4.29594">
        <ele>177.7</ele>
        <time>2020-07-21T07:28:11Z</time>
      </trkpt>
      <trkpt lat="44.50592" lon="4.29584">
        <ele>178.7</ele>
        <time>2020-07-21T07:28:09Z</time>
      </trkpt>
      <trkpt lat="44.50597" lon="4.29578">
        <ele>179.1</ele>
        <time>2020-07-21T07:28:08Z</time>
      </trkpt>
      <trkpt lat="44.50602" lon="4.29573">
        <ele>179.4</ele>
        <time>2020-07-21T07:28:07Z</time>
      </trkpt>
      <trkpt lat="44.50612" lon="4.29561">
        <ele>179.8</ele>
        <time>2020-07-21T07:28:05Z</time>
      </trkpt>
      <trkpt lat="44.50617" lon="4.29555">
        <ele>179.9</ele>
        <time>2020-07-21T07:28:04Z</time>
      </trkpt>
      <trkpt lat="44.50625" lon="4.29542">
        <ele>180.1</ele>
        <time>2020-07-21T07:28:02Z</time>
      </trkpt>
      <trkpt lat="44.50633" lon="4.29528">
        <ele>180.2</ele>
        <time>2020-07-21T07:28:00Z</time>
      </trkpt>
      <trkpt lat="44.50641" lon="4.29513">
        <ele>180.1</ele>
        <time>2020-07-21T07:27:58Z</time>
      </trkpt>
      <trkpt lat="44.50649" lon="4.29497">
        <ele>180.1</ele>
        <time>2020-07-21T07:27:56Z</time>
      </trkpt>
      <trkpt lat="44.50657" lon="4.2948">
        <ele>180.1</ele>
        <time>2020-07-21T07:27:54Z</time>
      </trkpt>
      <trkpt lat="44.50666" lon="4.29463">
        <ele>180.2</ele>
        <time>2020-07-21T07:27:52Z</time>
      </trkpt>
      <trkpt lat="44.50676" lon="4.29446">
        <ele>180.3</ele>
        <time>2020-07-21T07:27:50Z</time>
      </trkpt>
      <trkpt lat="44.5068" lon="4.29439">
        <ele>180.3</ele>
        <time>2020-07-21T07:27:49Z</time>
      </trkpt>
      <trkpt lat="44.5069" lon="4.29425">
        <ele>180.3</ele>
        <time>2020-07-21T07:27:47Z</time>
      </trkpt>
      <trkpt lat="44.50694" lon="4.29418">
        <ele>180.2</ele>
        <time>2020-07-21T07:27:46Z</time>
      </trkpt>
      <trkpt lat="44.50699" lon="4.29412">
        <ele>180.2</ele>
        <time>2020-07-21T07:27:45Z</time>
      </trkpt>
      <trkpt lat="44.50703" lon="4.29406">
        <ele>180.2</ele>
        <time>2020-07-21T07:27:44Z</time>
      </trkpt>
      <trkpt lat="44.50708" lon="4.29401">
        <ele>180.2</ele>
        <time>2020-07-21T07:27:43Z</time>
      </trkpt>
      <trkpt lat="44.50717" lon="4.29392">
        <ele>180.2</ele>
        <time>2020-07-21T07:27:41Z</time>
      </trkpt>
      <trkpt lat="44.50722" lon="4.29388">
        <ele>180.2</ele>
        <time>2020-07-21T07:27:40Z</time>
      </trkpt>
      <trkpt lat="44.50732" lon="4.2938">
        <ele>180.3</ele>
        <time>2020-07-21T07:27:38Z</time>
      </trkpt>
      <trkpt lat="44.50737" lon="4.29375">
        <ele>180.3</ele>
        <time>2020-07-21T07:27:37Z</time>
      </trkpt>
      <trkpt lat="44.50742" lon="4.29371">
        <ele>180.4</ele>
        <time>2020-07-21T07:27:36Z</time>
      </trkpt>
      <trkpt lat="44.50748" lon="4.29367">
        <ele>180.4</ele>
        <time>2020-07-21T07:27:35Z</time>
      </trkpt>
      <trkpt lat="44.50759" lon="4.2936">
        <ele>180.4</ele>
        <time>2020-07-21T07:27:33Z</time>
      </trkpt>
      <trkpt lat="44.50771" lon="4.29352">
        <ele>180.6</ele>
        <time>2020-07-21T07:27:31Z</time>
      </trkpt>
      <trkpt lat="44.50777" lon="4.29348">
        <ele>180.6</ele>
        <time>2020-07-21T07:27:30Z</time>
      </trkpt>
      <trkpt lat="44.50789" lon="4.29341">
        <ele>180.7</ele>
        <time>2020-07-21T07:27:28Z</time>
      </trkpt>
      <trkpt lat="44.50801" lon="4.29333">
        <ele>180.8</ele>
        <time>2020-07-21T07:27:26Z</time>
      </trkpt>
      <trkpt lat="44.50812" lon="4.29323">
        <ele>180.6</ele>
        <time>2020-07-21T07:27:24Z</time>
      </trkpt>
      <trkpt lat="44.50818" lon="4.29318">
        <ele>180.5</ele>
        <time>2020-07-21T07:27:23Z</time>
      </trkpt>
      <trkpt lat="44.50824" lon="4.29312">
        <ele>180.5</ele>
        <time>2020-07-21T07:27:22Z</time>
      </trkpt>
      <trkpt lat="44.50838" lon="4.29301">
        <ele>180.5</ele>
        <time>2020-07-21T07:27:20Z</time>
      </trkpt>
      <trkpt lat="44.50845" lon="4.29296">
        <ele>180.5</ele>
        <time>2020-07-21T07:27:19Z</time>
      </trkpt>
      <trkpt lat="44.50861" lon="4.29283">
        <ele>180.6</ele>
        <time>2020-07-21T07:27:17Z</time>
      </trkpt>
      <trkpt lat="44.50867" lon="4.29276">
        <ele>180.6</ele>
        <time>2020-07-21T07:27:16Z</time>
      </trkpt>
      <trkpt lat="44.50877" lon="4.29262">
        <ele>180.8</ele>
        <time>2020-07-21T07:27:14Z</time>
      </trkpt>
      <trkpt lat="44.50881" lon="4.29255">
        <ele>180.9</ele>
        <time>2020-07-21T07:27:13Z</time>
      </trkpt>
      <trkpt lat="44.50883" lon="4.29243">
        <ele>181.1</ele>
        <time>2020-07-21T07:27:11Z</time>
      </trkpt>
      <trkpt lat="44.50882" lon="4.29238">
        <ele>181.5</ele>
        <time>2020-07-21T07:27:09Z</time>
      </trkpt>
      <trkpt lat="44.50881" lon="4.29233">
        <ele>181.8</ele>
        <time>2020-07-21T07:27:08Z</time>
      </trkpt>
      <trkpt lat="44.50879" lon="4.29223">
        <ele>182.4</ele>
        <time>2020-07-21T07:27:07Z</time>
      </trkpt>
      <trkpt lat="44.50877" lon="4.29214">
        <ele>183.1</ele>
        <time>2020-07-21T07:27:05Z</time>
      </trkpt>
      <trkpt lat="44.50875" lon="4.2921">
        <ele>183.5</ele>
        <time>2020-07-21T07:27:04Z</time>
      </trkpt>
      <trkpt lat="44.5087" lon="4.29201">
        <ele>184.8</ele>
        <time>2020-07-21T07:27:02Z</time>
      </trkpt>
      <trkpt lat="44.50868" lon="4.29198">
        <ele>185</ele>
        <time>2020-07-21T07:27:01Z</time>
      </trkpt>
      <trkpt lat="44.50855" lon="4.29176">
        <ele>187.4</ele>
        <time>2020-07-21T07:27:00Z</time>
      </trkpt>
      <trkpt lat="44.50858" lon="4.29169">
        <ele>188.1</ele>
        <time>2020-07-21T07:26:58Z</time>
      </trkpt>
      <trkpt lat="44.50861" lon="4.29165">
        <ele>191.6</ele>
        <time>2020-07-21T07:26:57Z</time>
      </trkpt>
      <trkpt lat="44.50867" lon="4.29153">
        <ele>192.7</ele>
        <time>2020-07-21T07:26:55Z</time>
      </trkpt>
      <trkpt lat="44.50872" lon="4.29148">
        <ele>193.3</ele>
        <time>2020-07-21T07:26:54Z</time>
      </trkpt>
      <trkpt lat="44.50876" lon="4.29143">
        <ele>194.1</ele>
        <time>2020-07-21T07:26:53Z</time>
      </trkpt>
      <trkpt lat="44.50885" lon="4.29132">
        <ele>196</ele>
        <time>2020-07-21T07:26:51Z</time>
      </trkpt>
      <trkpt lat="44.5089" lon="4.29126">
        <ele>196.8</ele>
        <time>2020-07-21T07:26:50Z</time>
      </trkpt>
      <trkpt lat="44.50899" lon="4.29115">
        <ele>197.4</ele>
        <time>2020-07-21T07:26:48Z</time>
      </trkpt>
      <trkpt lat="44.50904" lon="4.29109">
        <ele>197.5</ele>
        <time>2020-07-21T07:26:47Z</time>
      </trkpt>
      <trkpt lat="44.50909" lon="4.29104">
        <ele>197.6</ele>
        <time>2020-07-21T07:26:46Z</time>
      </trkpt>
      <trkpt lat="44.50917" lon="4.29093">
        <ele>197.8</ele>
        <time>2020-07-21T07:26:44Z</time>
      </trkpt>
      <trkpt lat="44.5092" lon="4.2909">
        <ele>197.8</ele>
        <time>2020-07-21T07:26:43Z</time>
      </trkpt>
      <trkpt lat="44.50919" lon="4.29095">
        <ele>197.9</ele>
        <time>2020-07-21T07:26:41Z</time>
      </trkpt>
      <trkpt lat="44.50919" lon="4.29087">
        <ele>198</ele>
        <time>2020-07-21T07:26:39Z</time>
      </trkpt>
      <trkpt lat="44.50916" lon="4.29083">
        <ele>198.1</ele>
        <time>2020-07-21T07:26:38Z</time>
      </trkpt>
      <trkpt lat="44.50915" lon="4.2908">
        <ele>198.1</ele>
        <time>2020-07-21T07:26:36Z</time>
      </trkpt>
      <trkpt lat="44.50916" lon="4.29075">
        <ele>198.2</ele>
        <time>2020-07-21T07:26:35Z</time>
      </trkpt>
      <trkpt lat="44.50916" lon="4.29074">
        <ele>198.2</ele>
        <time>2020-07-21T07:26:34Z</time>
      </trkpt>
      <trkpt lat="44.50916" lon="4.29069">
        <ele>198.2</ele>
        <time>2020-07-21T07:26:32Z</time>
      </trkpt>
      <trkpt lat="44.50905" lon="4.29066">
        <ele>198.4</ele>
        <time>2020-07-21T07:26:31Z</time>
      </trkpt>
      <trkpt lat="44.50899" lon="4.29062">
        <ele>198.5</ele>
        <time>2020-07-21T07:26:30Z</time>
      </trkpt>
      <trkpt lat="44.50886" lon="4.29056">
        <ele>198.6</ele>
        <time>2020-07-21T07:26:28Z</time>
      </trkpt>
      <trkpt lat="44.50887" lon="4.29058">
        <ele>198.6</ele>
        <time>2020-07-21T07:26:26Z</time>
      </trkpt>
      <trkpt lat="44.50888" lon="4.29059">
        <ele>198.6</ele>
        <time>2020-07-21T07:26:25Z</time>
      </trkpt>
      <trkpt lat="44.50889" lon="4.2906">
        <ele>198.6</ele>
        <time>2020-07-21T07:26:24Z</time>
      </trkpt>
      <trkpt lat="44.5089" lon="4.2906">
        <ele>198.7</ele>
        <time>2020-07-21T07:26:23Z</time>
      </trkpt>
      <trkpt lat="44.50891" lon="4.2906">
        <ele>198.7</ele>
        <time>2020-07-21T07:26:22Z</time>
      </trkpt>
      <trkpt lat="44.50888" lon="4.29061">
        <ele>198.7</ele>
        <time>2020-07-21T07:26:20Z</time>
      </trkpt>
      <trkpt lat="44.50889" lon="4.29061">
        <ele>198.7</ele>
        <time>2020-07-21T07:26:19Z</time>
      </trkpt>
      <trkpt lat="44.50889" lon="4.29061">
        <ele>198.7</ele>
        <time>2020-07-21T07:26:18Z</time>
      </trkpt>
      <trkpt lat="44.50887" lon="4.29061">
        <ele>198.7</ele>
        <time>2020-07-21T07:26:17Z</time>
      </trkpt>
      <trkpt lat="44.50886" lon="4.29061">
        <ele>198.7</ele>
        <time>2020-07-21T07:26:16Z</time>
      </trkpt>
      <trkpt lat="44.50886" lon="4.29059">
        <ele>198.7</ele>
        <time>2020-07-21T07:26:15Z</time>
      </trkpt>
      <trkpt lat="44.50885" lon="4.29052">
        <ele>198.8</ele>
        <time>2020-07-21T07:26:13Z</time>
      </trkpt>
      <trkpt lat="44.50887" lon="4.2905">
        <ele>198.8</ele>
        <time>2020-07-21T07:26:12Z</time>
      </trkpt>
      <trkpt lat="44.50894" lon="4.29045">
        <ele>198.8</ele>
        <time>2020-07-21T07:26:10Z</time>
      </trkpt>
      <trkpt lat="44.50901" lon="4.29047">
        <ele>198.9</ele>
        <time>2020-07-21T07:26:08Z</time>
      </trkpt>
      <trkpt lat="44.50905" lon="4.29048">
        <ele>198.9</ele>
        <time>2020-07-21T07:26:07Z</time>
      </trkpt>
      <trkpt lat="44.5091" lon="4.29049">
        <ele>199</ele>
        <time>2020-07-21T07:26:06Z</time>
      </trkpt>
      <trkpt lat="44.50915" lon="4.29049">
        <ele>199.1</ele>
        <time>2020-07-21T07:26:05Z</time>
      </trkpt>
      <trkpt lat="44.50924" lon="4.2905">
        <ele>199.1</ele>
        <time>2020-07-21T07:26:03Z</time>
      </trkpt>
      <trkpt lat="44.50935" lon="4.2905">
        <ele>198.7</ele>
        <time>2020-07-21T07:26:01Z</time>
      </trkpt>
      <trkpt lat="44.5094" lon="4.29051">
        <ele>198.5</ele>
        <time>2020-07-21T07:26:00Z</time>
      </trkpt>
      <trkpt lat="44.5095" lon="4.29051">
        <ele>198.2</ele>
        <time>2020-07-21T07:25:58Z</time>
      </trkpt>
      <trkpt lat="44.50955" lon="4.2905">
        <ele>198</ele>
        <time>2020-07-21T07:25:57Z</time>
      </trkpt>
      <trkpt lat="44.5096" lon="4.29049">
        <ele>197.8</ele>
        <time>2020-07-21T07:25:56Z</time>
      </trkpt>
      <trkpt lat="44.50964" lon="4.29046">
        <ele>197.6</ele>
        <time>2020-07-21T07:25:55Z</time>
      </trkpt>
      <trkpt lat="44.50973" lon="4.29039">
        <ele>197.1</ele>
        <time>2020-07-21T07:25:53Z</time>
      </trkpt>
      <trkpt lat="44.50979" lon="4.29028">
        <ele>196.5</ele>
        <time>2020-07-21T07:25:51Z</time>
      </trkpt>
      <trkpt lat="44.50982" lon="4.29022">
        <ele>196.1</ele>
        <time>2020-07-21T07:25:50Z</time>
      </trkpt>
      <trkpt lat="44.50987" lon="4.29009">
        <ele>195.8</ele>
        <time>2020-07-21T07:25:48Z</time>
      </trkpt>
      <trkpt lat="44.50989" lon="4.29001">
        <ele>195.6</ele>
        <time>2020-07-21T07:25:47Z</time>
      </trkpt>
      <trkpt lat="44.50992" lon="4.28984">
        <ele>195.2</ele>
        <time>2020-07-21T07:25:45Z</time>
      </trkpt>
      <trkpt lat="44.50995" lon="4.28975">
        <ele>194.7</ele>
        <time>2020-07-21T07:25:44Z</time>
      </trkpt>
      <trkpt lat="44.51001" lon="4.2896">
        <ele>194.2</ele>
        <time>2020-07-21T07:25:42Z</time>
      </trkpt>
      <trkpt lat="44.51006" lon="4.28956">
        <ele>194</ele>
        <time>2020-07-21T07:25:41Z</time>
      </trkpt>
      <trkpt lat="44.5102" lon="4.28954">
        <ele>193.6</ele>
        <time>2020-07-21T07:25:39Z</time>
      </trkpt>
      <trkpt lat="44.51029" lon="4.28956">
        <ele>193.3</ele>
        <time>2020-07-21T07:25:38Z</time>
      </trkpt>
      <trkpt lat="44.51038" lon="4.2896">
        <ele>193</ele>
        <time>2020-07-21T07:25:37Z</time>
      </trkpt>
      <trkpt lat="44.51056" lon="4.28969">
        <ele>192.5</ele>
        <time>2020-07-21T07:25:35Z</time>
      </trkpt>
      <trkpt lat="44.51074" lon="4.28976">
        <ele>192.1</ele>
        <time>2020-07-21T07:25:33Z</time>
      </trkpt>
      <trkpt lat="44.51095" lon="4.28975">
        <ele>192.2</ele>
        <time>2020-07-21T07:25:31Z</time>
      </trkpt>
      <trkpt lat="44.51106" lon="4.28972">
        <ele>192.5</ele>
        <time>2020-07-21T07:25:30Z</time>
      </trkpt>
      <trkpt lat="44.51118" lon="4.28969">
        <ele>193.2</ele>
        <time>2020-07-21T07:25:29Z</time>
      </trkpt>
      <trkpt lat="44.51141" lon="4.28963">
        <ele>194.7</ele>
        <time>2020-07-21T07:25:27Z</time>
      </trkpt>
      <trkpt lat="44.51153" lon="4.28961">
        <ele>195.5</ele>
        <time>2020-07-21T07:25:26Z</time>
      </trkpt>
      <trkpt lat="44.51176" lon="4.28958">
        <ele>197.1</ele>
        <time>2020-07-21T07:25:24Z</time>
      </trkpt>
      <trkpt lat="44.51199" lon="4.28956">
        <ele>198.4</ele>
        <time>2020-07-21T07:25:22Z</time>
      </trkpt>
      <trkpt lat="44.51222" lon="4.28955">
        <ele>199.7</ele>
        <time>2020-07-21T07:25:20Z</time>
      </trkpt>
      <trkpt lat="44.51233" lon="4.28955">
        <ele>200.3</ele>
        <time>2020-07-21T07:25:19Z</time>
      </trkpt>
      <trkpt lat="44.51254" lon="4.28953">
        <ele>201.5</ele>
        <time>2020-07-21T07:25:17Z</time>
      </trkpt>
      <trkpt lat="44.51264" lon="4.28953">
        <ele>202.2</ele>
        <time>2020-07-21T07:25:16Z</time>
      </trkpt>
      <trkpt lat="44.51283" lon="4.28952">
        <ele>203.5</ele>
        <time>2020-07-21T07:25:14Z</time>
      </trkpt>
      <trkpt lat="44.51293" lon="4.28951">
        <ele>204</ele>
        <time>2020-07-21T07:25:13Z</time>
      </trkpt>
      <trkpt lat="44.51311" lon="4.28951">
        <ele>205</ele>
        <time>2020-07-21T07:25:11Z</time>
      </trkpt>
      <trkpt lat="44.51329" lon="4.28953">
        <ele>206.2</ele>
        <time>2020-07-21T07:25:09Z</time>
      </trkpt>
      <trkpt lat="44.51347" lon="4.28953">
        <ele>207.2</ele>
        <time>2020-07-21T07:25:07Z</time>
      </trkpt>
      <trkpt lat="44.51356" lon="4.28953">
        <ele>207.7</ele>
        <time>2020-07-21T07:25:06Z</time>
      </trkpt>
      <trkpt lat="44.51375" lon="4.28952">
        <ele>208.7</ele>
        <time>2020-07-21T07:25:04Z</time>
      </trkpt>
      <trkpt lat="44.51393" lon="4.28951">
        <ele>209.6</ele>
        <time>2020-07-21T07:25:02Z</time>
      </trkpt>
      <trkpt lat="44.51409" lon="4.28953">
        <ele>210.4</ele>
        <time>2020-07-21T07:25:00Z</time>
      </trkpt>
      <trkpt lat="44.51416" lon="4.28955">
        <ele>210.8</ele>
        <time>2020-07-21T07:24:59Z</time>
      </trkpt>
      <trkpt lat="44.51423" lon="4.28959">
        <ele>211.1</ele>
        <time>2020-07-21T07:24:58Z</time>
      </trkpt>
      <trkpt lat="44.51434" lon="4.28967">
        <ele>211.6</ele>
        <time>2020-07-21T07:24:56Z</time>
      </trkpt>
      <trkpt lat="44.51439" lon="4.28972">
        <ele>211.9</ele>
        <time>2020-07-21T07:24:55Z</time>
      </trkpt>
      <trkpt lat="44.51444" lon="4.28977">
        <ele>212</ele>
        <time>2020-07-21T07:24:54Z</time>
      </trkpt>
      <trkpt lat="44.51451" lon="4.28988">
        <ele>212.2</ele>
        <time>2020-07-21T07:24:52Z</time>
      </trkpt>
      <trkpt lat="44.51459" lon="4.28997">
        <ele>212.2</ele>
        <time>2020-07-21T07:24:50Z</time>
      </trkpt>
      <trkpt lat="44.51463" lon="4.29001">
        <ele>212.1</ele>
        <time>2020-07-21T07:24:49Z</time>
      </trkpt>
      <trkpt lat="44.51467" lon="4.29005">
        <ele>212</ele>
        <time>2020-07-21T07:24:48Z</time>
      </trkpt>
      <trkpt lat="44.51471" lon="4.29009">
        <ele>211.8</ele>
        <time>2020-07-21T07:24:47Z</time>
      </trkpt>
      <trkpt lat="44.51475" lon="4.29014">
        <ele>211.6</ele>
        <time>2020-07-21T07:24:46Z</time>
      </trkpt>
      <trkpt lat="44.51479" lon="4.29018">
        <ele>211.4</ele>
        <time>2020-07-21T07:24:45Z</time>
      </trkpt>
      <trkpt lat="44.51486" lon="4.29027">
        <ele>211</ele>
        <time>2020-07-21T07:24:43Z</time>
      </trkpt>
      <trkpt lat="44.51489" lon="4.29032">
        <ele>210.8</ele>
        <time>2020-07-21T07:24:42Z</time>
      </trkpt>
      <trkpt lat="44.51497" lon="4.29042">
        <ele>210.3</ele>
        <time>2020-07-21T07:24:40Z</time>
      </trkpt>
      <trkpt lat="44.51502" lon="4.29048">
        <ele>210.1</ele>
        <time>2020-07-21T07:24:39Z</time>
      </trkpt>
      <trkpt lat="44.51511" lon="4.29061">
        <ele>209.4</ele>
        <time>2020-07-21T07:24:37Z</time>
      </trkpt>
      <trkpt lat="44.51516" lon="4.29068">
        <ele>209.1</ele>
        <time>2020-07-21T07:24:36Z</time>
      </trkpt>
      <trkpt lat="44.51526" lon="4.29083">
        <ele>208.5</ele>
        <time>2020-07-21T07:24:34Z</time>
      </trkpt>
      <trkpt lat="44.51531" lon="4.29091">
        <ele>208.3</ele>
        <time>2020-07-21T07:24:33Z</time>
      </trkpt>
      <trkpt lat="44.51541" lon="4.29109">
        <ele>208</ele>
        <time>2020-07-21T07:24:31Z</time>
      </trkpt>
      <trkpt lat="44.51546" lon="4.29117">
        <ele>208</ele>
        <time>2020-07-21T07:24:30Z</time>
      </trkpt>
      <trkpt lat="44.51558" lon="4.29134">
        <ele>207.9</ele>
        <time>2020-07-21T07:24:28Z</time>
      </trkpt>
      <trkpt lat="44.51571" lon="4.29149">
        <ele>207.8</ele>
        <time>2020-07-21T07:24:26Z</time>
      </trkpt>
      <trkpt lat="44.51578" lon="4.29156">
        <ele>207.8</ele>
        <time>2020-07-21T07:24:25Z</time>
      </trkpt>
      <trkpt lat="44.51585" lon="4.29163">
        <ele>207.8</ele>
        <time>2020-07-21T07:24:24Z</time>
      </trkpt>
      <trkpt lat="44.51602" lon="4.29174">
        <ele>207.9</ele>
        <time>2020-07-21T07:24:22Z</time>
      </trkpt>
      <trkpt lat="44.51611" lon="4.29178">
        <ele>207.8</ele>
        <time>2020-07-21T07:24:21Z</time>
      </trkpt>
      <trkpt lat="44.5163" lon="4.29187">
        <ele>207.8</ele>
        <time>2020-07-21T07:24:19Z</time>
      </trkpt>
      <trkpt lat="44.51639" lon="4.29191">
        <ele>207.7</ele>
        <time>2020-07-21T07:24:18Z</time>
      </trkpt>
      <trkpt lat="44.51659" lon="4.29199">
        <ele>207.6</ele>
        <time>2020-07-21T07:24:16Z</time>
      </trkpt>
      <trkpt lat="44.51669" lon="4.29204">
        <ele>207.7</ele>
        <time>2020-07-21T07:24:15Z</time>
      </trkpt>
      <trkpt lat="44.51689" lon="4.29211">
        <ele>207.9</ele>
        <time>2020-07-21T07:24:13Z</time>
      </trkpt>
      <trkpt lat="44.51699" lon="4.29214">
        <ele>208.1</ele>
        <time>2020-07-21T07:24:12Z</time>
      </trkpt>
      <trkpt lat="44.5172" lon="4.2922">
        <ele>208.7</ele>
        <time>2020-07-21T07:24:10Z</time>
      </trkpt>
      <trkpt lat="44.5174" lon="4.29227">
        <ele>209.4</ele>
        <time>2020-07-21T07:24:08Z</time>
      </trkpt>
      <trkpt lat="44.5176" lon="4.29234">
        <ele>210.3</ele>
        <time>2020-07-21T07:24:06Z</time>
      </trkpt>
      <trkpt lat="44.51769" lon="4.29238">
        <ele>210.8</ele>
        <time>2020-07-21T07:24:05Z</time>
      </trkpt>
      <trkpt lat="44.51788" lon="4.29245">
        <ele>211.8</ele>
        <time>2020-07-21T07:24:03Z</time>
      </trkpt>
      <trkpt lat="44.51797" lon="4.29248">
        <ele>212.3</ele>
        <time>2020-07-21T07:24:02Z</time>
      </trkpt>
      <trkpt lat="44.51815" lon="4.29254">
        <ele>213.2</ele>
        <time>2020-07-21T07:24:00Z</time>
      </trkpt>
      <trkpt lat="44.51832" lon="4.2926">
        <ele>214.2</ele>
        <time>2020-07-21T07:23:58Z</time>
      </trkpt>
      <trkpt lat="44.51849" lon="4.29265">
        <ele>214.9</ele>
        <time>2020-07-21T07:23:56Z</time>
      </trkpt>
      <trkpt lat="44.51864" lon="4.29271">
        <ele>215.5</ele>
        <time>2020-07-21T07:23:54Z</time>
      </trkpt>
      <trkpt lat="44.51872" lon="4.29273">
        <ele>215.8</ele>
        <time>2020-07-21T07:23:53Z</time>
      </trkpt>
      <trkpt lat="44.5188" lon="4.29276">
        <ele>216</ele>
        <time>2020-07-21T07:23:52Z</time>
      </trkpt>
      <trkpt lat="44.51895" lon="4.29281">
        <ele>216.3</ele>
        <time>2020-07-21T07:23:50Z</time>
      </trkpt>
      <trkpt lat="44.51902" lon="4.29283">
        <ele>216.5</ele>
        <time>2020-07-21T07:23:49Z</time>
      </trkpt>
      <trkpt lat="44.51917" lon="4.29288">
        <ele>216.7</ele>
        <time>2020-07-21T07:23:47Z</time>
      </trkpt>
      <trkpt lat="44.51924" lon="4.29291">
        <ele>216.8</ele>
        <time>2020-07-21T07:23:46Z</time>
      </trkpt>
      <trkpt lat="44.51939" lon="4.29295">
        <ele>217</ele>
        <time>2020-07-21T07:23:44Z</time>
      </trkpt>
      <trkpt lat="44.51946" lon="4.29297">
        <ele>217.1</ele>
        <time>2020-07-21T07:23:43Z</time>
      </trkpt>
      <trkpt lat="44.51953" lon="4.29299">
        <ele>217.2</ele>
        <time>2020-07-21T07:23:42Z</time>
      </trkpt>
      <trkpt lat="44.51961" lon="4.29301">
        <ele>217.3</ele>
        <time>2020-07-21T07:23:41Z</time>
      </trkpt>
      <trkpt lat="44.51975" lon="4.29306">
        <ele>217.6</ele>
        <time>2020-07-21T07:23:39Z</time>
      </trkpt>
      <trkpt lat="44.51982" lon="4.29308">
        <ele>217.7</ele>
        <time>2020-07-21T07:23:38Z</time>
      </trkpt>
      <trkpt lat="44.51996" lon="4.29313">
        <ele>218</ele>
        <time>2020-07-21T07:23:36Z</time>
      </trkpt>
      <trkpt lat="44.52011" lon="4.29317">
        <ele>218.3</ele>
        <time>2020-07-21T07:23:34Z</time>
      </trkpt>
      <trkpt lat="44.52026" lon="4.29321">
        <ele>218.6</ele>
        <time>2020-07-21T07:23:32Z</time>
      </trkpt>
      <trkpt lat="44.52034" lon="4.29323">
        <ele>218.7</ele>
        <time>2020-07-21T07:23:31Z</time>
      </trkpt>
      <trkpt lat="44.52049" lon="4.29327">
        <ele>218.9</ele>
        <time>2020-07-21T07:23:29Z</time>
      </trkpt>
      <trkpt lat="44.52063" lon="4.29331">
        <ele>219.1</ele>
        <time>2020-07-21T07:23:27Z</time>
      </trkpt>
      <trkpt lat="44.52078" lon="4.29335">
        <ele>219.2</ele>
        <time>2020-07-21T07:23:25Z</time>
      </trkpt>
      <trkpt lat="44.52092" lon="4.29339">
        <ele>219.4</ele>
        <time>2020-07-21T07:23:23Z</time>
      </trkpt>
      <trkpt lat="44.52099" lon="4.29341">
        <ele>219.5</ele>
        <time>2020-07-21T07:23:22Z</time>
      </trkpt>
      <trkpt lat="44.52114" lon="4.29344">
        <ele>219.8</ele>
        <time>2020-07-21T07:23:20Z</time>
      </trkpt>
      <trkpt lat="44.52121" lon="4.29346">
        <ele>220</ele>
        <time>2020-07-21T07:23:19Z</time>
      </trkpt>
      <trkpt lat="44.52129" lon="4.29348">
        <ele>220.1</ele>
        <time>2020-07-21T07:23:18Z</time>
      </trkpt>
      <trkpt lat="44.52137" lon="4.29351">
        <ele>220.2</ele>
        <time>2020-07-21T07:23:17Z</time>
      </trkpt>
      <trkpt lat="44.52152" lon="4.29358">
        <ele>220.4</ele>
        <time>2020-07-21T07:23:15Z</time>
      </trkpt>
      <trkpt lat="44.52167" lon="4.29367">
        <ele>220.7</ele>
        <time>2020-07-21T07:23:13Z</time>
      </trkpt>
      <trkpt lat="44.52181" lon="4.29376">
        <ele>220.9</ele>
        <time>2020-07-21T07:23:11Z</time>
      </trkpt>
      <trkpt lat="44.52188" lon="4.29381">
        <ele>221</ele>
        <time>2020-07-21T07:23:10Z</time>
      </trkpt>
      <trkpt lat="44.52203" lon="4.2939">
        <ele>221.2</ele>
        <time>2020-07-21T07:23:08Z</time>
      </trkpt>
      <trkpt lat="44.5221" lon="4.29395">
        <ele>221.4</ele>
        <time>2020-07-21T07:23:07Z</time>
      </trkpt>
      <trkpt lat="44.52225" lon="4.29405">
        <ele>221.7</ele>
        <time>2020-07-21T07:23:05Z</time>
      </trkpt>
      <trkpt lat="44.5224" lon="4.29414">
        <ele>222</ele>
        <time>2020-07-21T07:23:03Z</time>
      </trkpt>
      <trkpt lat="44.52254" lon="4.29425">
        <ele>222.3</ele>
        <time>2020-07-21T07:23:01Z</time>
      </trkpt>
      <trkpt lat="44.52262" lon="4.29431">
        <ele>222.5</ele>
        <time>2020-07-21T07:23:00Z</time>
      </trkpt>
      <trkpt lat="44.52269" lon="4.29438">
        <ele>222.7</ele>
        <time>2020-07-21T07:22:59Z</time>
      </trkpt>
      <trkpt lat="44.52284" lon="4.2945">
        <ele>223</ele>
        <time>2020-07-21T07:22:57Z</time>
      </trkpt>
      <trkpt lat="44.52299" lon="4.29464">
        <ele>223.4</ele>
        <time>2020-07-21T07:22:55Z</time>
      </trkpt>
      <trkpt lat="44.52307" lon="4.29472">
        <ele>223.5</ele>
        <time>2020-07-21T07:22:54Z</time>
      </trkpt>
      <trkpt lat="44.52321" lon="4.29489">
        <ele>223.9</ele>
        <time>2020-07-21T07:22:52Z</time>
      </trkpt>
      <trkpt lat="44.52329" lon="4.29499">
        <ele>224.1</ele>
        <time>2020-07-21T07:22:51Z</time>
      </trkpt>
      <trkpt lat="44.52342" lon="4.29518">
        <ele>224.5</ele>
        <time>2020-07-21T07:22:49Z</time>
      </trkpt>
      <trkpt lat="44.52348" lon="4.29529">
        <ele>224.7</ele>
        <time>2020-07-21T07:22:48Z</time>
      </trkpt>
      <trkpt lat="44.5236" lon="4.2955">
        <ele>225.2</ele>
        <time>2020-07-21T07:22:46Z</time>
      </trkpt>
      <trkpt lat="44.52365" lon="4.29561">
        <ele>225.5</ele>
        <time>2020-07-21T07:22:45Z</time>
      </trkpt>
      <trkpt lat="44.5237" lon="4.29572">
        <ele>225.7</ele>
        <time>2020-07-21T07:22:44Z</time>
      </trkpt>
      <trkpt lat="44.52376" lon="4.29593">
        <ele>226</ele>
        <time>2020-07-21T07:22:42Z</time>
      </trkpt>
      <trkpt lat="44.52382" lon="4.29611">
        <ele>226.2</ele>
        <time>2020-07-21T07:22:40Z</time>
      </trkpt>
      <trkpt lat="44.52386" lon="4.2962">
        <ele>226.2</ele>
        <time>2020-07-21T07:22:39Z</time>
      </trkpt>
      <trkpt lat="44.52391" lon="4.2963">
        <ele>226.2</ele>
        <time>2020-07-21T07:22:37Z</time>
      </trkpt>
      <trkpt lat="44.52395" lon="4.29631">
        <ele>226.1</ele>
        <time>2020-07-21T07:22:35Z</time>
      </trkpt>
      <trkpt lat="44.52397" lon="4.29626">
        <ele>226.1</ele>
        <time>2020-07-21T07:22:34Z</time>
      </trkpt>
      <trkpt lat="44.524" lon="4.29621">
        <ele>226</ele>
        <time>2020-07-21T07:22:33Z</time>
      </trkpt>
      <trkpt lat="44.52401" lon="4.29622">
        <ele>226</ele>
        <time>2020-07-21T07:22:32Z</time>
      </trkpt>
      <trkpt lat="44.52403" lon="4.29625">
        <ele>226</ele>
        <time>2020-07-21T07:22:31Z</time>
      </trkpt>
      <trkpt lat="44.52409" lon="4.2963">
        <ele>225.8</ele>
        <time>2020-07-21T07:22:29Z</time>
      </trkpt>
      <trkpt lat="44.52417" lon="4.29637">
        <ele>225.5</ele>
        <time>2020-07-21T07:22:28Z</time>
      </trkpt>
      <trkpt lat="44.52424" lon="4.29649">
        <ele>225.1</ele>
        <time>2020-07-21T07:22:26Z</time>
      </trkpt>
      <trkpt lat="44.52424" lon="4.29655">
        <ele>224.9</ele>
        <time>2020-07-21T07:22:25Z</time>
      </trkpt>
      <trkpt lat="44.52421" lon="4.29659">
        <ele>224.7</ele>
        <time>2020-07-21T07:22:23Z</time>
      </trkpt>
      <trkpt lat="44.52416" lon="4.29665">
        <ele>224.5</ele>
        <time>2020-07-21T07:22:22Z</time>
      </trkpt>
      <trkpt lat="44.52412" lon="4.2967">
        <ele>224.4</ele>
        <time>2020-07-21T07:22:20Z</time>
      </trkpt>
      <trkpt lat="44.52408" lon="4.29676">
        <ele>224.6</ele>
        <time>2020-07-21T07:22:19Z</time>
      </trkpt>
      <trkpt lat="44.52404" lon="4.2968">
        <ele>224.7</ele>
        <time>2020-07-21T07:22:18Z</time>
      </trkpt>
      <trkpt lat="44.52391" lon="4.29687">
        <ele>225.1</ele>
        <time>2020-07-21T07:22:16Z</time>
      </trkpt>
      <trkpt lat="44.52384" lon="4.29688">
        <ele>225.3</ele>
        <time>2020-07-21T07:22:15Z</time>
      </trkpt>
      <trkpt lat="44.52375" lon="4.29689">
        <ele>225.6</ele>
        <time>2020-07-21T07:22:14Z</time>
      </trkpt>
      <trkpt lat="44.52359" lon="4.29693">
        <ele>226</ele>
        <time>2020-07-21T07:22:12Z</time>
      </trkpt>
      <trkpt lat="44.52351" lon="4.29696">
        <ele>226.2</ele>
        <time>2020-07-21T07:22:11Z</time>
      </trkpt>
      <trkpt lat="44.52344" lon="4.29699">
        <ele>226.4</ele>
        <time>2020-07-21T07:22:10Z</time>
      </trkpt>
      <trkpt lat="44.52338" lon="4.297">
        <ele>226.6</ele>
        <time>2020-07-21T07:22:09Z</time>
      </trkpt>
      <trkpt lat="44.52333" lon="4.29701">
        <ele>226.8</ele>
        <time>2020-07-21T07:22:08Z</time>
      </trkpt>
      <trkpt lat="44.52328" lon="4.29695">
        <ele>227</ele>
        <time>2020-07-21T07:22:06Z</time>
      </trkpt>
      <trkpt lat="44.52329" lon="4.29682">
        <ele>227.3</ele>
        <time>2020-07-21T07:22:04Z</time>
      </trkpt>
      <trkpt lat="44.52336" lon="4.29673">
        <ele>227.6</ele>
        <time>2020-07-21T07:22:02Z</time>
      </trkpt>
      <trkpt lat="44.52342" lon="4.29672">
        <ele>227.8</ele>
        <time>2020-07-21T07:22:01Z</time>
      </trkpt>
      <trkpt lat="44.52359" lon="4.29678">
        <ele>228.3</ele>
        <time>2020-07-21T07:21:59Z</time>
      </trkpt>
      <trkpt lat="44.52405" lon="4.29557">
        <ele>237.3</ele>
        <time>2020-07-21T07:21:46Z</time>
      </trkpt>
      <trkpt lat="44.52402" lon="4.29541">
        <ele>238</ele>
        <time>2020-07-21T07:21:45Z</time>
      </trkpt>
      <trkpt lat="44.52393" lon="4.29509">
        <ele>239.5</ele>
        <time>2020-07-21T07:21:43Z</time>
      </trkpt>
      <trkpt lat="44.52386" lon="4.29475">
        <ele>241</ele>
        <time>2020-07-21T07:21:41Z</time>
      </trkpt>
      <trkpt lat="44.52385" lon="4.29457">
        <ele>241.8</ele>
        <time>2020-07-21T07:21:40Z</time>
      </trkpt>
      <trkpt lat="44.52387" lon="4.29421">
        <ele>243.6</ele>
        <time>2020-07-21T07:21:38Z</time>
      </trkpt>
      <trkpt lat="44.5239" lon="4.29402">
        <ele>244.5</ele>
        <time>2020-07-21T07:21:37Z</time>
      </trkpt>
      <trkpt lat="44.52399" lon="4.29367">
        <ele>246.3</ele>
        <time>2020-07-21T07:21:35Z</time>
      </trkpt>
      <trkpt lat="44.52406" lon="4.2935">
        <ele>247.2</ele>
        <time>2020-07-21T07:21:34Z</time>
      </trkpt>
      <trkpt lat="44.52413" lon="4.29334">
        <ele>248.2</ele>
        <time>2020-07-21T07:21:33Z</time>
      </trkpt>
      <trkpt lat="44.52429" lon="4.2931">
        <ele>249.9</ele>
        <time>2020-07-21T07:21:31Z</time>
      </trkpt>
      <trkpt lat="44.52438" lon="4.29303">
        <ele>250.5</ele>
        <time>2020-07-21T07:21:30Z</time>
      </trkpt>
      <trkpt lat="44.52454" lon="4.29302">
        <ele>251.3</ele>
        <time>2020-07-21T07:21:28Z</time>
      </trkpt>
      <trkpt lat="44.52461" lon="4.29308">
        <ele>251.5</ele>
        <time>2020-07-21T07:21:27Z</time>
      </trkpt>
      <trkpt lat="44.5247" lon="4.29327">
        <ele>251.9</ele>
        <time>2020-07-21T07:21:25Z</time>
      </trkpt>
      <trkpt lat="44.52472" lon="4.29338">
        <ele>252.1</ele>
        <time>2020-07-21T07:21:24Z</time>
      </trkpt>
      <trkpt lat="44.52472" lon="4.2935">
        <ele>253.1</ele>
        <time>2020-07-21T07:21:23Z</time>
      </trkpt>
      <trkpt lat="44.52468" lon="4.29377">
        <ele>253.7</ele>
        <time>2020-07-21T07:21:21Z</time>
      </trkpt>
      <trkpt lat="44.52465" lon="4.29391">
        <ele>254.1</ele>
        <time>2020-07-21T07:21:20Z</time>
      </trkpt>
      <trkpt lat="44.52459" lon="4.29424">
        <ele>255.6</ele>
        <time>2020-07-21T07:21:18Z</time>
      </trkpt>
      <trkpt lat="44.52456" lon="4.29442">
        <ele>256.4</ele>
        <time>2020-07-21T07:21:17Z</time>
      </trkpt>
      <trkpt lat="44.52454" lon="4.29482">
        <ele>258.1</ele>
        <time>2020-07-21T07:21:15Z</time>
      </trkpt>
      <trkpt lat="44.52454" lon="4.29502">
        <ele>258.9</ele>
        <time>2020-07-21T07:21:14Z</time>
      </trkpt>
      <trkpt lat="44.52457" lon="4.2952">
        <ele>259.9</ele>
        <time>2020-07-21T07:21:13Z</time>
      </trkpt>
      <trkpt lat="44.52468" lon="4.29551">
        <ele>261.1</ele>
        <time>2020-07-21T07:21:11Z</time>
      </trkpt>
      <trkpt lat="44.52475" lon="4.2956">
        <ele>261.6</ele>
        <time>2020-07-21T07:21:10Z</time>
      </trkpt>
      <trkpt lat="44.52483" lon="4.29566">
        <ele>262</ele>
        <time>2020-07-21T07:21:09Z</time>
      </trkpt>
      <trkpt lat="44.52498" lon="4.29572">
        <ele>262.8</ele>
        <time>2020-07-21T07:21:07Z</time>
      </trkpt>
      <trkpt lat="44.52506" lon="4.29571">
        <ele>263.1</ele>
        <time>2020-07-21T07:21:06Z</time>
      </trkpt>
      <trkpt lat="44.52522" lon="4.29566">
        <ele>263.8</ele>
        <time>2020-07-21T07:21:04Z</time>
      </trkpt>
      <trkpt lat="44.52541" lon="4.29555">
        <ele>264.7</ele>
        <time>2020-07-21T07:21:02Z</time>
      </trkpt>
      <trkpt lat="44.52561" lon="4.29544">
        <ele>265.6</ele>
        <time>2020-07-21T07:21:00Z</time>
      </trkpt>
      <trkpt lat="44.52583" lon="4.29536">
        <ele>266.7</ele>
        <time>2020-07-21T07:20:58Z</time>
      </trkpt>
      <trkpt lat="44.52595" lon="4.29532">
        <ele>268</ele>
        <time>2020-07-21T07:20:57Z</time>
      </trkpt>
      <trkpt lat="44.52619" lon="4.29528">
        <ele>270</ele>
        <time>2020-07-21T07:20:55Z</time>
      </trkpt>
      <trkpt lat="44.52631" lon="4.29526">
        <ele>270.9</ele>
        <time>2020-07-21T07:20:54Z</time>
      </trkpt>
      <trkpt lat="44.52655" lon="4.29522">
        <ele>272.1</ele>
        <time>2020-07-21T07:20:52Z</time>
      </trkpt>
      <trkpt lat="44.52668" lon="4.2952">
        <ele>272.5</ele>
        <time>2020-07-21T07:20:51Z</time>
      </trkpt>
      <trkpt lat="44.52681" lon="4.29516">
        <ele>272.9</ele>
        <time>2020-07-21T07:20:50Z</time>
      </trkpt>
      <trkpt lat="44.52707" lon="4.29505">
        <ele>273.6</ele>
        <time>2020-07-21T07:20:48Z</time>
      </trkpt>
      <trkpt lat="44.52733" lon="4.29489">
        <ele>274.2</ele>
        <time>2020-07-21T07:20:46Z</time>
      </trkpt>
      <trkpt lat="44.52745" lon="4.2948">
        <ele>274.6</ele>
        <time>2020-07-21T07:20:45Z</time>
      </trkpt>
      <trkpt lat="44.52758" lon="4.2947">
        <ele>275.1</ele>
        <time>2020-07-21T07:20:44Z</time>
      </trkpt>
      <trkpt lat="44.52771" lon="4.29459">
        <ele>275.9</ele>
        <time>2020-07-21T07:20:43Z</time>
      </trkpt>
      <trkpt lat="44.52794" lon="4.29439">
        <ele>277.6</ele>
        <time>2020-07-21T07:20:41Z</time>
      </trkpt>
      <trkpt lat="44.52802" lon="4.29429">
        <ele>278.4</ele>
        <time>2020-07-21T07:20:40Z</time>
      </trkpt>
      <trkpt lat="44.52807" lon="4.29419">
        <ele>279.2</ele>
        <time>2020-07-21T07:20:39Z</time>
      </trkpt>
      <trkpt lat="44.5281" lon="4.29409">
        <ele>279.9</ele>
        <time>2020-07-21T07:20:38Z</time>
      </trkpt>
      <trkpt lat="44.52812" lon="4.29398">
        <ele>280.6</ele>
        <time>2020-07-21T07:20:37Z</time>
      </trkpt>
      <trkpt lat="44.52812" lon="4.29377">
        <ele>282.1</ele>
        <time>2020-07-21T07:20:35Z</time>
      </trkpt>
      <trkpt lat="44.52809" lon="4.29367">
        <ele>282.9</ele>
        <time>2020-07-21T07:20:34Z</time>
      </trkpt>
      <trkpt lat="44.52806" lon="4.29358">
        <ele>284.1</ele>
        <time>2020-07-21T07:20:33Z</time>
      </trkpt>
      <trkpt lat="44.52799" lon="4.2934">
        <ele>285</ele>
        <time>2020-07-21T07:20:31Z</time>
      </trkpt>
      <trkpt lat="44.5279" lon="4.29322">
        <ele>286</ele>
        <time>2020-07-21T07:20:29Z</time>
      </trkpt>
      <trkpt lat="44.52786" lon="4.29313">
        <ele>286.7</ele>
        <time>2020-07-21T07:20:28Z</time>
      </trkpt>
      <trkpt lat="44.52778" lon="4.29294">
        <ele>287.9</ele>
        <time>2020-07-21T07:20:26Z</time>
      </trkpt>
      <trkpt lat="44.52771" lon="4.29275">
        <ele>288.9</ele>
        <time>2020-07-21T07:20:24Z</time>
      </trkpt>
      <trkpt lat="44.52769" lon="4.29254">
        <ele>289.9</ele>
        <time>2020-07-21T07:20:22Z</time>
      </trkpt>
      <trkpt lat="44.5277" lon="4.29234">
        <ele>290.3</ele>
        <time>2020-07-21T07:20:20Z</time>
      </trkpt>
      <trkpt lat="44.52771" lon="4.29223">
        <ele>290.3</ele>
        <time>2020-07-21T07:20:19Z</time>
      </trkpt>
      <trkpt lat="44.52775" lon="4.29204">
        <ele>290.4</ele>
        <time>2020-07-21T07:20:17Z</time>
      </trkpt>
      <trkpt lat="44.52777" lon="4.29195">
        <ele>290.5</ele>
        <time>2020-07-21T07:20:16Z</time>
      </trkpt>
      <trkpt lat="44.52782" lon="4.29178">
        <ele>290.7</ele>
        <time>2020-07-21T07:20:14Z</time>
      </trkpt>
      <trkpt lat="44.52785" lon="4.2917">
        <ele>290.7</ele>
        <time>2020-07-21T07:20:13Z</time>
      </trkpt>
      <trkpt lat="44.52789" lon="4.29154">
        <ele>290.6</ele>
        <time>2020-07-21T07:20:11Z</time>
      </trkpt>
      <trkpt lat="44.52792" lon="4.29145">
        <ele>290.5</ele>
        <time>2020-07-21T07:20:10Z</time>
      </trkpt>
      <trkpt lat="44.52797" lon="4.29128">
        <ele>290.4</ele>
        <time>2020-07-21T07:20:08Z</time>
      </trkpt>
      <trkpt lat="44.52799" lon="4.29119">
        <ele>290.3</ele>
        <time>2020-07-21T07:20:07Z</time>
      </trkpt>
      <trkpt lat="44.52802" lon="4.29102">
        <ele>290.2</ele>
        <time>2020-07-21T07:20:05Z</time>
      </trkpt>
      <trkpt lat="44.52804" lon="4.29093">
        <ele>290.1</ele>
        <time>2020-07-21T07:20:04Z</time>
      </trkpt>
      <trkpt lat="44.52805" lon="4.29084">
        <ele>290.1</ele>
        <time>2020-07-21T07:20:03Z</time>
      </trkpt>
      <trkpt lat="44.52809" lon="4.29065">
        <ele>289.9</ele>
        <time>2020-07-21T07:20:01Z</time>
      </trkpt>
      <trkpt lat="44.52813" lon="4.29047">
        <ele>289.8</ele>
        <time>2020-07-21T07:19:59Z</time>
      </trkpt>
      <trkpt lat="44.52815" lon="4.29037">
        <ele>289.8</ele>
        <time>2020-07-21T07:19:58Z</time>
      </trkpt>
      <trkpt lat="44.5282" lon="4.29018">
        <ele>289.6</ele>
        <time>2020-07-21T07:19:56Z</time>
      </trkpt>
      <trkpt lat="44.52824" lon="4.29008">
        <ele>289.5</ele>
        <time>2020-07-21T07:19:55Z</time>
      </trkpt>
      <trkpt lat="44.52833" lon="4.28988">
        <ele>289.3</ele>
        <time>2020-07-21T07:19:53Z</time>
      </trkpt>
      <trkpt lat="44.52838" lon="4.28978">
        <ele>289.3</ele>
        <time>2020-07-21T07:19:52Z</time>
      </trkpt>
      <trkpt lat="44.52851" lon="4.28958">
        <ele>289.2</ele>
        <time>2020-07-21T07:19:50Z</time>
      </trkpt>
      <trkpt lat="44.52857" lon="4.28947">
        <ele>289.1</ele>
        <time>2020-07-21T07:19:49Z</time>
      </trkpt>
      <trkpt lat="44.52869" lon="4.28923">
        <ele>289.1</ele>
        <time>2020-07-21T07:19:47Z</time>
      </trkpt>
      <trkpt lat="44.52874" lon="4.28909">
        <ele>289.3</ele>
        <time>2020-07-21T07:19:46Z</time>
      </trkpt>
      <trkpt lat="44.52882" lon="4.28883">
        <ele>289.7</ele>
        <time>2020-07-21T07:19:44Z</time>
      </trkpt>
      <trkpt lat="44.52885" lon="4.28869">
        <ele>289.9</ele>
        <time>2020-07-21T07:19:43Z</time>
      </trkpt>
      <trkpt lat="44.52888" lon="4.28844">
        <ele>291.1</ele>
        <time>2020-07-21T07:19:41Z</time>
      </trkpt>
      <trkpt lat="44.52888" lon="4.2882">
        <ele>292.4</ele>
        <time>2020-07-21T07:19:39Z</time>
      </trkpt>
      <trkpt lat="44.52887" lon="4.28809">
        <ele>293</ele>
        <time>2020-07-21T07:19:38Z</time>
      </trkpt>
      <trkpt lat="44.52886" lon="4.28798">
        <ele>293.6</ele>
        <time>2020-07-21T07:19:37Z</time>
      </trkpt>
      <trkpt lat="44.52881" lon="4.28777">
        <ele>294.5</ele>
        <time>2020-07-21T07:19:35Z</time>
      </trkpt>
      <trkpt lat="44.52878" lon="4.28768">
        <ele>294.8</ele>
        <time>2020-07-21T07:19:34Z</time>
      </trkpt>
      <trkpt lat="44.52875" lon="4.28758">
        <ele>295.1</ele>
        <time>2020-07-21T07:19:33Z</time>
      </trkpt>
      <trkpt lat="44.52871" lon="4.28748">
        <ele>295.3</ele>
        <time>2020-07-21T07:19:32Z</time>
      </trkpt>
      <trkpt lat="44.52865" lon="4.28729">
        <ele>295.4</ele>
        <time>2020-07-21T07:19:30Z</time>
      </trkpt>
      <trkpt lat="44.52859" lon="4.28709">
        <ele>295.4</ele>
        <time>2020-07-21T07:19:28Z</time>
      </trkpt>
      <trkpt lat="44.52855" lon="4.2869">
        <ele>295.4</ele>
        <time>2020-07-21T07:19:26Z</time>
      </trkpt>
      <trkpt lat="44.52854" lon="4.28679">
        <ele>295.4</ele>
        <time>2020-07-21T07:19:25Z</time>
      </trkpt>
      <trkpt lat="44.52852" lon="4.28657">
        <ele>295.6</ele>
        <time>2020-07-21T07:19:23Z</time>
      </trkpt>
      <trkpt lat="44.5285" lon="4.28646">
        <ele>295.7</ele>
        <time>2020-07-21T07:19:22Z</time>
      </trkpt>
      <trkpt lat="44.52848" lon="4.28622">
        <ele>296</ele>
        <time>2020-07-21T07:19:20Z</time>
      </trkpt>
      <trkpt lat="44.52846" lon="4.2861">
        <ele>296.1</ele>
        <time>2020-07-21T07:19:19Z</time>
      </trkpt>
      <trkpt lat="44.52843" lon="4.28588">
        <ele>296.5</ele>
        <time>2020-07-21T07:19:17Z</time>
      </trkpt>
      <trkpt lat="44.5284" lon="4.28566">
        <ele>297.1</ele>
        <time>2020-07-21T07:19:15Z</time>
      </trkpt>
      <trkpt lat="44.52838" lon="4.28555">
        <ele>297.4</ele>
        <time>2020-07-21T07:19:14Z</time>
      </trkpt>
      <trkpt lat="44.52835" lon="4.28544">
        <ele>297.8</ele>
        <time>2020-07-21T07:19:13Z</time>
      </trkpt>
      <trkpt lat="44.52829" lon="4.28526">
        <ele>298.5</ele>
        <time>2020-07-21T07:19:11Z</time>
      </trkpt>
      <trkpt lat="44.52825" lon="4.28517">
        <ele>298.9</ele>
        <time>2020-07-21T07:19:10Z</time>
      </trkpt>
      <trkpt lat="44.52817" lon="4.285">
        <ele>299.4</ele>
        <time>2020-07-21T07:19:08Z</time>
      </trkpt>
      <trkpt lat="44.52812" lon="4.2849">
        <ele>299.6</ele>
        <time>2020-07-21T07:19:07Z</time>
      </trkpt>
      <trkpt lat="44.52801" lon="4.28472">
        <ele>299.5</ele>
        <time>2020-07-21T07:19:05Z</time>
      </trkpt>
      <trkpt lat="44.5279" lon="4.2845">
        <ele>299</ele>
        <time>2020-07-21T07:19:03Z</time>
      </trkpt>
      <trkpt lat="44.52778" lon="4.28426">
        <ele>298.3</ele>
        <time>2020-07-21T07:19:01Z</time>
      </trkpt>
      <trkpt lat="44.52773" lon="4.28412">
        <ele>297.9</ele>
        <time>2020-07-21T07:19:00Z</time>
      </trkpt>
      <trkpt lat="44.52767" lon="4.28398">
        <ele>297.7</ele>
        <time>2020-07-21T07:18:59Z</time>
      </trkpt>
      <trkpt lat="44.52757" lon="4.28368">
        <ele>297.7</ele>
        <time>2020-07-21T07:18:57Z</time>
      </trkpt>
      <trkpt lat="44.52753" lon="4.28353">
        <ele>297.9</ele>
        <time>2020-07-21T07:18:56Z</time>
      </trkpt>
      <trkpt lat="44.52747" lon="4.28324">
        <ele>298.6</ele>
        <time>2020-07-21T07:18:54Z</time>
      </trkpt>
      <trkpt lat="44.52743" lon="4.28293">
        <ele>299.9</ele>
        <time>2020-07-21T07:18:52Z</time>
      </trkpt>
      <trkpt lat="44.52741" lon="4.28277">
        <ele>300.7</ele>
        <time>2020-07-21T07:18:51Z</time>
      </trkpt>
      <trkpt lat="44.52738" lon="4.28246">
        <ele>302.5</ele>
        <time>2020-07-21T07:18:49Z</time>
      </trkpt>
      <trkpt lat="44.52738" lon="4.2823">
        <ele>303.3</ele>
        <time>2020-07-21T07:18:48Z</time>
      </trkpt>
      <trkpt lat="44.52738" lon="4.28201">
        <ele>304.8</ele>
        <time>2020-07-21T07:18:46Z</time>
      </trkpt>
      <trkpt lat="44.52741" lon="4.28173">
        <ele>306.2</ele>
        <time>2020-07-21T07:18:44Z</time>
      </trkpt>
      <trkpt lat="44.52744" lon="4.28161">
        <ele>306.9</ele>
        <time>2020-07-21T07:18:43Z</time>
      </trkpt>
      <trkpt lat="44.52747" lon="4.28148">
        <ele>307.6</ele>
        <time>2020-07-21T07:18:42Z</time>
      </trkpt>
      <trkpt lat="44.52755" lon="4.28123">
        <ele>309.1</ele>
        <time>2020-07-21T07:18:40Z</time>
      </trkpt>
      <trkpt lat="44.52764" lon="4.28096">
        <ele>310.7</ele>
        <time>2020-07-21T07:18:38Z</time>
      </trkpt>
      <trkpt lat="44.52769" lon="4.28083">
        <ele>311.5</ele>
        <time>2020-07-21T07:18:37Z</time>
      </trkpt>
      <trkpt lat="44.52777" lon="4.28057">
        <ele>313.1</ele>
        <time>2020-07-21T07:18:35Z</time>
      </trkpt>
      <trkpt lat="44.52785" lon="4.28031">
        <ele>314.7</ele>
        <time>2020-07-21T07:18:33Z</time>
      </trkpt>
      <trkpt lat="44.52788" lon="4.28019">
        <ele>315.4</ele>
        <time>2020-07-21T07:18:32Z</time>
      </trkpt>
      <trkpt lat="44.52795" lon="4.27992">
        <ele>316.8</ele>
        <time>2020-07-21T07:18:30Z</time>
      </trkpt>
      <trkpt lat="44.52797" lon="4.27979">
        <ele>317.5</ele>
        <time>2020-07-21T07:18:29Z</time>
      </trkpt>
      <trkpt lat="44.52798" lon="4.27965">
        <ele>318.1</ele>
        <time>2020-07-21T07:18:28Z</time>
      </trkpt>
      <trkpt lat="44.52798" lon="4.27939">
        <ele>319.3</ele>
        <time>2020-07-21T07:18:26Z</time>
      </trkpt>
      <trkpt lat="44.52797" lon="4.27926">
        <ele>319.9</ele>
        <time>2020-07-21T07:18:25Z</time>
      </trkpt>
      <trkpt lat="44.52795" lon="4.27913">
        <ele>320.6</ele>
        <time>2020-07-21T07:18:24Z</time>
      </trkpt>
      <trkpt lat="44.5279" lon="4.27887">
        <ele>321.8</ele>
        <time>2020-07-21T07:18:22Z</time>
      </trkpt>
      <trkpt lat="44.52787" lon="4.27874">
        <ele>322.4</ele>
        <time>2020-07-21T07:18:21Z</time>
      </trkpt>
      <trkpt lat="44.52781" lon="4.27848">
        <ele>323.6</ele>
        <time>2020-07-21T07:18:19Z</time>
      </trkpt>
      <trkpt lat="44.52774" lon="4.27822">
        <ele>324.7</ele>
        <time>2020-07-21T07:18:17Z</time>
      </trkpt>
      <trkpt lat="44.52769" lon="4.2781">
        <ele>325.2</ele>
        <time>2020-07-21T07:18:16Z</time>
      </trkpt>
      <trkpt lat="44.52758" lon="4.27788">
        <ele>326.2</ele>
        <time>2020-07-21T07:18:14Z</time>
      </trkpt>
      <trkpt lat="44.52752" lon="4.27776">
        <ele>326.6</ele>
        <time>2020-07-21T07:18:13Z</time>
      </trkpt>
      <trkpt lat="44.52743" lon="4.27753">
        <ele>327.3</ele>
        <time>2020-07-21T07:18:11Z</time>
      </trkpt>
      <trkpt lat="44.52741" lon="4.27741">
        <ele>327.7</ele>
        <time>2020-07-21T07:18:10Z</time>
      </trkpt>
      <trkpt lat="44.52738" lon="4.27716">
        <ele>328.3</ele>
        <time>2020-07-21T07:18:08Z</time>
      </trkpt>
      <trkpt lat="44.52737" lon="4.2769">
        <ele>328.9</ele>
        <time>2020-07-21T07:18:06Z</time>
      </trkpt>
      <trkpt lat="44.52735" lon="4.27663">
        <ele>329.4</ele>
        <time>2020-07-21T07:18:04Z</time>
      </trkpt>
      <trkpt lat="44.52732" lon="4.27648">
        <ele>329.7</ele>
        <time>2020-07-21T07:18:03Z</time>
      </trkpt>
      <trkpt lat="44.52728" lon="4.2762">
        <ele>330.3</ele>
        <time>2020-07-21T07:18:01Z</time>
      </trkpt>
      <trkpt lat="44.52725" lon="4.27605">
        <ele>330.6</ele>
        <time>2020-07-21T07:18:00Z</time>
      </trkpt>
      <trkpt lat="44.52722" lon="4.27577">
        <ele>331.4</ele>
        <time>2020-07-21T07:17:58Z</time>
      </trkpt>
      <trkpt lat="44.52721" lon="4.27563">
        <ele>331.9</ele>
        <time>2020-07-21T07:17:57Z</time>
      </trkpt>
      <trkpt lat="44.52721" lon="4.27535">
        <ele>332.9</ele>
        <time>2020-07-21T07:17:55Z</time>
      </trkpt>
      <trkpt lat="44.52722" lon="4.27521">
        <ele>333.5</ele>
        <time>2020-07-21T07:17:54Z</time>
      </trkpt>
      <trkpt lat="44.52724" lon="4.27493">
        <ele>334.8</ele>
        <time>2020-07-21T07:17:52Z</time>
      </trkpt>
      <trkpt lat="44.52728" lon="4.27465">
        <ele>336.3</ele>
        <time>2020-07-21T07:17:50Z</time>
      </trkpt>
      <trkpt lat="44.52731" lon="4.27451">
        <ele>336.9</ele>
        <time>2020-07-21T07:17:49Z</time>
      </trkpt>
      <trkpt lat="44.52734" lon="4.27436">
        <ele>337.6</ele>
        <time>2020-07-21T07:17:48Z</time>
      </trkpt>
      <trkpt lat="44.52738" lon="4.27421">
        <ele>338.2</ele>
        <time>2020-07-21T07:17:47Z</time>
      </trkpt>
      <trkpt lat="44.52746" lon="4.27393">
        <ele>339.5</ele>
        <time>2020-07-21T07:17:45Z</time>
      </trkpt>
      <trkpt lat="44.52751" lon="4.27378">
        <ele>340.2</ele>
        <time>2020-07-21T07:17:44Z</time>
      </trkpt>
      <trkpt lat="44.5276" lon="4.27349">
        <ele>341.4</ele>
        <time>2020-07-21T07:17:42Z</time>
      </trkpt>
      <trkpt lat="44.52764" lon="4.27334">
        <ele>341.9</ele>
        <time>2020-07-21T07:17:41Z</time>
      </trkpt>
      <trkpt lat="44.52774" lon="4.27305">
        <ele>343</ele>
        <time>2020-07-21T07:17:39Z</time>
      </trkpt>
      <trkpt lat="44.52782" lon="4.27276">
        <ele>344</ele>
        <time>2020-07-21T07:17:37Z</time>
      </trkpt>
      <trkpt lat="44.52787" lon="4.27262">
        <ele>344.6</ele>
        <time>2020-07-21T07:17:36Z</time>
      </trkpt>
      <trkpt lat="44.5279" lon="4.27247">
        <ele>345.2</ele>
        <time>2020-07-21T07:17:35Z</time>
      </trkpt>
      <trkpt lat="44.52795" lon="4.27219">
        <ele>346.5</ele>
        <time>2020-07-21T07:17:33Z</time>
      </trkpt>
      <trkpt lat="44.52797" lon="4.27205">
        <ele>347.1</ele>
        <time>2020-07-21T07:17:32Z</time>
      </trkpt>
      <trkpt lat="44.52797" lon="4.27177">
        <ele>348.5</ele>
        <time>2020-07-21T07:17:30Z</time>
      </trkpt>
      <trkpt lat="44.52794" lon="4.27147">
        <ele>350</ele>
        <time>2020-07-21T07:17:28Z</time>
      </trkpt>
      <trkpt lat="44.52792" lon="4.27132">
        <ele>350.7</ele>
        <time>2020-07-21T07:17:27Z</time>
      </trkpt>
      <trkpt lat="44.52789" lon="4.27117">
        <ele>351.3</ele>
        <time>2020-07-21T07:17:26Z</time>
      </trkpt>
      <trkpt lat="44.52783" lon="4.27087">
        <ele>352.4</ele>
        <time>2020-07-21T07:17:24Z</time>
      </trkpt>
      <trkpt lat="44.5278" lon="4.27073">
        <ele>352.9</ele>
        <time>2020-07-21T07:17:23Z</time>
      </trkpt>
      <trkpt lat="44.52774" lon="4.27046">
        <ele>354.1</ele>
        <time>2020-07-21T07:17:21Z</time>
      </trkpt>
      <trkpt lat="44.52772" lon="4.27033">
        <ele>354.8</ele>
        <time>2020-07-21T07:17:20Z</time>
      </trkpt>
      <trkpt lat="44.5277" lon="4.2702">
        <ele>355.4</ele>
        <time>2020-07-21T07:17:19Z</time>
      </trkpt>
      <trkpt lat="44.52769" lon="4.27007">
        <ele>356</ele>
        <time>2020-07-21T07:17:18Z</time>
      </trkpt>
      <trkpt lat="44.52768" lon="4.26995">
        <ele>356.6</ele>
        <time>2020-07-21T07:17:17Z</time>
      </trkpt>
      <trkpt lat="44.52766" lon="4.26972">
        <ele>357.8</ele>
        <time>2020-07-21T07:17:15Z</time>
      </trkpt>
      <trkpt lat="44.52766" lon="4.2695">
        <ele>358.8</ele>
        <time>2020-07-21T07:17:13Z</time>
      </trkpt>
      <trkpt lat="44.52767" lon="4.26939">
        <ele>359.2</ele>
        <time>2020-07-21T07:17:12Z</time>
      </trkpt>
      <trkpt lat="44.52768" lon="4.26919">
        <ele>359.8</ele>
        <time>2020-07-21T07:17:10Z</time>
      </trkpt>
      <trkpt lat="44.5277" lon="4.269">
        <ele>360.2</ele>
        <time>2020-07-21T07:17:08Z</time>
      </trkpt>
      <trkpt lat="44.52769" lon="4.26881">
        <ele>360.4</ele>
        <time>2020-07-21T07:17:06Z</time>
      </trkpt>
      <trkpt lat="44.52767" lon="4.26872">
        <ele>360.5</ele>
        <time>2020-07-21T07:17:05Z</time>
      </trkpt>
      <trkpt lat="44.52762" lon="4.26851">
        <ele>360.3</ele>
        <time>2020-07-21T07:17:03Z</time>
      </trkpt>
      <trkpt lat="44.5276" lon="4.26839">
        <ele>360.3</ele>
        <time>2020-07-21T07:17:02Z</time>
      </trkpt>
      <trkpt lat="44.52758" lon="4.26827">
        <ele>360.2</ele>
        <time>2020-07-21T07:17:01Z</time>
      </trkpt>
      <trkpt lat="44.52758" lon="4.26814">
        <ele>360.1</ele>
        <time>2020-07-21T07:17:00Z</time>
      </trkpt>
      <trkpt lat="44.52757" lon="4.26786">
        <ele>360.1</ele>
        <time>2020-07-21T07:16:58Z</time>
      </trkpt>
      <trkpt lat="44.52758" lon="4.26772">
        <ele>360.1</ele>
        <time>2020-07-21T07:16:57Z</time>
      </trkpt>
      <trkpt lat="44.5276" lon="4.26743">
        <ele>360.5</ele>
        <time>2020-07-21T07:16:55Z</time>
      </trkpt>
      <trkpt lat="44.52762" lon="4.26729">
        <ele>360.6</ele>
        <time>2020-07-21T07:16:54Z</time>
      </trkpt>
      <trkpt lat="44.52769" lon="4.26701">
        <ele>361.1</ele>
        <time>2020-07-21T07:16:52Z</time>
      </trkpt>
      <trkpt lat="44.52774" lon="4.26687">
        <ele>361.4</ele>
        <time>2020-07-21T07:16:51Z</time>
      </trkpt>
      <trkpt lat="44.52783" lon="4.26659">
        <ele>362.5</ele>
        <time>2020-07-21T07:16:49Z</time>
      </trkpt>
      <trkpt lat="44.52793" lon="4.26631">
        <ele>363.7</ele>
        <time>2020-07-21T07:16:47Z</time>
      </trkpt>
      <trkpt lat="44.52804" lon="4.26605">
        <ele>365.1</ele>
        <time>2020-07-21T07:16:45Z</time>
      </trkpt>
      <trkpt lat="44.5281" lon="4.26592">
        <ele>365.7</ele>
        <time>2020-07-21T07:16:44Z</time>
      </trkpt>
      <trkpt lat="44.52826" lon="4.26572">
        <ele>366.9</ele>
        <time>2020-07-21T07:16:42Z</time>
      </trkpt>
      <trkpt lat="44.52835" lon="4.26565">
        <ele>367.5</ele>
        <time>2020-07-21T07:16:41Z</time>
      </trkpt>
      <trkpt lat="44.52845" lon="4.26561">
        <ele>368.2</ele>
        <time>2020-07-21T07:16:40Z</time>
      </trkpt>
      <trkpt lat="44.52864" lon="4.26555">
        <ele>369.7</ele>
        <time>2020-07-21T07:16:38Z</time>
      </trkpt>
      <trkpt lat="44.52874" lon="4.26552">
        <ele>370.4</ele>
        <time>2020-07-21T07:16:37Z</time>
      </trkpt>
      <trkpt lat="44.52891" lon="4.26544">
        <ele>371.4</ele>
        <time>2020-07-21T07:16:35Z</time>
      </trkpt>
      <trkpt lat="44.52905" lon="4.26533">
        <ele>372.4</ele>
        <time>2020-07-21T07:16:33Z</time>
      </trkpt>
      <trkpt lat="44.52911" lon="4.26527">
        <ele>372.8</ele>
        <time>2020-07-21T07:16:32Z</time>
      </trkpt>
      <trkpt lat="44.52914" lon="4.26514">
        <ele>373.4</ele>
        <time>2020-07-21T07:16:30Z</time>
      </trkpt>
      <trkpt lat="44.5291" lon="4.26503">
        <ele>373.9</ele>
        <time>2020-07-21T07:16:28Z</time>
      </trkpt>
      <trkpt lat="44.52905" lon="4.26498">
        <ele>374.3</ele>
        <time>2020-07-21T07:16:27Z</time>
      </trkpt>
      <trkpt lat="44.529" lon="4.26495">
        <ele>374.6</ele>
        <time>2020-07-21T07:16:26Z</time>
      </trkpt>
      <trkpt lat="44.52887" lon="4.26492">
        <ele>375</ele>
        <time>2020-07-21T07:16:24Z</time>
      </trkpt>
      <trkpt lat="44.52878" lon="4.26492">
        <ele>375.4</ele>
        <time>2020-07-21T07:16:23Z</time>
      </trkpt>
      <trkpt lat="44.52862" lon="4.26488">
        <ele>376.2</ele>
        <time>2020-07-21T07:16:21Z</time>
      </trkpt>
      <trkpt lat="44.52849" lon="4.26476">
        <ele>377</ele>
        <time>2020-07-21T07:16:19Z</time>
      </trkpt>
      <trkpt lat="44.52843" lon="4.26456">
        <ele>376.6</ele>
        <time>2020-07-21T07:16:17Z</time>
      </trkpt>
      <trkpt lat="44.52845" lon="4.26433">
        <ele>376.1</ele>
        <time>2020-07-21T07:16:15Z</time>
      </trkpt>
      <trkpt lat="44.5285" lon="4.26409">
        <ele>375.1</ele>
        <time>2020-07-21T07:16:13Z</time>
      </trkpt>
      <trkpt lat="44.52854" lon="4.26396">
        <ele>373.7</ele>
        <time>2020-07-21T07:16:12Z</time>
      </trkpt>
      <trkpt lat="44.52858" lon="4.26384">
        <ele>372.1</ele>
        <time>2020-07-21T07:16:11Z</time>
      </trkpt>
      <trkpt lat="44.52867" lon="4.2636">
        <ele>371.8</ele>
        <time>2020-07-21T07:16:09Z</time>
      </trkpt>
      <trkpt lat="44.52877" lon="4.26337">
        <ele>372.4</ele>
        <time>2020-07-21T07:16:07Z</time>
      </trkpt>
      <trkpt lat="44.52888" lon="4.26313">
        <ele>373.1</ele>
        <time>2020-07-21T07:16:05Z</time>
      </trkpt>
      <trkpt lat="44.529" lon="4.2629">
        <ele>374.2</ele>
        <time>2020-07-21T07:16:03Z</time>
      </trkpt>
      <trkpt lat="44.52913" lon="4.26267">
        <ele>375.3</ele>
        <time>2020-07-21T07:16:01Z</time>
      </trkpt>
      <trkpt lat="44.5292" lon="4.26255">
        <ele>375.9</ele>
        <time>2020-07-21T07:16:00Z</time>
      </trkpt>
      <trkpt lat="44.52934" lon="4.26232">
        <ele>377.4</ele>
        <time>2020-07-21T07:15:58Z</time>
      </trkpt>
      <trkpt lat="44.52942" lon="4.26219">
        <ele>378.3</ele>
        <time>2020-07-21T07:15:57Z</time>
      </trkpt>
      <trkpt lat="44.52948" lon="4.26207">
        <ele>379</ele>
        <time>2020-07-21T07:15:56Z</time>
      </trkpt>
      <trkpt lat="44.52954" lon="4.26194">
        <ele>379.8</ele>
        <time>2020-07-21T07:15:55Z</time>
      </trkpt>
      <trkpt lat="44.5296" lon="4.26167">
        <ele>381.1</ele>
        <time>2020-07-21T07:15:53Z</time>
      </trkpt>
      <trkpt lat="44.52963" lon="4.26138">
        <ele>382.5</ele>
        <time>2020-07-21T07:15:51Z</time>
      </trkpt>
      <trkpt lat="44.52965" lon="4.26109">
        <ele>383.7</ele>
        <time>2020-07-21T07:15:49Z</time>
      </trkpt>
      <trkpt lat="44.52965" lon="4.26081">
        <ele>384.9</ele>
        <time>2020-07-21T07:15:47Z</time>
      </trkpt>
      <trkpt lat="44.52963" lon="4.26054">
        <ele>386.2</ele>
        <time>2020-07-21T07:15:45Z</time>
      </trkpt>
      <trkpt lat="44.52961" lon="4.26041">
        <ele>386.8</ele>
        <time>2020-07-21T07:15:44Z</time>
      </trkpt>
      <trkpt lat="44.52959" lon="4.26027">
        <ele>387.4</ele>
        <time>2020-07-21T07:15:43Z</time>
      </trkpt>
      <trkpt lat="44.52956" lon="4.26">
        <ele>388.6</ele>
        <time>2020-07-21T07:15:41Z</time>
      </trkpt>
      <trkpt lat="44.52954" lon="4.25985">
        <ele>389.2</ele>
        <time>2020-07-21T07:15:40Z</time>
      </trkpt>
      <trkpt lat="44.5295" lon="4.25955">
        <ele>390.6</ele>
        <time>2020-07-21T07:15:38Z</time>
      </trkpt>
      <trkpt lat="44.52948" lon="4.25941">
        <ele>391.3</ele>
        <time>2020-07-21T07:15:37Z</time>
      </trkpt>
      <trkpt lat="44.52945" lon="4.25912">
        <ele>392.7</ele>
        <time>2020-07-21T07:15:35Z</time>
      </trkpt>
      <trkpt lat="44.52942" lon="4.25882">
        <ele>394.1</ele>
        <time>2020-07-21T07:15:33Z</time>
      </trkpt>
      <trkpt lat="44.52942" lon="4.25867">
        <ele>394.8</ele>
        <time>2020-07-21T07:15:32Z</time>
      </trkpt>
      <trkpt lat="44.52942" lon="4.25853">
        <ele>395.5</ele>
        <time>2020-07-21T07:15:31Z</time>
      </trkpt>
      <trkpt lat="44.52948" lon="4.25828">
        <ele>396.8</ele>
        <time>2020-07-21T07:15:29Z</time>
      </trkpt>
      <trkpt lat="44.52959" lon="4.25806">
        <ele>398.1</ele>
        <time>2020-07-21T07:15:27Z</time>
      </trkpt>
      <trkpt lat="44.52966" lon="4.25796">
        <ele>398.8</ele>
        <time>2020-07-21T07:15:26Z</time>
      </trkpt>
      <trkpt lat="44.52973" lon="4.25786">
        <ele>399.4</ele>
        <time>2020-07-21T07:15:25Z</time>
      </trkpt>
      <trkpt lat="44.52985" lon="4.25765">
        <ele>400.6</ele>
        <time>2020-07-21T07:15:23Z</time>
      </trkpt>
      <trkpt lat="44.5299" lon="4.25741">
        <ele>401.8</ele>
        <time>2020-07-21T07:15:21Z</time>
      </trkpt>
      <trkpt lat="44.52991" lon="4.25728">
        <ele>402.3</ele>
        <time>2020-07-21T07:15:20Z</time>
      </trkpt>
      <trkpt lat="44.52989" lon="4.25705">
        <ele>403.7</ele>
        <time>2020-07-21T07:15:18Z</time>
      </trkpt>
      <trkpt lat="44.52985" lon="4.25683">
        <ele>404.8</ele>
        <time>2020-07-21T07:15:16Z</time>
      </trkpt>
      <trkpt lat="44.52983" lon="4.25671">
        <ele>405.4</ele>
        <time>2020-07-21T07:15:15Z</time>
      </trkpt>
      <trkpt lat="44.52977" lon="4.25648">
        <ele>406.4</ele>
        <time>2020-07-21T07:15:13Z</time>
      </trkpt>
      <trkpt lat="44.52974" lon="4.25636">
        <ele>407</ele>
        <time>2020-07-21T07:15:12Z</time>
      </trkpt>
      <trkpt lat="44.5297" lon="4.25624">
        <ele>407.5</ele>
        <time>2020-07-21T07:15:11Z</time>
      </trkpt>
      <trkpt lat="44.52964" lon="4.256">
        <ele>408.6</ele>
        <time>2020-07-21T07:15:09Z</time>
      </trkpt>
      <trkpt lat="44.52962" lon="4.25577">
        <ele>409.7</ele>
        <time>2020-07-21T07:15:07Z</time>
      </trkpt>
      <trkpt lat="44.52963" lon="4.25555">
        <ele>410.7</ele>
        <time>2020-07-21T07:15:05Z</time>
      </trkpt>
      <trkpt lat="44.52967" lon="4.25532">
        <ele>411.7</ele>
        <time>2020-07-21T07:15:03Z</time>
      </trkpt>
      <trkpt lat="44.5297" lon="4.25521">
        <ele>412.2</ele>
        <time>2020-07-21T07:15:02Z</time>
      </trkpt>
      <trkpt lat="44.52973" lon="4.25509">
        <ele>412.7</ele>
        <time>2020-07-21T07:15:01Z</time>
      </trkpt>
      <trkpt lat="44.5298" lon="4.25486">
        <ele>413.8</ele>
        <time>2020-07-21T07:14:59Z</time>
      </trkpt>
      <trkpt lat="44.52987" lon="4.25464">
        <ele>414.8</ele>
        <time>2020-07-21T07:14:57Z</time>
      </trkpt>
      <trkpt lat="44.52992" lon="4.25452">
        <ele>415.4</ele>
        <time>2020-07-21T07:14:56Z</time>
      </trkpt>
      <trkpt lat="44.53003" lon="4.25431">
        <ele>416.4</ele>
        <time>2020-07-21T07:14:54Z</time>
      </trkpt>
      <trkpt lat="44.53009" lon="4.25421">
        <ele>416.9</ele>
        <time>2020-07-21T07:14:53Z</time>
      </trkpt>
      <trkpt lat="44.5302" lon="4.25401">
        <ele>417.9</ele>
        <time>2020-07-21T07:14:51Z</time>
      </trkpt>
      <trkpt lat="44.53025" lon="4.25391">
        <ele>418.4</ele>
        <time>2020-07-21T07:14:50Z</time>
      </trkpt>
      <trkpt lat="44.53029" lon="4.25382">
        <ele>418.9</ele>
        <time>2020-07-21T07:14:49Z</time>
      </trkpt>
      <trkpt lat="44.53038" lon="4.25362">
        <ele>419.9</ele>
        <time>2020-07-21T07:14:47Z</time>
      </trkpt>
      <trkpt lat="44.53043" lon="4.25353">
        <ele>420.5</ele>
        <time>2020-07-21T07:14:46Z</time>
      </trkpt>
      <trkpt lat="44.53051" lon="4.25334">
        <ele>421.4</ele>
        <time>2020-07-21T07:14:44Z</time>
      </trkpt>
      <trkpt lat="44.53056" lon="4.25325">
        <ele>421.9</ele>
        <time>2020-07-21T07:14:43Z</time>
      </trkpt>
      <trkpt lat="44.5306" lon="4.25315">
        <ele>422.4</ele>
        <time>2020-07-21T07:14:42Z</time>
      </trkpt>
      <trkpt lat="44.53068" lon="4.25297">
        <ele>423.3</ele>
        <time>2020-07-21T07:14:40Z</time>
      </trkpt>
      <trkpt lat="44.53077" lon="4.25277">
        <ele>424.4</ele>
        <time>2020-07-21T07:14:38Z</time>
      </trkpt>
      <trkpt lat="44.53085" lon="4.25256">
        <ele>425.4</ele>
        <time>2020-07-21T07:14:36Z</time>
      </trkpt>
      <trkpt lat="44.53092" lon="4.25235">
        <ele>426.4</ele>
        <time>2020-07-21T07:14:34Z</time>
      </trkpt>
      <trkpt lat="44.531" lon="4.25212">
        <ele>427.5</ele>
        <time>2020-07-21T07:14:32Z</time>
      </trkpt>
      <trkpt lat="44.53108" lon="4.25191">
        <ele>428.5</ele>
        <time>2020-07-21T07:14:30Z</time>
      </trkpt>
      <trkpt lat="44.53118" lon="4.25168">
        <ele>429.7</ele>
        <time>2020-07-21T07:14:28Z</time>
      </trkpt>
      <trkpt lat="44.53123" lon="4.25157">
        <ele>430.4</ele>
        <time>2020-07-21T07:14:27Z</time>
      </trkpt>
      <trkpt lat="44.53129" lon="4.25145">
        <ele>431</ele>
        <time>2020-07-21T07:14:26Z</time>
      </trkpt>
      <trkpt lat="44.53139" lon="4.25122">
        <ele>432.2</ele>
        <time>2020-07-21T07:14:24Z</time>
      </trkpt>
      <trkpt lat="44.53147" lon="4.25102">
        <ele>433.3</ele>
        <time>2020-07-21T07:14:22Z</time>
      </trkpt>
      <trkpt lat="44.53151" lon="4.25092">
        <ele>433.8</ele>
        <time>2020-07-21T07:14:21Z</time>
      </trkpt>
      <trkpt lat="44.53155" lon="4.25083">
        <ele>434.4</ele>
        <time>2020-07-21T07:14:20Z</time>
      </trkpt>
      <trkpt lat="44.53159" lon="4.25073">
        <ele>434.9</ele>
        <time>2020-07-21T07:14:19Z</time>
      </trkpt>
      <trkpt lat="44.53167" lon="4.25054">
        <ele>436</ele>
        <time>2020-07-21T07:14:17Z</time>
      </trkpt>
      <trkpt lat="44.53174" lon="4.25034">
        <ele>436.9</ele>
        <time>2020-07-21T07:14:15Z</time>
      </trkpt>
      <trkpt lat="44.53178" lon="4.25024">
        <ele>437.4</ele>
        <time>2020-07-21T07:14:14Z</time>
      </trkpt>
      <trkpt lat="44.53182" lon="4.25013">
        <ele>438</ele>
        <time>2020-07-21T07:14:13Z</time>
      </trkpt>
      <trkpt lat="44.53185" lon="4.25003">
        <ele>438.5</ele>
        <time>2020-07-21T07:14:12Z</time>
      </trkpt>
      <trkpt lat="44.53192" lon="4.24984">
        <ele>439.5</ele>
        <time>2020-07-21T07:14:10Z</time>
      </trkpt>
      <trkpt lat="44.53196" lon="4.24974">
        <ele>440</ele>
        <time>2020-07-21T07:14:09Z</time>
      </trkpt>
      <trkpt lat="44.53198" lon="4.24963">
        <ele>440.5</ele>
        <time>2020-07-21T07:14:08Z</time>
      </trkpt>
      <trkpt lat="44.53201" lon="4.24952">
        <ele>441.1</ele>
        <time>2020-07-21T07:14:07Z</time>
      </trkpt>
      <trkpt lat="44.53203" lon="4.2494">
        <ele>441.6</ele>
        <time>2020-07-21T07:14:06Z</time>
      </trkpt>
      <trkpt lat="44.53204" lon="4.24914">
        <ele>442.7</ele>
        <time>2020-07-21T07:14:04Z</time>
      </trkpt>
      <trkpt lat="44.53204" lon="4.249">
        <ele>443.4</ele>
        <time>2020-07-21T07:14:03Z</time>
      </trkpt>
      <trkpt lat="44.53198" lon="4.24873">
        <ele>444.8</ele>
        <time>2020-07-21T07:14:01Z</time>
      </trkpt>
      <trkpt lat="44.53186" lon="4.2485">
        <ele>446.2</ele>
        <time>2020-07-21T07:13:59Z</time>
      </trkpt>
      <trkpt lat="44.5317" lon="4.24841">
        <ele>448</ele>
        <time>2020-07-21T07:13:57Z</time>
      </trkpt>
      <trkpt lat="44.53152" lon="4.2484">
        <ele>448.9</ele>
        <time>2020-07-21T07:13:55Z</time>
      </trkpt>
      <trkpt lat="44.53143" lon="4.24841">
        <ele>449.3</ele>
        <time>2020-07-21T07:13:54Z</time>
      </trkpt>
      <trkpt lat="44.53124" lon="4.24842">
        <ele>450.1</ele>
        <time>2020-07-21T07:13:52Z</time>
      </trkpt>
      <trkpt lat="44.53114" lon="4.24843">
        <ele>450.5</ele>
        <time>2020-07-21T07:13:51Z</time>
      </trkpt>
      <trkpt lat="44.53096" lon="4.24844">
        <ele>451.1</ele>
        <time>2020-07-21T07:13:49Z</time>
      </trkpt>
      <trkpt lat="44.53086" lon="4.24845">
        <ele>451.5</ele>
        <time>2020-07-21T07:13:48Z</time>
      </trkpt>
      <trkpt lat="44.5307" lon="4.24845">
        <ele>452</ele>
        <time>2020-07-21T07:13:46Z</time>
      </trkpt>
      <trkpt lat="44.53059" lon="4.24841">
        <ele>452.4</ele>
        <time>2020-07-21T07:13:44Z</time>
      </trkpt>
      <trkpt lat="44.53052" lon="4.24833">
        <ele>452.8</ele>
        <time>2020-07-21T07:13:42Z</time>
      </trkpt>
      <trkpt lat="44.5305" lon="4.24828">
        <ele>452.9</ele>
        <time>2020-07-21T07:13:41Z</time>
      </trkpt>
      <trkpt lat="44.53054" lon="4.24815">
        <ele>453.4</ele>
        <time>2020-07-21T07:13:39Z</time>
      </trkpt>
      <trkpt lat="44.53062" lon="4.24805">
        <ele>453.8</ele>
        <time>2020-07-21T07:13:37Z</time>
      </trkpt>
      <trkpt lat="44.53068" lon="4.24801">
        <ele>453.9</ele>
        <time>2020-07-21T07:13:36Z</time>
      </trkpt>
      <trkpt lat="44.5308" lon="4.24798">
        <ele>454.3</ele>
        <time>2020-07-21T07:13:34Z</time>
      </trkpt>
      <trkpt lat="44.53087" lon="4.24796">
        <ele>454.6</ele>
        <time>2020-07-21T07:13:33Z</time>
      </trkpt>
      <trkpt lat="44.53103" lon="4.24789">
        <ele>455.3</ele>
        <time>2020-07-21T07:13:31Z</time>
      </trkpt>
      <trkpt lat="44.53118" lon="4.24781">
        <ele>456.1</ele>
        <time>2020-07-21T07:13:29Z</time>
      </trkpt>
      <trkpt lat="44.53127" lon="4.24776">
        <ele>456.5</ele>
        <time>2020-07-21T07:13:28Z</time>
      </trkpt>
      <trkpt lat="44.53143" lon="4.24767">
        <ele>457.2</ele>
        <time>2020-07-21T07:13:26Z</time>
      </trkpt>
      <trkpt lat="44.53159" lon="4.24758">
        <ele>457.9</ele>
        <time>2020-07-21T07:13:24Z</time>
      </trkpt>
      <trkpt lat="44.53167" lon="4.24753">
        <ele>458.2</ele>
        <time>2020-07-21T07:13:23Z</time>
      </trkpt>
      <trkpt lat="44.53183" lon="4.24744">
        <ele>458.9</ele>
        <time>2020-07-21T07:13:21Z</time>
      </trkpt>
      <trkpt lat="44.53199" lon="4.24735">
        <ele>459.7</ele>
        <time>2020-07-21T07:13:19Z</time>
      </trkpt>
      <trkpt lat="44.53214" lon="4.24727">
        <ele>460.6</ele>
        <time>2020-07-21T07:13:17Z</time>
      </trkpt>
      <trkpt lat="44.53221" lon="4.24723">
        <ele>461</ele>
        <time>2020-07-21T07:13:16Z</time>
      </trkpt>
      <trkpt lat="44.53237" lon="4.24715">
        <ele>461.7</ele>
        <time>2020-07-21T07:13:14Z</time>
      </trkpt>
      <trkpt lat="44.53252" lon="4.24709">
        <ele>462.5</ele>
        <time>2020-07-21T07:13:12Z</time>
      </trkpt>
      <trkpt lat="44.53267" lon="4.24701">
        <ele>463.2</ele>
        <time>2020-07-21T07:13:10Z</time>
      </trkpt>
      <trkpt lat="44.5328" lon="4.2469">
        <ele>463.8</ele>
        <time>2020-07-21T07:13:08Z</time>
      </trkpt>
      <trkpt lat="44.53293" lon="4.24678">
        <ele>464.5</ele>
        <time>2020-07-21T07:13:06Z</time>
      </trkpt>
      <trkpt lat="44.53304" lon="4.24665">
        <ele>465.2</ele>
        <time>2020-07-21T07:13:04Z</time>
      </trkpt>
      <trkpt lat="44.5331" lon="4.24658">
        <ele>465.6</ele>
        <time>2020-07-21T07:13:03Z</time>
      </trkpt>
      <trkpt lat="44.5332" lon="4.24644">
        <ele>466.9</ele>
        <time>2020-07-21T07:13:01Z</time>
      </trkpt>
      <trkpt lat="44.53324" lon="4.24636">
        <ele>467.6</ele>
        <time>2020-07-21T07:13:00Z</time>
      </trkpt>
      <trkpt lat="44.53332" lon="4.24621">
        <ele>468.9</ele>
        <time>2020-07-21T07:12:58Z</time>
      </trkpt>
      <trkpt lat="44.53336" lon="4.24614">
        <ele>469.5</ele>
        <time>2020-07-21T07:12:57Z</time>
      </trkpt>
      <trkpt lat="44.53339" lon="4.24606">
        <ele>470</ele>
        <time>2020-07-21T07:12:56Z</time>
      </trkpt>
      <trkpt lat="44.53343" lon="4.24598">
        <ele>470.3</ele>
        <time>2020-07-21T07:12:55Z</time>
      </trkpt>
      <trkpt lat="44.53352" lon="4.24583">
        <ele>471.1</ele>
        <time>2020-07-21T07:12:53Z</time>
      </trkpt>
      <trkpt lat="44.53357" lon="4.24576">
        <ele>471.5</ele>
        <time>2020-07-21T07:12:52Z</time>
      </trkpt>
      <trkpt lat="44.53367" lon="4.24561">
        <ele>472</ele>
        <time>2020-07-21T07:12:50Z</time>
      </trkpt>
      <trkpt lat="44.53373" lon="4.24553">
        <ele>472.3</ele>
        <time>2020-07-21T07:12:49Z</time>
      </trkpt>
      <trkpt lat="44.53385" lon="4.24538">
        <ele>473.2</ele>
        <time>2020-07-21T07:12:47Z</time>
      </trkpt>
      <trkpt lat="44.53392" lon="4.2453">
        <ele>473.7</ele>
        <time>2020-07-21T07:12:46Z</time>
      </trkpt>
      <trkpt lat="44.53399" lon="4.24522">
        <ele>474.2</ele>
        <time>2020-07-21T07:12:45Z</time>
      </trkpt>
      <trkpt lat="44.53414" lon="4.2451">
        <ele>475.3</ele>
        <time>2020-07-21T07:12:43Z</time>
      </trkpt>
      <trkpt lat="44.53423" lon="4.24504">
        <ele>476.1</ele>
        <time>2020-07-21T07:12:42Z</time>
      </trkpt>
      <trkpt lat="44.53442" lon="4.24496">
        <ele>477.8</ele>
        <time>2020-07-21T07:12:40Z</time>
      </trkpt>
      <trkpt lat="44.53451" lon="4.24493">
        <ele>478.7</ele>
        <time>2020-07-21T07:12:39Z</time>
      </trkpt>
      <trkpt lat="44.53469" lon="4.24489">
        <ele>480.3</ele>
        <time>2020-07-21T07:12:37Z</time>
      </trkpt>
      <trkpt lat="44.53477" lon="4.24486">
        <ele>481</ele>
        <time>2020-07-21T07:12:36Z</time>
      </trkpt>
      <trkpt lat="44.53494" lon="4.24478">
        <ele>482.5</ele>
        <time>2020-07-21T07:12:34Z</time>
      </trkpt>
      <trkpt lat="44.53502" lon="4.24473">
        <ele>483.2</ele>
        <time>2020-07-21T07:12:33Z</time>
      </trkpt>
      <trkpt lat="44.53519" lon="4.24461">
        <ele>484.4</ele>
        <time>2020-07-21T07:12:31Z</time>
      </trkpt>
      <trkpt lat="44.53537" lon="4.24447">
        <ele>485.7</ele>
        <time>2020-07-21T07:12:29Z</time>
      </trkpt>
      <trkpt lat="44.53554" lon="4.24431">
        <ele>486.9</ele>
        <time>2020-07-21T07:12:27Z</time>
      </trkpt>
      <trkpt lat="44.53563" lon="4.24422">
        <ele>487.6</ele>
        <time>2020-07-21T07:12:26Z</time>
      </trkpt>
      <trkpt lat="44.53579" lon="4.24404">
        <ele>488.7</ele>
        <time>2020-07-21T07:12:24Z</time>
      </trkpt>
      <trkpt lat="44.53597" lon="4.24384">
        <ele>489.8</ele>
        <time>2020-07-21T07:12:22Z</time>
      </trkpt>
      <trkpt lat="44.53606" lon="4.24374">
        <ele>490.4</ele>
        <time>2020-07-21T07:12:21Z</time>
      </trkpt>
      <trkpt lat="44.53623" lon="4.24353">
        <ele>491.9</ele>
        <time>2020-07-21T07:12:19Z</time>
      </trkpt>
      <trkpt lat="44.53639" lon="4.24332">
        <ele>493.7</ele>
        <time>2020-07-21T07:12:17Z</time>
      </trkpt>
      <trkpt lat="44.53648" lon="4.24309">
        <ele>495.5</ele>
        <time>2020-07-21T07:12:15Z</time>
      </trkpt>
      <trkpt lat="44.53646" lon="4.24286">
        <ele>497</ele>
        <time>2020-07-21T07:12:13Z</time>
      </trkpt>
      <trkpt lat="44.53639" lon="4.24264">
        <ele>498.4</ele>
        <time>2020-07-21T07:12:11Z</time>
      </trkpt>
      <trkpt lat="44.5363" lon="4.24245">
        <ele>499.7</ele>
        <time>2020-07-21T07:12:09Z</time>
      </trkpt>
      <trkpt lat="44.53621" lon="4.24225">
        <ele>500.9</ele>
        <time>2020-07-21T07:12:07Z</time>
      </trkpt>
      <trkpt lat="44.53616" lon="4.24215">
        <ele>501.5</ele>
        <time>2020-07-21T07:12:06Z</time>
      </trkpt>
      <trkpt lat="44.53612" lon="4.24204">
        <ele>502</ele>
        <time>2020-07-21T07:12:05Z</time>
      </trkpt>
      <trkpt lat="44.53603" lon="4.24184">
        <ele>502.8</ele>
        <time>2020-07-21T07:12:03Z</time>
      </trkpt>
      <trkpt lat="44.53595" lon="4.24164">
        <ele>503.4</ele>
        <time>2020-07-21T07:12:01Z</time>
      </trkpt>
      <trkpt lat="44.53591" lon="4.24154">
        <ele>503.7</ele>
        <time>2020-07-21T07:12:00Z</time>
      </trkpt>
      <trkpt lat="44.53588" lon="4.24145">
        <ele>503.9</ele>
        <time>2020-07-21T07:11:59Z</time>
      </trkpt>
      <trkpt lat="44.53582" lon="4.24126">
        <ele>504.4</ele>
        <time>2020-07-21T07:11:57Z</time>
      </trkpt>
      <trkpt lat="44.53579" lon="4.24116">
        <ele>504.6</ele>
        <time>2020-07-21T07:11:56Z</time>
      </trkpt>
      <trkpt lat="44.53573" lon="4.24098">
        <ele>505</ele>
        <time>2020-07-21T07:11:54Z</time>
      </trkpt>
      <trkpt lat="44.53571" lon="4.2409">
        <ele>505.2</ele>
        <time>2020-07-21T07:11:53Z</time>
      </trkpt>
      <trkpt lat="44.53567" lon="4.24073">
        <ele>505.6</ele>
        <time>2020-07-21T07:11:51Z</time>
      </trkpt>
      <trkpt lat="44.53567" lon="4.24057">
        <ele>505.9</ele>
        <time>2020-07-21T07:11:49Z</time>
      </trkpt>
      <trkpt lat="44.53569" lon="4.24042">
        <ele>506.2</ele>
        <time>2020-07-21T07:11:47Z</time>
      </trkpt>
      <trkpt lat="44.53572" lon="4.24027">
        <ele>506.4</ele>
        <time>2020-07-21T07:11:45Z</time>
      </trkpt>
      <trkpt lat="44.53575" lon="4.2401">
        <ele>506.6</ele>
        <time>2020-07-21T07:11:43Z</time>
      </trkpt>
      <trkpt lat="44.53578" lon="4.23994">
        <ele>506.6</ele>
        <time>2020-07-21T07:11:41Z</time>
      </trkpt>
      <trkpt lat="44.53582" lon="4.23976">
        <ele>506.7</ele>
        <time>2020-07-21T07:11:39Z</time>
      </trkpt>
      <trkpt lat="44.53583" lon="4.23967">
        <ele>506.8</ele>
        <time>2020-07-21T07:11:38Z</time>
      </trkpt>
      <trkpt lat="44.53587" lon="4.23947">
        <ele>506.8</ele>
        <time>2020-07-21T07:11:36Z</time>
      </trkpt>
      <trkpt lat="44.53593" lon="4.23926">
        <ele>506.7</ele>
        <time>2020-07-21T07:11:34Z</time>
      </trkpt>
      <trkpt lat="44.53601" lon="4.23905">
        <ele>506.6</ele>
        <time>2020-07-21T07:11:32Z</time>
      </trkpt>
      <trkpt lat="44.53612" lon="4.23886">
        <ele>506.7</ele>
        <time>2020-07-21T07:11:30Z</time>
      </trkpt>
      <trkpt lat="44.53618" lon="4.23878">
        <ele>506.9</ele>
        <time>2020-07-21T07:11:29Z</time>
      </trkpt>
      <trkpt lat="44.53625" lon="4.2387">
        <ele>507.1</ele>
        <time>2020-07-21T07:11:28Z</time>
      </trkpt>
      <trkpt lat="44.53633" lon="4.23864">
        <ele>507.3</ele>
        <time>2020-07-21T07:11:27Z</time>
      </trkpt>
      <trkpt lat="44.53646" lon="4.23854">
        <ele>507.7</ele>
        <time>2020-07-21T07:11:25Z</time>
      </trkpt>
      <trkpt lat="44.53657" lon="4.23845">
        <ele>508</ele>
        <time>2020-07-21T07:11:23Z</time>
      </trkpt>
      <trkpt lat="44.53667" lon="4.23836">
        <ele>508.2</ele>
        <time>2020-07-21T07:11:21Z</time>
      </trkpt>
      <trkpt lat="44.53672" lon="4.2383">
        <ele>508.4</ele>
        <time>2020-07-21T07:11:20Z</time>
      </trkpt>
      <trkpt lat="44.53677" lon="4.23823">
        <ele>508.5</ele>
        <time>2020-07-21T07:11:19Z</time>
      </trkpt>
      <trkpt lat="44.53685" lon="4.23809">
        <ele>508.6</ele>
        <time>2020-07-21T07:11:17Z</time>
      </trkpt>
      <trkpt lat="44.5369" lon="4.23801">
        <ele>508.7</ele>
        <time>2020-07-21T07:11:16Z</time>
      </trkpt>
      <trkpt lat="44.53697" lon="4.23786">
        <ele>508.9</ele>
        <time>2020-07-21T07:11:14Z</time>
      </trkpt>
      <trkpt lat="44.537" lon="4.23778">
        <ele>509</ele>
        <time>2020-07-21T07:11:13Z</time>
      </trkpt>
      <trkpt lat="44.53703" lon="4.23771">
        <ele>509</ele>
        <time>2020-07-21T07:11:12Z</time>
      </trkpt>
      <trkpt lat="44.53706" lon="4.23756">
        <ele>509.2</ele>
        <time>2020-07-21T07:11:10Z</time>
      </trkpt>
      <trkpt lat="44.53706" lon="4.2374">
        <ele>509.4</ele>
        <time>2020-07-21T07:11:08Z</time>
      </trkpt>
      <trkpt lat="44.53705" lon="4.23722">
        <ele>509.5</ele>
        <time>2020-07-21T07:11:06Z</time>
      </trkpt>
      <trkpt lat="44.53705" lon="4.23703">
        <ele>509.5</ele>
        <time>2020-07-21T07:11:04Z</time>
      </trkpt>
      <trkpt lat="44.53706" lon="4.23692">
        <ele>509.4</ele>
        <time>2020-07-21T07:11:03Z</time>
      </trkpt>
      <trkpt lat="44.5371" lon="4.23671">
        <ele>509.2</ele>
        <time>2020-07-21T07:11:01Z</time>
      </trkpt>
      <trkpt lat="44.53712" lon="4.2366">
        <ele>509.2</ele>
        <time>2020-07-21T07:11:00Z</time>
      </trkpt>
      <trkpt lat="44.53715" lon="4.2365">
        <ele>509.1</ele>
        <time>2020-07-21T07:10:59Z</time>
      </trkpt>
      <trkpt lat="44.53721" lon="4.2363">
        <ele>509.1</ele>
        <time>2020-07-21T07:10:57Z</time>
      </trkpt>
      <trkpt lat="44.53724" lon="4.2362">
        <ele>509.2</ele>
        <time>2020-07-21T07:10:56Z</time>
      </trkpt>
      <trkpt lat="44.53731" lon="4.23599">
        <ele>509.4</ele>
        <time>2020-07-21T07:10:54Z</time>
      </trkpt>
      <trkpt lat="44.5374" lon="4.23578">
        <ele>509.9</ele>
        <time>2020-07-21T07:10:52Z</time>
      </trkpt>
      <trkpt lat="44.53746" lon="4.23568">
        <ele>510.2</ele>
        <time>2020-07-21T07:10:51Z</time>
      </trkpt>
      <trkpt lat="44.53751" lon="4.23558">
        <ele>510.4</ele>
        <time>2020-07-21T07:10:50Z</time>
      </trkpt>
      <trkpt lat="44.53757" lon="4.23549">
        <ele>510.7</ele>
        <time>2020-07-21T07:10:49Z</time>
      </trkpt>
      <trkpt lat="44.53767" lon="4.23531">
        <ele>511.3</ele>
        <time>2020-07-21T07:10:47Z</time>
      </trkpt>
      <trkpt lat="44.53772" lon="4.23521">
        <ele>511.6</ele>
        <time>2020-07-21T07:10:46Z</time>
      </trkpt>
      <trkpt lat="44.53779" lon="4.23501">
        <ele>512.3</ele>
        <time>2020-07-21T07:10:44Z</time>
      </trkpt>
      <trkpt lat="44.53783" lon="4.23479">
        <ele>512.9</ele>
        <time>2020-07-21T07:10:42Z</time>
      </trkpt>
      <trkpt lat="44.53786" lon="4.23457">
        <ele>513.4</ele>
        <time>2020-07-21T07:10:40Z</time>
      </trkpt>
      <trkpt lat="44.53789" lon="4.23434">
        <ele>514</ele>
        <time>2020-07-21T07:10:38Z</time>
      </trkpt>
      <trkpt lat="44.53792" lon="4.23411">
        <ele>514.4</ele>
        <time>2020-07-21T07:10:36Z</time>
      </trkpt>
      <trkpt lat="44.53793" lon="4.234">
        <ele>514.7</ele>
        <time>2020-07-21T07:10:35Z</time>
      </trkpt>
      <trkpt lat="44.53796" lon="4.2338">
        <ele>515.3</ele>
        <time>2020-07-21T07:10:33Z</time>
      </trkpt>
      <trkpt lat="44.53798" lon="4.2337">
        <ele>515.6</ele>
        <time>2020-07-21T07:10:32Z</time>
      </trkpt>
      <trkpt lat="44.53801" lon="4.2336">
        <ele>515.9</ele>
        <time>2020-07-21T07:10:31Z</time>
      </trkpt>
      <trkpt lat="44.53807" lon="4.23342">
        <ele>516.5</ele>
        <time>2020-07-21T07:10:29Z</time>
      </trkpt>
      <trkpt lat="44.53814" lon="4.23324">
        <ele>516.9</ele>
        <time>2020-07-21T07:10:27Z</time>
      </trkpt>
      <trkpt lat="44.53819" lon="4.23315">
        <ele>517.1</ele>
        <time>2020-07-21T07:10:26Z</time>
      </trkpt>
      <trkpt lat="44.53824" lon="4.23306">
        <ele>517.3</ele>
        <time>2020-07-21T07:10:25Z</time>
      </trkpt>
      <trkpt lat="44.5383" lon="4.23298">
        <ele>517.5</ele>
        <time>2020-07-21T07:10:24Z</time>
      </trkpt>
      <trkpt lat="44.53841" lon="4.23281">
        <ele>517.8</ele>
        <time>2020-07-21T07:10:22Z</time>
      </trkpt>
      <trkpt lat="44.53846" lon="4.23273">
        <ele>518</ele>
        <time>2020-07-21T07:10:21Z</time>
      </trkpt>
      <trkpt lat="44.53857" lon="4.23256">
        <ele>518.3</ele>
        <time>2020-07-21T07:10:19Z</time>
      </trkpt>
      <trkpt lat="44.53862" lon="4.23248">
        <ele>518.4</ele>
        <time>2020-07-21T07:10:18Z</time>
      </trkpt>
      <trkpt lat="44.53872" lon="4.23231">
        <ele>518.6</ele>
        <time>2020-07-21T07:10:16Z</time>
      </trkpt>
      <trkpt lat="44.53877" lon="4.23221">
        <ele>518.9</ele>
        <time>2020-07-21T07:10:15Z</time>
      </trkpt>
      <trkpt lat="44.53883" lon="4.23203">
        <ele>519.3</ele>
        <time>2020-07-21T07:10:13Z</time>
      </trkpt>
      <trkpt lat="44.53887" lon="4.23184">
        <ele>519.7</ele>
        <time>2020-07-21T07:10:11Z</time>
      </trkpt>
      <trkpt lat="44.5389" lon="4.23174">
        <ele>519.8</ele>
        <time>2020-07-21T07:10:10Z</time>
      </trkpt>
      <trkpt lat="44.53892" lon="4.23165">
        <ele>519.9</ele>
        <time>2020-07-21T07:10:09Z</time>
      </trkpt>
      <trkpt lat="44.53897" lon="4.23146">
        <ele>520.1</ele>
        <time>2020-07-21T07:10:07Z</time>
      </trkpt>
      <trkpt lat="44.53903" lon="4.23127">
        <ele>520.3</ele>
        <time>2020-07-21T07:10:05Z</time>
      </trkpt>
      <trkpt lat="44.53908" lon="4.23109">
        <ele>520.5</ele>
        <time>2020-07-21T07:10:03Z</time>
      </trkpt>
      <trkpt lat="44.53911" lon="4.23089">
        <ele>520.7</ele>
        <time>2020-07-21T07:10:01Z</time>
      </trkpt>
      <trkpt lat="44.53912" lon="4.23079">
        <ele>520.7</ele>
        <time>2020-07-21T07:10:00Z</time>
      </trkpt>
      <trkpt lat="44.53913" lon="4.23069">
        <ele>520.7</ele>
        <time>2020-07-21T07:09:59Z</time>
      </trkpt>
      <trkpt lat="44.53912" lon="4.23048">
        <ele>520.8</ele>
        <time>2020-07-21T07:09:57Z</time>
      </trkpt>
      <trkpt lat="44.5391" lon="4.23036">
        <ele>520.8</ele>
        <time>2020-07-21T07:09:56Z</time>
      </trkpt>
      <trkpt lat="44.53908" lon="4.23025">
        <ele>520.8</ele>
        <time>2020-07-21T07:09:55Z</time>
      </trkpt>
      <trkpt lat="44.53901" lon="4.23003">
        <ele>521</ele>
        <time>2020-07-21T07:09:53Z</time>
      </trkpt>
      <trkpt lat="44.53893" lon="4.22982">
        <ele>521.2</ele>
        <time>2020-07-21T07:09:51Z</time>
      </trkpt>
      <trkpt lat="44.5389" lon="4.22972">
        <ele>521.3</ele>
        <time>2020-07-21T07:09:50Z</time>
      </trkpt>
      <trkpt lat="44.53883" lon="4.22951">
        <ele>521.8</ele>
        <time>2020-07-21T07:09:48Z</time>
      </trkpt>
      <trkpt lat="44.53876" lon="4.2293">
        <ele>522.3</ele>
        <time>2020-07-21T07:09:46Z</time>
      </trkpt>
      <trkpt lat="44.53872" lon="4.22919">
        <ele>522.6</ele>
        <time>2020-07-21T07:09:45Z</time>
      </trkpt>
      <trkpt lat="44.53866" lon="4.22899">
        <ele>523.2</ele>
        <time>2020-07-21T07:09:43Z</time>
      </trkpt>
      <trkpt lat="44.5386" lon="4.22878">
        <ele>523.7</ele>
        <time>2020-07-21T07:09:41Z</time>
      </trkpt>
      <trkpt lat="44.53857" lon="4.22867">
        <ele>524</ele>
        <time>2020-07-21T07:09:40Z</time>
      </trkpt>
      <trkpt lat="44.53851" lon="4.22845">
        <ele>524.4</ele>
        <time>2020-07-21T07:09:38Z</time>
      </trkpt>
      <trkpt lat="44.53848" lon="4.22834">
        <ele>524.6</ele>
        <time>2020-07-21T07:09:37Z</time>
      </trkpt>
      <trkpt lat="44.53844" lon="4.22823">
        <ele>524.8</ele>
        <time>2020-07-21T07:09:36Z</time>
      </trkpt>
      <trkpt lat="44.53837" lon="4.22802">
        <ele>525.3</ele>
        <time>2020-07-21T07:09:34Z</time>
      </trkpt>
      <trkpt lat="44.53828" lon="4.22781">
        <ele>525.9</ele>
        <time>2020-07-21T07:09:32Z</time>
      </trkpt>
      <trkpt lat="44.53824" lon="4.22771">
        <ele>526.1</ele>
        <time>2020-07-21T07:09:31Z</time>
      </trkpt>
      <trkpt lat="44.53816" lon="4.2275">
        <ele>526.6</ele>
        <time>2020-07-21T07:09:29Z</time>
      </trkpt>
      <trkpt lat="44.53811" lon="4.2274">
        <ele>526.8</ele>
        <time>2020-07-21T07:09:28Z</time>
      </trkpt>
      <trkpt lat="44.53804" lon="4.22721">
        <ele>526.7</ele>
        <time>2020-07-21T07:09:26Z</time>
      </trkpt>
      <trkpt lat="44.538" lon="4.22712">
        <ele>526.7</ele>
        <time>2020-07-21T07:09:25Z</time>
      </trkpt>
      <trkpt lat="44.53794" lon="4.22699">
        <ele>526.6</ele>
        <time>2020-07-21T07:09:23Z</time>
      </trkpt>
      <trkpt lat="44.53791" lon="4.22693">
        <ele>526.6</ele>
        <time>2020-07-21T07:09:22Z</time>
      </trkpt>
      <trkpt lat="44.53787" lon="4.22687">
        <ele>526.5</ele>
        <time>2020-07-21T07:09:20Z</time>
      </trkpt>
      <trkpt lat="44.53784" lon="4.22679">
        <ele>526.5</ele>
        <time>2020-07-21T07:09:19Z</time>
      </trkpt>
      <trkpt lat="44.5378" lon="4.22672">
        <ele>526.4</ele>
        <time>2020-07-21T07:09:18Z</time>
      </trkpt>
      <trkpt lat="44.53777" lon="4.22667">
        <ele>526.3</ele>
        <time>2020-07-21T07:09:17Z</time>
      </trkpt>
      <trkpt lat="44.53773" lon="4.22659">
        <ele>526.2</ele>
        <time>2020-07-21T07:09:15Z</time>
      </trkpt>
      <trkpt lat="44.53779" lon="4.22655">
        <ele>526</ele>
        <time>2020-07-21T07:09:14Z</time>
      </trkpt>
      <trkpt lat="44.53781" lon="4.22655">
        <ele>526</ele>
        <time>2020-07-21T07:09:13Z</time>
      </trkpt>
      <trkpt lat="44.53785" lon="4.22657">
        <ele>525.9</ele>
        <time>2020-07-21T07:09:11Z</time>
      </trkpt>
      <trkpt lat="44.53786" lon="4.22664">
        <ele>525.7</ele>
        <time>2020-07-21T07:09:10Z</time>
      </trkpt>
      <trkpt lat="44.53786" lon="4.22668">
        <ele>525.6</ele>
        <time>2020-07-21T07:09:08Z</time>
      </trkpt>
      <trkpt lat="44.53786" lon="4.22673">
        <ele>525.5</ele>
        <time>2020-07-21T07:09:07Z</time>
      </trkpt>
      <trkpt lat="44.53786" lon="4.22675">
        <ele>525.5</ele>
        <time>2020-07-21T07:09:06Z</time>
      </trkpt>
      <trkpt lat="44.53784" lon="4.2268">
        <ele>525.3</ele>
        <time>2020-07-21T07:09:05Z</time>
      </trkpt>
      <trkpt lat="44.53777" lon="4.22664">
        <ele>524.9</ele>
        <time>2020-07-21T07:09:03Z</time>
      </trkpt>
      <trkpt lat="44.53773" lon="4.22654">
        <ele>524.7</ele>
        <time>2020-07-21T07:09:01Z</time>
      </trkpt>
      <trkpt lat="44.53771" lon="4.22649">
        <ele>524.5</ele>
        <time>2020-07-21T07:09:00Z</time>
      </trkpt>
      <trkpt lat="44.53767" lon="4.22639">
        <ele>524.3</ele>
        <time>2020-07-21T07:08:58Z</time>
      </trkpt>
      <trkpt lat="44.53762" lon="4.22628">
        <ele>524</ele>
        <time>2020-07-21T07:08:56Z</time>
      </trkpt>
      <trkpt lat="44.53757" lon="4.22616">
        <ele>523.9</ele>
        <time>2020-07-21T07:08:54Z</time>
      </trkpt>
      <trkpt lat="44.53755" lon="4.22609">
        <ele>523.8</ele>
        <time>2020-07-21T07:08:53Z</time>
      </trkpt>
      <trkpt lat="44.5375" lon="4.22596">
        <ele>523.6</ele>
        <time>2020-07-21T07:08:51Z</time>
      </trkpt>
      <trkpt lat="44.53748" lon="4.22589">
        <ele>523.6</ele>
        <time>2020-07-21T07:08:50Z</time>
      </trkpt>
      <trkpt lat="44.53745" lon="4.22581">
        <ele>523.6</ele>
        <time>2020-07-21T07:08:49Z</time>
      </trkpt>
      <trkpt lat="44.53743" lon="4.22573">
        <ele>523.5</ele>
        <time>2020-07-21T07:08:48Z</time>
      </trkpt>
      <trkpt lat="44.53738" lon="4.22557">
        <ele>523.5</ele>
        <time>2020-07-21T07:08:46Z</time>
      </trkpt>
      <trkpt lat="44.53735" lon="4.22549">
        <ele>523.5</ele>
        <time>2020-07-21T07:08:45Z</time>
      </trkpt>
      <trkpt lat="44.5373" lon="4.22532">
        <ele>523.5</ele>
        <time>2020-07-21T07:08:43Z</time>
      </trkpt>
      <trkpt lat="44.53725" lon="4.22514">
        <ele>523.5</ele>
        <time>2020-07-21T07:08:41Z</time>
      </trkpt>
      <trkpt lat="44.53719" lon="4.22497">
        <ele>523.5</ele>
        <time>2020-07-21T07:08:39Z</time>
      </trkpt>
      <trkpt lat="44.53713" lon="4.2248">
        <ele>523.7</ele>
        <time>2020-07-21T07:08:37Z</time>
      </trkpt>
      <trkpt lat="44.53709" lon="4.22472">
        <ele>523.8</ele>
        <time>2020-07-21T07:08:36Z</time>
      </trkpt>
      <trkpt lat="44.53701" lon="4.22458">
        <ele>523.9</ele>
        <time>2020-07-21T07:08:34Z</time>
      </trkpt>
      <trkpt lat="44.53697" lon="4.22451">
        <ele>524</ele>
        <time>2020-07-21T07:08:33Z</time>
      </trkpt>
      <trkpt lat="44.53689" lon="4.22438">
        <ele>524.1</ele>
        <time>2020-07-21T07:08:31Z</time>
      </trkpt>
      <trkpt lat="44.53684" lon="4.2243">
        <ele>524.2</ele>
        <time>2020-07-21T07:08:30Z</time>
      </trkpt>
      <trkpt lat="44.53676" lon="4.22416">
        <ele>524.3</ele>
        <time>2020-07-21T07:08:28Z</time>
      </trkpt>
      <trkpt lat="44.53668" lon="4.22403">
        <ele>524.4</ele>
        <time>2020-07-21T07:08:26Z</time>
      </trkpt>
      <trkpt lat="44.53662" lon="4.22396">
        <ele>524.5</ele>
        <time>2020-07-21T07:08:24Z</time>
      </trkpt>
      <trkpt lat="44.53658" lon="4.22397">
        <ele>524.5</ele>
        <time>2020-07-21T07:08:23Z</time>
      </trkpt>
      <trkpt lat="44.53654" lon="4.22397">
        <ele>524.6</ele>
        <time>2020-07-21T07:08:22Z</time>
      </trkpt>
      <trkpt lat="44.53649" lon="4.22398">
        <ele>524.7</ele>
        <time>2020-07-21T07:08:21Z</time>
      </trkpt>
      <trkpt lat="44.53644" lon="4.22398">
        <ele>524.7</ele>
        <time>2020-07-21T07:08:20Z</time>
      </trkpt>
      <trkpt lat="44.53638" lon="4.22398">
        <ele>524.8</ele>
        <time>2020-07-21T07:08:19Z</time>
      </trkpt>
      <trkpt lat="44.53634" lon="4.22394">
        <ele>524.9</ele>
        <time>2020-07-21T07:08:18Z</time>
      </trkpt>
      <trkpt lat="44.53629" lon="4.22388">
        <ele>525</ele>
        <time>2020-07-21T07:08:17Z</time>
      </trkpt>
      <trkpt lat="44.53622" lon="4.22382">
        <ele>525.2</ele>
        <time>2020-07-21T07:08:16Z</time>
      </trkpt>
      <trkpt lat="44.53608" lon="4.22368">
        <ele>525.6</ele>
        <time>2020-07-21T07:08:14Z</time>
      </trkpt>
      <trkpt lat="44.53589" lon="4.22352">
        <ele>525.5</ele>
        <time>2020-07-21T07:08:12Z</time>
      </trkpt>
      <trkpt lat="44.53582" lon="4.22345">
        <ele>525.4</ele>
        <time>2020-07-21T07:08:11Z</time>
      </trkpt>
      <trkpt lat="44.53574" lon="4.22337">
        <ele>525.3</ele>
        <time>2020-07-21T07:08:10Z</time>
      </trkpt>
      <trkpt lat="44.53566" lon="4.2233">
        <ele>525.1</ele>
        <time>2020-07-21T07:08:09Z</time>
      </trkpt>
      <trkpt lat="44.53558" lon="4.22323">
        <ele>524.7</ele>
        <time>2020-07-21T07:08:08Z</time>
      </trkpt>
      <trkpt lat="44.53541" lon="4.22309">
        <ele>524.6</ele>
        <time>2020-07-21T07:08:06Z</time>
      </trkpt>
      <trkpt lat="44.53533" lon="4.22304">
        <ele>524.8</ele>
        <time>2020-07-21T07:08:05Z</time>
      </trkpt>
      <trkpt lat="44.53517" lon="4.22297">
        <ele>524.9</ele>
        <time>2020-07-21T07:08:03Z</time>
      </trkpt>
      <trkpt lat="44.53509" lon="4.22294">
        <ele>524.8</ele>
        <time>2020-07-21T07:08:02Z</time>
      </trkpt>
      <trkpt lat="44.53497" lon="4.22286">
        <ele>524.9</ele>
        <time>2020-07-21T07:08:00Z</time>
      </trkpt>
      <trkpt lat="44.53494" lon="4.22283">
        <ele>524.6</ele>
        <time>2020-07-21T07:07:59Z</time>
      </trkpt>
      <trkpt lat="44.5349" lon="4.2228">
        <ele>524.7</ele>
        <time>2020-07-21T07:07:58Z</time>
      </trkpt>
      <trkpt lat="44.53486" lon="4.22279">
        <ele>524.5</ele>
        <time>2020-07-21T07:07:57Z</time>
      </trkpt>
      <trkpt lat="44.53483" lon="4.22278">
        <ele>524.6</ele>
        <time>2020-07-21T07:07:56Z</time>
      </trkpt>
      <trkpt lat="44.53477" lon="4.22276">
        <ele>524.4</ele>
        <time>2020-07-21T07:07:54Z</time>
      </trkpt>
      <trkpt lat="44.53476" lon="4.22277">
        <ele>524.3</ele>
        <time>2020-07-21T07:07:53Z</time>
      </trkpt>
      <trkpt lat="44.53473" lon="4.22277">
        <ele>524.1</ele>
        <time>2020-07-21T07:07:52Z</time>
      </trkpt>
      <trkpt lat="44.53465" lon="4.22284">
        <ele>523.3</ele>
        <time>2020-07-21T07:07:50Z</time>
      </trkpt>
      <trkpt lat="44.53463" lon="4.22285">
        <ele>523.2</ele>
        <time>2020-07-21T07:07:49Z</time>
      </trkpt>
      <trkpt lat="44.53462" lon="4.22286">
        <ele>523.1</ele>
        <time>2020-07-21T07:07:47Z</time>
      </trkpt>
      <trkpt lat="44.53461" lon="4.22287">
        <ele>522.7</ele>
        <time>2020-07-21T07:07:46Z</time>
      </trkpt>
      <trkpt lat="44.53459" lon="4.22289">
        <ele>522.5</ele>
        <time>2020-07-21T07:07:45Z</time>
      </trkpt>
      <trkpt lat="44.53457" lon="4.22289">
        <ele>522.4</ele>
        <time>2020-07-21T07:07:44Z</time>
      </trkpt>
      <trkpt lat="44.53456" lon="4.2229">
        <ele>522.3</ele>
        <time>2020-07-21T07:07:42Z</time>
      </trkpt>
      <trkpt lat="44.53454" lon="4.22292">
        <ele>521.9</ele>
        <time>2020-07-21T07:07:41Z</time>
      </trkpt>
      <trkpt lat="44.53452" lon="4.22294">
        <ele>521.8</ele>
        <time>2020-07-21T07:07:40Z</time>
      </trkpt>
      <trkpt lat="44.53449" lon="4.22296">
        <ele>521.3</ele>
        <time>2020-07-21T07:07:39Z</time>
      </trkpt>
      <trkpt lat="44.53446" lon="4.22298">
        <ele>521.2</ele>
        <time>2020-07-21T07:07:37Z</time>
      </trkpt>
      <trkpt lat="44.53444" lon="4.22299">
        <ele>521</ele>
        <time>2020-07-21T07:07:35Z</time>
      </trkpt>
      <trkpt lat="44.53443" lon="4.223">
        <ele>520.6</ele>
        <time>2020-07-21T07:07:34Z</time>
      </trkpt>
      <trkpt lat="44.53442" lon="4.223">
        <ele>520.5</ele>
        <time>2020-07-21T07:07:33Z</time>
      </trkpt>
      <trkpt lat="44.5344" lon="4.22301">
        <ele>520.3</ele>
        <time>2020-07-21T07:07:32Z</time>
      </trkpt>
      <trkpt lat="44.53436" lon="4.22302">
        <ele>520.1</ele>
        <time>2020-07-21T07:07:30Z</time>
      </trkpt>
      <trkpt lat="44.53434" lon="4.22303">
        <ele>520.1</ele>
        <time>2020-07-21T07:07:29Z</time>
      </trkpt>
      <trkpt lat="44.53431" lon="4.22303">
        <ele>520</ele>
        <time>2020-07-21T07:07:28Z</time>
      </trkpt>
      <trkpt lat="44.5343" lon="4.22303">
        <ele>519.9</ele>
        <time>2020-07-21T07:07:27Z</time>
      </trkpt>
      <trkpt lat="44.53427" lon="4.22303">
        <ele>519.8</ele>
        <time>2020-07-21T07:07:26Z</time>
      </trkpt>
      <trkpt lat="44.53421" lon="4.22303">
        <ele>519.7</ele>
        <time>2020-07-21T07:07:24Z</time>
      </trkpt>
      <trkpt lat="44.53417" lon="4.22304">
        <ele>519.6</ele>
        <time>2020-07-21T07:07:23Z</time>
      </trkpt>
      <trkpt lat="44.53413" lon="4.22304">
        <ele>519.5</ele>
        <time>2020-07-21T07:07:21Z</time>
      </trkpt>
      <trkpt lat="44.5341" lon="4.22305">
        <ele>519.5</ele>
        <time>2020-07-21T07:07:20Z</time>
      </trkpt>
      <trkpt lat="44.53407" lon="4.22305">
        <ele>519.4</ele>
        <time>2020-07-21T07:07:19Z</time>
      </trkpt>
      <trkpt lat="44.53403" lon="4.22306">
        <ele>519.4</ele>
        <time>2020-07-21T07:07:17Z</time>
      </trkpt>
      <trkpt lat="44.53399" lon="4.22308">
        <ele>519.3</ele>
        <time>2020-07-21T07:07:16Z</time>
      </trkpt>
      <trkpt lat="44.53396" lon="4.22308">
        <ele>519.3</ele>
        <time>2020-07-21T07:07:15Z</time>
      </trkpt>
      <trkpt lat="44.53393" lon="4.22309">
        <ele>519.3</ele>
        <time>2020-07-21T07:07:14Z</time>
      </trkpt>
      <trkpt lat="44.5339" lon="4.22309">
        <ele>519.2</ele>
        <time>2020-07-21T07:07:12Z</time>
      </trkpt>
      <trkpt lat="44.53387" lon="4.2231">
        <ele>519.2</ele>
        <time>2020-07-21T07:07:11Z</time>
      </trkpt>
      <trkpt lat="44.53384" lon="4.22312">
        <ele>519.2</ele>
        <time>2020-07-21T07:07:10Z</time>
      </trkpt>
      <trkpt lat="44.53383" lon="4.22314">
        <ele>519.2</ele>
        <time>2020-07-21T07:07:09Z</time>
      </trkpt>
      <trkpt lat="44.53379" lon="4.22317">
        <ele>519.1</ele>
        <time>2020-07-21T07:07:08Z</time>
      </trkpt>
      <trkpt lat="44.53375" lon="4.22318">
        <ele>519.1</ele>
        <time>2020-07-21T07:07:06Z</time>
      </trkpt>
      <trkpt lat="44.53372" lon="4.22318">
        <ele>519.1</ele>
        <time>2020-07-21T07:07:05Z</time>
      </trkpt>
      <trkpt lat="44.53366" lon="4.22318">
        <ele>519.1</ele>
        <time>2020-07-21T07:07:03Z</time>
      </trkpt>
      <trkpt lat="44.53362" lon="4.22319">
        <ele>519.1</ele>
        <time>2020-07-21T07:07:01Z</time>
      </trkpt>
      <trkpt lat="44.5336" lon="4.2232">
        <ele>519.1</ele>
        <time>2020-07-21T07:07:00Z</time>
      </trkpt>
      <trkpt lat="44.53358" lon="4.22318">
        <ele>519.1</ele>
        <time>2020-07-21T07:06:58Z</time>
      </trkpt>
      <trkpt lat="44.53359" lon="4.22319">
        <ele>519.1</ele>
        <time>2020-07-21T07:06:57Z</time>
      </trkpt>
      <trkpt lat="44.53355" lon="4.22311">
        <ele>519.2</ele>
        <time>2020-07-21T07:06:55Z</time>
      </trkpt>
      <trkpt lat="44.53355" lon="4.2231">
        <ele>519.2</ele>
        <time>2020-07-21T07:06:54Z</time>
      </trkpt>
      <trkpt lat="44.53356" lon="4.22307">
        <ele>519.2</ele>
        <time>2020-07-21T07:06:53Z</time>
      </trkpt>
      <trkpt lat="44.53359" lon="4.22305">
        <ele>519.2</ele>
        <time>2020-07-21T07:06:52Z</time>
      </trkpt>
      <trkpt lat="44.53367" lon="4.22302">
        <ele>519.2</ele>
        <time>2020-07-21T07:06:50Z</time>
      </trkpt>
      <trkpt lat="44.5337" lon="4.22303">
        <ele>519.3</ele>
        <time>2020-07-21T07:06:49Z</time>
      </trkpt>
      <trkpt lat="44.53369" lon="4.22303">
        <ele>519.3</ele>
        <time>2020-07-21T07:06:48Z</time>
      </trkpt>
      <trkpt lat="44.53364" lon="4.22303">
        <ele>519.3</ele>
        <time>2020-07-21T07:06:47Z</time>
      </trkpt>
      <trkpt lat="44.53353" lon="4.22302">
        <ele>519.4</ele>
        <time>2020-07-21T07:06:45Z</time>
      </trkpt>
      <trkpt lat="44.53342" lon="4.22302">
        <ele>519.4</ele>
        <time>2020-07-21T07:06:43Z</time>
      </trkpt>
      <trkpt lat="44.53335" lon="4.22302">
        <ele>519.4</ele>
        <time>2020-07-21T07:06:41Z</time>
      </trkpt>
      <trkpt lat="44.53333" lon="4.22305">
        <ele>519.4</ele>
        <time>2020-07-21T07:06:40Z</time>
      </trkpt>
      <trkpt lat="44.53329" lon="4.22305">
        <ele>519.4</ele>
        <time>2020-07-21T07:06:39Z</time>
      </trkpt>
      <trkpt lat="44.53324" lon="4.22305">
        <ele>519.3</ele>
        <time>2020-07-21T07:06:38Z</time>
      </trkpt>
      <trkpt lat="44.53322" lon="4.22304">
        <ele>519.3</ele>
        <time>2020-07-21T07:06:36Z</time>
      </trkpt>
      <trkpt lat="44.5332" lon="4.22303">
        <ele>519.3</ele>
        <time>2020-07-21T07:06:35Z</time>
      </trkpt>
      <trkpt lat="44.53319" lon="4.22302">
        <ele>519.2</ele>
        <time>2020-07-21T07:06:34Z</time>
      </trkpt>
      <trkpt lat="44.53317" lon="4.223">
        <ele>519.2</ele>
        <time>2020-07-21T07:06:32Z</time>
      </trkpt>
      <trkpt lat="44.53314" lon="4.22298">
        <ele>519.1</ele>
        <time>2020-07-21T07:06:31Z</time>
      </trkpt>
      <trkpt lat="44.53311" lon="4.22296">
        <ele>519.1</ele>
        <time>2020-07-21T07:06:30Z</time>
      </trkpt>
      <trkpt lat="44.53303" lon="4.22294">
        <ele>518.9</ele>
        <time>2020-07-21T07:06:29Z</time>
      </trkpt>
      <trkpt lat="44.533" lon="4.22293">
        <ele>518.8</ele>
        <time>2020-07-21T07:06:28Z</time>
      </trkpt>
      <trkpt lat="44.53296" lon="4.22292">
        <ele>518.7</ele>
        <time>2020-07-21T07:06:27Z</time>
      </trkpt>
      <trkpt lat="44.53292" lon="4.2229">
        <ele>518.6</ele>
        <time>2020-07-21T07:06:25Z</time>
      </trkpt>
      <trkpt lat="44.53191" lon="4.22254">
        <ele>515.7</ele>
        <time>2020-07-21T07:06:23Z</time>
      </trkpt>
      <trkpt lat="44.53211" lon="4.22267">
        <ele>515.5</ele>
        <time>2020-07-21T07:06:22Z</time>
      </trkpt>
      <trkpt lat="44.5322" lon="4.22273">
        <ele>515.4</ele>
        <time>2020-07-21T07:06:21Z</time>
      </trkpt>
      <trkpt lat="44.53207" lon="4.22267">
        <ele>515.4</ele>
        <time>2020-07-21T07:06:19Z</time>
      </trkpt>
      <trkpt lat="44.53204" lon="4.22269">
        <ele>515.4</ele>
        <time>2020-07-21T07:06:17Z</time>
      </trkpt>
      <trkpt lat="44.53191" lon="4.22265">
        <ele>515.4</ele>
        <time>2020-07-21T07:06:15Z</time>
      </trkpt>
      <trkpt lat="44.53184" lon="4.22263">
        <ele>515.3</ele>
        <time>2020-07-21T07:06:14Z</time>
      </trkpt>
      <trkpt lat="44.5317" lon="4.22259">
        <ele>515.2</ele>
        <time>2020-07-21T07:06:12Z</time>
      </trkpt>
      <trkpt lat="44.53163" lon="4.22257">
        <ele>515</ele>
        <time>2020-07-21T07:06:11Z</time>
      </trkpt>
      <trkpt lat="44.53157" lon="4.22254">
        <ele>514.9</ele>
        <time>2020-07-21T07:06:10Z</time>
      </trkpt>
      <trkpt lat="44.53145" lon="4.22247">
        <ele>514.5</ele>
        <time>2020-07-21T07:06:08Z</time>
      </trkpt>
      <trkpt lat="44.53141" lon="4.22245">
        <ele>514.3</ele>
        <time>2020-07-21T07:06:07Z</time>
      </trkpt>
      <trkpt lat="44.53138" lon="4.22242">
        <ele>514.1</ele>
        <time>2020-07-21T07:06:05Z</time>
      </trkpt>
      <trkpt lat="44.53136" lon="4.2224">
        <ele>514</ele>
        <time>2020-07-21T07:06:04Z</time>
      </trkpt>
      <trkpt lat="44.53135" lon="4.22238">
        <ele>514</ele>
        <time>2020-07-21T07:06:03Z</time>
      </trkpt>
      <trkpt lat="44.53131" lon="4.22234">
        <ele>513.7</ele>
        <time>2020-07-21T07:06:01Z</time>
      </trkpt>
      <trkpt lat="44.5313" lon="4.22232">
        <ele>513.7</ele>
        <time>2020-07-21T07:06:00Z</time>
      </trkpt>
      <trkpt lat="44.53129" lon="4.22228">
        <ele>513.6</ele>
        <time>2020-07-21T07:05:59Z</time>
      </trkpt>
      <trkpt lat="44.5313" lon="4.22224">
        <ele>513.4</ele>
        <time>2020-07-21T07:05:57Z</time>
      </trkpt>
      <trkpt lat="44.53131" lon="4.22222">
        <ele>513.4</ele>
        <time>2020-07-21T07:05:56Z</time>
      </trkpt>
      <trkpt lat="44.53131" lon="4.2222">
        <ele>513.3</ele>
        <time>2020-07-21T07:05:55Z</time>
      </trkpt>
      <trkpt lat="44.53133" lon="4.22218">
        <ele>513.3</ele>
        <time>2020-07-21T07:05:53Z</time>
      </trkpt>
      <trkpt lat="44.53092" lon="4.22213">
        <ele>512.1</ele>
        <time>2020-07-21T07:05:52Z</time>
      </trkpt>
      <trkpt lat="44.53081" lon="4.22208">
        <ele>511.9</ele>
        <time>2020-07-21T07:05:50Z</time>
      </trkpt>
      <trkpt lat="44.53049" lon="4.22195">
        <ele>511.4</ele>
        <time>2020-07-21T07:05:49Z</time>
      </trkpt>
      <trkpt lat="44.53044" lon="4.22189">
        <ele>511.3</ele>
        <time>2020-07-21T07:05:47Z</time>
      </trkpt>
      <trkpt lat="44.53037" lon="4.22182">
        <ele>511.2</ele>
        <time>2020-07-21T07:05:46Z</time>
      </trkpt>
      <trkpt lat="44.53037" lon="4.22176">
        <ele>511.1</ele>
        <time>2020-07-21T07:05:44Z</time>
      </trkpt>
      <trkpt lat="44.53018" lon="4.22168">
        <ele>510.5</ele>
        <time>2020-07-21T07:05:42Z</time>
      </trkpt>
      <trkpt lat="44.53" lon="4.2216">
        <ele>510.2</ele>
        <time>2020-07-21T07:05:40Z</time>
      </trkpt>
      <trkpt lat="44.5299" lon="4.22156">
        <ele>510.1</ele>
        <time>2020-07-21T07:05:39Z</time>
      </trkpt>
      <trkpt lat="44.52972" lon="4.22147">
        <ele>510</ele>
        <time>2020-07-21T07:05:37Z</time>
      </trkpt>
      <trkpt lat="44.52964" lon="4.22142">
        <ele>510</ele>
        <time>2020-07-21T07:05:36Z</time>
      </trkpt>
      <trkpt lat="44.52947" lon="4.22133">
        <ele>509.9</ele>
        <time>2020-07-21T07:05:34Z</time>
      </trkpt>
      <trkpt lat="44.52928" lon="4.22123">
        <ele>509.9</ele>
        <time>2020-07-21T07:05:32Z</time>
      </trkpt>
      <trkpt lat="44.52924" lon="4.22121">
        <ele>509.9</ele>
        <time>2020-07-21T07:05:31Z</time>
      </trkpt>
      <trkpt lat="44.5292" lon="4.22119">
        <ele>509.9</ele>
        <time>2020-07-21T07:05:30Z</time>
      </trkpt>
      <trkpt lat="44.52922" lon="4.22122">
        <ele>509.8</ele>
        <time>2020-07-21T07:05:29Z</time>
      </trkpt>
      <trkpt lat="44.52925" lon="4.22127">
        <ele>509.8</ele>
        <time>2020-07-21T07:05:27Z</time>
      </trkpt>
      <trkpt lat="44.52932" lon="4.22138">
        <ele>509.8</ele>
        <time>2020-07-21T07:05:26Z</time>
      </trkpt>
      <trkpt lat="44.52939" lon="4.22144">
        <ele>509.7</ele>
        <time>2020-07-21T07:05:25Z</time>
      </trkpt>
      <trkpt lat="44.52948" lon="4.22151">
        <ele>509.6</ele>
        <time>2020-07-21T07:05:24Z</time>
      </trkpt>
      <trkpt lat="44.52941" lon="4.22142">
        <ele>509.5</ele>
        <time>2020-07-21T07:05:22Z</time>
      </trkpt>
      <trkpt lat="44.52952" lon="4.22147">
        <ele>509.4</ele>
        <time>2020-07-21T07:05:21Z</time>
      </trkpt>
      <trkpt lat="44.52957" lon="4.22152">
        <ele>509.3</ele>
        <time>2020-07-21T07:05:20Z</time>
      </trkpt>
      <trkpt lat="44.5295" lon="4.22147">
        <ele>509.2</ele>
        <time>2020-07-21T07:05:19Z</time>
      </trkpt>
      <trkpt lat="44.52942" lon="4.22143">
        <ele>509</ele>
        <time>2020-07-21T07:05:18Z</time>
      </trkpt>
      <trkpt lat="44.52928" lon="4.22134">
        <ele>508.7</ele>
        <time>2020-07-21T07:05:16Z</time>
      </trkpt>
      <trkpt lat="44.52919" lon="4.22128">
        <ele>508.3</ele>
        <time>2020-07-21T07:05:14Z</time>
      </trkpt>
      <trkpt lat="44.52915" lon="4.22125">
        <ele>508.1</ele>
        <time>2020-07-21T07:05:13Z</time>
      </trkpt>
      <trkpt lat="44.52911" lon="4.22122">
        <ele>508</ele>
        <time>2020-07-21T07:05:11Z</time>
      </trkpt>
      <trkpt lat="44.52906" lon="4.22117">
        <ele>507.7</ele>
        <time>2020-07-21T07:05:10Z</time>
      </trkpt>
      <trkpt lat="44.52901" lon="4.22113">
        <ele>507.5</ele>
        <time>2020-07-21T07:05:08Z</time>
      </trkpt>
      <trkpt lat="44.52898" lon="4.22112">
        <ele>507.4</ele>
        <time>2020-07-21T07:05:06Z</time>
      </trkpt>
      <trkpt lat="44.52895" lon="4.22109">
        <ele>507.2</ele>
        <time>2020-07-21T07:05:05Z</time>
      </trkpt>
      <trkpt lat="44.52893" lon="4.22109">
        <ele>507.2</ele>
        <time>2020-07-21T07:05:04Z</time>
      </trkpt>
      <trkpt lat="44.5289" lon="4.22107">
        <ele>507</ele>
        <time>2020-07-21T07:05:02Z</time>
      </trkpt>
      <trkpt lat="44.52887" lon="4.22106">
        <ele>506.9</ele>
        <time>2020-07-21T07:05:01Z</time>
      </trkpt>
      <trkpt lat="44.52884" lon="4.22103">
        <ele>506.8</ele>
        <time>2020-07-21T07:04:59Z</time>
      </trkpt>
      <trkpt lat="44.52877" lon="4.22097">
        <ele>506.5</ele>
        <time>2020-07-21T07:04:58Z</time>
      </trkpt>
      <trkpt lat="44.52874" lon="4.22094">
        <ele>506.3</ele>
        <time>2020-07-21T07:04:57Z</time>
      </trkpt>
      <trkpt lat="44.5287" lon="4.22091">
        <ele>506.2</ele>
        <time>2020-07-21T07:04:55Z</time>
      </trkpt>
      <trkpt lat="44.52868" lon="4.22089">
        <ele>506.1</ele>
        <time>2020-07-21T07:04:54Z</time>
      </trkpt>
      <trkpt lat="44.52865" lon="4.22086">
        <ele>506</ele>
        <time>2020-07-21T07:04:53Z</time>
      </trkpt>
      <trkpt lat="44.52862" lon="4.22084">
        <ele>505.9</ele>
        <time>2020-07-21T07:04:52Z</time>
      </trkpt>
      <trkpt lat="44.5286" lon="4.22081">
        <ele>505.8</ele>
        <time>2020-07-21T07:04:51Z</time>
      </trkpt>
      <trkpt lat="44.52857" lon="4.22074">
        <ele>505.6</ele>
        <time>2020-07-21T07:04:50Z</time>
      </trkpt>
      <trkpt lat="44.52855" lon="4.22069">
        <ele>505.4</ele>
        <time>2020-07-21T07:04:49Z</time>
      </trkpt>
      <trkpt lat="44.52854" lon="4.22066">
        <ele>505.3</ele>
        <time>2020-07-21T07:04:47Z</time>
      </trkpt>
      <trkpt lat="44.52852" lon="4.22065">
        <ele>505.3</ele>
        <time>2020-07-21T07:04:46Z</time>
      </trkpt>
      <trkpt lat="44.52851" lon="4.22063">
        <ele>505.2</ele>
        <time>2020-07-21T07:04:45Z</time>
      </trkpt>
      <trkpt lat="44.5285" lon="4.22061">
        <ele>505.2</ele>
        <time>2020-07-21T07:04:44Z</time>
      </trkpt>
      <trkpt lat="44.52847" lon="4.22059">
        <ele>505.1</ele>
        <time>2020-07-21T07:04:42Z</time>
      </trkpt>
      <trkpt lat="44.52845" lon="4.22056">
        <ele>505</ele>
        <time>2020-07-21T07:04:40Z</time>
      </trkpt>
      <trkpt lat="44.52842" lon="4.22055">
        <ele>505</ele>
        <time>2020-07-21T07:04:39Z</time>
      </trkpt>
      <trkpt lat="44.52839" lon="4.22052">
        <ele>504.9</ele>
        <time>2020-07-21T07:04:38Z</time>
      </trkpt>
      <trkpt lat="44.52836" lon="4.2205">
        <ele>504.9</ele>
        <time>2020-07-21T07:04:36Z</time>
      </trkpt>
      <trkpt lat="44.52834" lon="4.2205">
        <ele>504.8</ele>
        <time>2020-07-21T07:04:35Z</time>
      </trkpt>
      <trkpt lat="44.52832" lon="4.22051">
        <ele>504.8</ele>
        <time>2020-07-21T07:04:34Z</time>
      </trkpt>
      <trkpt lat="44.52828" lon="4.22052">
        <ele>504.8</ele>
        <time>2020-07-21T07:04:33Z</time>
      </trkpt>
      <trkpt lat="44.52828" lon="4.22053">
        <ele>504.8</ele>
        <time>2020-07-21T07:04:32Z</time>
      </trkpt>
      <trkpt lat="44.52825" lon="4.22054">
        <ele>504.7</ele>
        <time>2020-07-21T07:04:31Z</time>
      </trkpt>
      <trkpt lat="44.52821" lon="4.22054">
        <ele>504.7</ele>
        <time>2020-07-21T07:04:29Z</time>
      </trkpt>
      <trkpt lat="44.52814" lon="4.22054">
        <ele>504.6</ele>
        <time>2020-07-21T07:04:27Z</time>
      </trkpt>
      <trkpt lat="44.5279" lon="4.22043">
        <ele>504.3</ele>
        <time>2020-07-21T07:04:26Z</time>
      </trkpt>
      <trkpt lat="44.52766" lon="4.22033">
        <ele>504</ele>
        <time>2020-07-21T07:04:25Z</time>
      </trkpt>
      <trkpt lat="44.52741" lon="4.22022">
        <ele>503.4</ele>
        <time>2020-07-21T07:04:23Z</time>
      </trkpt>
      <trkpt lat="44.52734" lon="4.2202">
        <ele>503.3</ele>
        <time>2020-07-21T07:04:22Z</time>
      </trkpt>
      <trkpt lat="44.52731" lon="4.2202">
        <ele>503.3</ele>
        <time>2020-07-21T07:04:20Z</time>
      </trkpt>
      <trkpt lat="44.52729" lon="4.22019">
        <ele>503.3</ele>
        <time>2020-07-21T07:04:19Z</time>
      </trkpt>
      <trkpt lat="44.52726" lon="4.22019">
        <ele>503.2</ele>
        <time>2020-07-21T07:04:17Z</time>
      </trkpt>
      <trkpt lat="44.52724" lon="4.22019">
        <ele>503.2</ele>
        <time>2020-07-21T07:04:16Z</time>
      </trkpt>
      <trkpt lat="44.52724" lon="4.22018">
        <ele>503.2</ele>
        <time>2020-07-21T07:04:15Z</time>
      </trkpt>
      <trkpt lat="44.5272" lon="4.22018">
        <ele>503.2</ele>
        <time>2020-07-21T07:04:14Z</time>
      </trkpt>
      <trkpt lat="44.5272" lon="4.22017">
        <ele>503.2</ele>
        <time>2020-07-21T07:04:13Z</time>
      </trkpt>
      <trkpt lat="44.52717" lon="4.22017">
        <ele>503.2</ele>
        <time>2020-07-21T07:04:11Z</time>
      </trkpt>
      <trkpt lat="44.52716" lon="4.22018">
        <ele>503.2</ele>
        <time>2020-07-21T07:04:10Z</time>
      </trkpt>
      <trkpt lat="44.52713" lon="4.22019">
        <ele>503.2</ele>
        <time>2020-07-21T07:04:08Z</time>
      </trkpt>
      <trkpt lat="44.52709" lon="4.22018">
        <ele>503.1</ele>
        <time>2020-07-21T07:04:07Z</time>
      </trkpt>
      <trkpt lat="44.52702" lon="4.22016">
        <ele>503.1</ele>
        <time>2020-07-21T07:04:05Z</time>
      </trkpt>
      <trkpt lat="44.527" lon="4.22015">
        <ele>503.1</ele>
        <time>2020-07-21T07:04:04Z</time>
      </trkpt>
      <trkpt lat="44.52697" lon="4.22015">
        <ele>503</ele>
        <time>2020-07-21T07:04:03Z</time>
      </trkpt>
      <trkpt lat="44.52695" lon="4.22014">
        <ele>503</ele>
        <time>2020-07-21T07:04:02Z</time>
      </trkpt>
      <trkpt lat="44.52692" lon="4.22014">
        <ele>503</ele>
        <time>2020-07-21T07:04:00Z</time>
      </trkpt>
      <trkpt lat="44.52689" lon="4.22014">
        <ele>503</ele>
        <time>2020-07-21T07:03:59Z</time>
      </trkpt>
      <trkpt lat="44.52682" lon="4.22011">
        <ele>502.8</ele>
        <time>2020-07-21T07:03:57Z</time>
      </trkpt>
      <trkpt lat="44.5268" lon="4.22011">
        <ele>502.8</ele>
        <time>2020-07-21T07:03:55Z</time>
      </trkpt>
      <trkpt lat="44.52678" lon="4.2201">
        <ele>502.8</ele>
        <time>2020-07-21T07:03:54Z</time>
      </trkpt>
      <trkpt lat="44.52676" lon="4.22011">
        <ele>502.7</ele>
        <time>2020-07-21T07:03:53Z</time>
      </trkpt>
      <trkpt lat="44.52674" lon="4.22011">
        <ele>502.7</ele>
        <time>2020-07-21T07:03:52Z</time>
      </trkpt>
      <trkpt lat="44.52673" lon="4.22012">
        <ele>502.7</ele>
        <time>2020-07-21T07:03:51Z</time>
      </trkpt>
      <trkpt lat="44.52671" lon="4.22011">
        <ele>502.6</ele>
        <time>2020-07-21T07:03:49Z</time>
      </trkpt>
      <trkpt lat="44.5267" lon="4.22011">
        <ele>502.6</ele>
        <time>2020-07-21T07:03:48Z</time>
      </trkpt>
      <trkpt lat="44.52667" lon="4.22009">
        <ele>502.5</ele>
        <time>2020-07-21T07:03:47Z</time>
      </trkpt>
      <trkpt lat="44.52662" lon="4.22007">
        <ele>501.9</ele>
        <time>2020-07-21T07:03:46Z</time>
      </trkpt>
      <trkpt lat="44.52659" lon="4.22004">
        <ele>501.6</ele>
        <time>2020-07-21T07:03:44Z</time>
      </trkpt>
      <trkpt lat="44.52658" lon="4.22004">
        <ele>501.5</ele>
        <time>2020-07-21T07:03:43Z</time>
      </trkpt>
      <trkpt lat="44.52655" lon="4.22002">
        <ele>501.2</ele>
        <time>2020-07-21T07:03:41Z</time>
      </trkpt>
      <trkpt lat="44.52652" lon="4.22001">
        <ele>501</ele>
        <time>2020-07-21T07:03:40Z</time>
      </trkpt>
      <trkpt lat="44.52651" lon="4.22001">
        <ele>500.8</ele>
        <time>2020-07-21T07:03:39Z</time>
      </trkpt>
      <trkpt lat="44.52649" lon="4.22">
        <ele>500.6</ele>
        <time>2020-07-21T07:03:38Z</time>
      </trkpt>
      <trkpt lat="44.52646" lon="4.21999">
        <ele>500.4</ele>
        <time>2020-07-21T07:03:37Z</time>
      </trkpt>
      <trkpt lat="44.5264" lon="4.21996">
        <ele>499.8</ele>
        <time>2020-07-21T07:03:35Z</time>
      </trkpt>
      <trkpt lat="44.52639" lon="4.21996">
        <ele>499.6</ele>
        <time>2020-07-21T07:03:34Z</time>
      </trkpt>
      <trkpt lat="44.52635" lon="4.21995">
        <ele>499.2</ele>
        <time>2020-07-21T07:03:33Z</time>
      </trkpt>
      <trkpt lat="44.52632" lon="4.21995">
        <ele>498.9</ele>
        <time>2020-07-21T07:03:31Z</time>
      </trkpt>
      <trkpt lat="44.5263" lon="4.21995">
        <ele>498.7</ele>
        <time>2020-07-21T07:03:30Z</time>
      </trkpt>
      <trkpt lat="44.52629" lon="4.21994">
        <ele>498.6</ele>
        <time>2020-07-21T07:03:29Z</time>
      </trkpt>
      <trkpt lat="44.52626" lon="4.21994">
        <ele>498.3</ele>
        <time>2020-07-21T07:03:28Z</time>
      </trkpt>
      <trkpt lat="44.52619" lon="4.21992">
        <ele>497.5</ele>
        <time>2020-07-21T07:03:26Z</time>
      </trkpt>
      <trkpt lat="44.52616" lon="4.21991">
        <ele>497.1</ele>
        <time>2020-07-21T07:03:25Z</time>
      </trkpt>
      <trkpt lat="44.52613" lon="4.21991">
        <ele>496.8</ele>
        <time>2020-07-21T07:03:23Z</time>
      </trkpt>
      <trkpt lat="44.52612" lon="4.21991">
        <ele>496.7</ele>
        <time>2020-07-21T07:03:22Z</time>
      </trkpt>
      <trkpt lat="44.52608" lon="4.21991">
        <ele>496.3</ele>
        <time>2020-07-21T07:03:21Z</time>
      </trkpt>
      <trkpt lat="44.52607" lon="4.21991">
        <ele>496.1</ele>
        <time>2020-07-21T07:03:20Z</time>
      </trkpt>
      <trkpt lat="44.52603" lon="4.21991">
        <ele>495.8</ele>
        <time>2020-07-21T07:03:18Z</time>
      </trkpt>
      <trkpt lat="44.52598" lon="4.21991">
        <ele>495.2</ele>
        <time>2020-07-21T07:03:17Z</time>
      </trkpt>
      <trkpt lat="44.52597" lon="4.21991">
        <ele>495.1</ele>
        <time>2020-07-21T07:03:16Z</time>
      </trkpt>
      <trkpt lat="44.52593" lon="4.21991">
        <ele>494.7</ele>
        <time>2020-07-21T07:03:14Z</time>
      </trkpt>
      <trkpt lat="44.5259" lon="4.21992">
        <ele>494.4</ele>
        <time>2020-07-21T07:03:13Z</time>
      </trkpt>
      <trkpt lat="44.52589" lon="4.21992">
        <ele>494.3</ele>
        <time>2020-07-21T07:03:12Z</time>
      </trkpt>
      <trkpt lat="44.52587" lon="4.21992">
        <ele>494.1</ele>
        <time>2020-07-21T07:03:10Z</time>
      </trkpt>
      <trkpt lat="44.52585" lon="4.21992">
        <ele>493.9</ele>
        <time>2020-07-21T07:03:09Z</time>
      </trkpt>
      <trkpt lat="44.52583" lon="4.21991">
        <ele>493.8</ele>
        <time>2020-07-21T07:03:08Z</time>
      </trkpt>
      <trkpt lat="44.52578" lon="4.21992">
        <ele>493.3</ele>
        <time>2020-07-21T07:03:06Z</time>
      </trkpt>
      <trkpt lat="44.52576" lon="4.21992">
        <ele>493.1</ele>
        <time>2020-07-21T07:03:05Z</time>
      </trkpt>
      <trkpt lat="44.52573" lon="4.21992">
        <ele>492.9</ele>
        <time>2020-07-21T07:03:03Z</time>
      </trkpt>
      <trkpt lat="44.52572" lon="4.21992">
        <ele>492.8</ele>
        <time>2020-07-21T07:03:02Z</time>
      </trkpt>
      <trkpt lat="44.52568" lon="4.21991">
        <ele>492.5</ele>
        <time>2020-07-21T07:03:01Z</time>
      </trkpt>
      <trkpt lat="44.52566" lon="4.2199">
        <ele>492.4</ele>
        <time>2020-07-21T07:02:59Z</time>
      </trkpt>
      <trkpt lat="44.52563" lon="4.2199">
        <ele>492.2</ele>
        <time>2020-07-21T07:02:58Z</time>
      </trkpt>
      <trkpt lat="44.52558" lon="4.21992">
        <ele>491.9</ele>
        <time>2020-07-21T07:02:57Z</time>
      </trkpt>
      <trkpt lat="44.52557" lon="4.21992">
        <ele>491.8</ele>
        <time>2020-07-21T07:02:56Z</time>
      </trkpt>
      <trkpt lat="44.52553" lon="4.21993">
        <ele>491.6</ele>
        <time>2020-07-21T07:02:54Z</time>
      </trkpt>
      <trkpt lat="44.52552" lon="4.21993">
        <ele>491.6</ele>
        <time>2020-07-21T07:02:53Z</time>
      </trkpt>
      <trkpt lat="44.52548" lon="4.21994">
        <ele>491.4</ele>
        <time>2020-07-21T07:02:51Z</time>
      </trkpt>
      <trkpt lat="44.52545" lon="4.21994">
        <ele>491.2</ele>
        <time>2020-07-21T07:02:50Z</time>
      </trkpt>
      <trkpt lat="44.52544" lon="4.21995">
        <ele>491.2</ele>
        <time>2020-07-21T07:02:49Z</time>
      </trkpt>
      <trkpt lat="44.52542" lon="4.21995">
        <ele>491.1</ele>
        <time>2020-07-21T07:02:47Z</time>
      </trkpt>
      <trkpt lat="44.52537" lon="4.22">
        <ele>490.7</ele>
        <time>2020-07-21T07:02:46Z</time>
      </trkpt>
      <trkpt lat="44.52535" lon="4.22">
        <ele>490.6</ele>
        <time>2020-07-21T07:02:44Z</time>
      </trkpt>
      <trkpt lat="44.52534" lon="4.22001">
        <ele>490.5</ele>
        <time>2020-07-21T07:02:43Z</time>
      </trkpt>
      <trkpt lat="44.52532" lon="4.22003">
        <ele>490.1</ele>
        <time>2020-07-21T07:02:41Z</time>
      </trkpt>
      <trkpt lat="44.5253" lon="4.22004">
        <ele>489.6</ele>
        <time>2020-07-21T07:02:40Z</time>
      </trkpt>
      <trkpt lat="44.52529" lon="4.22006">
        <ele>489.2</ele>
        <time>2020-07-21T07:02:39Z</time>
      </trkpt>
      <trkpt lat="44.52528" lon="4.22007">
        <ele>489.1</ele>
        <time>2020-07-21T07:02:38Z</time>
      </trkpt>
      <trkpt lat="44.52524" lon="4.22011">
        <ele>487.9</ele>
        <time>2020-07-21T07:02:36Z</time>
      </trkpt>
      <trkpt lat="44.52522" lon="4.22012">
        <ele>487.8</ele>
        <time>2020-07-21T07:02:34Z</time>
      </trkpt>
      <trkpt lat="44.52521" lon="4.22013">
        <ele>486.9</ele>
        <time>2020-07-21T07:02:33Z</time>
      </trkpt>
      <trkpt lat="44.52519" lon="4.22014">
        <ele>486.8</ele>
        <time>2020-07-21T07:02:32Z</time>
      </trkpt>
      <trkpt lat="44.52519" lon="4.22014">
        <ele>486.8</ele>
        <time>2020-07-21T07:02:31Z</time>
      </trkpt>
      <trkpt lat="44.52518" lon="4.22015">
        <ele>486.4</ele>
        <time>2020-07-21T07:02:30Z</time>
      </trkpt>
      <trkpt lat="44.52516" lon="4.22015">
        <ele>486.3</ele>
        <time>2020-07-21T07:02:28Z</time>
      </trkpt>
      <trkpt lat="44.5251" lon="4.22014">
        <ele>485.8</ele>
        <time>2020-07-21T07:02:26Z</time>
      </trkpt>
      <trkpt lat="44.52507" lon="4.22014">
        <ele>485.5</ele>
        <time>2020-07-21T07:02:24Z</time>
      </trkpt>
      <trkpt lat="44.52506" lon="4.22014">
        <ele>485.2</ele>
        <time>2020-07-21T07:02:22Z</time>
      </trkpt>
      <trkpt lat="44.52504" lon="4.22014">
        <ele>485.1</ele>
        <time>2020-07-21T07:02:21Z</time>
      </trkpt>
      <trkpt lat="44.52502" lon="4.22015">
        <ele>484.8</ele>
        <time>2020-07-21T07:02:19Z</time>
      </trkpt>
      <trkpt lat="44.52501" lon="4.22016">
        <ele>484.8</ele>
        <time>2020-07-21T07:02:17Z</time>
      </trkpt>
      <trkpt lat="44.52499" lon="4.22016">
        <ele>484.5</ele>
        <time>2020-07-21T07:02:16Z</time>
      </trkpt>
      <trkpt lat="44.52497" lon="4.22017">
        <ele>483.7</ele>
        <time>2020-07-21T07:02:15Z</time>
      </trkpt>
      <trkpt lat="44.52494" lon="4.22018">
        <ele>483.6</ele>
        <time>2020-07-21T07:02:13Z</time>
      </trkpt>
      <trkpt lat="44.52492" lon="4.22018">
        <ele>483.4</ele>
        <time>2020-07-21T07:02:11Z</time>
      </trkpt>
      <trkpt lat="44.5249" lon="4.22019">
        <ele>483.1</ele>
        <time>2020-07-21T07:02:09Z</time>
      </trkpt>
      <trkpt lat="44.52488" lon="4.2202">
        <ele>483.1</ele>
        <time>2020-07-21T07:02:08Z</time>
      </trkpt>
      <trkpt lat="44.52487" lon="4.2202">
        <ele>482.8</ele>
        <time>2020-07-21T07:02:07Z</time>
      </trkpt>
      <trkpt lat="44.52483" lon="4.22018">
        <ele>482.6</ele>
        <time>2020-07-21T07:02:05Z</time>
      </trkpt>
      <trkpt lat="44.52482" lon="4.22017">
        <ele>482.5</ele>
        <time>2020-07-21T07:02:04Z</time>
      </trkpt>
      <trkpt lat="44.52481" lon="4.22017">
        <ele>482.2</ele>
        <time>2020-07-21T07:02:03Z</time>
      </trkpt>
      <trkpt lat="44.52479" lon="4.22017">
        <ele>482.1</ele>
        <time>2020-07-21T07:02:01Z</time>
      </trkpt>
      <trkpt lat="44.52478" lon="4.22017">
        <ele>481.8</ele>
        <time>2020-07-21T07:02:00Z</time>
      </trkpt>
      <trkpt lat="44.52477" lon="4.22017">
        <ele>481.7</ele>
        <time>2020-07-21T07:01:59Z</time>
      </trkpt>
      <trkpt lat="44.52474" lon="4.22017">
        <ele>481.9</ele>
        <time>2020-07-21T07:01:57Z</time>
      </trkpt>
      <trkpt lat="44.5247" lon="4.22014">
        <ele>481.6</ele>
        <time>2020-07-21T07:01:55Z</time>
      </trkpt>
      <trkpt lat="44.52467" lon="4.22012">
        <ele>481.3</ele>
        <time>2020-07-21T07:01:54Z</time>
      </trkpt>
      <trkpt lat="44.52466" lon="4.22012">
        <ele>481.5</ele>
        <time>2020-07-21T07:01:52Z</time>
      </trkpt>
      <trkpt lat="44.52463" lon="4.22012">
        <ele>481.4</ele>
        <time>2020-07-21T07:01:51Z</time>
      </trkpt>
      <trkpt lat="44.52461" lon="4.22011">
        <ele>481.1</ele>
        <time>2020-07-21T07:01:49Z</time>
      </trkpt>
      <trkpt lat="44.5246" lon="4.22011">
        <ele>480.8</ele>
        <time>2020-07-21T07:01:48Z</time>
      </trkpt>
      <trkpt lat="44.52459" lon="4.22011">
        <ele>480.7</ele>
        <time>2020-07-21T07:01:47Z</time>
      </trkpt>
      <trkpt lat="44.52456" lon="4.22011">
        <ele>480.4</ele>
        <time>2020-07-21T07:01:46Z</time>
      </trkpt>
      <trkpt lat="44.52455" lon="4.2201">
        <ele>480.3</ele>
        <time>2020-07-21T07:01:45Z</time>
      </trkpt>
      <trkpt lat="44.52454" lon="4.2201">
        <ele>480</ele>
        <time>2020-07-21T07:01:43Z</time>
      </trkpt>
      <trkpt lat="44.52453" lon="4.22011">
        <ele>479.9</ele>
        <time>2020-07-21T07:01:42Z</time>
      </trkpt>
      <trkpt lat="44.52452" lon="4.22011">
        <ele>479.8</ele>
        <time>2020-07-21T07:01:40Z</time>
      </trkpt>
      <trkpt lat="44.52451" lon="4.22012">
        <ele>479.8</ele>
        <time>2020-07-21T07:01:39Z</time>
      </trkpt>
      <trkpt lat="44.5245" lon="4.22012">
        <ele>478.9</ele>
        <time>2020-07-21T07:01:38Z</time>
      </trkpt>
      <trkpt lat="44.5245" lon="4.22013">
        <ele>478.8</ele>
        <time>2020-07-21T07:01:37Z</time>
      </trkpt>
      <trkpt lat="44.52449" lon="4.22013">
        <ele>478.7</ele>
        <time>2020-07-21T07:01:36Z</time>
      </trkpt>
      <trkpt lat="44.52446" lon="4.22014">
        <ele>478.4</ele>
        <time>2020-07-21T07:01:34Z</time>
      </trkpt>
      <trkpt lat="44.52445" lon="4.22015">
        <ele>478.3</ele>
        <time>2020-07-21T07:01:33Z</time>
      </trkpt>
      <trkpt lat="44.52444" lon="4.22016">
        <ele>478</ele>
        <time>2020-07-21T07:01:32Z</time>
      </trkpt>
      <trkpt lat="44.52441" lon="4.22017">
        <ele>477.1</ele>
        <time>2020-07-21T07:01:30Z</time>
      </trkpt>
      <trkpt lat="44.52439" lon="4.22017">
        <ele>477</ele>
        <time>2020-07-21T07:01:28Z</time>
      </trkpt>
      <trkpt lat="44.52438" lon="4.22018">
        <ele>476.7</ele>
        <time>2020-07-21T07:01:27Z</time>
      </trkpt>
      <trkpt lat="44.52437" lon="4.22019">
        <ele>476.6</ele>
        <time>2020-07-21T07:01:26Z</time>
      </trkpt>
      <trkpt lat="44.52435" lon="4.2202">
        <ele>476.3</ele>
        <time>2020-07-21T07:01:25Z</time>
      </trkpt>
      <trkpt lat="44.52431" lon="4.22023">
        <ele>475.4</ele>
        <time>2020-07-21T07:01:23Z</time>
      </trkpt>
      <trkpt lat="44.52429" lon="4.22024">
        <ele>475.3</ele>
        <time>2020-07-21T07:01:22Z</time>
      </trkpt>
      <trkpt lat="44.52428" lon="4.22025">
        <ele>475</ele>
        <time>2020-07-21T07:01:21Z</time>
      </trkpt>
      <trkpt lat="44.52427" lon="4.22026">
        <ele>474.3</ele>
        <time>2020-07-21T07:01:20Z</time>
      </trkpt>
      <trkpt lat="44.52424" lon="4.22029">
        <ele>474</ele>
        <time>2020-07-21T07:01:19Z</time>
      </trkpt>
      <trkpt lat="44.52424" lon="4.22029">
        <ele>473.9</ele>
        <time>2020-07-21T07:01:18Z</time>
      </trkpt>
      <trkpt lat="44.52421" lon="4.22032">
        <ele>473</ele>
        <time>2020-07-21T07:01:16Z</time>
      </trkpt>
      <trkpt lat="44.52418" lon="4.22034">
        <ele>472.1</ele>
        <time>2020-07-21T07:01:15Z</time>
      </trkpt>
      <trkpt lat="44.52414" lon="4.22039">
        <ele>471.1</ele>
        <time>2020-07-21T07:01:14Z</time>
      </trkpt>
      <trkpt lat="44.52413" lon="4.2204">
        <ele>471</ele>
        <time>2020-07-21T07:01:13Z</time>
      </trkpt>
      <trkpt lat="44.5241" lon="4.22042">
        <ele>470.2</ele>
        <time>2020-07-21T07:01:11Z</time>
      </trkpt>
      <trkpt lat="44.52409" lon="4.22044">
        <ele>470.1</ele>
        <time>2020-07-21T07:01:10Z</time>
      </trkpt>
      <trkpt lat="44.52406" lon="4.22046">
        <ele>469.9</ele>
        <time>2020-07-21T07:01:09Z</time>
      </trkpt>
      <trkpt lat="44.52405" lon="4.22048">
        <ele>469.3</ele>
        <time>2020-07-21T07:01:08Z</time>
      </trkpt>
      <trkpt lat="44.52403" lon="4.22049">
        <ele>469.1</ele>
        <time>2020-07-21T07:01:06Z</time>
      </trkpt>
      <trkpt lat="44.52399" lon="4.22053">
        <ele>468.4</ele>
        <time>2020-07-21T07:01:05Z</time>
      </trkpt>
      <trkpt lat="44.52398" lon="4.22054">
        <ele>468.1</ele>
        <time>2020-07-21T07:01:04Z</time>
      </trkpt>
      <trkpt lat="44.52395" lon="4.22057">
        <ele>467.4</ele>
        <time>2020-07-21T07:01:02Z</time>
      </trkpt>
      <trkpt lat="44.52394" lon="4.22058">
        <ele>467.3</ele>
        <time>2020-07-21T07:01:01Z</time>
      </trkpt>
      <trkpt lat="44.5239" lon="4.2206">
        <ele>466.6</ele>
        <time>2020-07-21T07:01:00Z</time>
      </trkpt>
      <trkpt lat="44.52387" lon="4.22062">
        <ele>466.4</ele>
        <time>2020-07-21T07:00:58Z</time>
      </trkpt>
      <trkpt lat="44.52384" lon="4.22064">
        <ele>466.2</ele>
        <time>2020-07-21T07:00:56Z</time>
      </trkpt>
      <trkpt lat="44.52382" lon="4.22066">
        <ele>465.6</ele>
        <time>2020-07-21T07:00:55Z</time>
      </trkpt>
      <trkpt lat="44.52378" lon="4.22069">
        <ele>465</ele>
        <time>2020-07-21T07:00:54Z</time>
      </trkpt>
      <trkpt lat="44.52377" lon="4.22069">
        <ele>464.8</ele>
        <time>2020-07-21T07:00:53Z</time>
      </trkpt>
      <trkpt lat="44.52374" lon="4.22071">
        <ele>464.6</ele>
        <time>2020-07-21T07:00:51Z</time>
      </trkpt>
      <trkpt lat="44.52373" lon="4.22072">
        <ele>464.5</ele>
        <time>2020-07-21T07:00:50Z</time>
      </trkpt>
      <trkpt lat="44.52369" lon="4.22074">
        <ele>464</ele>
        <time>2020-07-21T07:00:49Z</time>
      </trkpt>
      <trkpt lat="44.52368" lon="4.22074">
        <ele>463.9</ele>
        <time>2020-07-21T07:00:48Z</time>
      </trkpt>
      <trkpt lat="44.52366" lon="4.22073">
        <ele>463.6</ele>
        <time>2020-07-21T07:00:47Z</time>
      </trkpt>
      <trkpt lat="44.52361" lon="4.2208">
        <ele>462.9</ele>
        <time>2020-07-21T07:00:45Z</time>
      </trkpt>
      <trkpt lat="44.5236" lon="4.22082">
        <ele>462.6</ele>
        <time>2020-07-21T07:00:43Z</time>
      </trkpt>
      <trkpt lat="44.52358" lon="4.22082">
        <ele>462.3</ele>
        <time>2020-07-21T07:00:42Z</time>
      </trkpt>
      <trkpt lat="44.52357" lon="4.22083">
        <ele>462.2</ele>
        <time>2020-07-21T07:00:41Z</time>
      </trkpt>
      <trkpt lat="44.52356" lon="4.22084">
        <ele>462.1</ele>
        <time>2020-07-21T07:00:40Z</time>
      </trkpt>
      <trkpt lat="44.52355" lon="4.22084">
        <ele>461.8</ele>
        <time>2020-07-21T07:00:38Z</time>
      </trkpt>
      <trkpt lat="44.52352" lon="4.22086">
        <ele>461.2</ele>
        <time>2020-07-21T07:00:37Z</time>
      </trkpt>
      <trkpt lat="44.52348" lon="4.22091">
        <ele>460.7</ele>
        <time>2020-07-21T07:00:35Z</time>
      </trkpt>
      <trkpt lat="44.52345" lon="4.22092">
        <ele>460.4</ele>
        <time>2020-07-21T07:00:34Z</time>
      </trkpt>
      <trkpt lat="44.52342" lon="4.22093">
        <ele>460.1</ele>
        <time>2020-07-21T07:00:32Z</time>
      </trkpt>
      <trkpt lat="44.52341" lon="4.22093">
        <ele>460</ele>
        <time>2020-07-21T07:00:31Z</time>
      </trkpt>
      <trkpt lat="44.52338" lon="4.22094">
        <ele>459.7</ele>
        <time>2020-07-21T07:00:30Z</time>
      </trkpt>
      <trkpt lat="44.52337" lon="4.22094">
        <ele>459.7</ele>
        <time>2020-07-21T07:00:29Z</time>
      </trkpt>
      <trkpt lat="44.52336" lon="4.22094">
        <ele>459.6</ele>
        <time>2020-07-21T07:00:28Z</time>
      </trkpt>
      <trkpt lat="44.52335" lon="4.22094">
        <ele>459.5</ele>
        <time>2020-07-21T07:00:27Z</time>
      </trkpt>
      <trkpt lat="44.52331" lon="4.22096">
        <ele>459.2</ele>
        <time>2020-07-21T07:00:25Z</time>
      </trkpt>
      <trkpt lat="44.5233" lon="4.22097">
        <ele>459.1</ele>
        <time>2020-07-21T07:00:24Z</time>
      </trkpt>
      <trkpt lat="44.52328" lon="4.22099">
        <ele>458.9</ele>
        <time>2020-07-21T07:00:23Z</time>
      </trkpt>
      <trkpt lat="44.52326" lon="4.221">
        <ele>458.8</ele>
        <time>2020-07-21T07:00:21Z</time>
      </trkpt>
      <trkpt lat="44.52325" lon="4.22101">
        <ele>458.7</ele>
        <time>2020-07-21T07:00:20Z</time>
      </trkpt>
      <trkpt lat="44.52324" lon="4.22102">
        <ele>458.6</ele>
        <time>2020-07-21T07:00:19Z</time>
      </trkpt>
      <trkpt lat="44.52322" lon="4.22103">
        <ele>458.5</ele>
        <time>2020-07-21T07:00:18Z</time>
      </trkpt>
      <trkpt lat="44.5232" lon="4.22104">
        <ele>458.4</ele>
        <time>2020-07-21T07:00:17Z</time>
      </trkpt>
      <trkpt lat="44.52319" lon="4.22104">
        <ele>458.2</ele>
        <time>2020-07-21T07:00:16Z</time>
      </trkpt>
      <trkpt lat="44.52313" lon="4.22103">
        <ele>457.9</ele>
        <time>2020-07-21T07:00:14Z</time>
      </trkpt>
      <trkpt lat="44.52311" lon="4.22103">
        <ele>457.8</ele>
        <time>2020-07-21T07:00:13Z</time>
      </trkpt>
      <trkpt lat="44.5231" lon="4.22102">
        <ele>457.7</ele>
        <time>2020-07-21T07:00:12Z</time>
      </trkpt>
      <trkpt lat="44.52307" lon="4.22102">
        <ele>457.5</ele>
        <time>2020-07-21T07:00:11Z</time>
      </trkpt>
      <trkpt lat="44.52305" lon="4.22102">
        <ele>457.5</ele>
        <time>2020-07-21T07:00:10Z</time>
      </trkpt>
      <trkpt lat="44.52304" lon="4.22101">
        <ele>457.4</ele>
        <time>2020-07-21T07:00:09Z</time>
      </trkpt>
      <trkpt lat="44.52302" lon="4.22101">
        <ele>457.3</ele>
        <time>2020-07-21T07:00:07Z</time>
      </trkpt>
      <trkpt lat="44.52299" lon="4.221">
        <ele>457.2</ele>
        <time>2020-07-21T07:00:06Z</time>
      </trkpt>
      <trkpt lat="44.52298" lon="4.22098">
        <ele>457.1</ele>
        <time>2020-07-21T07:00:05Z</time>
      </trkpt>
      <trkpt lat="44.52297" lon="4.22097">
        <ele>457.1</ele>
        <time>2020-07-21T07:00:03Z</time>
      </trkpt>
      <trkpt lat="44.52296" lon="4.22094">
        <ele>456.9</ele>
        <time>2020-07-21T07:00:02Z</time>
      </trkpt>
      <trkpt lat="44.52295" lon="4.22091">
        <ele>456.8</ele>
        <time>2020-07-21T07:00:01Z</time>
      </trkpt>
      <trkpt lat="44.52294" lon="4.2209">
        <ele>456.8</ele>
        <time>2020-07-21T07:00:00Z</time>
      </trkpt>
      <trkpt lat="44.52294" lon="4.22088">
        <ele>456.7</ele>
        <time>2020-07-21T06:59:58Z</time>
      </trkpt>
      <trkpt lat="44.52293" lon="4.22086">
        <ele>456.7</ele>
        <time>2020-07-21T06:59:57Z</time>
      </trkpt>
      <trkpt lat="44.52292" lon="4.22079">
        <ele>456.5</ele>
        <time>2020-07-21T06:59:55Z</time>
      </trkpt>
      <trkpt lat="44.52291" lon="4.22075">
        <ele>456.4</ele>
        <time>2020-07-21T06:59:54Z</time>
      </trkpt>
      <trkpt lat="44.52289" lon="4.22071">
        <ele>456.3</ele>
        <time>2020-07-21T06:59:52Z</time>
      </trkpt>
      <trkpt lat="44.52288" lon="4.22068">
        <ele>456.2</ele>
        <time>2020-07-21T06:59:50Z</time>
      </trkpt>
      <trkpt lat="44.52286" lon="4.22065">
        <ele>456.1</ele>
        <time>2020-07-21T06:59:48Z</time>
      </trkpt>
      <trkpt lat="44.52285" lon="4.22064">
        <ele>456.1</ele>
        <time>2020-07-21T06:59:47Z</time>
      </trkpt>
      <trkpt lat="44.52284" lon="4.22063">
        <ele>456</ele>
        <time>2020-07-21T06:59:46Z</time>
      </trkpt>
      <trkpt lat="44.52279" lon="4.22061">
        <ele>455.9</ele>
        <time>2020-07-21T06:59:44Z</time>
      </trkpt>
      <trkpt lat="44.52277" lon="4.22059">
        <ele>455.8</ele>
        <time>2020-07-21T06:59:43Z</time>
      </trkpt>
      <trkpt lat="44.52274" lon="4.22058">
        <ele>455.7</ele>
        <time>2020-07-21T06:59:41Z</time>
      </trkpt>
      <trkpt lat="44.52273" lon="4.22057">
        <ele>455.7</ele>
        <time>2020-07-21T06:59:40Z</time>
      </trkpt>
      <trkpt lat="44.52271" lon="4.22057">
        <ele>455.6</ele>
        <time>2020-07-21T06:59:39Z</time>
      </trkpt>
      <trkpt lat="44.5227" lon="4.22057">
        <ele>455.6</ele>
        <time>2020-07-21T06:59:38Z</time>
      </trkpt>
      <trkpt lat="44.52265" lon="4.22057">
        <ele>455.5</ele>
        <time>2020-07-21T06:59:36Z</time>
      </trkpt>
      <trkpt lat="44.52261" lon="4.22057">
        <ele>455.4</ele>
        <time>2020-07-21T06:59:34Z</time>
      </trkpt>
      <trkpt lat="44.52257" lon="4.22058">
        <ele>455.3</ele>
        <time>2020-07-21T06:59:33Z</time>
      </trkpt>
      <trkpt lat="44.52256" lon="4.22058">
        <ele>455.2</ele>
        <time>2020-07-21T06:59:32Z</time>
      </trkpt>
      <trkpt lat="44.52253" lon="4.22058">
        <ele>455.1</ele>
        <time>2020-07-21T06:59:30Z</time>
      </trkpt>
      <trkpt lat="44.5225" lon="4.22059">
        <ele>455</ele>
        <time>2020-07-21T06:59:29Z</time>
      </trkpt>
      <trkpt lat="44.52249" lon="4.22059">
        <ele>455</ele>
        <time>2020-07-21T06:59:28Z</time>
      </trkpt>
      <trkpt lat="44.52247" lon="4.2206">
        <ele>454.9</ele>
        <time>2020-07-21T06:59:26Z</time>
      </trkpt>
      <trkpt lat="44.52244" lon="4.2206">
        <ele>454.8</ele>
        <time>2020-07-21T06:59:25Z</time>
      </trkpt>
      <trkpt lat="44.52238" lon="4.2206">
        <ele>454.6</ele>
        <time>2020-07-21T06:59:24Z</time>
      </trkpt>
      <trkpt lat="44.52236" lon="4.2206">
        <ele>454.5</ele>
        <time>2020-07-21T06:59:22Z</time>
      </trkpt>
      <trkpt lat="44.52233" lon="4.22059">
        <ele>454.4</ele>
        <time>2020-07-21T06:59:21Z</time>
      </trkpt>
      <trkpt lat="44.52232" lon="4.22059">
        <ele>454.3</ele>
        <time>2020-07-21T06:59:20Z</time>
      </trkpt>
      <trkpt lat="44.52228" lon="4.22059">
        <ele>454.1</ele>
        <time>2020-07-21T06:59:18Z</time>
      </trkpt>
      <trkpt lat="44.52227" lon="4.22059">
        <ele>454.1</ele>
        <time>2020-07-21T06:59:17Z</time>
      </trkpt>
      <trkpt lat="44.52224" lon="4.22059">
        <ele>454</ele>
        <time>2020-07-21T06:59:16Z</time>
      </trkpt>
      <trkpt lat="44.52221" lon="4.22058">
        <ele>453.8</ele>
        <time>2020-07-21T06:59:15Z</time>
      </trkpt>
      <trkpt lat="44.52216" lon="4.22057">
        <ele>453.5</ele>
        <time>2020-07-21T06:59:13Z</time>
      </trkpt>
      <trkpt lat="44.52212" lon="4.22057">
        <ele>453.3</ele>
        <time>2020-07-21T06:59:12Z</time>
      </trkpt>
      <trkpt lat="44.52211" lon="4.22057">
        <ele>453.3</ele>
        <time>2020-07-21T06:59:11Z</time>
      </trkpt>
      <trkpt lat="44.52208" lon="4.22056">
        <ele>453.1</ele>
        <time>2020-07-21T06:59:09Z</time>
      </trkpt>
      <trkpt lat="44.52207" lon="4.22056">
        <ele>453</ele>
        <time>2020-07-21T06:59:08Z</time>
      </trkpt>
      <trkpt lat="44.52204" lon="4.22055">
        <ele>452.8</ele>
        <time>2020-07-21T06:59:06Z</time>
      </trkpt>
      <trkpt lat="44.52198" lon="4.22053">
        <ele>452.5</ele>
        <time>2020-07-21T06:59:05Z</time>
      </trkpt>
      <trkpt lat="44.52196" lon="4.22053">
        <ele>452.3</ele>
        <time>2020-07-21T06:59:03Z</time>
      </trkpt>
      <trkpt lat="44.52195" lon="4.22052">
        <ele>452.2</ele>
        <time>2020-07-21T06:59:02Z</time>
      </trkpt>
      <trkpt lat="44.52192" lon="4.22051">
        <ele>452</ele>
        <time>2020-07-21T06:59:00Z</time>
      </trkpt>
      <trkpt lat="44.52191" lon="4.2205">
        <ele>451.9</ele>
        <time>2020-07-21T06:58:59Z</time>
      </trkpt>
      <trkpt lat="44.52188" lon="4.22049">
        <ele>451.7</ele>
        <time>2020-07-21T06:58:58Z</time>
      </trkpt>
      <trkpt lat="44.52187" lon="4.22048">
        <ele>451.7</ele>
        <time>2020-07-21T06:58:57Z</time>
      </trkpt>
      <trkpt lat="44.52184" lon="4.22047">
        <ele>451.5</ele>
        <time>2020-07-21T06:58:55Z</time>
      </trkpt>
      <trkpt lat="44.52179" lon="4.22044">
        <ele>451.2</ele>
        <time>2020-07-21T06:58:53Z</time>
      </trkpt>
      <trkpt lat="44.52177" lon="4.22044">
        <ele>451.1</ele>
        <time>2020-07-21T06:58:52Z</time>
      </trkpt>
      <trkpt lat="44.52174" lon="4.22042">
        <ele>450.9</ele>
        <time>2020-07-21T06:58:50Z</time>
      </trkpt>
      <trkpt lat="44.52172" lon="4.22042">
        <ele>450.8</ele>
        <time>2020-07-21T06:58:49Z</time>
      </trkpt>
      <trkpt lat="44.52171" lon="4.22041">
        <ele>450.7</ele>
        <time>2020-07-21T06:58:47Z</time>
      </trkpt>
      <trkpt lat="44.52169" lon="4.22041">
        <ele>450.6</ele>
        <time>2020-07-21T06:58:46Z</time>
      </trkpt>
      <trkpt lat="44.52164" lon="4.22039">
        <ele>450.3</ele>
        <time>2020-07-21T06:58:44Z</time>
      </trkpt>
      <trkpt lat="44.52161" lon="4.22038">
        <ele>450.1</ele>
        <time>2020-07-21T06:58:42Z</time>
      </trkpt>
      <trkpt lat="44.52158" lon="4.22038">
        <ele>450</ele>
        <time>2020-07-21T06:58:40Z</time>
      </trkpt>
      <trkpt lat="44.52157" lon="4.22037">
        <ele>449.9</ele>
        <time>2020-07-21T06:58:39Z</time>
      </trkpt>
      <trkpt lat="44.52154" lon="4.22038">
        <ele>449.8</ele>
        <time>2020-07-21T06:58:38Z</time>
      </trkpt>
      <trkpt lat="44.52152" lon="4.22039">
        <ele>449.7</ele>
        <time>2020-07-21T06:58:37Z</time>
      </trkpt>
      <trkpt lat="44.52151" lon="4.22039">
        <ele>449.6</ele>
        <time>2020-07-21T06:58:35Z</time>
      </trkpt>
      <trkpt lat="44.52146" lon="4.22037">
        <ele>449.3</ele>
        <time>2020-07-21T06:58:34Z</time>
      </trkpt>
      <trkpt lat="44.52142" lon="4.22038">
        <ele>449.1</ele>
        <time>2020-07-21T06:58:33Z</time>
      </trkpt>
      <trkpt lat="44.52139" lon="4.22038">
        <ele>448.9</ele>
        <time>2020-07-21T06:58:31Z</time>
      </trkpt>
      <trkpt lat="44.52135" lon="4.2204">
        <ele>448.7</ele>
        <time>2020-07-21T06:58:30Z</time>
      </trkpt>
      <trkpt lat="44.52132" lon="4.22041">
        <ele>448.5</ele>
        <time>2020-07-21T06:58:28Z</time>
      </trkpt>
      <trkpt lat="44.52128" lon="4.22042">
        <ele>448.2</ele>
        <time>2020-07-21T06:58:27Z</time>
      </trkpt>
      <trkpt lat="44.52124" lon="4.22042">
        <ele>448</ele>
        <time>2020-07-21T06:58:25Z</time>
      </trkpt>
      <trkpt lat="44.52121" lon="4.22042">
        <ele>447.8</ele>
        <time>2020-07-21T06:58:24Z</time>
      </trkpt>
      <trkpt lat="44.52116" lon="4.22041">
        <ele>447.4</ele>
        <time>2020-07-21T06:58:22Z</time>
      </trkpt>
      <trkpt lat="44.52111" lon="4.22042">
        <ele>447.1</ele>
        <time>2020-07-21T06:58:21Z</time>
      </trkpt>
      <trkpt lat="44.5211" lon="4.22042">
        <ele>447</ele>
        <time>2020-07-21T06:58:20Z</time>
      </trkpt>
      <trkpt lat="44.52109" lon="4.22042">
        <ele>446.9</ele>
        <time>2020-07-21T06:58:19Z</time>
      </trkpt>
      <trkpt lat="44.52104" lon="4.22042">
        <ele>446.6</ele>
        <time>2020-07-21T06:58:17Z</time>
      </trkpt>
      <trkpt lat="44.52103" lon="4.22043">
        <ele>446.5</ele>
        <time>2020-07-21T06:58:16Z</time>
      </trkpt>
      <trkpt lat="44.52099" lon="4.22042">
        <ele>446.3</ele>
        <time>2020-07-21T06:58:14Z</time>
      </trkpt>
      <trkpt lat="44.52098" lon="4.2204">
        <ele>446.2</ele>
        <time>2020-07-21T06:58:13Z</time>
      </trkpt>
      <trkpt lat="44.52095" lon="4.22038">
        <ele>446</ele>
        <time>2020-07-21T06:58:12Z</time>
      </trkpt>
      <trkpt lat="44.52094" lon="4.22037">
        <ele>445.9</ele>
        <time>2020-07-21T06:58:11Z</time>
      </trkpt>
      <trkpt lat="44.52094" lon="4.22035">
        <ele>445.8</ele>
        <time>2020-07-21T06:58:09Z</time>
      </trkpt>
      <trkpt lat="44.52094" lon="4.22034">
        <ele>445.7</ele>
        <time>2020-07-21T06:58:08Z</time>
      </trkpt>
      <trkpt lat="44.52093" lon="4.22033">
        <ele>445.7</ele>
        <time>2020-07-21T06:58:07Z</time>
      </trkpt>
      <trkpt lat="44.52093" lon="4.22031">
        <ele>445.6</ele>
        <time>2020-07-21T06:58:06Z</time>
      </trkpt>
      <trkpt lat="44.52093" lon="4.2203">
        <ele>445.5</ele>
        <time>2020-07-21T06:58:05Z</time>
      </trkpt>
      <trkpt lat="44.52093" lon="4.22025">
        <ele>445.3</ele>
        <time>2020-07-21T06:58:03Z</time>
      </trkpt>
      <trkpt lat="44.52093" lon="4.22025">
        <ele>445.3</ele>
        <time>2020-07-21T06:58:02Z</time>
      </trkpt>
      <trkpt lat="44.52092" lon="4.22024">
        <ele>445.3</ele>
        <time>2020-07-21T06:58:00Z</time>
      </trkpt>
      <trkpt lat="44.52092" lon="4.22024">
        <ele>445.2</ele>
        <time>2020-07-21T06:57:59Z</time>
      </trkpt>
      <trkpt lat="44.52093" lon="4.22024">
        <ele>445.2</ele>
        <time>2020-07-21T06:57:57Z</time>
      </trkpt>
      <trkpt lat="44.52093" lon="4.22024">
        <ele>445.2</ele>
        <time>2020-07-21T06:57:56Z</time>
      </trkpt>
      <trkpt lat="44.52093" lon="4.22024">
        <ele>445.2</ele>
        <time>2020-07-21T06:57:55Z</time>
      </trkpt>
      <trkpt lat="44.52094" lon="4.22024">
        <ele>445.1</ele>
        <time>2020-07-21T06:57:53Z</time>
      </trkpt>
      <trkpt lat="44.52094" lon="4.22024">
        <ele>445.1</ele>
        <time>2020-07-21T06:57:52Z</time>
      </trkpt>
      <trkpt lat="44.52094" lon="4.22024">
        <ele>445</ele>
        <time>2020-07-21T06:57:50Z</time>
      </trkpt>
      <trkpt lat="44.52095" lon="4.22023">
        <ele>445</ele>
        <time>2020-07-21T06:57:49Z</time>
      </trkpt>
      <trkpt lat="44.52095" lon="4.22023">
        <ele>445</ele>
        <time>2020-07-21T06:57:47Z</time>
      </trkpt>
      <trkpt lat="44.52095" lon="4.22022">
        <ele>445</ele>
        <time>2020-07-21T06:57:45Z</time>
      </trkpt>
      <trkpt lat="44.52095" lon="4.22021">
        <ele>444.9</ele>
        <time>2020-07-21T06:57:44Z</time>
      </trkpt>
      <trkpt lat="44.52095" lon="4.2202">
        <ele>444.9</ele>
        <time>2020-07-21T06:57:43Z</time>
      </trkpt>
      <trkpt lat="44.52095" lon="4.22019">
        <ele>444.8</ele>
        <time>2020-07-21T06:57:42Z</time>
      </trkpt>
      <trkpt lat="44.52096" lon="4.22017">
        <ele>444.7</ele>
        <time>2020-07-21T06:57:40Z</time>
      </trkpt>
      <trkpt lat="44.52096" lon="4.22016">
        <ele>444.6</ele>
        <time>2020-07-21T06:57:38Z</time>
      </trkpt>
      <trkpt lat="44.52097" lon="4.22016">
        <ele>444.6</ele>
        <time>2020-07-21T06:57:37Z</time>
      </trkpt>
      <trkpt lat="44.52097" lon="4.22015">
        <ele>444.6</ele>
        <time>2020-07-21T06:57:35Z</time>
      </trkpt>
      <trkpt lat="44.52097" lon="4.22015">
        <ele>444.6</ele>
        <time>2020-07-21T06:57:34Z</time>
      </trkpt>
      <trkpt lat="44.52097" lon="4.22016">
        <ele>444.6</ele>
        <time>2020-07-21T06:57:33Z</time>
      </trkpt>
      <trkpt lat="44.52097" lon="4.22016">
        <ele>444.6</ele>
        <time>2020-07-21T06:57:32Z</time>
      </trkpt>
      <trkpt lat="44.52096" lon="4.22016">
        <ele>444.5</ele>
        <time>2020-07-21T06:57:31Z</time>
      </trkpt>
      <trkpt lat="44.52096" lon="4.22016">
        <ele>444.5</ele>
        <time>2020-07-21T06:57:30Z</time>
      </trkpt>
      <trkpt lat="44.52096" lon="4.22016">
        <ele>444.5</ele>
        <time>2020-07-21T06:57:29Z</time>
      </trkpt>
      <trkpt lat="44.52096" lon="4.22016">
        <ele>444.5</ele>
        <time>2020-07-21T06:57:27Z</time>
      </trkpt>
      <trkpt lat="44.52096" lon="4.22016">
        <ele>444.5</ele>
        <time>2020-07-21T06:57:26Z</time>
      </trkpt>
      <trkpt lat="44.52096" lon="4.22016">
        <ele>444.5</ele>
        <time>2020-07-21T06:57:25Z</time>
      </trkpt>
      <trkpt lat="44.52096" lon="4.22015">
        <ele>444.5</ele>
        <time>2020-07-21T06:57:23Z</time>
      </trkpt>
      <trkpt lat="44.52096" lon="4.22015">
        <ele>444.5</ele>
        <time>2020-07-21T06:57:22Z</time>
      </trkpt>
      <trkpt lat="44.52096" lon="4.22015">
        <ele>444.4</ele>
        <time>2020-07-21T06:57:21Z</time>
      </trkpt>
      <trkpt lat="44.52097" lon="4.22014">
        <ele>444.4</ele>
        <time>2020-07-21T06:57:19Z</time>
      </trkpt>
      <trkpt lat="44.52097" lon="4.22014">
        <ele>444.4</ele>
        <time>2020-07-21T06:57:17Z</time>
      </trkpt>
      <trkpt lat="44.52097" lon="4.22013">
        <ele>444.3</ele>
        <time>2020-07-21T06:57:16Z</time>
      </trkpt>
      <trkpt lat="44.52098" lon="4.2201">
        <ele>444.1</ele>
        <time>2020-07-21T06:57:14Z</time>
      </trkpt>
      <trkpt lat="44.52099" lon="4.22009">
        <ele>444.1</ele>
        <time>2020-07-21T06:57:13Z</time>
      </trkpt>
      <trkpt lat="44.521" lon="4.22009">
        <ele>444</ele>
        <time>2020-07-21T06:57:11Z</time>
      </trkpt>
      <trkpt lat="44.52101" lon="4.2201">
        <ele>443.9</ele>
        <time>2020-07-21T06:57:10Z</time>
      </trkpt>
      <trkpt lat="44.52102" lon="4.2201">
        <ele>443.8</ele>
        <time>2020-07-21T06:57:08Z</time>
      </trkpt>
      <trkpt lat="44.52102" lon="4.2201">
        <ele>443.8</ele>
        <time>2020-07-21T06:57:07Z</time>
      </trkpt>
      <trkpt lat="44.52101" lon="4.22011">
        <ele>443.8</ele>
        <time>2020-07-21T06:57:06Z</time>
      </trkpt>
      <trkpt lat="44.52101" lon="4.22012">
        <ele>443.7</ele>
        <time>2020-07-21T06:57:04Z</time>
      </trkpt>
      <trkpt lat="44.52101" lon="4.22012">
        <ele>443.7</ele>
        <time>2020-07-21T06:57:02Z</time>
      </trkpt>
      <trkpt lat="44.52101" lon="4.22012">
        <ele>443.7</ele>
        <time>2020-07-21T06:57:01Z</time>
      </trkpt>
      <trkpt lat="44.52101" lon="4.22012">
        <ele>443.7</ele>
        <time>2020-07-21T06:57:00Z</time>
      </trkpt>
      <trkpt lat="44.52101" lon="4.22013">
        <ele>443.6</ele>
        <time>2020-07-21T06:56:59Z</time>
      </trkpt>
      <trkpt lat="44.52099" lon="4.22016">
        <ele>443.5</ele>
        <time>2020-07-21T06:56:57Z</time>
      </trkpt>
      <trkpt lat="44.52099" lon="4.22016">
        <ele>443.5</ele>
        <time>2020-07-21T06:56:56Z</time>
      </trkpt>
      <trkpt lat="44.52099" lon="4.22016">
        <ele>443.4</ele>
        <time>2020-07-21T06:56:55Z</time>
      </trkpt>
      <trkpt lat="44.52099" lon="4.22016">
        <ele>443.4</ele>
        <time>2020-07-21T06:56:53Z</time>
      </trkpt>
      <trkpt lat="44.52099" lon="4.22016">
        <ele>443.4</ele>
        <time>2020-07-21T06:56:52Z</time>
      </trkpt>
      <trkpt lat="44.52098" lon="4.22017">
        <ele>443.4</ele>
        <time>2020-07-21T06:56:50Z</time>
      </trkpt>
      <trkpt lat="44.52098" lon="4.22017">
        <ele>443.4</ele>
        <time>2020-07-21T06:56:48Z</time>
      </trkpt>
      <trkpt lat="44.52098" lon="4.22017">
        <ele>443.4</ele>
        <time>2020-07-21T06:56:47Z</time>
      </trkpt>
      <trkpt lat="44.52098" lon="4.22017">
        <ele>443.3</ele>
        <time>2020-07-21T06:56:46Z</time>
      </trkpt>
      <trkpt lat="44.52097" lon="4.22018">
        <ele>443.3</ele>
        <time>2020-07-21T06:56:44Z</time>
      </trkpt>
      <trkpt lat="44.52097" lon="4.22018">
        <ele>443.3</ele>
        <time>2020-07-21T06:56:42Z</time>
      </trkpt>
      <trkpt lat="44.52096" lon="4.22019">
        <ele>443.2</ele>
        <time>2020-07-21T06:56:41Z</time>
      </trkpt>
      <trkpt lat="44.52096" lon="4.22019">
        <ele>443.2</ele>
        <time>2020-07-21T06:56:39Z</time>
      </trkpt>
      <trkpt lat="44.52095" lon="4.22021">
        <ele>443.1</ele>
        <time>2020-07-21T06:56:37Z</time>
      </trkpt>
      <trkpt lat="44.52094" lon="4.22022">
        <ele>443</ele>
        <time>2020-07-21T06:56:36Z</time>
      </trkpt>
      <trkpt lat="44.52093" lon="4.22025">
        <ele>442.8</ele>
        <time>2020-07-21T06:56:34Z</time>
      </trkpt>
      <trkpt lat="44.52091" lon="4.22027">
        <ele>442.7</ele>
        <time>2020-07-21T06:56:33Z</time>
      </trkpt>
      <trkpt lat="44.5209" lon="4.22027">
        <ele>442.6</ele>
        <time>2020-07-21T06:56:32Z</time>
      </trkpt>
      <trkpt lat="44.5209" lon="4.22027">
        <ele>442.6</ele>
        <time>2020-07-21T06:56:30Z</time>
      </trkpt>
      <trkpt lat="44.5209" lon="4.22026">
        <ele>442.6</ele>
        <time>2020-07-21T06:56:29Z</time>
      </trkpt>
      <trkpt lat="44.52089" lon="4.22026">
        <ele>442.6</ele>
        <time>2020-07-21T06:56:28Z</time>
      </trkpt>
      <trkpt lat="44.52089" lon="4.22026">
        <ele>442.6</ele>
        <time>2020-07-21T06:56:26Z</time>
      </trkpt>
      <trkpt lat="44.52087" lon="4.22026">
        <ele>442.6</ele>
        <time>2020-07-21T06:56:25Z</time>
      </trkpt>
      <trkpt lat="44.52085" lon="4.22027">
        <ele>442.2</ele>
        <time>2020-07-21T06:56:24Z</time>
      </trkpt>
      <trkpt lat="44.5208" lon="4.22028">
        <ele>441.3</ele>
        <time>2020-07-21T06:56:22Z</time>
      </trkpt>
      <trkpt lat="44.52077" lon="4.22028">
        <ele>440.9</ele>
        <time>2020-07-21T06:56:21Z</time>
      </trkpt>
      <trkpt lat="44.52074" lon="4.22029">
        <ele>440.6</ele>
        <time>2020-07-21T06:56:19Z</time>
      </trkpt>
      <trkpt lat="44.5207" lon="4.2203">
        <ele>440</ele>
        <time>2020-07-21T06:56:18Z</time>
      </trkpt>
      <trkpt lat="44.52065" lon="4.2203">
        <ele>439.7</ele>
        <time>2020-07-21T06:56:16Z</time>
      </trkpt>
      <trkpt lat="44.52062" lon="4.2203">
        <ele>439.3</ele>
        <time>2020-07-21T06:56:14Z</time>
      </trkpt>
      <trkpt lat="44.52058" lon="4.22032">
        <ele>438.6</ele>
        <time>2020-07-21T06:56:13Z</time>
      </trkpt>
      <trkpt lat="44.52051" lon="4.22034">
        <ele>437.8</ele>
        <time>2020-07-21T06:56:11Z</time>
      </trkpt>
      <trkpt lat="44.52046" lon="4.22035">
        <ele>437.2</ele>
        <time>2020-07-21T06:56:10Z</time>
      </trkpt>
      <trkpt lat="44.52043" lon="4.22036">
        <ele>437</ele>
        <time>2020-07-21T06:56:09Z</time>
      </trkpt>
      <trkpt lat="44.52038" lon="4.22036">
        <ele>436.8</ele>
        <time>2020-07-21T06:56:07Z</time>
      </trkpt>
      <trkpt lat="44.52036" lon="4.22037">
        <ele>436.6</ele>
        <time>2020-07-21T06:56:05Z</time>
      </trkpt>
      <trkpt lat="44.52033" lon="4.22037">
        <ele>436.4</ele>
        <time>2020-07-21T06:56:04Z</time>
      </trkpt>
      <trkpt lat="44.52029" lon="4.22041">
        <ele>436.1</ele>
        <time>2020-07-21T06:56:03Z</time>
      </trkpt>
      <trkpt lat="44.52028" lon="4.22041">
        <ele>435.9</ele>
        <time>2020-07-21T06:56:02Z</time>
      </trkpt>
      <trkpt lat="44.52025" lon="4.22043">
        <ele>435.6</ele>
        <time>2020-07-21T06:56:01Z</time>
      </trkpt>
      <trkpt lat="44.52023" lon="4.22044">
        <ele>435.6</ele>
        <time>2020-07-21T06:56:00Z</time>
      </trkpt>
      <trkpt lat="44.52022" lon="4.22045">
        <ele>435.4</ele>
        <time>2020-07-21T06:55:59Z</time>
      </trkpt>
      <trkpt lat="44.52021" lon="4.22046">
        <ele>435.4</ele>
        <time>2020-07-21T06:55:58Z</time>
      </trkpt>
      <trkpt lat="44.52019" lon="4.22047">
        <ele>435.2</ele>
        <time>2020-07-21T06:55:56Z</time>
      </trkpt>
      <trkpt lat="44.52017" lon="4.22048">
        <ele>435.1</ele>
        <time>2020-07-21T06:55:55Z</time>
      </trkpt>
      <trkpt lat="44.52016" lon="4.22049">
        <ele>434.9</ele>
        <time>2020-07-21T06:55:54Z</time>
      </trkpt>
      <trkpt lat="44.52013" lon="4.22053">
        <ele>434.5</ele>
        <time>2020-07-21T06:55:52Z</time>
      </trkpt>
      <trkpt lat="44.52012" lon="4.22055">
        <ele>434.5</ele>
        <time>2020-07-21T06:55:51Z</time>
      </trkpt>
      <trkpt lat="44.52011" lon="4.22056">
        <ele>434.4</ele>
        <time>2020-07-21T06:55:50Z</time>
      </trkpt>
      <trkpt lat="44.52009" lon="4.22058">
        <ele>434.1</ele>
        <time>2020-07-21T06:55:49Z</time>
      </trkpt>
      <trkpt lat="44.52008" lon="4.2206">
        <ele>433.9</ele>
        <time>2020-07-21T06:55:48Z</time>
      </trkpt>
      <trkpt lat="44.52007" lon="4.22062">
        <ele>433.7</ele>
        <time>2020-07-21T06:55:46Z</time>
      </trkpt>
      <trkpt lat="44.52005" lon="4.22064">
        <ele>433.4</ele>
        <time>2020-07-21T06:55:44Z</time>
      </trkpt>
      <trkpt lat="44.52002" lon="4.22067">
        <ele>433.1</ele>
        <time>2020-07-21T06:55:42Z</time>
      </trkpt>
      <trkpt lat="44.52001" lon="4.22069">
        <ele>432.3</ele>
        <time>2020-07-21T06:55:41Z</time>
      </trkpt>
      <trkpt lat="44.52" lon="4.22069">
        <ele>432.3</ele>
        <time>2020-07-21T06:55:40Z</time>
      </trkpt>
      <trkpt lat="44.51997" lon="4.22071">
        <ele>432</ele>
        <time>2020-07-21T06:55:39Z</time>
      </trkpt>
      <trkpt lat="44.51995" lon="4.22071">
        <ele>431.7</ele>
        <time>2020-07-21T06:55:37Z</time>
      </trkpt>
      <trkpt lat="44.51993" lon="4.22071">
        <ele>431.7</ele>
        <time>2020-07-21T06:55:36Z</time>
      </trkpt>
      <trkpt lat="44.51991" lon="4.22071">
        <ele>431.5</ele>
        <time>2020-07-21T06:55:35Z</time>
      </trkpt>
      <trkpt lat="44.5199" lon="4.22071">
        <ele>431.5</ele>
        <time>2020-07-21T06:55:34Z</time>
      </trkpt>
      <trkpt lat="44.51984" lon="4.22068">
        <ele>431</ele>
        <time>2020-07-21T06:55:32Z</time>
      </trkpt>
      <trkpt lat="44.51981" lon="4.22067">
        <ele>431</ele>
        <time>2020-07-21T06:55:30Z</time>
      </trkpt>
      <trkpt lat="44.5198" lon="4.22066">
        <ele>431</ele>
        <time>2020-07-21T06:55:29Z</time>
      </trkpt>
      <trkpt lat="44.51979" lon="4.22065">
        <ele>430.8</ele>
        <time>2020-07-21T06:55:28Z</time>
      </trkpt>
      <trkpt lat="44.51977" lon="4.22064">
        <ele>430.7</ele>
        <time>2020-07-21T06:55:26Z</time>
      </trkpt>
      <trkpt lat="44.51976" lon="4.22062">
        <ele>430.5</ele>
        <time>2020-07-21T06:55:25Z</time>
      </trkpt>
      <trkpt lat="44.51975" lon="4.22061">
        <ele>430.4</ele>
        <time>2020-07-21T06:55:24Z</time>
      </trkpt>
      <trkpt lat="44.51971" lon="4.22058">
        <ele>430.2</ele>
        <time>2020-07-21T06:55:22Z</time>
      </trkpt>
      <trkpt lat="44.5197" lon="4.22057">
        <ele>430.1</ele>
        <time>2020-07-21T06:55:21Z</time>
      </trkpt>
      <trkpt lat="44.51969" lon="4.22056">
        <ele>430</ele>
        <time>2020-07-21T06:55:20Z</time>
      </trkpt>
      <trkpt lat="44.51967" lon="4.22054">
        <ele>429.8</ele>
        <time>2020-07-21T06:55:19Z</time>
      </trkpt>
      <trkpt lat="44.51965" lon="4.22052">
        <ele>429.7</ele>
        <time>2020-07-21T06:55:17Z</time>
      </trkpt>
      <trkpt lat="44.51963" lon="4.2205">
        <ele>429.5</ele>
        <time>2020-07-21T06:55:16Z</time>
      </trkpt>
      <trkpt lat="44.51961" lon="4.22047">
        <ele>429.3</ele>
        <time>2020-07-21T06:55:14Z</time>
      </trkpt>
      <trkpt lat="44.51959" lon="4.22046">
        <ele>429.2</ele>
        <time>2020-07-21T06:55:13Z</time>
      </trkpt>
      <trkpt lat="44.51955" lon="4.22042">
        <ele>428.9</ele>
        <time>2020-07-21T06:55:11Z</time>
      </trkpt>
      <trkpt lat="44.51954" lon="4.22041">
        <ele>428.8</ele>
        <time>2020-07-21T06:55:10Z</time>
      </trkpt>
      <trkpt lat="44.51951" lon="4.22038">
        <ele>428.6</ele>
        <time>2020-07-21T06:55:08Z</time>
      </trkpt>
      <trkpt lat="44.5195" lon="4.22037">
        <ele>428.5</ele>
        <time>2020-07-21T06:55:07Z</time>
      </trkpt>
      <trkpt lat="44.51948" lon="4.22035">
        <ele>428.3</ele>
        <time>2020-07-21T06:55:05Z</time>
      </trkpt>
      <trkpt lat="44.51945" lon="4.22033">
        <ele>428.2</ele>
        <time>2020-07-21T06:55:04Z</time>
      </trkpt>
      <trkpt lat="44.51944" lon="4.2203">
        <ele>428</ele>
        <time>2020-07-21T06:55:03Z</time>
      </trkpt>
      <trkpt lat="44.5194" lon="4.22025">
        <ele>427.6</ele>
        <time>2020-07-21T06:55:01Z</time>
      </trkpt>
      <trkpt lat="44.51937" lon="4.22021">
        <ele>427.4</ele>
        <time>2020-07-21T06:55:00Z</time>
      </trkpt>
      <trkpt lat="44.51935" lon="4.22018">
        <ele>427.2</ele>
        <time>2020-07-21T06:54:58Z</time>
      </trkpt>
      <trkpt lat="44.51934" lon="4.22017">
        <ele>427.1</ele>
        <time>2020-07-21T06:54:57Z</time>
      </trkpt>
      <trkpt lat="44.51932" lon="4.22014">
        <ele>426.9</ele>
        <time>2020-07-21T06:54:56Z</time>
      </trkpt>
      <trkpt lat="44.51931" lon="4.22013">
        <ele>426.8</ele>
        <time>2020-07-21T06:54:55Z</time>
      </trkpt>
      <trkpt lat="44.5193" lon="4.2201">
        <ele>426.6</ele>
        <time>2020-07-21T06:54:53Z</time>
      </trkpt>
      <trkpt lat="44.51927" lon="4.22003">
        <ele>426.2</ele>
        <time>2020-07-21T06:54:52Z</time>
      </trkpt>
      <trkpt lat="44.51926" lon="4.21999">
        <ele>426</ele>
        <time>2020-07-21T06:54:51Z</time>
      </trkpt>
      <trkpt lat="44.51925" lon="4.21995">
        <ele>425.8</ele>
        <time>2020-07-21T06:54:49Z</time>
      </trkpt>
      <trkpt lat="44.51924" lon="4.21992">
        <ele>425.6</ele>
        <time>2020-07-21T06:54:48Z</time>
      </trkpt>
      <trkpt lat="44.51923" lon="4.2199">
        <ele>425.5</ele>
        <time>2020-07-21T06:54:47Z</time>
      </trkpt>
      <trkpt lat="44.51922" lon="4.21986">
        <ele>425.3</ele>
        <time>2020-07-21T06:54:46Z</time>
      </trkpt>
      <trkpt lat="44.51922" lon="4.21985">
        <ele>425.2</ele>
        <time>2020-07-21T06:54:45Z</time>
      </trkpt>
      <trkpt lat="44.51921" lon="4.21981">
        <ele>425</ele>
        <time>2020-07-21T06:54:43Z</time>
      </trkpt>
      <trkpt lat="44.5192" lon="4.21977">
        <ele>424.8</ele>
        <time>2020-07-21T06:54:42Z</time>
      </trkpt>
      <trkpt lat="44.51918" lon="4.21971">
        <ele>424.5</ele>
        <time>2020-07-21T06:54:40Z</time>
      </trkpt>
      <trkpt lat="44.51918" lon="4.2197">
        <ele>424.4</ele>
        <time>2020-07-21T06:54:39Z</time>
      </trkpt>
      <trkpt lat="44.51917" lon="4.21966">
        <ele>424.2</ele>
        <time>2020-07-21T06:54:38Z</time>
      </trkpt>
      <trkpt lat="44.51917" lon="4.21964">
        <ele>424.1</ele>
        <time>2020-07-21T06:54:37Z</time>
      </trkpt>
      <trkpt lat="44.51916" lon="4.2196">
        <ele>423.9</ele>
        <time>2020-07-21T06:54:35Z</time>
      </trkpt>
      <trkpt lat="44.51915" lon="4.21957">
        <ele>423.7</ele>
        <time>2020-07-21T06:54:34Z</time>
      </trkpt>
      <trkpt lat="44.51915" lon="4.21955">
        <ele>423.6</ele>
        <time>2020-07-21T06:54:32Z</time>
      </trkpt>
      <trkpt lat="44.51913" lon="4.2195">
        <ele>423.3</ele>
        <time>2020-07-21T06:54:31Z</time>
      </trkpt>
      <trkpt lat="44.51912" lon="4.21948">
        <ele>423.3</ele>
        <time>2020-07-21T06:54:30Z</time>
      </trkpt>
      <trkpt lat="44.51911" lon="4.21944">
        <ele>423</ele>
        <time>2020-07-21T06:54:28Z</time>
      </trkpt>
      <trkpt lat="44.51911" lon="4.21942">
        <ele>422.9</ele>
        <time>2020-07-21T06:54:27Z</time>
      </trkpt>
      <trkpt lat="44.5191" lon="4.21939">
        <ele>422.7</ele>
        <time>2020-07-21T06:54:26Z</time>
      </trkpt>
      <trkpt lat="44.51909" lon="4.21936">
        <ele>422.6</ele>
        <time>2020-07-21T06:54:24Z</time>
      </trkpt>
      <trkpt lat="44.51908" lon="4.21934">
        <ele>422.5</ele>
        <time>2020-07-21T06:54:23Z</time>
      </trkpt>
      <trkpt lat="44.51906" lon="4.21928">
        <ele>422.1</ele>
        <time>2020-07-21T06:54:21Z</time>
      </trkpt>
      <trkpt lat="44.51905" lon="4.21927">
        <ele>422.1</ele>
        <time>2020-07-21T06:54:20Z</time>
      </trkpt>
      <trkpt lat="44.51904" lon="4.21923">
        <ele>421.8</ele>
        <time>2020-07-21T06:54:18Z</time>
      </trkpt>
      <trkpt lat="44.51903" lon="4.21922">
        <ele>421.7</ele>
        <time>2020-07-21T06:54:17Z</time>
      </trkpt>
      <trkpt lat="44.51901" lon="4.21918">
        <ele>421.5</ele>
        <time>2020-07-21T06:54:15Z</time>
      </trkpt>
      <trkpt lat="44.51901" lon="4.21917">
        <ele>421.4</ele>
        <time>2020-07-21T06:54:14Z</time>
      </trkpt>
      <trkpt lat="44.51899" lon="4.21913">
        <ele>421.2</ele>
        <time>2020-07-21T06:54:13Z</time>
      </trkpt>
      <trkpt lat="44.51895" lon="4.21908">
        <ele>420.9</ele>
        <time>2020-07-21T06:54:11Z</time>
      </trkpt>
      <trkpt lat="44.51893" lon="4.21907">
        <ele>420.8</ele>
        <time>2020-07-21T06:54:10Z</time>
      </trkpt>
      <trkpt lat="44.51892" lon="4.21905">
        <ele>420.7</ele>
        <time>2020-07-21T06:54:09Z</time>
      </trkpt>
      <trkpt lat="44.5189" lon="4.21902">
        <ele>420.5</ele>
        <time>2020-07-21T06:54:08Z</time>
      </trkpt>
      <trkpt lat="44.51888" lon="4.219">
        <ele>420.3</ele>
        <time>2020-07-21T06:54:06Z</time>
      </trkpt>
      <trkpt lat="44.51886" lon="4.21897">
        <ele>420.2</ele>
        <time>2020-07-21T06:54:05Z</time>
      </trkpt>
      <trkpt lat="44.51885" lon="4.21896">
        <ele>420.1</ele>
        <time>2020-07-21T06:54:03Z</time>
      </trkpt>
      <trkpt lat="44.51883" lon="4.21895">
        <ele>420</ele>
        <time>2020-07-21T06:54:02Z</time>
      </trkpt>
      <trkpt lat="44.5188" lon="4.21891">
        <ele>419.8</ele>
        <time>2020-07-21T06:54:01Z</time>
      </trkpt>
      <trkpt lat="44.51878" lon="4.2189">
        <ele>419.6</ele>
        <time>2020-07-21T06:53:59Z</time>
      </trkpt>
      <trkpt lat="44.51876" lon="4.21888">
        <ele>419.5</ele>
        <time>2020-07-21T06:53:58Z</time>
      </trkpt>
      <trkpt lat="44.51874" lon="4.21886">
        <ele>419.4</ele>
        <time>2020-07-21T06:53:56Z</time>
      </trkpt>
      <trkpt lat="44.51873" lon="4.21885">
        <ele>419.3</ele>
        <time>2020-07-21T06:53:55Z</time>
      </trkpt>
      <trkpt lat="44.51871" lon="4.21884">
        <ele>419.2</ele>
        <time>2020-07-21T06:53:54Z</time>
      </trkpt>
      <trkpt lat="44.5187" lon="4.21883">
        <ele>419.1</ele>
        <time>2020-07-21T06:53:52Z</time>
      </trkpt>
      <trkpt lat="44.51865" lon="4.21879">
        <ele>418.7</ele>
        <time>2020-07-21T06:53:51Z</time>
      </trkpt>
      <trkpt lat="44.51862" lon="4.21877">
        <ele>418.6</ele>
        <time>2020-07-21T06:53:50Z</time>
      </trkpt>
      <trkpt lat="44.5186" lon="4.21875">
        <ele>418.4</ele>
        <time>2020-07-21T06:53:48Z</time>
      </trkpt>
      <trkpt lat="44.51858" lon="4.21874">
        <ele>418.3</ele>
        <time>2020-07-21T06:53:47Z</time>
      </trkpt>
      <trkpt lat="44.51857" lon="4.21873">
        <ele>418.3</ele>
        <time>2020-07-21T06:53:46Z</time>
      </trkpt>
      <trkpt lat="44.51854" lon="4.21871">
        <ele>418.1</ele>
        <time>2020-07-21T06:53:45Z</time>
      </trkpt>
      <trkpt lat="44.51852" lon="4.21869">
        <ele>418</ele>
        <time>2020-07-21T06:53:43Z</time>
      </trkpt>
      <trkpt lat="44.51851" lon="4.21868">
        <ele>417.9</ele>
        <time>2020-07-21T06:53:42Z</time>
      </trkpt>
      <trkpt lat="44.51849" lon="4.21866">
        <ele>417.8</ele>
        <time>2020-07-21T06:53:41Z</time>
      </trkpt>
      <trkpt lat="44.51844" lon="4.21863">
        <ele>417.5</ele>
        <time>2020-07-21T06:53:40Z</time>
      </trkpt>
      <trkpt lat="44.51843" lon="4.21862">
        <ele>417.4</ele>
        <time>2020-07-21T06:53:39Z</time>
      </trkpt>
      <trkpt lat="44.51842" lon="4.2186">
        <ele>417.3</ele>
        <time>2020-07-21T06:53:37Z</time>
      </trkpt>
      <trkpt lat="44.5184" lon="4.2186">
        <ele>417.2</ele>
        <time>2020-07-21T06:53:36Z</time>
      </trkpt>
      <trkpt lat="44.51839" lon="4.21858">
        <ele>417</ele>
        <time>2020-07-21T06:53:35Z</time>
      </trkpt>
      <trkpt lat="44.51837" lon="4.21857">
        <ele>416.9</ele>
        <time>2020-07-21T06:53:34Z</time>
      </trkpt>
      <trkpt lat="44.51836" lon="4.21856">
        <ele>416.8</ele>
        <time>2020-07-21T06:53:32Z</time>
      </trkpt>
      <trkpt lat="44.51834" lon="4.21854">
        <ele>416.6</ele>
        <time>2020-07-21T06:53:31Z</time>
      </trkpt>
      <trkpt lat="44.51832" lon="4.21853">
        <ele>416.5</ele>
        <time>2020-07-21T06:53:30Z</time>
      </trkpt>
      <trkpt lat="44.51827" lon="4.21848">
        <ele>416.1</ele>
        <time>2020-07-21T06:53:28Z</time>
      </trkpt>
      <trkpt lat="44.51826" lon="4.21848">
        <ele>416.1</ele>
        <time>2020-07-21T06:53:27Z</time>
      </trkpt>
      <trkpt lat="44.51826" lon="4.21847">
        <ele>416</ele>
        <time>2020-07-21T06:53:26Z</time>
      </trkpt>
      <trkpt lat="44.51824" lon="4.21846">
        <ele>415.8</ele>
        <time>2020-07-21T06:53:25Z</time>
      </trkpt>
      <trkpt lat="44.51822" lon="4.21844">
        <ele>415.6</ele>
        <time>2020-07-21T06:53:23Z</time>
      </trkpt>
      <trkpt lat="44.5182" lon="4.21843">
        <ele>415.5</ele>
        <time>2020-07-21T06:53:22Z</time>
      </trkpt>
      <trkpt lat="44.51817" lon="4.2184">
        <ele>415.1</ele>
        <time>2020-07-21T06:53:21Z</time>
      </trkpt>
      <trkpt lat="44.51816" lon="4.21839">
        <ele>414.9</ele>
        <time>2020-07-21T06:53:19Z</time>
      </trkpt>
      <trkpt lat="44.51814" lon="4.21838">
        <ele>414.8</ele>
        <time>2020-07-21T06:53:18Z</time>
      </trkpt>
      <trkpt lat="44.51812" lon="4.21837">
        <ele>414.6</ele>
        <time>2020-07-21T06:53:17Z</time>
      </trkpt>
      <trkpt lat="44.51811" lon="4.21837">
        <ele>414.4</ele>
        <time>2020-07-21T06:53:16Z</time>
      </trkpt>
      <trkpt lat="44.5181" lon="4.21836">
        <ele>414.3</ele>
        <time>2020-07-21T06:53:15Z</time>
      </trkpt>
      <trkpt lat="44.51809" lon="4.21836">
        <ele>414.2</ele>
        <time>2020-07-21T06:53:13Z</time>
      </trkpt>
      <trkpt lat="44.51807" lon="4.21836">
        <ele>413.9</ele>
        <time>2020-07-21T06:53:12Z</time>
      </trkpt>
      <trkpt lat="44.51803" lon="4.21833">
        <ele>413.4</ele>
        <time>2020-07-21T06:53:10Z</time>
      </trkpt>
      <trkpt lat="44.51802" lon="4.21833">
        <ele>413.2</ele>
        <time>2020-07-21T06:53:09Z</time>
      </trkpt>
      <trkpt lat="44.518" lon="4.21833">
        <ele>413</ele>
        <time>2020-07-21T06:53:08Z</time>
      </trkpt>
      <trkpt lat="44.51798" lon="4.21833">
        <ele>412.8</ele>
        <time>2020-07-21T06:53:07Z</time>
      </trkpt>
      <trkpt lat="44.51796" lon="4.21832">
        <ele>412.5</ele>
        <time>2020-07-21T06:53:05Z</time>
      </trkpt>
      <trkpt lat="44.51795" lon="4.21832">
        <ele>412.4</ele>
        <time>2020-07-21T06:53:04Z</time>
      </trkpt>
      <trkpt lat="44.51794" lon="4.21832">
        <ele>412.2</ele>
        <time>2020-07-21T06:53:03Z</time>
      </trkpt>
      <trkpt lat="44.51789" lon="4.21831">
        <ele>411.5</ele>
        <time>2020-07-21T06:53:00Z</time>
      </trkpt>
      <trkpt lat="44.51786" lon="4.21831">
        <ele>411.1</ele>
        <time>2020-07-21T06:52:58Z</time>
      </trkpt>
      <trkpt lat="44.51785" lon="4.21831">
        <ele>410.9</ele>
        <time>2020-07-21T06:52:57Z</time>
      </trkpt>
      <trkpt lat="44.51783" lon="4.21831">
        <ele>410.7</ele>
        <time>2020-07-21T06:52:56Z</time>
      </trkpt>
      <trkpt lat="44.51781" lon="4.21831">
        <ele>410.5</ele>
        <time>2020-07-21T06:52:55Z</time>
      </trkpt>
      <trkpt lat="44.5178" lon="4.21832">
        <ele>410.3</ele>
        <time>2020-07-21T06:52:54Z</time>
      </trkpt>
      <trkpt lat="44.5178" lon="4.21833">
        <ele>410.2</ele>
        <time>2020-07-21T06:52:53Z</time>
      </trkpt>
      <trkpt lat="44.51777" lon="4.21833">
        <ele>409.8</ele>
        <time>2020-07-21T06:52:51Z</time>
      </trkpt>
      <trkpt lat="44.51775" lon="4.21833">
        <ele>409.6</ele>
        <time>2020-07-21T06:52:50Z</time>
      </trkpt>
      <trkpt lat="44.51774" lon="4.21834">
        <ele>409.4</ele>
        <time>2020-07-21T06:52:49Z</time>
      </trkpt>
      <trkpt lat="44.51774" lon="4.21834">
        <ele>409.3</ele>
        <time>2020-07-21T06:52:48Z</time>
      </trkpt>
      <trkpt lat="44.51771" lon="4.21834">
        <ele>409</ele>
        <time>2020-07-21T06:52:46Z</time>
      </trkpt>
      <trkpt lat="44.5177" lon="4.21835">
        <ele>408.8</ele>
        <time>2020-07-21T06:52:45Z</time>
      </trkpt>
      <trkpt lat="44.5177" lon="4.21835">
        <ele>408.7</ele>
        <time>2020-07-21T06:52:44Z</time>
      </trkpt>
      <trkpt lat="44.51769" lon="4.21836">
        <ele>408.6</ele>
        <time>2020-07-21T06:52:42Z</time>
      </trkpt>
      <trkpt lat="44.51767" lon="4.21836">
        <ele>408.3</ele>
        <time>2020-07-21T06:52:41Z</time>
      </trkpt>
      <trkpt lat="44.51763" lon="4.21837">
        <ele>407.7</ele>
        <time>2020-07-21T06:52:40Z</time>
      </trkpt>
      <trkpt lat="44.51761" lon="4.21838">
        <ele>407.4</ele>
        <time>2020-07-21T06:52:38Z</time>
      </trkpt>
      <trkpt lat="44.5176" lon="4.21839">
        <ele>407.1</ele>
        <time>2020-07-21T06:52:37Z</time>
      </trkpt>
      <trkpt lat="44.51758" lon="4.2184">
        <ele>406.9</ele>
        <time>2020-07-21T06:52:35Z</time>
      </trkpt>
      <trkpt lat="44.51758" lon="4.21841">
        <ele>406.8</ele>
        <time>2020-07-21T06:52:34Z</time>
      </trkpt>
      <trkpt lat="44.51757" lon="4.21842">
        <ele>406.6</ele>
        <time>2020-07-21T06:52:32Z</time>
      </trkpt>
      <trkpt lat="44.51752" lon="4.21845">
        <ele>405.8</ele>
        <time>2020-07-21T06:52:30Z</time>
      </trkpt>
      <trkpt lat="44.5175" lon="4.21846">
        <ele>405.5</ele>
        <time>2020-07-21T06:52:29Z</time>
      </trkpt>
      <trkpt lat="44.51749" lon="4.21846">
        <ele>405.4</ele>
        <time>2020-07-21T06:52:28Z</time>
      </trkpt>
      <trkpt lat="44.51746" lon="4.21849">
        <ele>404.8</ele>
        <time>2020-07-21T06:52:26Z</time>
      </trkpt>
      <trkpt lat="44.51744" lon="4.21852">
        <ele>404.3</ele>
        <time>2020-07-21T06:52:25Z</time>
      </trkpt>
      <trkpt lat="44.51742" lon="4.21854">
        <ele>404</ele>
        <time>2020-07-21T06:52:23Z</time>
      </trkpt>
      <trkpt lat="44.5174" lon="4.21856">
        <ele>403.6</ele>
        <time>2020-07-21T06:52:22Z</time>
      </trkpt>
      <trkpt lat="44.51737" lon="4.21861">
        <ele>402.8</ele>
        <time>2020-07-21T06:52:21Z</time>
      </trkpt>
      <trkpt lat="44.51734" lon="4.21864">
        <ele>402.2</ele>
        <time>2020-07-21T06:52:19Z</time>
      </trkpt>
      <trkpt lat="44.51732" lon="4.21866">
        <ele>401.9</ele>
        <time>2020-07-21T06:52:17Z</time>
      </trkpt>
      <trkpt lat="44.51731" lon="4.21867">
        <ele>401.7</ele>
        <time>2020-07-21T06:52:16Z</time>
      </trkpt>
      <trkpt lat="44.51728" lon="4.2187">
        <ele>401.1</ele>
        <time>2020-07-21T06:52:15Z</time>
      </trkpt>
      <trkpt lat="44.51726" lon="4.21873">
        <ele>400.7</ele>
        <time>2020-07-21T06:52:13Z</time>
      </trkpt>
      <trkpt lat="44.51725" lon="4.21874">
        <ele>400.5</ele>
        <time>2020-07-21T06:52:11Z</time>
      </trkpt>
      <trkpt lat="44.51722" lon="4.21878">
        <ele>399.8</ele>
        <time>2020-07-21T06:52:10Z</time>
      </trkpt>
      <trkpt lat="44.51721" lon="4.21879">
        <ele>399.5</ele>
        <time>2020-07-21T06:52:09Z</time>
      </trkpt>
      <trkpt lat="44.5172" lon="4.21881">
        <ele>399.4</ele>
        <time>2020-07-21T06:52:08Z</time>
      </trkpt>
      <trkpt lat="44.51719" lon="4.21883">
        <ele>398.9</ele>
        <time>2020-07-21T06:52:06Z</time>
      </trkpt>
      <trkpt lat="44.51717" lon="4.21885">
        <ele>398.6</ele>
        <time>2020-07-21T06:52:05Z</time>
      </trkpt>
      <trkpt lat="44.51716" lon="4.21889">
        <ele>398.1</ele>
        <time>2020-07-21T06:52:03Z</time>
      </trkpt>
      <trkpt lat="44.51715" lon="4.21891">
        <ele>397.8</ele>
        <time>2020-07-21T06:52:01Z</time>
      </trkpt>
      <trkpt lat="44.51714" lon="4.21895">
        <ele>397.3</ele>
        <time>2020-07-21T06:52:00Z</time>
      </trkpt>
      <trkpt lat="44.51712" lon="4.21902">
        <ele>396.6</ele>
        <time>2020-07-21T06:51:59Z</time>
      </trkpt>
      <trkpt lat="44.51711" lon="4.21905">
        <ele>396.2</ele>
        <time>2020-07-21T06:51:57Z</time>
      </trkpt>
      <trkpt lat="44.51711" lon="4.21908">
        <ele>395.9</ele>
        <time>2020-07-21T06:51:56Z</time>
      </trkpt>
      <trkpt lat="44.5171" lon="4.21913">
        <ele>395.3</ele>
        <time>2020-07-21T06:51:55Z</time>
      </trkpt>
      <trkpt lat="44.51709" lon="4.21918">
        <ele>394.8</ele>
        <time>2020-07-21T06:51:53Z</time>
      </trkpt>
      <trkpt lat="44.51709" lon="4.2192">
        <ele>394.6</ele>
        <time>2020-07-21T06:51:51Z</time>
      </trkpt>
      <trkpt lat="44.51708" lon="4.21927">
        <ele>393.9</ele>
        <time>2020-07-21T06:51:50Z</time>
      </trkpt>
      <trkpt lat="44.51708" lon="4.21929">
        <ele>393.8</ele>
        <time>2020-07-21T06:51:49Z</time>
      </trkpt>
      <trkpt lat="44.51707" lon="4.21934">
        <ele>393.3</ele>
        <time>2020-07-21T06:51:47Z</time>
      </trkpt>
      <trkpt lat="44.51707" lon="4.21936">
        <ele>393.1</ele>
        <time>2020-07-21T06:51:46Z</time>
      </trkpt>
      <trkpt lat="44.51706" lon="4.21941">
        <ele>392.7</ele>
        <time>2020-07-21T06:51:45Z</time>
      </trkpt>
      <trkpt lat="44.51705" lon="4.21943">
        <ele>392.5</ele>
        <time>2020-07-21T06:51:44Z</time>
      </trkpt>
      <trkpt lat="44.51705" lon="4.21946">
        <ele>392.2</ele>
        <time>2020-07-21T06:51:42Z</time>
      </trkpt>
      <trkpt lat="44.51704" lon="4.21951">
        <ele>391.7</ele>
        <time>2020-07-21T06:51:41Z</time>
      </trkpt>
      <trkpt lat="44.51704" lon="4.21952">
        <ele>391.6</ele>
        <time>2020-07-21T06:51:40Z</time>
      </trkpt>
      <trkpt lat="44.51704" lon="4.21956">
        <ele>391.3</ele>
        <time>2020-07-21T06:51:38Z</time>
      </trkpt>
      <trkpt lat="44.51703" lon="4.2196">
        <ele>390.9</ele>
        <time>2020-07-21T06:51:37Z</time>
      </trkpt>
      <trkpt lat="44.51703" lon="4.21962">
        <ele>390.8</ele>
        <time>2020-07-21T06:51:36Z</time>
      </trkpt>
      <trkpt lat="44.51703" lon="4.21967">
        <ele>390.3</ele>
        <time>2020-07-21T06:51:34Z</time>
      </trkpt>
      <trkpt lat="44.51703" lon="4.2197">
        <ele>390.2</ele>
        <time>2020-07-21T06:51:33Z</time>
      </trkpt>
      <trkpt lat="44.51702" lon="4.21975">
        <ele>389.8</ele>
        <time>2020-07-21T06:51:31Z</time>
      </trkpt>
      <trkpt lat="44.51702" lon="4.2198">
        <ele>389.5</ele>
        <time>2020-07-21T06:51:30Z</time>
      </trkpt>
      <trkpt lat="44.51701" lon="4.21989">
        <ele>388.9</ele>
        <time>2020-07-21T06:51:28Z</time>
      </trkpt>
      <trkpt lat="44.517" lon="4.21994">
        <ele>388.6</ele>
        <time>2020-07-21T06:51:26Z</time>
      </trkpt>
      <trkpt lat="44.517" lon="4.21997">
        <ele>388.5</ele>
        <time>2020-07-21T06:51:25Z</time>
      </trkpt>
      <trkpt lat="44.51699" lon="4.21998">
        <ele>388.4</ele>
        <time>2020-07-21T06:51:24Z</time>
      </trkpt>
      <trkpt lat="44.51699" lon="4.22003">
        <ele>388.1</ele>
        <time>2020-07-21T06:51:22Z</time>
      </trkpt>
      <trkpt lat="44.51698" lon="4.22007">
        <ele>387.9</ele>
        <time>2020-07-21T06:51:21Z</time>
      </trkpt>
      <trkpt lat="44.51698" lon="4.2201">
        <ele>387.7</ele>
        <time>2020-07-21T06:51:20Z</time>
      </trkpt>
      <trkpt lat="44.51697" lon="4.22018">
        <ele>387.4</ele>
        <time>2020-07-21T06:51:18Z</time>
      </trkpt>
      <trkpt lat="44.51696" lon="4.22023">
        <ele>387.3</ele>
        <time>2020-07-21T06:51:17Z</time>
      </trkpt>
      <trkpt lat="44.51696" lon="4.22029">
        <ele>387</ele>
        <time>2020-07-21T06:51:15Z</time>
      </trkpt>
      <trkpt lat="44.51695" lon="4.22032">
        <ele>386.6</ele>
        <time>2020-07-21T06:51:14Z</time>
      </trkpt>
      <trkpt lat="44.51694" lon="4.22037">
        <ele>385.7</ele>
        <time>2020-07-21T06:51:12Z</time>
      </trkpt>
      <trkpt lat="44.51692" lon="4.22046">
        <ele>384.8</ele>
        <time>2020-07-21T06:51:11Z</time>
      </trkpt>
      <trkpt lat="44.51692" lon="4.22048">
        <ele>384.6</ele>
        <time>2020-07-21T06:51:10Z</time>
      </trkpt>
      <trkpt lat="44.5169" lon="4.22053">
        <ele>384.4</ele>
        <time>2020-07-21T06:51:09Z</time>
      </trkpt>
      <trkpt lat="44.51689" lon="4.22058">
        <ele>384.3</ele>
        <time>2020-07-21T06:51:07Z</time>
      </trkpt>
      <trkpt lat="44.51688" lon="4.22062">
        <ele>383.5</ele>
        <time>2020-07-21T06:51:05Z</time>
      </trkpt>
      <trkpt lat="44.51688" lon="4.22066">
        <ele>383.4</ele>
        <time>2020-07-21T06:51:04Z</time>
      </trkpt>
      <trkpt lat="44.51687" lon="4.22068">
        <ele>383.2</ele>
        <time>2020-07-21T06:51:03Z</time>
      </trkpt>
      <trkpt lat="44.51686" lon="4.2207">
        <ele>383</ele>
        <time>2020-07-21T06:51:02Z</time>
      </trkpt>
      <trkpt lat="44.51686" lon="4.22074">
        <ele>382.8</ele>
        <time>2020-07-21T06:51:01Z</time>
      </trkpt>
      <trkpt lat="44.51685" lon="4.2208">
        <ele>382.1</ele>
        <time>2020-07-21T06:51:00Z</time>
      </trkpt>
      <trkpt lat="44.51684" lon="4.22083">
        <ele>381.8</ele>
        <time>2020-07-21T06:50:58Z</time>
      </trkpt>
      <trkpt lat="44.51683" lon="4.22086">
        <ele>381.6</ele>
        <time>2020-07-21T06:50:57Z</time>
      </trkpt>
      <trkpt lat="44.51683" lon="4.2209">
        <ele>381.4</ele>
        <time>2020-07-21T06:50:56Z</time>
      </trkpt>
      <trkpt lat="44.51682" lon="4.22094">
        <ele>380.8</ele>
        <time>2020-07-21T06:50:54Z</time>
      </trkpt>
      <trkpt lat="44.51682" lon="4.22097">
        <ele>380.6</ele>
        <time>2020-07-21T06:50:52Z</time>
      </trkpt>
      <trkpt lat="44.51682" lon="4.22099">
        <ele>380.5</ele>
        <time>2020-07-21T06:50:51Z</time>
      </trkpt>
      <trkpt lat="44.51682" lon="4.22106">
        <ele>380.3</ele>
        <time>2020-07-21T06:50:50Z</time>
      </trkpt>
      <trkpt lat="44.51682" lon="4.2211">
        <ele>380.2</ele>
        <time>2020-07-21T06:50:48Z</time>
      </trkpt>
      <trkpt lat="44.51682" lon="4.22112">
        <ele>380.2</ele>
        <time>2020-07-21T06:50:47Z</time>
      </trkpt>
      <trkpt lat="44.51682" lon="4.22115">
        <ele>380</ele>
        <time>2020-07-21T06:50:45Z</time>
      </trkpt>
      <trkpt lat="44.51681" lon="4.22117">
        <ele>380</ele>
        <time>2020-07-21T06:50:44Z</time>
      </trkpt>
      <trkpt lat="44.51681" lon="4.22119">
        <ele>379.8</ele>
        <time>2020-07-21T06:50:43Z</time>
      </trkpt>
      <trkpt lat="44.51681" lon="4.22122">
        <ele>379.8</ele>
        <time>2020-07-21T06:50:41Z</time>
      </trkpt>
      <trkpt lat="44.51682" lon="4.22124">
        <ele>379.6</ele>
        <time>2020-07-21T06:50:40Z</time>
      </trkpt>
      <trkpt lat="44.51682" lon="4.22126">
        <ele>379.6</ele>
        <time>2020-07-21T06:50:39Z</time>
      </trkpt>
      <trkpt lat="44.51683" lon="4.22129">
        <ele>379.5</ele>
        <time>2020-07-21T06:50:38Z</time>
      </trkpt>
      <trkpt lat="44.51683" lon="4.22131">
        <ele>379.8</ele>
        <time>2020-07-21T06:50:36Z</time>
      </trkpt>
      <trkpt lat="44.51684" lon="4.22135">
        <ele>379.7</ele>
        <time>2020-07-21T06:50:35Z</time>
      </trkpt>
      <trkpt lat="44.51684" lon="4.22136">
        <ele>379.6</ele>
        <time>2020-07-21T06:50:34Z</time>
      </trkpt>
      <trkpt lat="44.51684" lon="4.22137">
        <ele>379.5</ele>
        <time>2020-07-21T06:50:33Z</time>
      </trkpt>
      <trkpt lat="44.51684" lon="4.22139">
        <ele>379.4</ele>
        <time>2020-07-21T06:50:31Z</time>
      </trkpt>
      <trkpt lat="44.51684" lon="4.22149">
        <ele>379.4</ele>
        <time>2020-07-21T06:50:29Z</time>
      </trkpt>
      <trkpt lat="44.51684" lon="4.22151">
        <ele>379.4</ele>
        <time>2020-07-21T06:50:28Z</time>
      </trkpt>
      <trkpt lat="44.51682" lon="4.22154">
        <ele>378.9</ele>
        <time>2020-07-21T06:50:26Z</time>
      </trkpt>
      <trkpt lat="44.5168" lon="4.22157">
        <ele>378.8</ele>
        <time>2020-07-21T06:50:24Z</time>
      </trkpt>
      <trkpt lat="44.51679" lon="4.22158">
        <ele>378.7</ele>
        <time>2020-07-21T06:50:23Z</time>
      </trkpt>
      <trkpt lat="44.51676" lon="4.22161">
        <ele>378.4</ele>
        <time>2020-07-21T06:50:21Z</time>
      </trkpt>
      <trkpt lat="44.51673" lon="4.22163">
        <ele>378.2</ele>
        <time>2020-07-21T06:50:20Z</time>
      </trkpt>
      <trkpt lat="44.51668" lon="4.22167">
        <ele>377.7</ele>
        <time>2020-07-21T06:50:18Z</time>
      </trkpt>
      <trkpt lat="44.51667" lon="4.22167">
        <ele>377.6</ele>
        <time>2020-07-21T06:50:17Z</time>
      </trkpt>
      <trkpt lat="44.51664" lon="4.22169">
        <ele>377.3</ele>
        <time>2020-07-21T06:50:16Z</time>
      </trkpt>
      <trkpt lat="44.51662" lon="4.2217">
        <ele>377.2</ele>
        <time>2020-07-21T06:50:15Z</time>
      </trkpt>
      <trkpt lat="44.5166" lon="4.22171">
        <ele>377.1</ele>
        <time>2020-07-21T06:50:13Z</time>
      </trkpt>
      <trkpt lat="44.51659" lon="4.22171">
        <ele>377</ele>
        <time>2020-07-21T06:50:12Z</time>
      </trkpt>
      <trkpt lat="44.51657" lon="4.22172">
        <ele>376.8</ele>
        <time>2020-07-21T06:50:11Z</time>
      </trkpt>
      <trkpt lat="44.51654" lon="4.22174">
        <ele>376.6</ele>
        <time>2020-07-21T06:50:09Z</time>
      </trkpt>
      <trkpt lat="44.51653" lon="4.22175">
        <ele>376.5</ele>
        <time>2020-07-21T06:50:08Z</time>
      </trkpt>
      <trkpt lat="44.51651" lon="4.22175">
        <ele>376.3</ele>
        <time>2020-07-21T06:50:07Z</time>
      </trkpt>
      <trkpt lat="44.5165" lon="4.22176">
        <ele>376.2</ele>
        <time>2020-07-21T06:50:06Z</time>
      </trkpt>
      <trkpt lat="44.51649" lon="4.22176">
        <ele>376.2</ele>
        <time>2020-07-21T06:50:04Z</time>
      </trkpt>
      <trkpt lat="44.51647" lon="4.22176">
        <ele>376</ele>
        <time>2020-07-21T06:50:03Z</time>
      </trkpt>
      <trkpt lat="44.51646" lon="4.22176">
        <ele>375.9</ele>
        <time>2020-07-21T06:50:02Z</time>
      </trkpt>
      <trkpt lat="44.51643" lon="4.22177">
        <ele>375.7</ele>
        <time>2020-07-21T06:50:01Z</time>
      </trkpt>
      <trkpt lat="44.51637" lon="4.22181">
        <ele>375.2</ele>
        <time>2020-07-21T06:50:00Z</time>
      </trkpt>
      <trkpt lat="44.51634" lon="4.22184">
        <ele>375</ele>
        <time>2020-07-21T06:49:58Z</time>
      </trkpt>
      <trkpt lat="44.51632" lon="4.22186">
        <ele>374.8</ele>
        <time>2020-07-21T06:49:57Z</time>
      </trkpt>
      <trkpt lat="44.5163" lon="4.22187">
        <ele>374.7</ele>
        <time>2020-07-21T06:49:56Z</time>
      </trkpt>
      <trkpt lat="44.51629" lon="4.22188">
        <ele>374.6</ele>
        <time>2020-07-21T06:49:55Z</time>
      </trkpt>
      <trkpt lat="44.51628" lon="4.22189">
        <ele>374.5</ele>
        <time>2020-07-21T06:49:53Z</time>
      </trkpt>
      <trkpt lat="44.51627" lon="4.2219">
        <ele>374.4</ele>
        <time>2020-07-21T06:49:52Z</time>
      </trkpt>
      <trkpt lat="44.51626" lon="4.22191">
        <ele>374.4</ele>
        <time>2020-07-21T06:49:51Z</time>
      </trkpt>
      <trkpt lat="44.51623" lon="4.22194">
        <ele>374.1</ele>
        <time>2020-07-21T06:49:49Z</time>
      </trkpt>
      <trkpt lat="44.51622" lon="4.22195">
        <ele>374.1</ele>
        <time>2020-07-21T06:49:48Z</time>
      </trkpt>
      <trkpt lat="44.51622" lon="4.22195">
        <ele>374</ele>
        <time>2020-07-21T06:49:47Z</time>
      </trkpt>
      <trkpt lat="44.51621" lon="4.22196">
        <ele>374</ele>
        <time>2020-07-21T06:49:46Z</time>
      </trkpt>
      <trkpt lat="44.51621" lon="4.22196">
        <ele>373.9</ele>
        <time>2020-07-21T06:49:45Z</time>
      </trkpt>
      <trkpt lat="44.51621" lon="4.22197">
        <ele>373.9</ele>
        <time>2020-07-21T06:49:43Z</time>
      </trkpt>
      <trkpt lat="44.51621" lon="4.22198">
        <ele>373.9</ele>
        <time>2020-07-21T06:49:41Z</time>
      </trkpt>
      <trkpt lat="44.5162" lon="4.22199">
        <ele>373.8</ele>
        <time>2020-07-21T06:49:40Z</time>
      </trkpt>
      <trkpt lat="44.5162" lon="4.222">
        <ele>373.7</ele>
        <time>2020-07-21T06:49:38Z</time>
      </trkpt>
      <trkpt lat="44.51619" lon="4.22202">
        <ele>373.6</ele>
        <time>2020-07-21T06:49:37Z</time>
      </trkpt>
      <trkpt lat="44.51618" lon="4.22204">
        <ele>373.5</ele>
        <time>2020-07-21T06:49:36Z</time>
      </trkpt>
      <trkpt lat="44.51617" lon="4.22205">
        <ele>373.4</ele>
        <time>2020-07-21T06:49:34Z</time>
      </trkpt>
      <trkpt lat="44.51616" lon="4.22206">
        <ele>373.3</ele>
        <time>2020-07-21T06:49:33Z</time>
      </trkpt>
      <trkpt lat="44.51615" lon="4.22207">
        <ele>373.3</ele>
        <time>2020-07-21T06:49:32Z</time>
      </trkpt>
      <trkpt lat="44.51615" lon="4.22207">
        <ele>373.2</ele>
        <time>2020-07-21T06:49:31Z</time>
      </trkpt>
      <trkpt lat="44.51612" lon="4.22209">
        <ele>373</ele>
        <time>2020-07-21T06:49:30Z</time>
      </trkpt>
      <trkpt lat="44.51611" lon="4.22209">
        <ele>372.9</ele>
        <time>2020-07-21T06:49:29Z</time>
      </trkpt>
      <trkpt lat="44.51609" lon="4.22209">
        <ele>372.7</ele>
        <time>2020-07-21T06:49:27Z</time>
      </trkpt>
      <trkpt lat="44.51606" lon="4.22208">
        <ele>372.6</ele>
        <time>2020-07-21T06:49:26Z</time>
      </trkpt>
      <trkpt lat="44.51601" lon="4.22206">
        <ele>372.3</ele>
        <time>2020-07-21T06:49:24Z</time>
      </trkpt>
      <trkpt lat="44.51591" lon="4.22201">
        <ele>371.7</ele>
        <time>2020-07-21T06:49:23Z</time>
      </trkpt>
      <trkpt lat="44.51581" lon="4.22196">
        <ele>371</ele>
        <time>2020-07-21T06:49:22Z</time>
      </trkpt>
      <trkpt lat="44.5157" lon="4.2219">
        <ele>370.1</ele>
        <time>2020-07-21T06:49:20Z</time>
      </trkpt>
      <trkpt lat="44.51567" lon="4.2219">
        <ele>369.8</ele>
        <time>2020-07-21T06:49:19Z</time>
      </trkpt>
      <trkpt lat="44.51561" lon="4.22188">
        <ele>369.4</ele>
        <time>2020-07-21T06:49:17Z</time>
      </trkpt>
      <trkpt lat="44.5156" lon="4.22188">
        <ele>369.3</ele>
        <time>2020-07-21T06:49:16Z</time>
      </trkpt>
      <trkpt lat="44.51558" lon="4.22187">
        <ele>369.1</ele>
        <time>2020-07-21T06:49:14Z</time>
      </trkpt>
      <trkpt lat="44.51556" lon="4.22186">
        <ele>369</ele>
        <time>2020-07-21T06:49:13Z</time>
      </trkpt>
      <trkpt lat="44.51555" lon="4.22185">
        <ele>368.9</ele>
        <time>2020-07-21T06:49:11Z</time>
      </trkpt>
      <trkpt lat="44.51554" lon="4.22185">
        <ele>368.8</ele>
        <time>2020-07-21T06:49:10Z</time>
      </trkpt>
      <trkpt lat="44.51553" lon="4.22184">
        <ele>368.7</ele>
        <time>2020-07-21T06:49:09Z</time>
      </trkpt>
      <trkpt lat="44.51552" lon="4.22183">
        <ele>368.5</ele>
        <time>2020-07-21T06:49:08Z</time>
      </trkpt>
      <trkpt lat="44.51549" lon="4.22182">
        <ele>368.3</ele>
        <time>2020-07-21T06:49:07Z</time>
      </trkpt>
      <trkpt lat="44.51547" lon="4.22181">
        <ele>368.2</ele>
        <time>2020-07-21T06:49:05Z</time>
      </trkpt>
      <trkpt lat="44.51545" lon="4.2218">
        <ele>368</ele>
        <time>2020-07-21T06:49:04Z</time>
      </trkpt>
      <trkpt lat="44.51543" lon="4.2218">
        <ele>367.8</ele>
        <time>2020-07-21T06:49:02Z</time>
      </trkpt>
      <trkpt lat="44.51541" lon="4.2218">
        <ele>367.7</ele>
        <time>2020-07-21T06:49:00Z</time>
      </trkpt>
      <trkpt lat="44.51539" lon="4.2218">
        <ele>367.5</ele>
        <time>2020-07-21T06:48:59Z</time>
      </trkpt>
      <trkpt lat="44.51535" lon="4.2218">
        <ele>367.2</ele>
        <time>2020-07-21T06:48:58Z</time>
      </trkpt>
      <trkpt lat="44.51533" lon="4.2218">
        <ele>367.1</ele>
        <time>2020-07-21T06:48:57Z</time>
      </trkpt>
      <trkpt lat="44.51531" lon="4.2218">
        <ele>367</ele>
        <time>2020-07-21T06:48:56Z</time>
      </trkpt>
      <trkpt lat="44.51527" lon="4.22182">
        <ele>366.7</ele>
        <time>2020-07-21T06:48:54Z</time>
      </trkpt>
      <trkpt lat="44.51523" lon="4.22184">
        <ele>366.4</ele>
        <time>2020-07-21T06:48:53Z</time>
      </trkpt>
      <trkpt lat="44.51519" lon="4.22186">
        <ele>366.2</ele>
        <time>2020-07-21T06:48:52Z</time>
      </trkpt>
      <trkpt lat="44.51518" lon="4.22186">
        <ele>366.2</ele>
        <time>2020-07-21T06:48:51Z</time>
      </trkpt>
      <trkpt lat="44.51514" lon="4.22188">
        <ele>365.9</ele>
        <time>2020-07-21T06:48:50Z</time>
      </trkpt>
      <trkpt lat="44.51507" lon="4.22189">
        <ele>365.5</ele>
        <time>2020-07-21T06:48:48Z</time>
      </trkpt>
      <trkpt lat="44.51502" lon="4.22192">
        <ele>365.1</ele>
        <time>2020-07-21T06:48:47Z</time>
      </trkpt>
      <trkpt lat="44.51499" lon="4.22196">
        <ele>364.9</ele>
        <time>2020-07-21T06:48:45Z</time>
      </trkpt>
      <trkpt lat="44.51498" lon="4.22197">
        <ele>364.7</ele>
        <time>2020-07-21T06:48:44Z</time>
      </trkpt>
      <trkpt lat="44.51496" lon="4.222">
        <ele>364.5</ele>
        <time>2020-07-21T06:48:42Z</time>
      </trkpt>
      <trkpt lat="44.51494" lon="4.22202">
        <ele>364.4</ele>
        <time>2020-07-21T06:48:41Z</time>
      </trkpt>
      <trkpt lat="44.51492" lon="4.22202">
        <ele>364.3</ele>
        <time>2020-07-21T06:48:40Z</time>
      </trkpt>
      <trkpt lat="44.51489" lon="4.222">
        <ele>364.1</ele>
        <time>2020-07-21T06:48:38Z</time>
      </trkpt>
      <trkpt lat="44.51487" lon="4.22199">
        <ele>363.9</ele>
        <time>2020-07-21T06:48:37Z</time>
      </trkpt>
      <trkpt lat="44.51486" lon="4.22199">
        <ele>363.9</ele>
        <time>2020-07-21T06:48:36Z</time>
      </trkpt>
      <trkpt lat="44.51485" lon="4.22198">
        <ele>363.8</ele>
        <time>2020-07-21T06:48:35Z</time>
      </trkpt>
      <trkpt lat="44.51485" lon="4.22198">
        <ele>363.8</ele>
        <time>2020-07-21T06:48:33Z</time>
      </trkpt>
      <trkpt lat="44.51484" lon="4.22198">
        <ele>363.7</ele>
        <time>2020-07-21T06:48:32Z</time>
      </trkpt>
      <trkpt lat="44.51482" lon="4.22198">
        <ele>363.7</ele>
        <time>2020-07-21T06:48:31Z</time>
      </trkpt>
      <trkpt lat="44.51481" lon="4.22193">
        <ele>363.4</ele>
        <time>2020-07-21T06:48:29Z</time>
      </trkpt>
      <trkpt lat="44.51478" lon="4.22191">
        <ele>363.2</ele>
        <time>2020-07-21T06:48:27Z</time>
      </trkpt>
      <trkpt lat="44.51475" lon="4.22189">
        <ele>363</ele>
        <time>2020-07-21T06:48:26Z</time>
      </trkpt>
      <trkpt lat="44.51448" lon="4.22186">
        <ele>361.3</ele>
        <time>2020-07-21T06:48:25Z</time>
      </trkpt>
      <trkpt lat="44.51422" lon="4.22183">
        <ele>359.5</ele>
        <time>2020-07-21T06:48:23Z</time>
      </trkpt>
      <trkpt lat="44.51393" lon="4.2218">
        <ele>357.7</ele>
        <time>2020-07-21T06:48:22Z</time>
      </trkpt>
      <trkpt lat="44.51392" lon="4.2218">
        <ele>357.6</ele>
        <time>2020-07-21T06:48:21Z</time>
      </trkpt>
      <trkpt lat="44.51389" lon="4.22181">
        <ele>357.4</ele>
        <time>2020-07-21T06:48:20Z</time>
      </trkpt>
      <trkpt lat="44.51386" lon="4.22181">
        <ele>357.3</ele>
        <time>2020-07-21T06:48:19Z</time>
      </trkpt>
      <trkpt lat="44.51381" lon="4.22182">
        <ele>356.9</ele>
        <time>2020-07-21T06:48:17Z</time>
      </trkpt>
      <trkpt lat="44.51379" lon="4.22183">
        <ele>356.8</ele>
        <time>2020-07-21T06:48:16Z</time>
      </trkpt>
      <trkpt lat="44.51378" lon="4.22183">
        <ele>356.7</ele>
        <time>2020-07-21T06:48:15Z</time>
      </trkpt>
      <trkpt lat="44.51377" lon="4.22184">
        <ele>356.6</ele>
        <time>2020-07-21T06:48:14Z</time>
      </trkpt>
      <trkpt lat="44.51376" lon="4.22184">
        <ele>356.5</ele>
        <time>2020-07-21T06:48:12Z</time>
      </trkpt>
      <trkpt lat="44.51373" lon="4.22185">
        <ele>356.4</ele>
        <time>2020-07-21T06:48:11Z</time>
      </trkpt>
      <trkpt lat="44.51367" lon="4.22187">
        <ele>355.9</ele>
        <time>2020-07-21T06:48:09Z</time>
      </trkpt>
      <trkpt lat="44.51364" lon="4.22188">
        <ele>355.7</ele>
        <time>2020-07-21T06:48:07Z</time>
      </trkpt>
      <trkpt lat="44.51363" lon="4.22189">
        <ele>355.6</ele>
        <time>2020-07-21T06:48:06Z</time>
      </trkpt>
      <trkpt lat="44.5136" lon="4.2219">
        <ele>355.4</ele>
        <time>2020-07-21T06:48:05Z</time>
      </trkpt>
      <trkpt lat="44.51359" lon="4.2219">
        <ele>355.3</ele>
        <time>2020-07-21T06:48:04Z</time>
      </trkpt>
      <trkpt lat="44.51359" lon="4.2219">
        <ele>355.3</ele>
        <time>2020-07-21T06:48:03Z</time>
      </trkpt>
      <trkpt lat="44.51358" lon="4.2219">
        <ele>355.2</ele>
        <time>2020-07-21T06:48:02Z</time>
      </trkpt>
      <trkpt lat="44.51356" lon="4.22191">
        <ele>355.1</ele>
        <time>2020-07-21T06:48:01Z</time>
      </trkpt>
      <trkpt lat="44.51349" lon="4.22191">
        <ele>354.6</ele>
        <time>2020-07-21T06:47:59Z</time>
      </trkpt>
      <trkpt lat="44.51348" lon="4.22191">
        <ele>354.5</ele>
        <time>2020-07-21T06:47:58Z</time>
      </trkpt>
      <trkpt lat="44.51346" lon="4.22191">
        <ele>354.4</ele>
        <time>2020-07-21T06:47:56Z</time>
      </trkpt>
      <trkpt lat="44.51342" lon="4.22191">
        <ele>354.1</ele>
        <time>2020-07-21T06:47:55Z</time>
      </trkpt>
      <trkpt lat="44.51339" lon="4.22191">
        <ele>353.8</ele>
        <time>2020-07-21T06:47:53Z</time>
      </trkpt>
      <trkpt lat="44.51336" lon="4.22191">
        <ele>353.7</ele>
        <time>2020-07-21T06:47:51Z</time>
      </trkpt>
      <trkpt lat="44.51335" lon="4.22191">
        <ele>353.6</ele>
        <time>2020-07-21T06:47:50Z</time>
      </trkpt>
      <trkpt lat="44.51328" lon="4.2219">
        <ele>353.1</ele>
        <time>2020-07-21T06:47:48Z</time>
      </trkpt>
      <trkpt lat="44.51325" lon="4.2219">
        <ele>352.9</ele>
        <time>2020-07-21T06:47:46Z</time>
      </trkpt>
      <trkpt lat="44.51323" lon="4.22189">
        <ele>352.7</ele>
        <time>2020-07-21T06:47:44Z</time>
      </trkpt>
      <trkpt lat="44.5132" lon="4.22188">
        <ele>352.5</ele>
        <time>2020-07-21T06:47:43Z</time>
      </trkpt>
      <trkpt lat="44.51318" lon="4.22188">
        <ele>352.4</ele>
        <time>2020-07-21T06:47:41Z</time>
      </trkpt>
      <trkpt lat="44.51315" lon="4.22188">
        <ele>352.3</ele>
        <time>2020-07-21T06:47:40Z</time>
      </trkpt>
      <trkpt lat="44.51308" lon="4.22186">
        <ele>351.8</ele>
        <time>2020-07-21T06:47:38Z</time>
      </trkpt>
      <trkpt lat="44.51304" lon="4.22185">
        <ele>351.5</ele>
        <time>2020-07-21T06:47:36Z</time>
      </trkpt>
      <trkpt lat="44.51301" lon="4.22185">
        <ele>351.3</ele>
        <time>2020-07-21T06:47:34Z</time>
      </trkpt>
      <trkpt lat="44.51299" lon="4.22185">
        <ele>351.2</ele>
        <time>2020-07-21T06:47:33Z</time>
      </trkpt>
      <trkpt lat="44.51296" lon="4.22185">
        <ele>351</ele>
        <time>2020-07-21T06:47:32Z</time>
      </trkpt>
      <trkpt lat="44.51295" lon="4.22185">
        <ele>350.9</ele>
        <time>2020-07-21T06:47:31Z</time>
      </trkpt>
      <trkpt lat="44.51292" lon="4.22185">
        <ele>350.7</ele>
        <time>2020-07-21T06:47:29Z</time>
      </trkpt>
      <trkpt lat="44.51288" lon="4.22184">
        <ele>350.5</ele>
        <time>2020-07-21T06:47:28Z</time>
      </trkpt>
      <trkpt lat="44.51287" lon="4.22184">
        <ele>350.4</ele>
        <time>2020-07-21T06:47:27Z</time>
      </trkpt>
      <trkpt lat="44.51284" lon="4.22184">
        <ele>350.3</ele>
        <time>2020-07-21T06:47:25Z</time>
      </trkpt>
      <trkpt lat="44.51283" lon="4.22184">
        <ele>350.2</ele>
        <time>2020-07-21T06:47:24Z</time>
      </trkpt>
      <trkpt lat="44.51281" lon="4.22184">
        <ele>350.1</ele>
        <time>2020-07-21T06:47:22Z</time>
      </trkpt>
      <trkpt lat="44.51279" lon="4.22184">
        <ele>350</ele>
        <time>2020-07-21T06:47:21Z</time>
      </trkpt>
      <trkpt lat="44.51278" lon="4.22184">
        <ele>349.9</ele>
        <time>2020-07-21T06:47:20Z</time>
      </trkpt>
      <trkpt lat="44.51277" lon="4.22184">
        <ele>349.9</ele>
        <time>2020-07-21T06:47:19Z</time>
      </trkpt>
      <trkpt lat="44.51276" lon="4.22184">
        <ele>349.8</ele>
        <time>2020-07-21T06:47:18Z</time>
      </trkpt>
      <trkpt lat="44.51273" lon="4.22184">
        <ele>349.7</ele>
        <time>2020-07-21T06:47:16Z</time>
      </trkpt>
      <trkpt lat="44.51272" lon="4.22184">
        <ele>349.6</ele>
        <time>2020-07-21T06:47:15Z</time>
      </trkpt>
      <trkpt lat="44.51271" lon="4.22184">
        <ele>349.5</ele>
        <time>2020-07-21T06:47:14Z</time>
      </trkpt>
      <trkpt lat="44.51269" lon="4.22184">
        <ele>349.4</ele>
        <time>2020-07-21T06:47:12Z</time>
      </trkpt>
      <trkpt lat="44.51268" lon="4.22185">
        <ele>349.3</ele>
        <time>2020-07-21T06:47:11Z</time>
      </trkpt>
      <trkpt lat="44.51267" lon="4.22185">
        <ele>349.3</ele>
        <time>2020-07-21T06:47:10Z</time>
      </trkpt>
      <trkpt lat="44.51266" lon="4.22186">
        <ele>349.2</ele>
        <time>2020-07-21T06:47:09Z</time>
      </trkpt>
      <trkpt lat="44.51262" lon="4.22184">
        <ele>349</ele>
        <time>2020-07-21T06:47:07Z</time>
      </trkpt>
      <trkpt lat="44.51261" lon="4.22183">
        <ele>348.9</ele>
        <time>2020-07-21T06:47:06Z</time>
      </trkpt>
      <trkpt lat="44.51259" lon="4.22183">
        <ele>348.9</ele>
        <time>2020-07-21T06:47:05Z</time>
      </trkpt>
      <trkpt lat="44.51258" lon="4.22183">
        <ele>348.8</ele>
        <time>2020-07-21T06:47:04Z</time>
      </trkpt>
      <trkpt lat="44.51256" lon="4.22182">
        <ele>348.7</ele>
        <time>2020-07-21T06:47:03Z</time>
      </trkpt>
      <trkpt lat="44.51254" lon="4.22182">
        <ele>348.6</ele>
        <time>2020-07-21T06:47:01Z</time>
      </trkpt>
      <trkpt lat="44.51251" lon="4.22181">
        <ele>348.4</ele>
        <time>2020-07-21T06:47:00Z</time>
      </trkpt>
      <trkpt lat="44.51247" lon="4.22181">
        <ele>348.4</ele>
        <time>2020-07-21T06:46:59Z</time>
      </trkpt>
      <trkpt lat="44.51237" lon="4.22174">
        <ele>348.5</ele>
        <time>2020-07-21T06:46:57Z</time>
      </trkpt>
      <trkpt lat="44.51218" lon="4.22167">
        <ele>347.4</ele>
        <time>2020-07-21T06:46:56Z</time>
      </trkpt>
      <trkpt lat="44.51184" lon="4.22157">
        <ele>345.6</ele>
        <time>2020-07-21T06:46:54Z</time>
      </trkpt>
      <trkpt lat="44.5115" lon="4.22147">
        <ele>343.8</ele>
        <time>2020-07-21T06:46:52Z</time>
      </trkpt>
      <trkpt lat="44.51114" lon="4.22137">
        <ele>341.7</ele>
        <time>2020-07-21T06:46:51Z</time>
      </trkpt>
      <trkpt lat="44.51113" lon="4.22136">
        <ele>341.7</ele>
        <time>2020-07-21T06:46:50Z</time>
      </trkpt>
      <trkpt lat="44.5111" lon="4.22136">
        <ele>341.5</ele>
        <time>2020-07-21T06:46:49Z</time>
      </trkpt>
      <trkpt lat="44.51105" lon="4.22136">
        <ele>341.2</ele>
        <time>2020-07-21T06:46:47Z</time>
      </trkpt>
      <trkpt lat="44.51101" lon="4.22135">
        <ele>341</ele>
        <time>2020-07-21T06:46:46Z</time>
      </trkpt>
      <trkpt lat="44.511" lon="4.22135">
        <ele>340.9</ele>
        <time>2020-07-21T06:46:45Z</time>
      </trkpt>
      <trkpt lat="44.51097" lon="4.22135">
        <ele>340.7</ele>
        <time>2020-07-21T06:46:43Z</time>
      </trkpt>
      <trkpt lat="44.51096" lon="4.22135">
        <ele>340.6</ele>
        <time>2020-07-21T06:46:42Z</time>
      </trkpt>
      <trkpt lat="44.51092" lon="4.22135">
        <ele>340.4</ele>
        <time>2020-07-21T06:46:41Z</time>
      </trkpt>
      <trkpt lat="44.51091" lon="4.22135">
        <ele>340.4</ele>
        <time>2020-07-21T06:46:40Z</time>
      </trkpt>
      <trkpt lat="44.51088" lon="4.22135">
        <ele>340.2</ele>
        <time>2020-07-21T06:46:39Z</time>
      </trkpt>
      <trkpt lat="44.51082" lon="4.22135">
        <ele>339.9</ele>
        <time>2020-07-21T06:46:37Z</time>
      </trkpt>
      <trkpt lat="44.51081" lon="4.22135">
        <ele>339.8</ele>
        <time>2020-07-21T06:46:36Z</time>
      </trkpt>
      <trkpt lat="44.51077" lon="4.22135">
        <ele>339.6</ele>
        <time>2020-07-21T06:46:35Z</time>
      </trkpt>
      <trkpt lat="44.51076" lon="4.22135">
        <ele>339.5</ele>
        <time>2020-07-21T06:46:34Z</time>
      </trkpt>
      <trkpt lat="44.51072" lon="4.22135">
        <ele>339.3</ele>
        <time>2020-07-21T06:46:32Z</time>
      </trkpt>
      <trkpt lat="44.51071" lon="4.22134">
        <ele>339.2</ele>
        <time>2020-07-21T06:46:31Z</time>
      </trkpt>
      <trkpt lat="44.51067" lon="4.22134">
        <ele>339</ele>
        <time>2020-07-21T06:46:29Z</time>
      </trkpt>
      <trkpt lat="44.51063" lon="4.22133">
        <ele>338.8</ele>
        <time>2020-07-21T06:46:28Z</time>
      </trkpt>
      <trkpt lat="44.51062" lon="4.22133">
        <ele>338.7</ele>
        <time>2020-07-21T06:46:27Z</time>
      </trkpt>
      <trkpt lat="44.51059" lon="4.22132">
        <ele>338.5</ele>
        <time>2020-07-21T06:46:25Z</time>
      </trkpt>
      <trkpt lat="44.51056" lon="4.22131">
        <ele>338.3</ele>
        <time>2020-07-21T06:46:24Z</time>
      </trkpt>
      <trkpt lat="44.51055" lon="4.22131">
        <ele>338.3</ele>
        <time>2020-07-21T06:46:23Z</time>
      </trkpt>
      <trkpt lat="44.51051" lon="4.2213">
        <ele>338.1</ele>
        <time>2020-07-21T06:46:21Z</time>
      </trkpt>
      <trkpt lat="44.51049" lon="4.2213">
        <ele>338</ele>
        <time>2020-07-21T06:46:20Z</time>
      </trkpt>
      <trkpt lat="44.51048" lon="4.22129">
        <ele>337.9</ele>
        <time>2020-07-21T06:46:18Z</time>
      </trkpt>
      <trkpt lat="44.51045" lon="4.22128">
        <ele>337.7</ele>
        <time>2020-07-21T06:46:17Z</time>
      </trkpt>
      <trkpt lat="44.51042" lon="4.22127">
        <ele>337.5</ele>
        <time>2020-07-21T06:46:16Z</time>
      </trkpt>
      <trkpt lat="44.51036" lon="4.22124">
        <ele>337.1</ele>
        <time>2020-07-21T06:46:14Z</time>
      </trkpt>
      <trkpt lat="44.51035" lon="4.22124">
        <ele>337</ele>
        <time>2020-07-21T06:46:13Z</time>
      </trkpt>
      <trkpt lat="44.51032" lon="4.22122">
        <ele>336.8</ele>
        <time>2020-07-21T06:46:12Z</time>
      </trkpt>
      <trkpt lat="44.5103" lon="4.22121">
        <ele>336.6</ele>
        <time>2020-07-21T06:46:10Z</time>
      </trkpt>
      <trkpt lat="44.51028" lon="4.2212">
        <ele>336.5</ele>
        <time>2020-07-21T06:46:09Z</time>
      </trkpt>
      <trkpt lat="44.51026" lon="4.22118">
        <ele>336.4</ele>
        <time>2020-07-21T06:46:08Z</time>
      </trkpt>
      <trkpt lat="44.51021" lon="4.22115">
        <ele>336.1</ele>
        <time>2020-07-21T06:46:06Z</time>
      </trkpt>
      <trkpt lat="44.51019" lon="4.22114">
        <ele>336</ele>
        <time>2020-07-21T06:46:05Z</time>
      </trkpt>
      <trkpt lat="44.51016" lon="4.22112">
        <ele>335.7</ele>
        <time>2020-07-21T06:46:03Z</time>
      </trkpt>
      <trkpt lat="44.51014" lon="4.22111">
        <ele>335.6</ele>
        <time>2020-07-21T06:46:02Z</time>
      </trkpt>
      <trkpt lat="44.51012" lon="4.2211">
        <ele>335.5</ele>
        <time>2020-07-21T06:46:01Z</time>
      </trkpt>
      <trkpt lat="44.51008" lon="4.22107">
        <ele>335.3</ele>
        <time>2020-07-21T06:45:59Z</time>
      </trkpt>
      <trkpt lat="44.51005" lon="4.22106">
        <ele>335.1</ele>
        <time>2020-07-21T06:45:58Z</time>
      </trkpt>
      <trkpt lat="44.50999" lon="4.22104">
        <ele>334.8</ele>
        <time>2020-07-21T06:45:57Z</time>
      </trkpt>
      <trkpt lat="44.50998" lon="4.22103">
        <ele>334.7</ele>
        <time>2020-07-21T06:45:56Z</time>
      </trkpt>
      <trkpt lat="44.50995" lon="4.22102">
        <ele>334.6</ele>
        <time>2020-07-21T06:45:55Z</time>
      </trkpt>
      <trkpt lat="44.50993" lon="4.22101">
        <ele>334.4</ele>
        <time>2020-07-21T06:45:53Z</time>
      </trkpt>
      <trkpt lat="44.5099" lon="4.221">
        <ele>334.3</ele>
        <time>2020-07-21T06:45:52Z</time>
      </trkpt>
      <trkpt lat="44.50989" lon="4.221">
        <ele>334.3</ele>
        <time>2020-07-21T06:45:51Z</time>
      </trkpt>
      <trkpt lat="44.50987" lon="4.22099">
        <ele>334.2</ele>
        <time>2020-07-21T06:45:49Z</time>
      </trkpt>
      <trkpt lat="44.50982" lon="4.22097">
        <ele>333.9</ele>
        <time>2020-07-21T06:45:47Z</time>
      </trkpt>
      <trkpt lat="44.50981" lon="4.22097">
        <ele>333.9</ele>
        <time>2020-07-21T06:45:46Z</time>
      </trkpt>
      <trkpt lat="44.5098" lon="4.22097">
        <ele>333.8</ele>
        <time>2020-07-21T06:45:45Z</time>
      </trkpt>
      <trkpt lat="44.50977" lon="4.22096">
        <ele>333.7</ele>
        <time>2020-07-21T06:45:44Z</time>
      </trkpt>
      <trkpt lat="44.50975" lon="4.22095">
        <ele>333.7</ele>
        <time>2020-07-21T06:45:42Z</time>
      </trkpt>
      <trkpt lat="44.50974" lon="4.22095">
        <ele>333.6</ele>
        <time>2020-07-21T06:45:40Z</time>
      </trkpt>
      <trkpt lat="44.50972" lon="4.22095">
        <ele>333.6</ele>
        <time>2020-07-21T06:45:39Z</time>
      </trkpt>
      <trkpt lat="44.50966" lon="4.22093">
        <ele>333.4</ele>
        <time>2020-07-21T06:45:37Z</time>
      </trkpt>
      <trkpt lat="44.50964" lon="4.22092">
        <ele>333.3</ele>
        <time>2020-07-21T06:45:35Z</time>
      </trkpt>
      <trkpt lat="44.50962" lon="4.22091">
        <ele>333.2</ele>
        <time>2020-07-21T06:45:34Z</time>
      </trkpt>
      <trkpt lat="44.50959" lon="4.2209">
        <ele>333.2</ele>
        <time>2020-07-21T06:45:32Z</time>
      </trkpt>
      <trkpt lat="44.50956" lon="4.2209">
        <ele>333.1</ele>
        <time>2020-07-21T06:45:31Z</time>
      </trkpt>
      <trkpt lat="44.50954" lon="4.2209">
        <ele>333</ele>
        <time>2020-07-21T06:45:29Z</time>
      </trkpt>
      <trkpt lat="44.50952" lon="4.2209">
        <ele>332.9</ele>
        <time>2020-07-21T06:45:28Z</time>
      </trkpt>
      <trkpt lat="44.50948" lon="4.22089">
        <ele>332.8</ele>
        <time>2020-07-21T06:45:26Z</time>
      </trkpt>
      <trkpt lat="44.50947" lon="4.22089">
        <ele>332.7</ele>
        <time>2020-07-21T06:45:25Z</time>
      </trkpt>
      <trkpt lat="44.50945" lon="4.22089">
        <ele>332.7</ele>
        <time>2020-07-21T06:45:23Z</time>
      </trkpt>
      <trkpt lat="44.50941" lon="4.22089">
        <ele>332.5</ele>
        <time>2020-07-21T06:45:21Z</time>
      </trkpt>
      <trkpt lat="44.5094" lon="4.22089">
        <ele>332.5</ele>
        <time>2020-07-21T06:45:20Z</time>
      </trkpt>
      <trkpt lat="44.50939" lon="4.22088">
        <ele>332.4</ele>
        <time>2020-07-21T06:45:19Z</time>
      </trkpt>
      <trkpt lat="44.50937" lon="4.22088">
        <ele>332.4</ele>
        <time>2020-07-21T06:45:18Z</time>
      </trkpt>
      <trkpt lat="44.50932" lon="4.22086">
        <ele>332.2</ele>
        <time>2020-07-21T06:45:16Z</time>
      </trkpt>
      <trkpt lat="44.50931" lon="4.22085">
        <ele>332.1</ele>
        <time>2020-07-21T06:45:14Z</time>
      </trkpt>
      <trkpt lat="44.5093" lon="4.22084">
        <ele>332</ele>
        <time>2020-07-21T06:45:13Z</time>
      </trkpt>
      <trkpt lat="44.50929" lon="4.22083">
        <ele>332</ele>
        <time>2020-07-21T06:45:12Z</time>
      </trkpt>
      <trkpt lat="44.50927" lon="4.22082">
        <ele>331.9</ele>
        <time>2020-07-21T06:45:10Z</time>
      </trkpt>
      <trkpt lat="44.50924" lon="4.2208">
        <ele>331.7</ele>
        <time>2020-07-21T06:45:09Z</time>
      </trkpt>
      <trkpt lat="44.50918" lon="4.22077">
        <ele>331.4</ele>
        <time>2020-07-21T06:45:07Z</time>
      </trkpt>
      <trkpt lat="44.50916" lon="4.22076">
        <ele>331.3</ele>
        <time>2020-07-21T06:45:05Z</time>
      </trkpt>
      <trkpt lat="44.50914" lon="4.22076">
        <ele>331.2</ele>
        <time>2020-07-21T06:45:04Z</time>
      </trkpt>
      <trkpt lat="44.50913" lon="4.22077">
        <ele>331.1</ele>
        <time>2020-07-21T06:45:03Z</time>
      </trkpt>
      <trkpt lat="44.50908" lon="4.22078">
        <ele>330.8</ele>
        <time>2020-07-21T06:45:01Z</time>
      </trkpt>
      <trkpt lat="44.50904" lon="4.22079">
        <ele>330.6</ele>
        <time>2020-07-21T06:45:00Z</time>
      </trkpt>
      <trkpt lat="44.509" lon="4.22083">
        <ele>330.4</ele>
        <time>2020-07-21T06:44:58Z</time>
      </trkpt>
      <trkpt lat="44.50899" lon="4.22084">
        <ele>330.3</ele>
        <time>2020-07-21T06:44:57Z</time>
      </trkpt>
      <trkpt lat="44.50896" lon="4.22087">
        <ele>330.1</ele>
        <time>2020-07-21T06:44:55Z</time>
      </trkpt>
      <trkpt lat="44.50894" lon="4.22089">
        <ele>330</ele>
        <time>2020-07-21T06:44:54Z</time>
      </trkpt>
      <trkpt lat="44.5089" lon="4.22091">
        <ele>329.8</ele>
        <time>2020-07-21T06:44:53Z</time>
      </trkpt>
      <trkpt lat="44.50887" lon="4.22093">
        <ele>329.6</ele>
        <time>2020-07-21T06:44:51Z</time>
      </trkpt>
      <trkpt lat="44.50887" lon="4.22094">
        <ele>329.6</ele>
        <time>2020-07-21T06:44:50Z</time>
      </trkpt>
      <trkpt lat="44.50885" lon="4.22095">
        <ele>329.5</ele>
        <time>2020-07-21T06:44:49Z</time>
      </trkpt>
      <trkpt lat="44.50883" lon="4.22097">
        <ele>329.3</ele>
        <time>2020-07-21T06:44:48Z</time>
      </trkpt>
      <trkpt lat="44.50878" lon="4.22099">
        <ele>329.1</ele>
        <time>2020-07-21T06:44:46Z</time>
      </trkpt>
      <trkpt lat="44.50876" lon="4.22101">
        <ele>329</ele>
        <time>2020-07-21T06:44:45Z</time>
      </trkpt>
      <trkpt lat="44.50871" lon="4.22104">
        <ele>328.7</ele>
        <time>2020-07-21T06:44:43Z</time>
      </trkpt>
      <trkpt lat="44.50867" lon="4.22105">
        <ele>328.5</ele>
        <time>2020-07-21T06:44:41Z</time>
      </trkpt>
      <trkpt lat="44.50865" lon="4.22105">
        <ele>328.4</ele>
        <time>2020-07-21T06:44:39Z</time>
      </trkpt>
      <trkpt lat="44.50864" lon="4.22106">
        <ele>328.4</ele>
        <time>2020-07-21T06:44:38Z</time>
      </trkpt>
      <trkpt lat="44.50861" lon="4.22106">
        <ele>328.2</ele>
        <time>2020-07-21T06:44:37Z</time>
      </trkpt>
      <trkpt lat="44.50859" lon="4.22107">
        <ele>328.1</ele>
        <time>2020-07-21T06:44:36Z</time>
      </trkpt>
      <trkpt lat="44.50858" lon="4.22107">
        <ele>328.1</ele>
        <time>2020-07-21T06:44:35Z</time>
      </trkpt>
      <trkpt lat="44.50854" lon="4.22108">
        <ele>327.9</ele>
        <time>2020-07-21T06:44:33Z</time>
      </trkpt>
      <trkpt lat="44.50853" lon="4.22108">
        <ele>327.8</ele>
        <time>2020-07-21T06:44:32Z</time>
      </trkpt>
      <trkpt lat="44.50849" lon="4.22109">
        <ele>327.7</ele>
        <time>2020-07-21T06:44:31Z</time>
      </trkpt>
      <trkpt lat="44.50847" lon="4.2211">
        <ele>327.5</ele>
        <time>2020-07-21T06:44:30Z</time>
      </trkpt>
      <trkpt lat="44.50844" lon="4.22111">
        <ele>327.4</ele>
        <time>2020-07-21T06:44:28Z</time>
      </trkpt>
      <trkpt lat="44.50842" lon="4.22111">
        <ele>327.3</ele>
        <time>2020-07-21T06:44:27Z</time>
      </trkpt>
      <trkpt lat="44.50841" lon="4.22112">
        <ele>327.3</ele>
        <time>2020-07-21T06:44:26Z</time>
      </trkpt>
      <trkpt lat="44.50838" lon="4.22112">
        <ele>327.1</ele>
        <time>2020-07-21T06:44:25Z</time>
      </trkpt>
      <trkpt lat="44.50835" lon="4.22114">
        <ele>327.2</ele>
        <time>2020-07-21T06:44:23Z</time>
      </trkpt>
      <trkpt lat="44.50832" lon="4.22115">
        <ele>327.4</ele>
        <time>2020-07-21T06:44:22Z</time>
      </trkpt>
      <trkpt lat="44.50831" lon="4.22116">
        <ele>327.3</ele>
        <time>2020-07-21T06:44:21Z</time>
      </trkpt>
      <trkpt lat="44.50828" lon="4.22118">
        <ele>326.9</ele>
        <time>2020-07-21T06:44:19Z</time>
      </trkpt>
      <trkpt lat="44.50825" lon="4.2212">
        <ele>326.5</ele>
        <time>2020-07-21T06:44:18Z</time>
      </trkpt>
      <trkpt lat="44.50822" lon="4.22121">
        <ele>326.1</ele>
        <time>2020-07-21T06:44:17Z</time>
      </trkpt>
      <trkpt lat="44.50819" lon="4.22123">
        <ele>325.8</ele>
        <time>2020-07-21T06:44:15Z</time>
      </trkpt>
      <trkpt lat="44.50817" lon="4.22125">
        <ele>325.5</ele>
        <time>2020-07-21T06:44:14Z</time>
      </trkpt>
      <trkpt lat="44.50813" lon="4.22127">
        <ele>325.1</ele>
        <time>2020-07-21T06:44:13Z</time>
      </trkpt>
      <trkpt lat="44.5081" lon="4.22128">
        <ele>324.8</ele>
        <time>2020-07-21T06:44:12Z</time>
      </trkpt>
      <trkpt lat="44.50807" lon="4.2213">
        <ele>324.4</ele>
        <time>2020-07-21T06:44:10Z</time>
      </trkpt>
      <trkpt lat="44.50804" lon="4.22132">
        <ele>324.1</ele>
        <time>2020-07-21T06:44:09Z</time>
      </trkpt>
      <trkpt lat="44.50803" lon="4.22133">
        <ele>324</ele>
        <time>2020-07-21T06:44:08Z</time>
      </trkpt>
      <trkpt lat="44.508" lon="4.22135">
        <ele>323.7</ele>
        <time>2020-07-21T06:44:07Z</time>
      </trkpt>
      <trkpt lat="44.50797" lon="4.22137">
        <ele>323.7</ele>
        <time>2020-07-21T06:44:05Z</time>
      </trkpt>
      <trkpt lat="44.50795" lon="4.22138">
        <ele>323.7</ele>
        <time>2020-07-21T06:44:04Z</time>
      </trkpt>
      <trkpt lat="44.50794" lon="4.22138">
        <ele>323.7</ele>
        <time>2020-07-21T06:44:03Z</time>
      </trkpt>
      <trkpt lat="44.5079" lon="4.2214">
        <ele>323.7</ele>
        <time>2020-07-21T06:44:02Z</time>
      </trkpt>
      <trkpt lat="44.50788" lon="4.22141">
        <ele>322.2</ele>
        <time>2020-07-21T06:44:00Z</time>
      </trkpt>
      <trkpt lat="44.50785" lon="4.22142">
        <ele>322</ele>
        <time>2020-07-21T06:43:59Z</time>
      </trkpt>
      <trkpt lat="44.50783" lon="4.22144">
        <ele>321.9</ele>
        <time>2020-07-21T06:43:58Z</time>
      </trkpt>
      <trkpt lat="44.5078" lon="4.22145">
        <ele>321.7</ele>
        <time>2020-07-21T06:43:56Z</time>
      </trkpt>
      <trkpt lat="44.50778" lon="4.22146">
        <ele>321.6</ele>
        <time>2020-07-21T06:43:55Z</time>
      </trkpt>
      <trkpt lat="44.50781" lon="4.22145">
        <ele>321.5</ele>
        <time>2020-07-21T06:43:54Z</time>
      </trkpt>
      <trkpt lat="44.5078" lon="4.22145">
        <ele>321.4</ele>
        <time>2020-07-21T06:43:53Z</time>
      </trkpt>
      <trkpt lat="44.50776" lon="4.22146">
        <ele>321.2</ele>
        <time>2020-07-21T06:43:51Z</time>
      </trkpt>
      <trkpt lat="44.50773" lon="4.22145">
        <ele>321.1</ele>
        <time>2020-07-21T06:43:50Z</time>
      </trkpt>
      <trkpt lat="44.5077" lon="4.22145">
        <ele>320.9</ele>
        <time>2020-07-21T06:43:48Z</time>
      </trkpt>
      <trkpt lat="44.50768" lon="4.22144">
        <ele>320.8</ele>
        <time>2020-07-21T06:43:47Z</time>
      </trkpt>
      <trkpt lat="44.50765" lon="4.22141">
        <ele>320.6</ele>
        <time>2020-07-21T06:43:45Z</time>
      </trkpt>
      <trkpt lat="44.50759" lon="4.22136">
        <ele>320.3</ele>
        <time>2020-07-21T06:43:44Z</time>
      </trkpt>
      <trkpt lat="44.50756" lon="4.22133">
        <ele>320.1</ele>
        <time>2020-07-21T06:43:43Z</time>
      </trkpt>
      <trkpt lat="44.50751" lon="4.22129">
        <ele>319.9</ele>
        <time>2020-07-21T06:43:41Z</time>
      </trkpt>
      <trkpt lat="44.5075" lon="4.22127">
        <ele>319.8</ele>
        <time>2020-07-21T06:43:40Z</time>
      </trkpt>
      <trkpt lat="44.50749" lon="4.22125">
        <ele>319.8</ele>
        <time>2020-07-21T06:43:39Z</time>
      </trkpt>
      <trkpt lat="44.50745" lon="4.2212">
        <ele>319.6</ele>
        <time>2020-07-21T06:43:37Z</time>
      </trkpt>
      <trkpt lat="44.50743" lon="4.22116">
        <ele>319.4</ele>
        <time>2020-07-21T06:43:36Z</time>
      </trkpt>
      <trkpt lat="44.50742" lon="4.22114">
        <ele>319.4</ele>
        <time>2020-07-21T06:43:33Z</time>
      </trkpt>
      <trkpt lat="44.50741" lon="4.22112">
        <ele>319.3</ele>
        <time>2020-07-21T06:43:32Z</time>
      </trkpt>
      <trkpt lat="44.50738" lon="4.22108">
        <ele>319.2</ele>
        <time>2020-07-21T06:43:30Z</time>
      </trkpt>
      <trkpt lat="44.50737" lon="4.22106">
        <ele>319.1</ele>
        <time>2020-07-21T06:43:29Z</time>
      </trkpt>
      <trkpt lat="44.50734" lon="4.22103">
        <ele>319</ele>
        <time>2020-07-21T06:43:28Z</time>
      </trkpt>
      <trkpt lat="44.50732" lon="4.221">
        <ele>319.1</ele>
        <time>2020-07-21T06:43:27Z</time>
      </trkpt>
      <trkpt lat="44.5073" lon="4.22098">
        <ele>319.2</ele>
        <time>2020-07-21T06:43:25Z</time>
      </trkpt>
      <trkpt lat="44.50727" lon="4.22095">
        <ele>319</ele>
        <time>2020-07-21T06:43:23Z</time>
      </trkpt>
      <trkpt lat="44.50722" lon="4.22093">
        <ele>318.8</ele>
        <time>2020-07-21T06:43:22Z</time>
      </trkpt>
      <trkpt lat="44.50719" lon="4.22092">
        <ele>318.6</ele>
        <time>2020-07-21T06:43:20Z</time>
      </trkpt>
      <trkpt lat="44.50717" lon="4.2209">
        <ele>318.4</ele>
        <time>2020-07-21T06:43:19Z</time>
      </trkpt>
      <trkpt lat="44.50714" lon="4.22088">
        <ele>318.2</ele>
        <time>2020-07-21T06:43:18Z</time>
      </trkpt>
      <trkpt lat="44.5071" lon="4.22086">
        <ele>318</ele>
        <time>2020-07-21T06:43:16Z</time>
      </trkpt>
      <trkpt lat="44.50706" lon="4.22084">
        <ele>317.7</ele>
        <time>2020-07-21T06:43:15Z</time>
      </trkpt>
      <trkpt lat="44.50702" lon="4.22082">
        <ele>317.4</ele>
        <time>2020-07-21T06:43:13Z</time>
      </trkpt>
      <trkpt lat="44.50694" lon="4.22079">
        <ele>316.9</ele>
        <time>2020-07-21T06:43:12Z</time>
      </trkpt>
      <trkpt lat="44.50689" lon="4.22076">
        <ele>316.6</ele>
        <time>2020-07-21T06:43:10Z</time>
      </trkpt>
      <trkpt lat="44.50687" lon="4.22073">
        <ele>316.4</ele>
        <time>2020-07-21T06:43:09Z</time>
      </trkpt>
      <trkpt lat="44.50684" lon="4.2207">
        <ele>316.2</ele>
        <time>2020-07-21T06:43:08Z</time>
      </trkpt>
      <trkpt lat="44.50683" lon="4.22068">
        <ele>316</ele>
        <time>2020-07-21T06:43:07Z</time>
      </trkpt>
      <trkpt lat="44.50682" lon="4.22066">
        <ele>315.9</ele>
        <time>2020-07-21T06:43:06Z</time>
      </trkpt>
      <trkpt lat="44.5068" lon="4.22064">
        <ele>315.8</ele>
        <time>2020-07-21T06:43:04Z</time>
      </trkpt>
      <trkpt lat="44.50676" lon="4.22059">
        <ele>315.5</ele>
        <time>2020-07-21T06:43:02Z</time>
      </trkpt>
      <trkpt lat="44.50668" lon="4.22056">
        <ele>315</ele>
        <time>2020-07-21T06:43:00Z</time>
      </trkpt>
      <trkpt lat="44.50666" lon="4.22056">
        <ele>314.9</ele>
        <time>2020-07-21T06:42:58Z</time>
      </trkpt>
      <trkpt lat="44.50664" lon="4.22055">
        <ele>314.8</ele>
        <time>2020-07-21T06:42:57Z</time>
      </trkpt>
      <trkpt lat="44.50663" lon="4.22054">
        <ele>314.6</ele>
        <time>2020-07-21T06:42:56Z</time>
      </trkpt>
      <trkpt lat="44.50661" lon="4.22053">
        <ele>314.6</ele>
        <time>2020-07-21T06:42:55Z</time>
      </trkpt>
      <trkpt lat="44.50659" lon="4.22052">
        <ele>314.4</ele>
        <time>2020-07-21T06:42:53Z</time>
      </trkpt>
      <trkpt lat="44.50658" lon="4.22051">
        <ele>314.3</ele>
        <time>2020-07-21T06:42:51Z</time>
      </trkpt>
      <trkpt lat="44.50655" lon="4.22052">
        <ele>314.1</ele>
        <time>2020-07-21T06:42:50Z</time>
      </trkpt>
      <trkpt lat="44.5065" lon="4.22053">
        <ele>313.8</ele>
        <time>2020-07-21T06:42:49Z</time>
      </trkpt>
      <trkpt lat="44.50649" lon="4.22053">
        <ele>313.8</ele>
        <time>2020-07-21T06:42:48Z</time>
      </trkpt>
      <trkpt lat="44.50645" lon="4.22053">
        <ele>313.6</ele>
        <time>2020-07-21T06:42:46Z</time>
      </trkpt>
      <trkpt lat="44.50642" lon="4.22054">
        <ele>313.4</ele>
        <time>2020-07-21T06:42:45Z</time>
      </trkpt>
      <trkpt lat="44.50641" lon="4.22054">
        <ele>313.3</ele>
        <time>2020-07-21T06:42:43Z</time>
      </trkpt>
      <trkpt lat="44.50639" lon="4.22055">
        <ele>313.2</ele>
        <time>2020-07-21T06:42:42Z</time>
      </trkpt>
      <trkpt lat="44.50634" lon="4.22058">
        <ele>312.7</ele>
        <time>2020-07-21T06:42:40Z</time>
      </trkpt>
      <trkpt lat="44.50633" lon="4.2206">
        <ele>312.3</ele>
        <time>2020-07-21T06:42:39Z</time>
      </trkpt>
      <trkpt lat="44.50631" lon="4.2206">
        <ele>312.2</ele>
        <time>2020-07-21T06:42:38Z</time>
      </trkpt>
      <trkpt lat="44.50631" lon="4.22061">
        <ele>312.1</ele>
        <time>2020-07-21T06:42:37Z</time>
      </trkpt>
      <trkpt lat="44.50629" lon="4.22063">
        <ele>311.7</ele>
        <time>2020-07-21T06:42:35Z</time>
      </trkpt>
      <trkpt lat="44.50629" lon="4.22064">
        <ele>311.5</ele>
        <time>2020-07-21T06:42:34Z</time>
      </trkpt>
      <trkpt lat="44.50628" lon="4.22065">
        <ele>311.5</ele>
        <time>2020-07-21T06:42:33Z</time>
      </trkpt>
      <trkpt lat="44.50628" lon="4.22066">
        <ele>311.3</ele>
        <time>2020-07-21T06:42:32Z</time>
      </trkpt>
      <trkpt lat="44.50627" lon="4.22068">
        <ele>311.2</ele>
        <time>2020-07-21T06:42:31Z</time>
      </trkpt>
      <trkpt lat="44.50624" lon="4.22071">
        <ele>310.9</ele>
        <time>2020-07-21T06:42:30Z</time>
      </trkpt>
      <trkpt lat="44.50623" lon="4.22074">
        <ele>310.5</ele>
        <time>2020-07-21T06:42:28Z</time>
      </trkpt>
      <trkpt lat="44.50621" lon="4.22076">
        <ele>310.1</ele>
        <time>2020-07-21T06:42:26Z</time>
      </trkpt>
      <trkpt lat="44.5062" lon="4.22077">
        <ele>310</ele>
        <time>2020-07-21T06:42:25Z</time>
      </trkpt>
      <trkpt lat="44.50618" lon="4.22081">
        <ele>309.5</ele>
        <time>2020-07-21T06:42:24Z</time>
      </trkpt>
      <trkpt lat="44.50616" lon="4.22082">
        <ele>309.4</ele>
        <time>2020-07-21T06:42:23Z</time>
      </trkpt>
      <trkpt lat="44.50616" lon="4.22084">
        <ele>309.2</ele>
        <time>2020-07-21T06:42:21Z</time>
      </trkpt>
      <trkpt lat="44.50611" lon="4.22088">
        <ele>308.4</ele>
        <time>2020-07-21T06:42:20Z</time>
      </trkpt>
      <trkpt lat="44.50609" lon="4.2209">
        <ele>308.2</ele>
        <time>2020-07-21T06:42:18Z</time>
      </trkpt>
      <trkpt lat="44.50608" lon="4.22091">
        <ele>307.7</ele>
        <time>2020-07-21T06:42:17Z</time>
      </trkpt>
      <trkpt lat="44.50607" lon="4.22091">
        <ele>307.5</ele>
        <time>2020-07-21T06:42:15Z</time>
      </trkpt>
      <trkpt lat="44.50606" lon="4.22092">
        <ele>307.4</ele>
        <time>2020-07-21T06:42:14Z</time>
      </trkpt>
      <trkpt lat="44.50605" lon="4.22093">
        <ele>306.8</ele>
        <time>2020-07-21T06:42:13Z</time>
      </trkpt>
      <trkpt lat="44.50605" lon="4.22093">
        <ele>306.7</ele>
        <time>2020-07-21T06:42:12Z</time>
      </trkpt>
      <trkpt lat="44.50601" lon="4.22097">
        <ele>306.2</ele>
        <time>2020-07-21T06:42:10Z</time>
      </trkpt>
      <trkpt lat="44.506" lon="4.22099">
        <ele>306</ele>
        <time>2020-07-21T06:42:09Z</time>
      </trkpt>
      <trkpt lat="44.50599" lon="4.22103">
        <ele>305.5</ele>
        <time>2020-07-21T06:42:08Z</time>
      </trkpt>
      <trkpt lat="44.50598" lon="4.22106">
        <ele>305.3</ele>
        <time>2020-07-21T06:42:06Z</time>
      </trkpt>
      <trkpt lat="44.50598" lon="4.22109">
        <ele>305.2</ele>
        <time>2020-07-21T06:42:05Z</time>
      </trkpt>
      <trkpt lat="44.50598" lon="4.22112">
        <ele>305</ele>
        <time>2020-07-21T06:42:03Z</time>
      </trkpt>
      <trkpt lat="44.50597" lon="4.22116">
        <ele>304.8</ele>
        <time>2020-07-21T06:42:01Z</time>
      </trkpt>
      <trkpt lat="44.50596" lon="4.22126">
        <ele>304.2</ele>
        <time>2020-07-21T06:41:59Z</time>
      </trkpt>
      <trkpt lat="44.50597" lon="4.22129">
        <ele>304.4</ele>
        <time>2020-07-21T06:41:57Z</time>
      </trkpt>
      <trkpt lat="44.50597" lon="4.22131">
        <ele>304.2</ele>
        <time>2020-07-21T06:41:56Z</time>
      </trkpt>
      <trkpt lat="44.50598" lon="4.22133">
        <ele>304</ele>
        <time>2020-07-21T06:41:55Z</time>
      </trkpt>
      <trkpt lat="44.50598" lon="4.22135">
        <ele>303.8</ele>
        <time>2020-07-21T06:41:54Z</time>
      </trkpt>
      <trkpt lat="44.50598" lon="4.22136">
        <ele>303.7</ele>
        <time>2020-07-21T06:41:52Z</time>
      </trkpt>
      <trkpt lat="44.50599" lon="4.22137">
        <ele>303.4</ele>
        <time>2020-07-21T06:41:51Z</time>
      </trkpt>
      <trkpt lat="44.50601" lon="4.22144">
        <ele>303.6</ele>
        <time>2020-07-21T06:41:49Z</time>
      </trkpt>
      <trkpt lat="44.50602" lon="4.22146">
        <ele>303.3</ele>
        <time>2020-07-21T06:41:48Z</time>
      </trkpt>
      <trkpt lat="44.50604" lon="4.2215">
        <ele>303.5</ele>
        <time>2020-07-21T06:41:47Z</time>
      </trkpt>
      <trkpt lat="44.50609" lon="4.22166">
        <ele>303.6</ele>
        <time>2020-07-21T06:41:44Z</time>
      </trkpt>
      <trkpt lat="44.50609" lon="4.22167">
        <ele>303.4</ele>
        <time>2020-07-21T06:41:43Z</time>
      </trkpt>
      <trkpt lat="44.50611" lon="4.22171">
        <ele>303</ele>
        <time>2020-07-21T06:41:41Z</time>
      </trkpt>
      <trkpt lat="44.50611" lon="4.22172">
        <ele>302.6</ele>
        <time>2020-07-21T06:41:40Z</time>
      </trkpt>
      <trkpt lat="44.50612" lon="4.22176">
        <ele>302.7</ele>
        <time>2020-07-21T06:41:39Z</time>
      </trkpt>
      <trkpt lat="44.50613" lon="4.22177">
        <ele>302.5</ele>
        <time>2020-07-21T06:41:38Z</time>
      </trkpt>
      <trkpt lat="44.50613" lon="4.2218">
        <ele>302.1</ele>
        <time>2020-07-21T06:41:36Z</time>
      </trkpt>
      <trkpt lat="44.50614" lon="4.22184">
        <ele>301.9</ele>
        <time>2020-07-21T06:41:35Z</time>
      </trkpt>
      <trkpt lat="44.50615" lon="4.2219">
        <ele>301.7</ele>
        <time>2020-07-21T06:41:34Z</time>
      </trkpt>
      <trkpt lat="44.50616" lon="4.22193">
        <ele>301.6</ele>
        <time>2020-07-21T06:41:32Z</time>
      </trkpt>
      <trkpt lat="44.50617" lon="4.22196">
        <ele>301.4</ele>
        <time>2020-07-21T06:41:31Z</time>
      </trkpt>
      <trkpt lat="44.50618" lon="4.22198">
        <ele>301.3</ele>
        <time>2020-07-21T06:41:29Z</time>
      </trkpt>
      <trkpt lat="44.50619" lon="4.222">
        <ele>301.2</ele>
        <time>2020-07-21T06:41:28Z</time>
      </trkpt>
      <trkpt lat="44.5062" lon="4.22202">
        <ele>301.1</ele>
        <time>2020-07-21T06:41:27Z</time>
      </trkpt>
      <trkpt lat="44.5062" lon="4.22204">
        <ele>301</ele>
        <time>2020-07-21T06:41:26Z</time>
      </trkpt>
      <trkpt lat="44.50622" lon="4.22207">
        <ele>300.9</ele>
        <time>2020-07-21T06:41:25Z</time>
      </trkpt>
      <trkpt lat="44.50625" lon="4.22212">
        <ele>300.6</ele>
        <time>2020-07-21T06:41:24Z</time>
      </trkpt>
      <trkpt lat="44.50627" lon="4.22216">
        <ele>300.5</ele>
        <time>2020-07-21T06:41:22Z</time>
      </trkpt>
      <trkpt lat="44.50629" lon="4.22219">
        <ele>300.3</ele>
        <time>2020-07-21T06:41:21Z</time>
      </trkpt>
      <trkpt lat="44.50632" lon="4.22223">
        <ele>300.2</ele>
        <time>2020-07-21T06:41:19Z</time>
      </trkpt>
      <trkpt lat="44.50633" lon="4.22225">
        <ele>300.1</ele>
        <time>2020-07-21T06:41:18Z</time>
      </trkpt>
      <trkpt lat="44.50634" lon="4.22226">
        <ele>300.1</ele>
        <time>2020-07-21T06:41:17Z</time>
      </trkpt>
      <trkpt lat="44.50637" lon="4.2223">
        <ele>300</ele>
        <time>2020-07-21T06:41:15Z</time>
      </trkpt>
      <trkpt lat="44.50639" lon="4.22233">
        <ele>299.9</ele>
        <time>2020-07-21T06:41:14Z</time>
      </trkpt>
      <trkpt lat="44.5064" lon="4.22234">
        <ele>299.8</ele>
        <time>2020-07-21T06:41:13Z</time>
      </trkpt>
      <trkpt lat="44.50642" lon="4.22236">
        <ele>299.8</ele>
        <time>2020-07-21T06:41:11Z</time>
      </trkpt>
      <trkpt lat="44.50645" lon="4.22243">
        <ele>299.6</ele>
        <time>2020-07-21T06:41:10Z</time>
      </trkpt>
      <trkpt lat="44.50646" lon="4.22245">
        <ele>299.5</ele>
        <time>2020-07-21T06:41:09Z</time>
      </trkpt>
      <trkpt lat="44.50647" lon="4.22246">
        <ele>299.5</ele>
        <time>2020-07-21T06:41:08Z</time>
      </trkpt>
      <trkpt lat="44.5065" lon="4.22252">
        <ele>299.3</ele>
        <time>2020-07-21T06:41:06Z</time>
      </trkpt>
      <trkpt lat="44.50652" lon="4.22256">
        <ele>299.1</ele>
        <time>2020-07-21T06:41:05Z</time>
      </trkpt>
      <trkpt lat="44.50653" lon="4.2226">
        <ele>299</ele>
        <time>2020-07-21T06:41:04Z</time>
      </trkpt>
      <trkpt lat="44.50655" lon="4.22265">
        <ele>298.8</ele>
        <time>2020-07-21T06:41:02Z</time>
      </trkpt>
      <trkpt lat="44.50656" lon="4.22267">
        <ele>298.7</ele>
        <time>2020-07-21T06:41:01Z</time>
      </trkpt>
      <trkpt lat="44.50661" lon="4.22277">
        <ele>298.4</ele>
        <time>2020-07-21T06:40:59Z</time>
      </trkpt>
      <trkpt lat="44.50662" lon="4.22279">
        <ele>298.3</ele>
        <time>2020-07-21T06:40:58Z</time>
      </trkpt>
      <trkpt lat="44.50663" lon="4.22281">
        <ele>298.3</ele>
        <time>2020-07-21T06:40:57Z</time>
      </trkpt>
      <trkpt lat="44.50665" lon="4.22287">
        <ele>298.1</ele>
        <time>2020-07-21T06:40:55Z</time>
      </trkpt>
      <trkpt lat="44.50666" lon="4.22289">
        <ele>298.1</ele>
        <time>2020-07-21T06:40:54Z</time>
      </trkpt>
      <trkpt lat="44.50668" lon="4.22293">
        <ele>298</ele>
        <time>2020-07-21T06:40:52Z</time>
      </trkpt>
      <trkpt lat="44.50669" lon="4.22294">
        <ele>297.9</ele>
        <time>2020-07-21T06:40:51Z</time>
      </trkpt>
      <trkpt lat="44.5067" lon="4.22297">
        <ele>297.8</ele>
        <time>2020-07-21T06:40:50Z</time>
      </trkpt>
      <trkpt lat="44.50674" lon="4.22305">
        <ele>297.6</ele>
        <time>2020-07-21T06:40:49Z</time>
      </trkpt>
      <trkpt lat="44.50675" lon="4.22308">
        <ele>297.6</ele>
        <time>2020-07-21T06:40:47Z</time>
      </trkpt>
      <trkpt lat="44.50676" lon="4.22311">
        <ele>297.5</ele>
        <time>2020-07-21T06:40:46Z</time>
      </trkpt>
      <trkpt lat="44.50677" lon="4.22312">
        <ele>297.4</ele>
        <time>2020-07-21T06:40:45Z</time>
      </trkpt>
      <trkpt lat="44.50679" lon="4.22317">
        <ele>297.3</ele>
        <time>2020-07-21T06:40:43Z</time>
      </trkpt>
      <trkpt lat="44.50679" lon="4.22318">
        <ele>297.3</ele>
        <time>2020-07-21T06:40:42Z</time>
      </trkpt>
      <trkpt lat="44.5068" lon="4.22323">
        <ele>297.1</ele>
        <time>2020-07-21T06:40:40Z</time>
      </trkpt>
      <trkpt lat="44.50684" lon="4.22331">
        <ele>296.9</ele>
        <time>2020-07-21T06:40:39Z</time>
      </trkpt>
      <trkpt lat="44.50685" lon="4.22336">
        <ele>296.7</ele>
        <time>2020-07-21T06:40:37Z</time>
      </trkpt>
      <trkpt lat="44.50686" lon="4.22339">
        <ele>296.6</ele>
        <time>2020-07-21T06:40:36Z</time>
      </trkpt>
      <trkpt lat="44.50687" lon="4.22345">
        <ele>296.5</ele>
        <time>2020-07-21T06:40:34Z</time>
      </trkpt>
      <trkpt lat="44.50688" lon="4.22347">
        <ele>296.4</ele>
        <time>2020-07-21T06:40:33Z</time>
      </trkpt>
      <trkpt lat="44.50688" lon="4.2235">
        <ele>296.4</ele>
        <time>2020-07-21T06:40:31Z</time>
      </trkpt>
      <trkpt lat="44.50688" lon="4.22352">
        <ele>296.3</ele>
        <time>2020-07-21T06:40:30Z</time>
      </trkpt>
      <trkpt lat="44.50691" lon="4.22361">
        <ele>296</ele>
        <time>2020-07-21T06:40:29Z</time>
      </trkpt>
      <trkpt lat="44.50691" lon="4.22362">
        <ele>296</ele>
        <time>2020-07-21T06:40:28Z</time>
      </trkpt>
      <trkpt lat="44.50693" lon="4.22366">
        <ele>295.9</ele>
        <time>2020-07-21T06:40:27Z</time>
      </trkpt>
      <trkpt lat="44.50694" lon="4.22369">
        <ele>295.8</ele>
        <time>2020-07-21T06:40:25Z</time>
      </trkpt>
      <trkpt lat="44.50695" lon="4.22371">
        <ele>295.7</ele>
        <time>2020-07-21T06:40:24Z</time>
      </trkpt>
      <trkpt lat="44.50696" lon="4.22375">
        <ele>295.6</ele>
        <time>2020-07-21T06:40:23Z</time>
      </trkpt>
      <trkpt lat="44.50697" lon="4.22378">
        <ele>295.5</ele>
        <time>2020-07-21T06:40:21Z</time>
      </trkpt>
      <trkpt lat="44.50697" lon="4.2238">
        <ele>295.5</ele>
        <time>2020-07-21T06:40:20Z</time>
      </trkpt>
      <trkpt lat="44.50699" lon="4.22389">
        <ele>295.2</ele>
        <time>2020-07-21T06:40:19Z</time>
      </trkpt>
      <trkpt lat="44.507" lon="4.2239">
        <ele>295.2</ele>
        <time>2020-07-21T06:40:18Z</time>
      </trkpt>
      <trkpt lat="44.50701" lon="4.22395">
        <ele>295.1</ele>
        <time>2020-07-21T06:40:16Z</time>
      </trkpt>
      <trkpt lat="44.50701" lon="4.22398">
        <ele>295</ele>
        <time>2020-07-21T06:40:15Z</time>
      </trkpt>
      <trkpt lat="44.50702" lon="4.224">
        <ele>295</ele>
        <time>2020-07-21T06:40:14Z</time>
      </trkpt>
      <trkpt lat="44.50702" lon="4.22401">
        <ele>294.9</ele>
        <time>2020-07-21T06:40:13Z</time>
      </trkpt>
      <trkpt lat="44.50702" lon="4.22405">
        <ele>294.8</ele>
        <time>2020-07-21T06:40:11Z</time>
      </trkpt>
      <trkpt lat="44.50703" lon="4.22409">
        <ele>294.7</ele>
        <time>2020-07-21T06:40:10Z</time>
      </trkpt>
      <trkpt lat="44.50703" lon="4.22412">
        <ele>294.7</ele>
        <time>2020-07-21T06:40:09Z</time>
      </trkpt>
      <trkpt lat="44.50703" lon="4.22416">
        <ele>294.5</ele>
        <time>2020-07-21T06:40:08Z</time>
      </trkpt>
      <trkpt lat="44.50704" lon="4.22418">
        <ele>294.5</ele>
        <time>2020-07-21T06:40:07Z</time>
      </trkpt>
      <trkpt lat="44.50704" lon="4.2242">
        <ele>294.4</ele>
        <time>2020-07-21T06:40:06Z</time>
      </trkpt>
      <trkpt lat="44.50705" lon="4.22426">
        <ele>294.2</ele>
        <time>2020-07-21T06:40:04Z</time>
      </trkpt>
      <trkpt lat="44.50703" lon="4.22428">
        <ele>294.2</ele>
        <time>2020-07-21T06:40:03Z</time>
      </trkpt>
      <trkpt lat="44.50703" lon="4.22432">
        <ele>294.1</ele>
        <time>2020-07-21T06:40:02Z</time>
      </trkpt>
      <trkpt lat="44.50702" lon="4.22437">
        <ele>294.1</ele>
        <time>2020-07-21T06:40:00Z</time>
      </trkpt>
      <trkpt lat="44.50702" lon="4.22439">
        <ele>294.1</ele>
        <time>2020-07-21T06:39:59Z</time>
      </trkpt>
      <trkpt lat="44.50703" lon="4.22443">
        <ele>290.7</ele>
        <time>2020-07-21T06:39:58Z</time>
      </trkpt>
      <trkpt lat="44.50703" lon="4.22445">
        <ele>290.6</ele>
        <time>2020-07-21T06:39:57Z</time>
      </trkpt>
      <trkpt lat="44.50702" lon="4.22447">
        <ele>290.5</ele>
        <time>2020-07-21T06:39:55Z</time>
      </trkpt>
      <trkpt lat="44.50702" lon="4.22449">
        <ele>290.4</ele>
        <time>2020-07-21T06:39:54Z</time>
      </trkpt>
      <trkpt lat="44.50702" lon="4.22453">
        <ele>290.1</ele>
        <time>2020-07-21T06:39:53Z</time>
      </trkpt>
      <trkpt lat="44.50702" lon="4.22454">
        <ele>290</ele>
        <time>2020-07-21T06:39:52Z</time>
      </trkpt>
      <trkpt lat="44.50699" lon="4.22456">
        <ele>289.7</ele>
        <time>2020-07-21T06:39:51Z</time>
      </trkpt>
      <trkpt lat="44.50698" lon="4.22458">
        <ele>289.6</ele>
        <time>2020-07-21T06:39:50Z</time>
      </trkpt>
      <trkpt lat="44.50698" lon="4.2246">
        <ele>289.4</ele>
        <time>2020-07-21T06:39:48Z</time>
      </trkpt>
      <trkpt lat="44.50697" lon="4.22462">
        <ele>289.3</ele>
        <time>2020-07-21T06:39:47Z</time>
      </trkpt>
      <trkpt lat="44.50695" lon="4.22465">
        <ele>289</ele>
        <time>2020-07-21T06:39:45Z</time>
      </trkpt>
      <trkpt lat="44.50694" lon="4.22466">
        <ele>288.8</ele>
        <time>2020-07-21T06:39:44Z</time>
      </trkpt>
      <trkpt lat="44.50691" lon="4.22467">
        <ele>288.5</ele>
        <time>2020-07-21T06:39:43Z</time>
      </trkpt>
      <trkpt lat="44.50688" lon="4.22468">
        <ele>288.2</ele>
        <time>2020-07-21T06:39:41Z</time>
      </trkpt>
      <trkpt lat="44.50687" lon="4.2247">
        <ele>288</ele>
        <time>2020-07-21T06:39:40Z</time>
      </trkpt>
      <trkpt lat="44.50686" lon="4.22473">
        <ele>287.8</ele>
        <time>2020-07-21T06:39:39Z</time>
      </trkpt>
      <trkpt lat="44.50688" lon="4.22475">
        <ele>287.6</ele>
        <time>2020-07-21T06:39:37Z</time>
      </trkpt>
      <trkpt lat="44.50689" lon="4.22476">
        <ele>287.5</ele>
        <time>2020-07-21T06:39:36Z</time>
      </trkpt>
      <trkpt lat="44.50692" lon="4.22478">
        <ele>287.2</ele>
        <time>2020-07-21T06:39:35Z</time>
      </trkpt>
      <trkpt lat="44.50693" lon="4.22479">
        <ele>287</ele>
        <time>2020-07-21T06:39:34Z</time>
      </trkpt>
      <trkpt lat="44.50694" lon="4.2248">
        <ele>286.9</ele>
        <time>2020-07-21T06:39:33Z</time>
      </trkpt>
      <trkpt lat="44.50697" lon="4.22485">
        <ele>286.5</ele>
        <time>2020-07-21T06:39:31Z</time>
      </trkpt>
      <trkpt lat="44.50693" lon="4.22493">
        <ele>285.9</ele>
        <time>2020-07-21T06:39:29Z</time>
      </trkpt>
      <trkpt lat="44.50691" lon="4.22494">
        <ele>285.6</ele>
        <time>2020-07-21T06:39:27Z</time>
      </trkpt>
      <trkpt lat="44.50688" lon="4.22494">
        <ele>285.4</ele>
        <time>2020-07-21T06:39:26Z</time>
      </trkpt>
      <trkpt lat="44.5069" lon="4.22496">
        <ele>285.3</ele>
        <time>2020-07-21T06:39:25Z</time>
      </trkpt>
      <trkpt lat="44.50688" lon="4.22494">
        <ele>285.1</ele>
        <time>2020-07-21T06:39:24Z</time>
      </trkpt>
      <trkpt lat="44.50686" lon="4.22491">
        <ele>284.8</ele>
        <time>2020-07-21T06:39:22Z</time>
      </trkpt>
      <trkpt lat="44.50685" lon="4.2249">
        <ele>284.7</ele>
        <time>2020-07-21T06:39:21Z</time>
      </trkpt>
      <trkpt lat="44.50682" lon="4.22487">
        <ele>284.5</ele>
        <time>2020-07-21T06:39:20Z</time>
      </trkpt>
      <trkpt lat="44.5068" lon="4.22484">
        <ele>284.2</ele>
        <time>2020-07-21T06:39:19Z</time>
      </trkpt>
      <trkpt lat="44.50678" lon="4.2248">
        <ele>284</ele>
        <time>2020-07-21T06:39:17Z</time>
      </trkpt>
      <trkpt lat="44.50676" lon="4.22474">
        <ele>283.6</ele>
        <time>2020-07-21T06:39:16Z</time>
      </trkpt>
      <trkpt lat="44.50674" lon="4.22469">
        <ele>283.2</ele>
        <time>2020-07-21T06:39:14Z</time>
      </trkpt>
      <trkpt lat="44.50673" lon="4.22468">
        <ele>283.1</ele>
        <time>2020-07-21T06:39:13Z</time>
      </trkpt>
      <trkpt lat="44.50672" lon="4.22468">
        <ele>283</ele>
        <time>2020-07-21T06:39:11Z</time>
      </trkpt>
      <trkpt lat="44.5067" lon="4.22467">
        <ele>282.9</ele>
        <time>2020-07-21T06:39:10Z</time>
      </trkpt>
      <trkpt lat="44.50668" lon="4.22466">
        <ele>282.8</ele>
        <time>2020-07-21T06:39:09Z</time>
      </trkpt>
      <trkpt lat="44.50667" lon="4.22466">
        <ele>282.7</ele>
        <time>2020-07-21T06:39:07Z</time>
      </trkpt>
      <trkpt lat="44.50666" lon="4.22465">
        <ele>282.6</ele>
        <time>2020-07-21T06:39:06Z</time>
      </trkpt>
      <trkpt lat="44.50663" lon="4.22464">
        <ele>282.4</ele>
        <time>2020-07-21T06:39:05Z</time>
      </trkpt>
      <trkpt lat="44.50658" lon="4.22462">
        <ele>281.2</ele>
        <time>2020-07-21T06:39:03Z</time>
      </trkpt>
      <trkpt lat="44.50655" lon="4.2246">
        <ele>280.9</ele>
        <time>2020-07-21T06:39:02Z</time>
      </trkpt>
      <trkpt lat="44.50652" lon="4.22459">
        <ele>280.6</ele>
        <time>2020-07-21T06:39:01Z</time>
      </trkpt>
      <trkpt lat="44.5065" lon="4.22457">
        <ele>280.3</ele>
        <time>2020-07-21T06:38:59Z</time>
      </trkpt>
      <trkpt lat="44.50647" lon="4.22456">
        <ele>280.1</ele>
        <time>2020-07-21T06:38:58Z</time>
      </trkpt>
      <trkpt lat="44.50644" lon="4.22455">
        <ele>279.7</ele>
        <time>2020-07-21T06:38:57Z</time>
      </trkpt>
      <trkpt lat="44.50641" lon="4.22453">
        <ele>279.4</ele>
        <time>2020-07-21T06:38:56Z</time>
      </trkpt>
      <trkpt lat="44.50637" lon="4.22451">
        <ele>278.9</ele>
        <time>2020-07-21T06:38:54Z</time>
      </trkpt>
      <trkpt lat="44.50624" lon="4.22445">
        <ele>277.7</ele>
        <time>2020-07-21T06:38:53Z</time>
      </trkpt>
      <trkpt lat="44.50618" lon="4.22443">
        <ele>277.1</ele>
        <time>2020-07-21T06:38:51Z</time>
      </trkpt>
      <trkpt lat="44.50607" lon="4.22437">
        <ele>276.1</ele>
        <time>2020-07-21T06:38:50Z</time>
      </trkpt>
      <trkpt lat="44.50601" lon="4.22434">
        <ele>275.6</ele>
        <time>2020-07-21T06:38:49Z</time>
      </trkpt>
      <trkpt lat="44.50592" lon="4.2243">
        <ele>274.8</ele>
        <time>2020-07-21T06:38:48Z</time>
      </trkpt>
      <trkpt lat="44.50573" lon="4.22421">
        <ele>273.2</ele>
        <time>2020-07-21T06:38:46Z</time>
      </trkpt>
      <trkpt lat="44.50558" lon="4.22413">
        <ele>272.2</ele>
        <time>2020-07-21T06:38:45Z</time>
      </trkpt>
      <trkpt lat="44.5055" lon="4.22407">
        <ele>271.7</ele>
        <time>2020-07-21T06:38:44Z</time>
      </trkpt>
      <trkpt lat="44.50536" lon="4.22396">
        <ele>271.2</ele>
        <time>2020-07-21T06:38:42Z</time>
      </trkpt>
      <trkpt lat="44.50523" lon="4.22386">
        <ele>270.8</ele>
        <time>2020-07-21T06:38:41Z</time>
      </trkpt>
      <trkpt lat="44.50519" lon="4.22383">
        <ele>270.7</ele>
        <time>2020-07-21T06:38:40Z</time>
      </trkpt>
      <trkpt lat="44.50517" lon="4.2238">
        <ele>270.6</ele>
        <time>2020-07-21T06:38:38Z</time>
      </trkpt>
      <trkpt lat="44.50514" lon="4.22377">
        <ele>270.6</ele>
        <time>2020-07-21T06:38:37Z</time>
      </trkpt>
      <trkpt lat="44.50511" lon="4.22374">
        <ele>270.5</ele>
        <time>2020-07-21T06:38:35Z</time>
      </trkpt>
      <trkpt lat="44.50505" lon="4.22371">
        <ele>270.5</ele>
        <time>2020-07-21T06:38:34Z</time>
      </trkpt>
      <trkpt lat="44.50501" lon="4.22369">
        <ele>270.4</ele>
        <time>2020-07-21T06:38:32Z</time>
      </trkpt>
      <trkpt lat="44.50499" lon="4.22368">
        <ele>270.4</ele>
        <time>2020-07-21T06:38:31Z</time>
      </trkpt>
      <trkpt lat="44.50497" lon="4.22367">
        <ele>270.4</ele>
        <time>2020-07-21T06:38:30Z</time>
      </trkpt>
      <trkpt lat="44.50495" lon="4.22365">
        <ele>270.3</ele>
        <time>2020-07-21T06:38:29Z</time>
      </trkpt>
      <trkpt lat="44.50491" lon="4.22363">
        <ele>270.3</ele>
        <time>2020-07-21T06:38:27Z</time>
      </trkpt>
      <trkpt lat="44.50491" lon="4.22361">
        <ele>270.3</ele>
        <time>2020-07-21T06:38:26Z</time>
      </trkpt>
      <trkpt lat="44.50491" lon="4.22358">
        <ele>270.3</ele>
        <time>2020-07-21T06:38:25Z</time>
      </trkpt>
      <trkpt lat="44.50489" lon="4.22353">
        <ele>270.3</ele>
        <time>2020-07-21T06:38:23Z</time>
      </trkpt>
      <trkpt lat="44.50489" lon="4.22351">
        <ele>270.3</ele>
        <time>2020-07-21T06:38:22Z</time>
      </trkpt>
      <trkpt lat="44.50487" lon="4.22349">
        <ele>270.3</ele>
        <time>2020-07-21T06:38:19Z</time>
      </trkpt>
      <trkpt lat="44.50479" lon="4.22349">
        <ele>270.4</ele>
        <time>2020-07-21T06:38:18Z</time>
      </trkpt>
      <trkpt lat="44.50476" lon="4.22347">
        <ele>270.4</ele>
        <time>2020-07-21T06:38:17Z</time>
      </trkpt>
      <trkpt lat="44.50473" lon="4.22345">
        <ele>270.4</ele>
        <time>2020-07-21T06:38:15Z</time>
      </trkpt>
      <trkpt lat="44.50471" lon="4.22345">
        <ele>270.4</ele>
        <time>2020-07-21T06:38:14Z</time>
      </trkpt>
      <trkpt lat="44.50469" lon="4.22345">
        <ele>270.4</ele>
        <time>2020-07-21T06:38:13Z</time>
      </trkpt>
      <trkpt lat="44.50464" lon="4.22344">
        <ele>270.5</ele>
        <time>2020-07-21T06:38:11Z</time>
      </trkpt>
      <trkpt lat="44.50463" lon="4.22343">
        <ele>270.5</ele>
        <time>2020-07-21T06:38:10Z</time>
      </trkpt>
      <trkpt lat="44.5046" lon="4.22342">
        <ele>270.5</ele>
        <time>2020-07-21T06:38:09Z</time>
      </trkpt>
      <trkpt lat="44.50452" lon="4.22344">
        <ele>270.6</ele>
        <time>2020-07-21T06:38:08Z</time>
      </trkpt>
      <trkpt lat="44.50448" lon="4.22345">
        <ele>270.6</ele>
        <time>2020-07-21T06:38:06Z</time>
      </trkpt>
      <trkpt lat="44.50444" lon="4.22346">
        <ele>270.6</ele>
        <time>2020-07-21T06:38:05Z</time>
      </trkpt>
      <trkpt lat="44.50444" lon="4.22338">
        <ele>270.6</ele>
        <time>2020-07-21T06:38:03Z</time>
      </trkpt>
      <trkpt lat="44.5044" lon="4.22338">
        <ele>270.6</ele>
        <time>2020-07-21T06:38:02Z</time>
      </trkpt>
      <trkpt lat="44.50437" lon="4.22338">
        <ele>270.6</ele>
        <time>2020-07-21T06:38:01Z</time>
      </trkpt>
      <trkpt lat="44.50433" lon="4.22338">
        <ele>270.6</ele>
        <time>2020-07-21T06:38:00Z</time>
      </trkpt>
      <trkpt lat="44.5043" lon="4.22337">
        <ele>270.5</ele>
        <time>2020-07-21T06:37:59Z</time>
      </trkpt>
      <trkpt lat="44.50426" lon="4.22337">
        <ele>270.4</ele>
        <time>2020-07-21T06:37:57Z</time>
      </trkpt>
      <trkpt lat="44.5042" lon="4.22316">
        <ele>270.1</ele>
        <time>2020-07-21T06:37:56Z</time>
      </trkpt>
      <trkpt lat="44.50416" lon="4.22313">
        <ele>269.9</ele>
        <time>2020-07-21T06:37:55Z</time>
      </trkpt>
      <trkpt lat="44.50414" lon="4.22319">
        <ele>269.8</ele>
        <time>2020-07-21T06:37:53Z</time>
      </trkpt>
      <trkpt lat="44.50417" lon="4.22327">
        <ele>269.7</ele>
        <time>2020-07-21T06:37:52Z</time>
      </trkpt>
      <trkpt lat="44.50415" lon="4.2233">
        <ele>269.6</ele>
        <time>2020-07-21T06:37:51Z</time>
      </trkpt>
      <trkpt lat="44.50412" lon="4.22331">
        <ele>269.6</ele>
        <time>2020-07-21T06:37:50Z</time>
      </trkpt>
      <trkpt lat="44.50406" lon="4.22327">
        <ele>269.4</ele>
        <time>2020-07-21T06:37:48Z</time>
      </trkpt>
      <trkpt lat="44.50398" lon="4.2232">
        <ele>269.2</ele>
        <time>2020-07-21T06:37:47Z</time>
      </trkpt>
      <trkpt lat="44.50397" lon="4.22319">
        <ele>269.2</ele>
        <time>2020-07-21T06:37:46Z</time>
      </trkpt>
      <trkpt lat="44.50396" lon="4.22317">
        <ele>269.1</ele>
        <time>2020-07-21T06:37:45Z</time>
      </trkpt>
      <trkpt lat="44.50396" lon="4.22316">
        <ele>269.1</ele>
        <time>2020-07-21T06:37:44Z</time>
      </trkpt>
      <trkpt lat="44.50394" lon="4.2231">
        <ele>269</ele>
        <time>2020-07-21T06:37:42Z</time>
      </trkpt>
      <trkpt lat="44.50392" lon="4.22306">
        <ele>268.9</ele>
        <time>2020-07-21T06:37:41Z</time>
      </trkpt>
      <trkpt lat="44.5039" lon="4.22303">
        <ele>268.8</ele>
        <time>2020-07-21T06:37:39Z</time>
      </trkpt>
      <trkpt lat="44.50386" lon="4.223">
        <ele>268.7</ele>
        <time>2020-07-21T06:37:37Z</time>
      </trkpt>
      <trkpt lat="44.50385" lon="4.22299">
        <ele>268.7</ele>
        <time>2020-07-21T06:37:36Z</time>
      </trkpt>
      <trkpt lat="44.5038" lon="4.22299">
        <ele>268.5</ele>
        <time>2020-07-21T06:37:35Z</time>
      </trkpt>
      <trkpt lat="44.50376" lon="4.223">
        <ele>268.4</ele>
        <time>2020-07-21T06:37:33Z</time>
      </trkpt>
      <trkpt lat="44.50375" lon="4.22301">
        <ele>268.4</ele>
        <time>2020-07-21T06:37:32Z</time>
      </trkpt>
      <trkpt lat="44.50372" lon="4.22303">
        <ele>268.3</ele>
        <time>2020-07-21T06:37:31Z</time>
      </trkpt>
      <trkpt lat="44.50368" lon="4.22305">
        <ele>268.1</ele>
        <time>2020-07-21T06:37:29Z</time>
      </trkpt>
      <trkpt lat="44.50363" lon="4.22306">
        <ele>267.9</ele>
        <time>2020-07-21T06:37:27Z</time>
      </trkpt>
      <trkpt lat="44.5036" lon="4.22307">
        <ele>267.8</ele>
        <time>2020-07-21T06:37:25Z</time>
      </trkpt>
      <trkpt lat="44.50357" lon="4.22308">
        <ele>267.7</ele>
        <time>2020-07-21T06:37:24Z</time>
      </trkpt>
      <trkpt lat="44.5035" lon="4.22309">
        <ele>267.4</ele>
        <time>2020-07-21T06:37:22Z</time>
      </trkpt>
      <trkpt lat="44.50347" lon="4.22309">
        <ele>267.3</ele>
        <time>2020-07-21T06:37:21Z</time>
      </trkpt>
      <trkpt lat="44.50344" lon="4.22309">
        <ele>267.2</ele>
        <time>2020-07-21T06:37:20Z</time>
      </trkpt>
      <trkpt lat="44.50341" lon="4.22309">
        <ele>267</ele>
        <time>2020-07-21T06:37:19Z</time>
      </trkpt>
      <trkpt lat="44.5034" lon="4.22309">
        <ele>267</ele>
        <time>2020-07-21T06:37:18Z</time>
      </trkpt>
      <trkpt lat="44.50337" lon="4.22309">
        <ele>266.8</ele>
        <time>2020-07-21T06:37:17Z</time>
      </trkpt>
      <trkpt lat="44.50336" lon="4.22315">
        <ele>266.6</ele>
        <time>2020-07-21T06:37:15Z</time>
      </trkpt>
      <trkpt lat="44.50333" lon="4.22316">
        <ele>266.5</ele>
        <time>2020-07-21T06:37:14Z</time>
      </trkpt>
      <trkpt lat="44.50328" lon="4.22316">
        <ele>266.2</ele>
        <time>2020-07-21T06:37:12Z</time>
      </trkpt>
      <trkpt lat="44.50326" lon="4.22312">
        <ele>266.1</ele>
        <time>2020-07-21T06:37:10Z</time>
      </trkpt>
      <trkpt lat="44.50327" lon="4.22309">
        <ele>265.9</ele>
        <time>2020-07-21T06:37:09Z</time>
      </trkpt>
      <trkpt lat="44.50327" lon="4.22307">
        <ele>265.9</ele>
        <time>2020-07-21T06:37:08Z</time>
      </trkpt>
      <trkpt lat="44.50328" lon="4.22306">
        <ele>265.8</ele>
        <time>2020-07-21T06:37:07Z</time>
      </trkpt>
      <trkpt lat="44.50328" lon="4.22306">
        <ele>265.8</ele>
        <time>2020-07-21T06:37:05Z</time>
      </trkpt>
      <trkpt lat="44.50327" lon="4.22305">
        <ele>265.8</ele>
        <time>2020-07-21T06:37:04Z</time>
      </trkpt>
      <trkpt lat="44.50327" lon="4.22305">
        <ele>265.8</ele>
        <time>2020-07-21T06:37:03Z</time>
      </trkpt>
      <trkpt lat="44.50326" lon="4.22303">
        <ele>265.7</ele>
        <time>2020-07-21T06:37:01Z</time>
      </trkpt>
      <trkpt lat="44.50324" lon="4.22301">
        <ele>265.6</ele>
        <time>2020-07-21T06:37:00Z</time>
      </trkpt>
      <trkpt lat="44.50322" lon="4.22298">
        <ele>265.4</ele>
        <time>2020-07-21T06:36:58Z</time>
      </trkpt>
      <trkpt lat="44.50314" lon="4.22289">
        <ele>264.8</ele>
        <time>2020-07-21T06:36:57Z</time>
      </trkpt>
      <trkpt lat="44.50298" lon="4.22273">
        <ele>263.8</ele>
        <time>2020-07-21T06:36:55Z</time>
      </trkpt>
      <trkpt lat="44.50286" lon="4.22261">
        <ele>263</ele>
        <time>2020-07-21T06:36:54Z</time>
      </trkpt>
      <trkpt lat="44.5028" lon="4.22259">
        <ele>262.8</ele>
        <time>2020-07-21T06:36:52Z</time>
      </trkpt>
      <trkpt lat="44.50279" lon="4.22259">
        <ele>262.7</ele>
        <time>2020-07-21T06:36:51Z</time>
      </trkpt>
      <trkpt lat="44.50275" lon="4.22257">
        <ele>262.5</ele>
        <time>2020-07-21T06:36:49Z</time>
      </trkpt>
      <trkpt lat="44.50274" lon="4.22256">
        <ele>262.5</ele>
        <time>2020-07-21T06:36:48Z</time>
      </trkpt>
      <trkpt lat="44.50272" lon="4.22256">
        <ele>262.4</ele>
        <time>2020-07-21T06:36:47Z</time>
      </trkpt>
      <trkpt lat="44.50272" lon="4.22255">
        <ele>262.3</ele>
        <time>2020-07-21T06:36:46Z</time>
      </trkpt>
      <trkpt lat="44.50271" lon="4.22253">
        <ele>262.3</ele>
        <time>2020-07-21T06:36:44Z</time>
      </trkpt>
      <trkpt lat="44.5027" lon="4.22252">
        <ele>262.2</ele>
        <time>2020-07-21T06:36:43Z</time>
      </trkpt>
      <trkpt lat="44.50266" lon="4.22251">
        <ele>262</ele>
        <time>2020-07-21T06:36:42Z</time>
      </trkpt>
      <trkpt lat="44.50265" lon="4.2225">
        <ele>262</ele>
        <time>2020-07-21T06:36:41Z</time>
      </trkpt>
      <trkpt lat="44.50264" lon="4.22248">
        <ele>261.9</ele>
        <time>2020-07-21T06:36:40Z</time>
      </trkpt>
      <trkpt lat="44.50259" lon="4.22245">
        <ele>261.7</ele>
        <time>2020-07-21T06:36:38Z</time>
      </trkpt>
      <trkpt lat="44.50256" lon="4.22242">
        <ele>261.5</ele>
        <time>2020-07-21T06:36:37Z</time>
      </trkpt>
      <trkpt lat="44.50254" lon="4.22239">
        <ele>261.4</ele>
        <time>2020-07-21T06:36:36Z</time>
      </trkpt>
      <trkpt lat="44.50251" lon="4.22236">
        <ele>261.2</ele>
        <time>2020-07-21T06:36:35Z</time>
      </trkpt>
      <trkpt lat="44.50249" lon="4.22232">
        <ele>261.1</ele>
        <time>2020-07-21T06:36:34Z</time>
      </trkpt>
      <trkpt lat="44.50247" lon="4.22227">
        <ele>260.5</ele>
        <time>2020-07-21T06:36:33Z</time>
      </trkpt>
      <trkpt lat="44.50245" lon="4.22224">
        <ele>260.4</ele>
        <time>2020-07-21T06:36:31Z</time>
      </trkpt>
      <trkpt lat="44.50244" lon="4.22222">
        <ele>260.3</ele>
        <time>2020-07-21T06:36:30Z</time>
      </trkpt>
      <trkpt lat="44.50242" lon="4.2222">
        <ele>260.2</ele>
        <time>2020-07-21T06:36:28Z</time>
      </trkpt>
      <trkpt lat="44.50241" lon="4.22219">
        <ele>260.1</ele>
        <time>2020-07-21T06:36:27Z</time>
      </trkpt>
      <trkpt lat="44.50238" lon="4.22217">
        <ele>260</ele>
        <time>2020-07-21T06:36:26Z</time>
      </trkpt>
      <trkpt lat="44.50238" lon="4.22215">
        <ele>259.9</ele>
        <time>2020-07-21T06:36:24Z</time>
      </trkpt>
      <trkpt lat="44.50237" lon="4.22213">
        <ele>259.8</ele>
        <time>2020-07-21T06:36:23Z</time>
      </trkpt>
      <trkpt lat="44.50232" lon="4.2221">
        <ele>259.6</ele>
        <time>2020-07-21T06:36:22Z</time>
      </trkpt>
      <trkpt lat="44.5023" lon="4.22209">
        <ele>259.5</ele>
        <time>2020-07-21T06:36:20Z</time>
      </trkpt>
      <trkpt lat="44.50229" lon="4.22207">
        <ele>259.4</ele>
        <time>2020-07-21T06:36:19Z</time>
      </trkpt>
      <trkpt lat="44.50227" lon="4.22206">
        <ele>259.3</ele>
        <time>2020-07-21T06:36:17Z</time>
      </trkpt>
      <trkpt lat="44.50225" lon="4.22204">
        <ele>259.2</ele>
        <time>2020-07-21T06:36:16Z</time>
      </trkpt>
      <trkpt lat="44.50225" lon="4.22203">
        <ele>259.2</ele>
        <time>2020-07-21T06:36:15Z</time>
      </trkpt>
      <trkpt lat="44.50222" lon="4.22201">
        <ele>259.1</ele>
        <time>2020-07-21T06:36:13Z</time>
      </trkpt>
      <trkpt lat="44.5022" lon="4.22199">
        <ele>259</ele>
        <time>2020-07-21T06:36:12Z</time>
      </trkpt>
      <trkpt lat="44.50217" lon="4.22196">
        <ele>258.9</ele>
        <time>2020-07-21T06:36:10Z</time>
      </trkpt>
      <trkpt lat="44.50214" lon="4.22193">
        <ele>258.3</ele>
        <time>2020-07-21T06:36:09Z</time>
      </trkpt>
      <trkpt lat="44.5021" lon="4.22191">
        <ele>257.7</ele>
        <time>2020-07-21T06:36:07Z</time>
      </trkpt>
      <trkpt lat="44.50209" lon="4.2219">
        <ele>257.7</ele>
        <time>2020-07-21T06:36:06Z</time>
      </trkpt>
      <trkpt lat="44.50206" lon="4.22196">
        <ele>257.1</ele>
        <time>2020-07-21T06:36:05Z</time>
      </trkpt>
      <trkpt lat="44.50203" lon="4.22197">
        <ele>256.6</ele>
        <time>2020-07-21T06:36:04Z</time>
      </trkpt>
      <trkpt lat="44.50199" lon="4.22198">
        <ele>256</ele>
        <time>2020-07-21T06:36:02Z</time>
      </trkpt>
      <trkpt lat="44.50197" lon="4.22198">
        <ele>255.5</ele>
        <time>2020-07-21T06:36:01Z</time>
      </trkpt>
      <trkpt lat="44.50194" lon="4.22197">
        <ele>254.9</ele>
        <time>2020-07-21T06:35:59Z</time>
      </trkpt>
      <trkpt lat="44.50191" lon="4.22194">
        <ele>254.4</ele>
        <time>2020-07-21T06:35:58Z</time>
      </trkpt>
      <trkpt lat="44.50189" lon="4.22192">
        <ele>253.8</ele>
        <time>2020-07-21T06:35:56Z</time>
      </trkpt>
      <trkpt lat="44.50188" lon="4.2219">
        <ele>253.8</ele>
        <time>2020-07-21T06:35:55Z</time>
      </trkpt>
      <trkpt lat="44.50184" lon="4.22204">
        <ele>253.4</ele>
        <time>2020-07-21T06:35:54Z</time>
      </trkpt>
      <trkpt lat="44.50182" lon="4.22204">
        <ele>252.9</ele>
        <time>2020-07-21T06:35:53Z</time>
      </trkpt>
      <trkpt lat="44.50179" lon="4.22204">
        <ele>252.4</ele>
        <time>2020-07-21T06:35:51Z</time>
      </trkpt>
      <trkpt lat="44.50178" lon="4.22203">
        <ele>252.4</ele>
        <time>2020-07-21T06:35:50Z</time>
      </trkpt>
      <trkpt lat="44.50175" lon="4.22202">
        <ele>251.9</ele>
        <time>2020-07-21T06:35:49Z</time>
      </trkpt>
      <trkpt lat="44.50173" lon="4.22204">
        <ele>251.3</ele>
        <time>2020-07-21T06:35:48Z</time>
      </trkpt>
      <trkpt lat="44.50172" lon="4.22202">
        <ele>251.3</ele>
        <time>2020-07-21T06:35:46Z</time>
      </trkpt>
      <trkpt lat="44.50171" lon="4.22202">
        <ele>251.3</ele>
        <time>2020-07-21T06:35:45Z</time>
      </trkpt>
      <trkpt lat="44.50171" lon="4.22203">
        <ele>251.3</ele>
        <time>2020-07-21T06:35:44Z</time>
      </trkpt>
      <trkpt lat="44.50171" lon="4.22203">
        <ele>250.7</ele>
        <time>2020-07-21T06:35:43Z</time>
      </trkpt>
      <trkpt lat="44.50171" lon="4.22203">
        <ele>250.7</ele>
        <time>2020-07-21T06:35:42Z</time>
      </trkpt>
      <trkpt lat="44.5017" lon="4.22203">
        <ele>250.7</ele>
        <time>2020-07-21T06:35:40Z</time>
      </trkpt>
      <trkpt lat="44.5017" lon="4.22204">
        <ele>250.7</ele>
        <time>2020-07-21T06:35:39Z</time>
      </trkpt>
      <trkpt lat="44.5017" lon="4.22204">
        <ele>250.7</ele>
        <time>2020-07-21T06:35:38Z</time>
      </trkpt>
      <trkpt lat="44.50169" lon="4.22204">
        <ele>250.7</ele>
        <time>2020-07-21T06:35:36Z</time>
      </trkpt>
      <trkpt lat="44.50169" lon="4.22205">
        <ele>250.7</ele>
        <time>2020-07-21T06:35:35Z</time>
      </trkpt>
      <trkpt lat="44.50169" lon="4.22205">
        <ele>250.7</ele>
        <time>2020-07-21T06:35:34Z</time>
      </trkpt>
      <trkpt lat="44.50169" lon="4.22207">
        <ele>250.6</ele>
        <time>2020-07-21T06:35:33Z</time>
      </trkpt>
      <trkpt lat="44.50166" lon="4.22202">
        <ele>250</ele>
        <time>2020-07-21T06:35:31Z</time>
      </trkpt>
      <trkpt lat="44.50164" lon="4.222">
        <ele>249.4</ele>
        <time>2020-07-21T06:35:30Z</time>
      </trkpt>
      <trkpt lat="44.50164" lon="4.222">
        <ele>249.4</ele>
        <time>2020-07-21T06:35:29Z</time>
      </trkpt>
      <trkpt lat="44.50162" lon="4.222">
        <ele>249.4</ele>
        <time>2020-07-21T06:35:27Z</time>
      </trkpt>
      <trkpt lat="44.50162" lon="4.222">
        <ele>248.8</ele>
        <time>2020-07-21T06:35:26Z</time>
      </trkpt>
      <trkpt lat="44.50161" lon="4.22201">
        <ele>248.8</ele>
        <time>2020-07-21T06:35:24Z</time>
      </trkpt>
      <trkpt lat="44.50159" lon="4.22203">
        <ele>248.7</ele>
        <time>2020-07-21T06:35:23Z</time>
      </trkpt>
      <trkpt lat="44.50157" lon="4.22206">
        <ele>248</ele>
        <time>2020-07-21T06:35:22Z</time>
      </trkpt>
      <trkpt lat="44.50154" lon="4.22212">
        <ele>247.4</ele>
        <time>2020-07-21T06:35:20Z</time>
      </trkpt>
      <trkpt lat="44.50153" lon="4.22216">
        <ele>247.3</ele>
        <time>2020-07-21T06:35:19Z</time>
      </trkpt>
      <trkpt lat="44.50152" lon="4.2222">
        <ele>246.7</ele>
        <time>2020-07-21T06:35:18Z</time>
      </trkpt>
      <trkpt lat="44.50152" lon="4.22224">
        <ele>246.7</ele>
        <time>2020-07-21T06:35:17Z</time>
      </trkpt>
      <trkpt lat="44.50151" lon="4.22228">
        <ele>246.6</ele>
        <time>2020-07-21T06:35:16Z</time>
      </trkpt>
      <trkpt lat="44.50149" lon="4.22227">
        <ele>246.2</ele>
        <time>2020-07-21T06:35:15Z</time>
      </trkpt>
      <trkpt lat="44.50146" lon="4.22228">
        <ele>245.6</ele>
        <time>2020-07-21T06:35:14Z</time>
      </trkpt>
      <trkpt lat="44.50146" lon="4.22229">
        <ele>245.6</ele>
        <time>2020-07-21T06:35:13Z</time>
      </trkpt>
      <trkpt lat="44.50145" lon="4.22234">
        <ele>245.5</ele>
        <time>2020-07-21T06:35:11Z</time>
      </trkpt>
      <trkpt lat="44.50144" lon="4.22236">
        <ele>245.4</ele>
        <time>2020-07-21T06:35:10Z</time>
      </trkpt>
      <trkpt lat="44.50144" lon="4.2224">
        <ele>245.3</ele>
        <time>2020-07-21T06:35:08Z</time>
      </trkpt>
      <trkpt lat="44.50144" lon="4.22244">
        <ele>245.2</ele>
        <time>2020-07-21T06:35:07Z</time>
      </trkpt>
      <trkpt lat="44.50144" lon="4.22247">
        <ele>245.2</ele>
        <time>2020-07-21T06:35:05Z</time>
      </trkpt>
      <trkpt lat="44.50143" lon="4.22248">
        <ele>244.4</ele>
        <time>2020-07-21T06:35:04Z</time>
      </trkpt>
      <trkpt lat="44.50143" lon="4.2225">
        <ele>244.4</ele>
        <time>2020-07-21T06:35:02Z</time>
      </trkpt>
      <trkpt lat="44.50144" lon="4.22256">
        <ele>244.9</ele>
        <time>2020-07-21T06:35:01Z</time>
      </trkpt>
      <trkpt lat="44.50143" lon="4.22258">
        <ele>244.8</ele>
        <time>2020-07-21T06:35:00Z</time>
      </trkpt>
      <trkpt lat="44.50144" lon="4.2226">
        <ele>244.8</ele>
        <time>2020-07-21T06:34:59Z</time>
      </trkpt>
      <trkpt lat="44.50144" lon="4.22261">
        <ele>244.6</ele>
        <time>2020-07-21T06:34:58Z</time>
      </trkpt>
      <trkpt lat="44.50144" lon="4.22265">
        <ele>244.6</ele>
        <time>2020-07-21T06:34:56Z</time>
      </trkpt>
      <trkpt lat="44.50144" lon="4.22266">
        <ele>244.5</ele>
        <time>2020-07-21T06:34:55Z</time>
      </trkpt>
      <trkpt lat="44.50144" lon="4.22268">
        <ele>244.5</ele>
        <time>2020-07-21T06:34:54Z</time>
      </trkpt>
      <trkpt lat="44.50144" lon="4.2227">
        <ele>244.3</ele>
        <time>2020-07-21T06:34:53Z</time>
      </trkpt>
      <trkpt lat="44.50143" lon="4.22277">
        <ele>243.5</ele>
        <time>2020-07-21T06:34:51Z</time>
      </trkpt>
      <trkpt lat="44.50143" lon="4.2228">
        <ele>243.3</ele>
        <time>2020-07-21T06:34:49Z</time>
      </trkpt>
      <trkpt lat="44.50143" lon="4.22282">
        <ele>243.3</ele>
        <time>2020-07-21T06:34:48Z</time>
      </trkpt>
      <trkpt lat="44.50142" lon="4.22284">
        <ele>243.1</ele>
        <time>2020-07-21T06:34:46Z</time>
      </trkpt>
      <trkpt lat="44.50142" lon="4.22286">
        <ele>243.1</ele>
        <time>2020-07-21T06:34:45Z</time>
      </trkpt>
      <trkpt lat="44.50142" lon="4.22288">
        <ele>242.9</ele>
        <time>2020-07-21T06:34:44Z</time>
      </trkpt>
      <trkpt lat="44.50142" lon="4.22292">
        <ele>242.7</ele>
        <time>2020-07-21T06:34:42Z</time>
      </trkpt>
      <trkpt lat="44.50142" lon="4.22304">
        <ele>242.2</ele>
        <time>2020-07-21T06:34:40Z</time>
      </trkpt>
      <trkpt lat="44.50141" lon="4.22309">
        <ele>241.7</ele>
        <time>2020-07-21T06:34:38Z</time>
      </trkpt>
      <trkpt lat="44.50141" lon="4.22312">
        <ele>241.7</ele>
        <time>2020-07-21T06:34:37Z</time>
      </trkpt>
      <trkpt lat="44.50141" lon="4.22317">
        <ele>241.5</ele>
        <time>2020-07-21T06:34:35Z</time>
      </trkpt>
      <trkpt lat="44.5015" lon="4.22332">
        <ele>242.5</ele>
        <time>2020-07-21T06:34:34Z</time>
      </trkpt>
      <trkpt lat="44.50152" lon="4.22341">
        <ele>242.1</ele>
        <time>2020-07-21T06:34:32Z</time>
      </trkpt>
      <trkpt lat="44.50153" lon="4.22345">
        <ele>242.3</ele>
        <time>2020-07-21T06:34:31Z</time>
      </trkpt>
      <trkpt lat="44.50153" lon="4.22353">
        <ele>241.9</ele>
        <time>2020-07-21T06:34:29Z</time>
      </trkpt>
      <trkpt lat="44.50153" lon="4.22355">
        <ele>241.4</ele>
        <time>2020-07-21T06:34:28Z</time>
      </trkpt>
      <trkpt lat="44.50152" lon="4.22361">
        <ele>240.9</ele>
        <time>2020-07-21T06:34:27Z</time>
      </trkpt>
      <trkpt lat="44.5015" lon="4.22366">
        <ele>240.7</ele>
        <time>2020-07-21T06:34:25Z</time>
      </trkpt>
      <trkpt lat="44.50149" lon="4.2237">
        <ele>240</ele>
        <time>2020-07-21T06:34:24Z</time>
      </trkpt>
      <trkpt lat="44.50149" lon="4.22371">
        <ele>240</ele>
        <time>2020-07-21T06:34:23Z</time>
      </trkpt>
      <trkpt lat="44.50148" lon="4.22376">
        <ele>239.7</ele>
        <time>2020-07-21T06:34:22Z</time>
      </trkpt>
      <trkpt lat="44.50147" lon="4.22379">
        <ele>239.4</ele>
        <time>2020-07-21T06:34:20Z</time>
      </trkpt>
      <trkpt lat="44.50146" lon="4.22381">
        <ele>239</ele>
        <time>2020-07-21T06:34:19Z</time>
      </trkpt>
      <trkpt lat="44.50144" lon="4.22386">
        <ele>238.3</ele>
        <time>2020-07-21T06:34:18Z</time>
      </trkpt>
      <trkpt lat="44.50143" lon="4.22391">
        <ele>237.5</ele>
        <time>2020-07-21T06:34:16Z</time>
      </trkpt>
      <trkpt lat="44.50141" lon="4.22395">
        <ele>237.2</ele>
        <time>2020-07-21T06:34:15Z</time>
      </trkpt>
      <trkpt lat="44.50142" lon="4.22396">
        <ele>237.2</ele>
        <time>2020-07-21T06:34:14Z</time>
      </trkpt>
      <trkpt lat="44.50142" lon="4.22401">
        <ele>236.9</ele>
        <time>2020-07-21T06:34:13Z</time>
      </trkpt>
      <trkpt lat="44.50142" lon="4.22409">
        <ele>237</ele>
        <time>2020-07-21T06:34:11Z</time>
      </trkpt>
      <trkpt lat="44.50142" lon="4.22412">
        <ele>237</ele>
        <time>2020-07-21T06:34:09Z</time>
      </trkpt>
      <trkpt lat="44.50142" lon="4.22418">
        <ele>237.1</ele>
        <time>2020-07-21T06:34:08Z</time>
      </trkpt>
      <trkpt lat="44.50143" lon="4.22422">
        <ele>237.1</ele>
        <time>2020-07-21T06:34:06Z</time>
      </trkpt>
      <trkpt lat="44.50144" lon="4.22424">
        <ele>237.1</ele>
        <time>2020-07-21T06:34:05Z</time>
      </trkpt>
      <trkpt lat="44.50145" lon="4.22426">
        <ele>237.2</ele>
        <time>2020-07-21T06:34:04Z</time>
      </trkpt>
      <trkpt lat="44.50146" lon="4.22428">
        <ele>237.2</ele>
        <time>2020-07-21T06:34:02Z</time>
      </trkpt>
      <trkpt lat="44.50148" lon="4.22432">
        <ele>237.2</ele>
        <time>2020-07-21T06:34:01Z</time>
      </trkpt>
      <trkpt lat="44.5015" lon="4.22436">
        <ele>237.3</ele>
        <time>2020-07-21T06:34:00Z</time>
      </trkpt>
      <trkpt lat="44.50155" lon="4.22443">
        <ele>237.4</ele>
        <time>2020-07-21T06:33:58Z</time>
      </trkpt>
      <trkpt lat="44.50155" lon="4.22445">
        <ele>237.4</ele>
        <time>2020-07-21T06:33:57Z</time>
      </trkpt>
      <trkpt lat="44.50158" lon="4.22448">
        <ele>236.3</ele>
        <time>2020-07-21T06:33:56Z</time>
      </trkpt>
      <trkpt lat="44.50159" lon="4.2245">
        <ele>236.1</ele>
        <time>2020-07-21T06:33:55Z</time>
      </trkpt>
      <trkpt lat="44.50162" lon="4.22453">
        <ele>235.5</ele>
        <time>2020-07-21T06:33:54Z</time>
      </trkpt>
      <trkpt lat="44.50163" lon="4.22454">
        <ele>235.4</ele>
        <time>2020-07-21T06:33:53Z</time>
      </trkpt>
      <trkpt lat="44.50165" lon="4.22456">
        <ele>235</ele>
        <time>2020-07-21T06:33:52Z</time>
      </trkpt>
      <trkpt lat="44.5017" lon="4.22464">
        <ele>233.9</ele>
        <time>2020-07-21T06:33:50Z</time>
      </trkpt>
      <trkpt lat="44.50171" lon="4.22465">
        <ele>233.7</ele>
        <time>2020-07-21T06:33:49Z</time>
      </trkpt>
      <trkpt lat="44.50173" lon="4.2247">
        <ele>233.2</ele>
        <time>2020-07-21T06:33:48Z</time>
      </trkpt>
      <trkpt lat="44.50174" lon="4.22472">
        <ele>233</ele>
        <time>2020-07-21T06:33:47Z</time>
      </trkpt>
      <trkpt lat="44.50174" lon="4.22474">
        <ele>232.8</ele>
        <time>2020-07-21T06:33:46Z</time>
      </trkpt>
      <trkpt lat="44.50175" lon="4.22476">
        <ele>232.6</ele>
        <time>2020-07-21T06:33:44Z</time>
      </trkpt>
      <trkpt lat="44.50177" lon="4.2248">
        <ele>232.2</ele>
        <time>2020-07-21T06:33:43Z</time>
      </trkpt>
      <trkpt lat="44.50178" lon="4.22482">
        <ele>231.9</ele>
        <time>2020-07-21T06:33:42Z</time>
      </trkpt>
      <trkpt lat="44.50179" lon="4.22484">
        <ele>231.7</ele>
        <time>2020-07-21T06:33:41Z</time>
      </trkpt>
      <trkpt lat="44.50181" lon="4.22492">
        <ele>230.8</ele>
        <time>2020-07-21T06:33:39Z</time>
      </trkpt>
      <trkpt lat="44.50183" lon="4.22495">
        <ele>230.5</ele>
        <time>2020-07-21T06:33:38Z</time>
      </trkpt>
      <trkpt lat="44.50184" lon="4.22497">
        <ele>230.3</ele>
        <time>2020-07-21T06:33:37Z</time>
      </trkpt>
      <trkpt lat="44.50185" lon="4.22499">
        <ele>230</ele>
        <time>2020-07-21T06:33:36Z</time>
      </trkpt>
      <trkpt lat="44.50189" lon="4.22504">
        <ele>229.4</ele>
        <time>2020-07-21T06:33:34Z</time>
      </trkpt>
      <trkpt lat="44.5019" lon="4.22505">
        <ele>229.2</ele>
        <time>2020-07-21T06:33:33Z</time>
      </trkpt>
      <trkpt lat="44.50192" lon="4.22508">
        <ele>228.9</ele>
        <time>2020-07-21T06:33:32Z</time>
      </trkpt>
      <trkpt lat="44.50194" lon="4.22511">
        <ele>228.6</ele>
        <time>2020-07-21T06:33:31Z</time>
      </trkpt>
      <trkpt lat="44.50195" lon="4.22511">
        <ele>228.5</ele>
        <time>2020-07-21T06:33:30Z</time>
      </trkpt>
      <trkpt lat="44.50198" lon="4.22514">
        <ele>228.2</ele>
        <time>2020-07-21T06:33:28Z</time>
      </trkpt>
      <trkpt lat="44.50199" lon="4.22515">
        <ele>228</ele>
        <time>2020-07-21T06:33:27Z</time>
      </trkpt>
      <trkpt lat="44.50202" lon="4.22518">
        <ele>227.8</ele>
        <time>2020-07-21T06:33:26Z</time>
      </trkpt>
      <trkpt lat="44.50205" lon="4.22525">
        <ele>227.2</ele>
        <time>2020-07-21T06:33:25Z</time>
      </trkpt>
      <trkpt lat="44.50207" lon="4.22529">
        <ele>226.9</ele>
        <time>2020-07-21T06:33:23Z</time>
      </trkpt>
      <trkpt lat="44.50209" lon="4.22535">
        <ele>226.5</ele>
        <time>2020-07-21T06:33:22Z</time>
      </trkpt>
      <trkpt lat="44.50211" lon="4.22539">
        <ele>226.2</ele>
        <time>2020-07-21T06:33:21Z</time>
      </trkpt>
      <trkpt lat="44.50213" lon="4.22542">
        <ele>225.8</ele>
        <time>2020-07-21T06:33:19Z</time>
      </trkpt>
      <trkpt lat="44.50216" lon="4.22545">
        <ele>225.4</ele>
        <time>2020-07-21T06:33:18Z</time>
      </trkpt>
      <trkpt lat="44.50219" lon="4.22548">
        <ele>224.9</ele>
        <time>2020-07-21T06:33:17Z</time>
      </trkpt>
      <trkpt lat="44.50221" lon="4.22551">
        <ele>224.7</ele>
        <time>2020-07-21T06:33:16Z</time>
      </trkpt>
      <trkpt lat="44.50223" lon="4.22553">
        <ele>224.5</ele>
        <time>2020-07-21T06:33:15Z</time>
      </trkpt>
      <trkpt lat="44.50226" lon="4.22556">
        <ele>224.3</ele>
        <time>2020-07-21T06:33:14Z</time>
      </trkpt>
      <trkpt lat="44.50228" lon="4.22559">
        <ele>224</ele>
        <time>2020-07-21T06:33:12Z</time>
      </trkpt>
      <trkpt lat="44.50232" lon="4.22562">
        <ele>223.7</ele>
        <time>2020-07-21T06:33:11Z</time>
      </trkpt>
      <trkpt lat="44.50236" lon="4.22566">
        <ele>223.4</ele>
        <time>2020-07-21T06:33:10Z</time>
      </trkpt>
      <trkpt lat="44.50239" lon="4.22568">
        <ele>223.2</ele>
        <time>2020-07-21T06:33:08Z</time>
      </trkpt>
      <trkpt lat="44.50243" lon="4.22571">
        <ele>222.9</ele>
        <time>2020-07-21T06:33:07Z</time>
      </trkpt>
      <trkpt lat="44.50247" lon="4.22574">
        <ele>222.6</ele>
        <time>2020-07-21T06:33:05Z</time>
      </trkpt>
      <trkpt lat="44.50251" lon="4.22575">
        <ele>222.3</ele>
        <time>2020-07-21T06:33:04Z</time>
      </trkpt>
      <trkpt lat="44.50246" lon="4.22581">
        <ele>221.9</ele>
        <time>2020-07-21T06:33:03Z</time>
      </trkpt>
      <trkpt lat="44.50246" lon="4.22582">
        <ele>221.8</ele>
        <time>2020-07-21T06:33:02Z</time>
      </trkpt>
      <trkpt lat="44.50248" lon="4.22586">
        <ele>221.6</ele>
        <time>2020-07-21T06:33:01Z</time>
      </trkpt>
      <trkpt lat="44.50254" lon="4.2259">
        <ele>221.2</ele>
        <time>2020-07-21T06:32:59Z</time>
      </trkpt>
      <trkpt lat="44.50256" lon="4.22593">
        <ele>221</ele>
        <time>2020-07-21T06:32:58Z</time>
      </trkpt>
      <trkpt lat="44.50257" lon="4.22594">
        <ele>221</ele>
        <time>2020-07-21T06:32:57Z</time>
      </trkpt>
      <trkpt lat="44.50258" lon="4.22596">
        <ele>220.9</ele>
        <time>2020-07-21T06:32:56Z</time>
      </trkpt>
      <trkpt lat="44.50258" lon="4.22599">
        <ele>220.8</ele>
        <time>2020-07-21T06:32:55Z</time>
      </trkpt>
      <trkpt lat="44.50262" lon="4.22605">
        <ele>219.9</ele>
        <time>2020-07-21T06:32:53Z</time>
      </trkpt>
      <trkpt lat="44.50262" lon="4.22608">
        <ele>219.8</ele>
        <time>2020-07-21T06:32:51Z</time>
      </trkpt>
      <trkpt lat="44.50261" lon="4.22612">
        <ele>219.2</ele>
        <time>2020-07-21T06:32:50Z</time>
      </trkpt>
      <trkpt lat="44.50262" lon="4.2263">
        <ele>216.7</ele>
        <time>2020-07-21T06:32:49Z</time>
      </trkpt>
      <trkpt lat="44.50258" lon="4.22645">
        <ele>214.1</ele>
        <time>2020-07-21T06:32:47Z</time>
      </trkpt>
      <trkpt lat="44.50254" lon="4.22657">
        <ele>212.1</ele>
        <time>2020-07-21T06:32:45Z</time>
      </trkpt>
      <trkpt lat="44.50251" lon="4.22672">
        <ele>210.3</ele>
        <time>2020-07-21T06:32:44Z</time>
      </trkpt>
      <trkpt lat="44.50245" lon="4.22686">
        <ele>208.7</ele>
        <time>2020-07-21T06:32:43Z</time>
      </trkpt>
      <trkpt lat="44.50234" lon="4.2271">
        <ele>206.4</ele>
        <time>2020-07-21T06:32:42Z</time>
      </trkpt>
      <trkpt lat="44.50227" lon="4.22727">
        <ele>205.6</ele>
        <time>2020-07-21T06:32:41Z</time>
      </trkpt>
      <trkpt lat="44.50223" lon="4.22753">
        <ele>205.8</ele>
        <time>2020-07-21T06:32:39Z</time>
      </trkpt>
      <trkpt lat="44.50222" lon="4.22767">
        <ele>206.4</ele>
        <time>2020-07-21T06:32:37Z</time>
      </trkpt>
      <trkpt lat="44.50219" lon="4.2277">
        <ele>206.5</ele>
        <time>2020-07-21T06:32:36Z</time>
      </trkpt>
      <trkpt lat="44.50218" lon="4.22774">
        <ele>206.9</ele>
        <time>2020-07-21T06:32:35Z</time>
      </trkpt>
      <trkpt lat="44.50216" lon="4.22779">
        <ele>207.1</ele>
        <time>2020-07-21T06:32:34Z</time>
      </trkpt>
      <trkpt lat="44.50214" lon="4.22783">
        <ele>207.5</ele>
        <time>2020-07-21T06:32:33Z</time>
      </trkpt>
      <trkpt lat="44.50213" lon="4.22785">
        <ele>207.8</ele>
        <time>2020-07-21T06:32:31Z</time>
      </trkpt>
      <trkpt lat="44.50212" lon="4.22788">
        <ele>207.8</ele>
        <time>2020-07-21T06:32:30Z</time>
      </trkpt>
      <trkpt lat="44.50214" lon="4.22795">
        <ele>208.8</ele>
        <time>2020-07-21T06:32:29Z</time>
      </trkpt>
      <trkpt lat="44.50214" lon="4.22796">
        <ele>208.8</ele>
        <time>2020-07-21T06:32:28Z</time>
      </trkpt>
      <trkpt lat="44.50213" lon="4.228">
        <ele>209.3</ele>
        <time>2020-07-21T06:32:26Z</time>
      </trkpt>
      <trkpt lat="44.50213" lon="4.22801">
        <ele>209.3</ele>
        <time>2020-07-21T06:32:25Z</time>
      </trkpt>
      <trkpt lat="44.50213" lon="4.22803">
        <ele>209.8</ele>
        <time>2020-07-21T06:32:24Z</time>
      </trkpt>
      <trkpt lat="44.50212" lon="4.22804">
        <ele>209.8</ele>
        <time>2020-07-21T06:32:22Z</time>
      </trkpt>
      <trkpt lat="44.50212" lon="4.22806">
        <ele>209.7</ele>
        <time>2020-07-21T06:32:21Z</time>
      </trkpt>
      <trkpt lat="44.50211" lon="4.22808">
        <ele>210.2</ele>
        <time>2020-07-21T06:32:20Z</time>
      </trkpt>
      <trkpt lat="44.50213" lon="4.22809">
        <ele>210.2</ele>
        <time>2020-07-21T06:32:19Z</time>
      </trkpt>
      <trkpt lat="44.50215" lon="4.22811">
        <ele>210.1</ele>
        <time>2020-07-21T06:32:17Z</time>
      </trkpt>
      <trkpt lat="44.50216" lon="4.22811">
        <ele>210.1</ele>
        <time>2020-07-21T06:32:16Z</time>
      </trkpt>
      <trkpt lat="44.50218" lon="4.22811">
        <ele>210</ele>
        <time>2020-07-21T06:32:14Z</time>
      </trkpt>
      <trkpt lat="44.5022" lon="4.22813">
        <ele>210</ele>
        <time>2020-07-21T06:32:13Z</time>
      </trkpt>
      <trkpt lat="44.50222" lon="4.22814">
        <ele>209.9</ele>
        <time>2020-07-21T06:32:11Z</time>
      </trkpt>
      <trkpt lat="44.50223" lon="4.22815">
        <ele>209.9</ele>
        <time>2020-07-21T06:32:10Z</time>
      </trkpt>
      <trkpt lat="44.50224" lon="4.22824">
        <ele>209.7</ele>
        <time>2020-07-21T06:32:09Z</time>
      </trkpt>
      <trkpt lat="44.50225" lon="4.22827">
        <ele>209.6</ele>
        <time>2020-07-21T06:32:07Z</time>
      </trkpt>
      <trkpt lat="44.50225" lon="4.2283">
        <ele>209.6</ele>
        <time>2020-07-21T06:32:06Z</time>
      </trkpt>
      <trkpt lat="44.50223" lon="4.22834">
        <ele>209.5</ele>
        <time>2020-07-21T06:32:05Z</time>
      </trkpt>
      <trkpt lat="44.50222" lon="4.22835">
        <ele>209.5</ele>
        <time>2020-07-21T06:32:04Z</time>
      </trkpt>
      <trkpt lat="44.50221" lon="4.22836">
        <ele>209.5</ele>
        <time>2020-07-21T06:32:03Z</time>
      </trkpt>
      <trkpt lat="44.50219" lon="4.22835">
        <ele>209.4</ele>
        <time>2020-07-21T06:32:01Z</time>
      </trkpt>
      <trkpt lat="44.50217" lon="4.22834">
        <ele>209.4</ele>
        <time>2020-07-21T06:32:00Z</time>
      </trkpt>
      <trkpt lat="44.50208" lon="4.22834">
        <ele>209.2</ele>
        <time>2020-07-21T06:31:59Z</time>
      </trkpt>
      <trkpt lat="44.50205" lon="4.22833">
        <ele>209.1</ele>
        <time>2020-07-21T06:31:57Z</time>
      </trkpt>
      <trkpt lat="44.50203" lon="4.22832">
        <ele>209.1</ele>
        <time>2020-07-21T06:31:56Z</time>
      </trkpt>
      <trkpt lat="44.50199" lon="4.22831">
        <ele>209</ele>
        <time>2020-07-21T06:31:55Z</time>
      </trkpt>
      <trkpt lat="44.50197" lon="4.22828">
        <ele>208.9</ele>
        <time>2020-07-21T06:31:53Z</time>
      </trkpt>
      <trkpt lat="44.50194" lon="4.22825">
        <ele>208.9</ele>
        <time>2020-07-21T06:31:52Z</time>
      </trkpt>
      <trkpt lat="44.50193" lon="4.22824">
        <ele>208.8</ele>
        <time>2020-07-21T06:31:51Z</time>
      </trkpt>
      <trkpt lat="44.5019" lon="4.22821">
        <ele>208.7</ele>
        <time>2020-07-21T06:31:50Z</time>
      </trkpt>
      <trkpt lat="44.50182" lon="4.22825">
        <ele>208.5</ele>
        <time>2020-07-21T06:31:48Z</time>
      </trkpt>
      <trkpt lat="44.5018" lon="4.22825">
        <ele>208.5</ele>
        <time>2020-07-21T06:31:47Z</time>
      </trkpt>
      <trkpt lat="44.50178" lon="4.22825">
        <ele>208.4</ele>
        <time>2020-07-21T06:31:46Z</time>
      </trkpt>
      <trkpt lat="44.50173" lon="4.22826">
        <ele>208.3</ele>
        <time>2020-07-21T06:31:44Z</time>
      </trkpt>
      <trkpt lat="44.50171" lon="4.22827">
        <ele>208.2</ele>
        <time>2020-07-21T06:31:43Z</time>
      </trkpt>
      <trkpt lat="44.50167" lon="4.22828">
        <ele>208.1</ele>
        <time>2020-07-21T06:31:42Z</time>
      </trkpt>
      <trkpt lat="44.50164" lon="4.22829">
        <ele>208.1</ele>
        <time>2020-07-21T06:31:40Z</time>
      </trkpt>
      <trkpt lat="44.50161" lon="4.2283">
        <ele>208</ele>
        <time>2020-07-21T06:31:39Z</time>
      </trkpt>
      <trkpt lat="44.50155" lon="4.2284">
        <ele>207.8</ele>
        <time>2020-07-21T06:31:38Z</time>
      </trkpt>
      <trkpt lat="44.50152" lon="4.22842">
        <ele>207.7</ele>
        <time>2020-07-21T06:31:37Z</time>
      </trkpt>
      <trkpt lat="44.5015" lon="4.22846">
        <ele>207.6</ele>
        <time>2020-07-21T06:31:36Z</time>
      </trkpt>
      <trkpt lat="44.50147" lon="4.22849">
        <ele>207.6</ele>
        <time>2020-07-21T06:31:35Z</time>
      </trkpt>
      <trkpt lat="44.50144" lon="4.22855">
        <ele>207.4</ele>
        <time>2020-07-21T06:31:33Z</time>
      </trkpt>
      <trkpt lat="44.50139" lon="4.22861">
        <ele>207.3</ele>
        <time>2020-07-21T06:31:32Z</time>
      </trkpt>
      <trkpt lat="44.50136" lon="4.22868">
        <ele>207.2</ele>
        <time>2020-07-21T06:31:30Z</time>
      </trkpt>
      <trkpt lat="44.50132" lon="4.22875">
        <ele>207</ele>
        <time>2020-07-21T06:31:29Z</time>
      </trkpt>
      <trkpt lat="44.50128" lon="4.22895">
        <ele>206.7</ele>
        <time>2020-07-21T06:31:27Z</time>
      </trkpt>
      <trkpt lat="44.50126" lon="4.22904">
        <ele>206.5</ele>
        <time>2020-07-21T06:31:26Z</time>
      </trkpt>
      <trkpt lat="44.50122" lon="4.22917">
        <ele>206.3</ele>
        <time>2020-07-21T06:31:25Z</time>
      </trkpt>
      <trkpt lat="44.50122" lon="4.22923">
        <ele>206.2</ele>
        <time>2020-07-21T06:31:24Z</time>
      </trkpt>
      <trkpt lat="44.50122" lon="4.2293">
        <ele>206.1</ele>
        <time>2020-07-21T06:31:23Z</time>
      </trkpt>
      <trkpt lat="44.50124" lon="4.22935">
        <ele>206</ele>
        <time>2020-07-21T06:31:21Z</time>
      </trkpt>
      <trkpt lat="44.50128" lon="4.22935">
        <ele>205.9</ele>
        <time>2020-07-21T06:31:20Z</time>
      </trkpt>
      <trkpt lat="44.50133" lon="4.22931">
        <ele>205.8</ele>
        <time>2020-07-21T06:31:19Z</time>
      </trkpt>
      <trkpt lat="44.50137" lon="4.22922">
        <ele>205.6</ele>
        <time>2020-07-21T06:31:17Z</time>
      </trkpt>
      <trkpt lat="44.50141" lon="4.22912">
        <ele>205.3</ele>
        <time>2020-07-21T06:31:16Z</time>
      </trkpt>
      <trkpt lat="44.50133" lon="4.22942">
        <ele>204.6</ele>
        <time>2020-07-21T06:31:14Z</time>
      </trkpt>
      <trkpt lat="44.50129" lon="4.22961">
        <ele>204.1</ele>
        <time>2020-07-21T06:31:12Z</time>
      </trkpt>
      <trkpt lat="44.50129" lon="4.22955">
        <ele>204</ele>
        <time>2020-07-21T06:31:11Z</time>
      </trkpt>
      <trkpt lat="44.50129" lon="4.22949">
        <ele>203.8</ele>
        <time>2020-07-21T06:31:10Z</time>
      </trkpt>
      <trkpt lat="44.50127" lon="4.22962">
        <ele>203.5</ele>
        <time>2020-07-21T06:31:08Z</time>
      </trkpt>
      <trkpt lat="44.50126" lon="4.22963">
        <ele>203.4</ele>
        <time>2020-07-21T06:31:07Z</time>
      </trkpt>
      <trkpt lat="44.50125" lon="4.22968">
        <ele>203.3</ele>
        <time>2020-07-21T06:31:05Z</time>
      </trkpt>
      <trkpt lat="44.50123" lon="4.22976">
        <ele>203.1</ele>
        <time>2020-07-21T06:31:03Z</time>
      </trkpt>
      <trkpt lat="44.50122" lon="4.22978">
        <ele>203.1</ele>
        <time>2020-07-21T06:31:02Z</time>
      </trkpt>
      <trkpt lat="44.50121" lon="4.22979">
        <ele>203.1</ele>
        <time>2020-07-21T06:31:01Z</time>
      </trkpt>
      <trkpt lat="44.5012" lon="4.22983">
        <ele>203</ele>
        <time>2020-07-21T06:31:00Z</time>
      </trkpt>
      <trkpt lat="44.5012" lon="4.22985">
        <ele>203</ele>
        <time>2020-07-21T06:30:59Z</time>
      </trkpt>
      <trkpt lat="44.5012" lon="4.22985">
        <ele>203</ele>
        <time>2020-07-21T06:30:58Z</time>
      </trkpt>
      <trkpt lat="44.5012" lon="4.22986">
        <ele>202.9</ele>
        <time>2020-07-21T06:30:56Z</time>
      </trkpt>
      <trkpt lat="44.5012" lon="4.22988">
        <ele>202.9</ele>
        <time>2020-07-21T06:30:55Z</time>
      </trkpt>
      <trkpt lat="44.50121" lon="4.22993">
        <ele>202.8</ele>
        <time>2020-07-21T06:30:54Z</time>
      </trkpt>
      <trkpt lat="44.50123" lon="4.22999">
        <ele>202.7</ele>
        <time>2020-07-21T06:30:53Z</time>
      </trkpt>
      <trkpt lat="44.50126" lon="4.23004">
        <ele>202.6</ele>
        <time>2020-07-21T06:30:52Z</time>
      </trkpt>
      <trkpt lat="44.50127" lon="4.23009">
        <ele>202.5</ele>
        <time>2020-07-21T06:30:50Z</time>
      </trkpt>
      <trkpt lat="44.50128" lon="4.23021">
        <ele>202.3</ele>
        <time>2020-07-21T06:30:48Z</time>
      </trkpt>
      <trkpt lat="44.5013" lon="4.23027">
        <ele>202.2</ele>
        <time>2020-07-21T06:30:47Z</time>
      </trkpt>
      <trkpt lat="44.50131" lon="4.23033">
        <ele>202.1</ele>
        <time>2020-07-21T06:30:46Z</time>
      </trkpt>
      <trkpt lat="44.50131" lon="4.23046">
        <ele>202</ele>
        <time>2020-07-21T06:30:44Z</time>
      </trkpt>
      <trkpt lat="44.50132" lon="4.23053">
        <ele>201.9</ele>
        <time>2020-07-21T06:30:43Z</time>
      </trkpt>
      <trkpt lat="44.50132" lon="4.23067">
        <ele>201.8</ele>
        <time>2020-07-21T06:30:41Z</time>
      </trkpt>
      <trkpt lat="44.50132" lon="4.23074">
        <ele>201.7</ele>
        <time>2020-07-21T06:30:40Z</time>
      </trkpt>
      <trkpt lat="44.50131" lon="4.23089">
        <ele>201.5</ele>
        <time>2020-07-21T06:30:38Z</time>
      </trkpt>
      <trkpt lat="44.50129" lon="4.23098">
        <ele>201.5</ele>
        <time>2020-07-21T06:30:37Z</time>
      </trkpt>
      <trkpt lat="44.50128" lon="4.23106">
        <ele>201.4</ele>
        <time>2020-07-21T06:30:36Z</time>
      </trkpt>
      <trkpt lat="44.50126" lon="4.23124">
        <ele>201.1</ele>
        <time>2020-07-21T06:30:34Z</time>
      </trkpt>
      <trkpt lat="44.50125" lon="4.23133">
        <ele>201</ele>
        <time>2020-07-21T06:30:33Z</time>
      </trkpt>
      <trkpt lat="44.50125" lon="4.23143">
        <ele>200.8</ele>
        <time>2020-07-21T06:30:32Z</time>
      </trkpt>
      <trkpt lat="44.50123" lon="4.23163">
        <ele>200.6</ele>
        <time>2020-07-21T06:30:30Z</time>
      </trkpt>
      <trkpt lat="44.50123" lon="4.23185">
        <ele>200.3</ele>
        <time>2020-07-21T06:30:28Z</time>
      </trkpt>
      <trkpt lat="44.50121" lon="4.23196">
        <ele>200.1</ele>
        <time>2020-07-21T06:30:27Z</time>
      </trkpt>
      <trkpt lat="44.5012" lon="4.23205">
        <ele>199.9</ele>
        <time>2020-07-21T06:30:26Z</time>
      </trkpt>
      <trkpt lat="44.50118" lon="4.2321">
        <ele>199.8</ele>
        <time>2020-07-21T06:30:24Z</time>
      </trkpt>
      <trkpt lat="44.50115" lon="4.23213">
        <ele>199.7</ele>
        <time>2020-07-21T06:30:22Z</time>
      </trkpt>
      <trkpt lat="44.50114" lon="4.23213">
        <ele>199.7</ele>
        <time>2020-07-21T06:30:21Z</time>
      </trkpt>
      <trkpt lat="44.50107" lon="4.23217">
        <ele>199.4</ele>
        <time>2020-07-21T06:30:19Z</time>
      </trkpt>
      <trkpt lat="44.50102" lon="4.2322">
        <ele>199.3</ele>
        <time>2020-07-21T06:30:18Z</time>
      </trkpt>
      <trkpt lat="44.501" lon="4.23223">
        <ele>199.2</ele>
        <time>2020-07-21T06:30:16Z</time>
      </trkpt>
      <trkpt lat="44.50097" lon="4.2323">
        <ele>199</ele>
        <time>2020-07-21T06:30:15Z</time>
      </trkpt>
      <trkpt lat="44.50096" lon="4.23237">
        <ele>198.9</ele>
        <time>2020-07-21T06:30:14Z</time>
      </trkpt>
      <trkpt lat="44.50096" lon="4.23243">
        <ele>198.8</ele>
        <time>2020-07-21T06:30:13Z</time>
      </trkpt>
      <trkpt lat="44.50098" lon="4.23255">
        <ele>198.6</ele>
        <time>2020-07-21T06:30:11Z</time>
      </trkpt>
      <trkpt lat="44.50099" lon="4.23259">
        <ele>198.5</ele>
        <time>2020-07-21T06:30:10Z</time>
      </trkpt>
      <trkpt lat="44.50101" lon="4.23264">
        <ele>198.4</ele>
        <time>2020-07-21T06:30:09Z</time>
      </trkpt>
      <trkpt lat="44.50102" lon="4.23268">
        <ele>198.3</ele>
        <time>2020-07-21T06:30:08Z</time>
      </trkpt>
      <trkpt lat="44.50104" lon="4.23273">
        <ele>198.1</ele>
        <time>2020-07-21T06:30:07Z</time>
      </trkpt>
      <trkpt lat="44.50108" lon="4.23284">
        <ele>197.9</ele>
        <time>2020-07-21T06:30:05Z</time>
      </trkpt>
      <trkpt lat="44.50111" lon="4.23295">
        <ele>197.7</ele>
        <time>2020-07-21T06:30:03Z</time>
      </trkpt>
      <trkpt lat="44.50113" lon="4.23301">
        <ele>197.6</ele>
        <time>2020-07-21T06:30:02Z</time>
      </trkpt>
      <trkpt lat="44.50118" lon="4.23312">
        <ele>197.4</ele>
        <time>2020-07-21T06:30:00Z</time>
      </trkpt>
      <trkpt lat="44.50122" lon="4.23317">
        <ele>197.2</ele>
        <time>2020-07-21T06:29:59Z</time>
      </trkpt>
      <trkpt lat="44.50129" lon="4.23327">
        <ele>197</ele>
        <time>2020-07-21T06:29:57Z</time>
      </trkpt>
      <trkpt lat="44.50136" lon="4.23336">
        <ele>196.8</ele>
        <time>2020-07-21T06:29:55Z</time>
      </trkpt>
      <trkpt lat="44.50144" lon="4.23345">
        <ele>196.5</ele>
        <time>2020-07-21T06:29:53Z</time>
      </trkpt>
      <trkpt lat="44.50153" lon="4.23353">
        <ele>196.3</ele>
        <time>2020-07-21T06:29:51Z</time>
      </trkpt>
      <trkpt lat="44.50157" lon="4.23358">
        <ele>196.1</ele>
        <time>2020-07-21T06:29:50Z</time>
      </trkpt>
      <trkpt lat="44.50161" lon="4.23363">
        <ele>195.9</ele>
        <time>2020-07-21T06:29:49Z</time>
      </trkpt>
      <trkpt lat="44.50168" lon="4.23374">
        <ele>195.5</ele>
        <time>2020-07-21T06:29:47Z</time>
      </trkpt>
      <trkpt lat="44.50172" lon="4.2338">
        <ele>195.2</ele>
        <time>2020-07-21T06:29:46Z</time>
      </trkpt>
      <trkpt lat="44.50175" lon="4.23394">
        <ele>194.8</ele>
        <time>2020-07-21T06:29:44Z</time>
      </trkpt>
      <trkpt lat="44.50177" lon="4.23401">
        <ele>194.7</ele>
        <time>2020-07-21T06:29:43Z</time>
      </trkpt>
      <trkpt lat="44.50178" lon="4.23408">
        <ele>194.6</ele>
        <time>2020-07-21T06:29:42Z</time>
      </trkpt>
      <trkpt lat="44.50179" lon="4.2342">
        <ele>194.3</ele>
        <time>2020-07-21T06:29:40Z</time>
      </trkpt>
      <trkpt lat="44.5018" lon="4.23427">
        <ele>194.2</ele>
        <time>2020-07-21T06:29:39Z</time>
      </trkpt>
      <trkpt lat="44.50182" lon="4.23439">
        <ele>194</ele>
        <time>2020-07-21T06:29:37Z</time>
      </trkpt>
      <trkpt lat="44.50183" lon="4.23445">
        <ele>193.9</ele>
        <time>2020-07-21T06:29:36Z</time>
      </trkpt>
      <trkpt lat="44.50184" lon="4.23451">
        <ele>193.8</ele>
        <time>2020-07-21T06:29:35Z</time>
      </trkpt>
      <trkpt lat="44.50187" lon="4.23462">
        <ele>193.6</ele>
        <time>2020-07-21T06:29:33Z</time>
      </trkpt>
      <trkpt lat="44.5019" lon="4.23471">
        <ele>193.4</ele>
        <time>2020-07-21T06:29:31Z</time>
      </trkpt>
      <trkpt lat="44.50192" lon="4.23477">
        <ele>193.3</ele>
        <time>2020-07-21T06:29:30Z</time>
      </trkpt>
      <trkpt lat="44.50195" lon="4.23488">
        <ele>193</ele>
        <time>2020-07-21T06:29:28Z</time>
      </trkpt>
      <trkpt lat="44.50197" lon="4.23494">
        <ele>192.9</ele>
        <time>2020-07-21T06:29:27Z</time>
      </trkpt>
      <trkpt lat="44.50201" lon="4.23506">
        <ele>192.6</ele>
        <time>2020-07-21T06:29:25Z</time>
      </trkpt>
      <trkpt lat="44.50203" lon="4.23513">
        <ele>192.5</ele>
        <time>2020-07-21T06:29:24Z</time>
      </trkpt>
      <trkpt lat="44.50205" lon="4.2352">
        <ele>192.4</ele>
        <time>2020-07-21T06:29:23Z</time>
      </trkpt>
      <trkpt lat="44.50208" lon="4.23534">
        <ele>192.2</ele>
        <time>2020-07-21T06:29:21Z</time>
      </trkpt>
      <trkpt lat="44.50208" lon="4.23542">
        <ele>192</ele>
        <time>2020-07-21T06:29:20Z</time>
      </trkpt>
      <trkpt lat="44.50205" lon="4.23558">
        <ele>191.7</ele>
        <time>2020-07-21T06:29:18Z</time>
      </trkpt>
      <trkpt lat="44.50201" lon="4.23573">
        <ele>191.4</ele>
        <time>2020-07-21T06:29:16Z</time>
      </trkpt>
      <trkpt lat="44.502" lon="4.23581">
        <ele>191.3</ele>
        <time>2020-07-21T06:29:15Z</time>
      </trkpt>
      <trkpt lat="44.50199" lon="4.23589">
        <ele>191.2</ele>
        <time>2020-07-21T06:29:14Z</time>
      </trkpt>
      <trkpt lat="44.50198" lon="4.23596">
        <ele>191.1</ele>
        <time>2020-07-21T06:29:13Z</time>
      </trkpt>
      <trkpt lat="44.50197" lon="4.23603">
        <ele>191</ele>
        <time>2020-07-21T06:29:12Z</time>
      </trkpt>
      <trkpt lat="44.50196" lon="4.23618">
        <ele>190.8</ele>
        <time>2020-07-21T06:29:10Z</time>
      </trkpt>
      <trkpt lat="44.50194" lon="4.23633">
        <ele>190.7</ele>
        <time>2020-07-21T06:29:08Z</time>
      </trkpt>
      <trkpt lat="44.50192" lon="4.23642">
        <ele>190.6</ele>
        <time>2020-07-21T06:29:07Z</time>
      </trkpt>
      <trkpt lat="44.50191" lon="4.23651">
        <ele>190.6</ele>
        <time>2020-07-21T06:29:06Z</time>
      </trkpt>
      <trkpt lat="44.50187" lon="4.23668">
        <ele>190.5</ele>
        <time>2020-07-21T06:29:04Z</time>
      </trkpt>
      <trkpt lat="44.50186" lon="4.23677">
        <ele>190.5</ele>
        <time>2020-07-21T06:29:03Z</time>
      </trkpt>
      <trkpt lat="44.50183" lon="4.23696">
        <ele>190.4</ele>
        <time>2020-07-21T06:29:01Z</time>
      </trkpt>
      <trkpt lat="44.50181" lon="4.23714">
        <ele>190.3</ele>
        <time>2020-07-21T06:28:59Z</time>
      </trkpt>
      <trkpt lat="44.5018" lon="4.23724">
        <ele>190.3</ele>
        <time>2020-07-21T06:28:58Z</time>
      </trkpt>
      <trkpt lat="44.50179" lon="4.23733">
        <ele>190.3</ele>
        <time>2020-07-21T06:28:57Z</time>
      </trkpt>
      <trkpt lat="44.50179" lon="4.23742">
        <ele>190.3</ele>
        <time>2020-07-21T06:28:56Z</time>
      </trkpt>
      <trkpt lat="44.50177" lon="4.2376">
        <ele>190.4</ele>
        <time>2020-07-21T06:28:54Z</time>
      </trkpt>
      <trkpt lat="44.50175" lon="4.23779">
        <ele>190.5</ele>
        <time>2020-07-21T06:28:52Z</time>
      </trkpt>
      <trkpt lat="44.50173" lon="4.23796">
        <ele>190.6</ele>
        <time>2020-07-21T06:28:50Z</time>
      </trkpt>
      <trkpt lat="44.50167" lon="4.2381">
        <ele>190.6</ele>
        <time>2020-07-21T06:28:48Z</time>
      </trkpt>
      <trkpt lat="44.50163" lon="4.23815">
        <ele>190.6</ele>
        <time>2020-07-21T06:28:47Z</time>
      </trkpt>
      <trkpt lat="44.50153" lon="4.23821">
        <ele>190.6</ele>
        <time>2020-07-21T06:28:45Z</time>
      </trkpt>
      <trkpt lat="44.50143" lon="4.23829">
        <ele>190.4</ele>
        <time>2020-07-21T06:28:43Z</time>
      </trkpt>
      <trkpt lat="44.50138" lon="4.23833">
        <ele>190.3</ele>
        <time>2020-07-21T06:28:42Z</time>
      </trkpt>
      <trkpt lat="44.50129" lon="4.23844">
        <ele>190.1</ele>
        <time>2020-07-21T06:28:40Z</time>
      </trkpt>
      <trkpt lat="44.50125" lon="4.2385">
        <ele>190.1</ele>
        <time>2020-07-21T06:28:39Z</time>
      </trkpt>
      <trkpt lat="44.50117" lon="4.23862">
        <ele>190</ele>
        <time>2020-07-21T06:28:37Z</time>
      </trkpt>
      <trkpt lat="44.50112" lon="4.23869">
        <ele>190</ele>
        <time>2020-07-21T06:28:36Z</time>
      </trkpt>
      <trkpt lat="44.50103" lon="4.23881">
        <ele>189.9</ele>
        <time>2020-07-21T06:28:34Z</time>
      </trkpt>
      <trkpt lat="44.50093" lon="4.23893">
        <ele>189.9</ele>
        <time>2020-07-21T06:28:32Z</time>
      </trkpt>
      <trkpt lat="44.50084" lon="4.23905">
        <ele>189.8</ele>
        <time>2020-07-21T06:28:30Z</time>
      </trkpt>
      <trkpt lat="44.50075" lon="4.23917">
        <ele>189.8</ele>
        <time>2020-07-21T06:28:28Z</time>
      </trkpt>
      <trkpt lat="44.50065" lon="4.23929">
        <ele>189.7</ele>
        <time>2020-07-21T06:28:26Z</time>
      </trkpt>
      <trkpt lat="44.50056" lon="4.2394">
        <ele>189.7</ele>
        <time>2020-07-21T06:28:24Z</time>
      </trkpt>
      <trkpt lat="44.50047" lon="4.23951">
        <ele>189.7</ele>
        <time>2020-07-21T06:28:22Z</time>
      </trkpt>
      <trkpt lat="44.50038" lon="4.2396">
        <ele>189.7</ele>
        <time>2020-07-21T06:28:20Z</time>
      </trkpt>
      <trkpt lat="44.50034" lon="4.23964">
        <ele>189.7</ele>
        <time>2020-07-21T06:28:19Z</time>
      </trkpt>
      <trkpt lat="44.50025" lon="4.23974">
        <ele>189.8</ele>
        <time>2020-07-21T06:28:17Z</time>
      </trkpt>
      <trkpt lat="44.50017" lon="4.23983">
        <ele>189.7</ele>
        <time>2020-07-21T06:28:15Z</time>
      </trkpt>
      <trkpt lat="44.50012" lon="4.23987">
        <ele>189.7</ele>
        <time>2020-07-21T06:28:14Z</time>
      </trkpt>
      <trkpt lat="44.50007" lon="4.23991">
        <ele>189.6</ele>
        <time>2020-07-21T06:28:13Z</time>
      </trkpt>
      <trkpt lat="44.49998" lon="4.23999">
        <ele>189.5</ele>
        <time>2020-07-21T06:28:11Z</time>
      </trkpt>
      <trkpt lat="44.49988" lon="4.24007">
        <ele>189.4</ele>
        <time>2020-07-21T06:28:09Z</time>
      </trkpt>
      <trkpt lat="44.49978" lon="4.24015">
        <ele>189.3</ele>
        <time>2020-07-21T06:28:07Z</time>
      </trkpt>
      <trkpt lat="44.49974" lon="4.24018">
        <ele>189.2</ele>
        <time>2020-07-21T06:28:06Z</time>
      </trkpt>
      <trkpt lat="44.49964" lon="4.24025">
        <ele>189</ele>
        <time>2020-07-21T06:28:04Z</time>
      </trkpt>
      <trkpt lat="44.49958" lon="4.24028">
        <ele>189</ele>
        <time>2020-07-21T06:28:03Z</time>
      </trkpt>
      <trkpt lat="44.49947" lon="4.24032">
        <ele>188.8</ele>
        <time>2020-07-21T06:28:01Z</time>
      </trkpt>
      <trkpt lat="44.49941" lon="4.24034">
        <ele>188.8</ele>
        <time>2020-07-21T06:28:00Z</time>
      </trkpt>
      <trkpt lat="44.49936" lon="4.24036">
        <ele>188.7</ele>
        <time>2020-07-21T06:27:59Z</time>
      </trkpt>
      <trkpt lat="44.49925" lon="4.2404">
        <ele>188.7</ele>
        <time>2020-07-21T06:27:57Z</time>
      </trkpt>
      <trkpt lat="44.49913" lon="4.24042">
        <ele>188.6</ele>
        <time>2020-07-21T06:27:55Z</time>
      </trkpt>
      <trkpt lat="44.49907" lon="4.24043">
        <ele>188.6</ele>
        <time>2020-07-21T06:27:54Z</time>
      </trkpt>
      <trkpt lat="44.49895" lon="4.24044">
        <ele>188.6</ele>
        <time>2020-07-21T06:27:52Z</time>
      </trkpt>
      <trkpt lat="44.49889" lon="4.24044">
        <ele>188.5</ele>
        <time>2020-07-21T06:27:51Z</time>
      </trkpt>
      <trkpt lat="44.49882" lon="4.24045">
        <ele>188.4</ele>
        <time>2020-07-21T06:27:50Z</time>
      </trkpt>
      <trkpt lat="44.49871" lon="4.24046">
        <ele>188.3</ele>
        <time>2020-07-21T06:27:48Z</time>
      </trkpt>
      <trkpt lat="44.49859" lon="4.24047">
        <ele>188.2</ele>
        <time>2020-07-21T06:27:46Z</time>
      </trkpt>
      <trkpt lat="44.49853" lon="4.24048">
        <ele>188.1</ele>
        <time>2020-07-21T06:27:45Z</time>
      </trkpt>
      <trkpt lat="44.49842" lon="4.2405">
        <ele>188</ele>
        <time>2020-07-21T06:27:43Z</time>
      </trkpt>
      <trkpt lat="44.49836" lon="4.24051">
        <ele>187.9</ele>
        <time>2020-07-21T06:27:42Z</time>
      </trkpt>
      <trkpt lat="44.49825" lon="4.24053">
        <ele>187.9</ele>
        <time>2020-07-21T06:27:40Z</time>
      </trkpt>
      <trkpt lat="44.49818" lon="4.24053">
        <ele>187.9</ele>
        <time>2020-07-21T06:27:39Z</time>
      </trkpt>
      <trkpt lat="44.49805" lon="4.24052">
        <ele>187.9</ele>
        <time>2020-07-21T06:27:37Z</time>
      </trkpt>
      <trkpt lat="44.49798" lon="4.24051">
        <ele>187.9</ele>
        <time>2020-07-21T06:27:36Z</time>
      </trkpt>
      <trkpt lat="44.49785" lon="4.24049">
        <ele>188</ele>
        <time>2020-07-21T06:27:34Z</time>
      </trkpt>
      <trkpt lat="44.49772" lon="4.24045">
        <ele>188.1</ele>
        <time>2020-07-21T06:27:32Z</time>
      </trkpt>
      <trkpt lat="44.49765" lon="4.24043">
        <ele>188.2</ele>
        <time>2020-07-21T06:27:31Z</time>
      </trkpt>
      <trkpt lat="44.49754" lon="4.24038">
        <ele>188.3</ele>
        <time>2020-07-21T06:27:29Z</time>
      </trkpt>
      <trkpt lat="44.49749" lon="4.24035">
        <ele>188.3</ele>
        <time>2020-07-21T06:27:28Z</time>
      </trkpt>
      <trkpt lat="44.49738" lon="4.24028">
        <ele>188.3</ele>
        <time>2020-07-21T06:27:26Z</time>
      </trkpt>
      <trkpt lat="44.49727" lon="4.24023">
        <ele>188.4</ele>
        <time>2020-07-21T06:27:24Z</time>
      </trkpt>
      <trkpt lat="44.49717" lon="4.24017">
        <ele>188.4</ele>
        <time>2020-07-21T06:27:22Z</time>
      </trkpt>
      <trkpt lat="44.49712" lon="4.24015">
        <ele>188.4</ele>
        <time>2020-07-21T06:27:21Z</time>
      </trkpt>
      <trkpt lat="44.49707" lon="4.24013">
        <ele>188.4</ele>
        <time>2020-07-21T06:27:20Z</time>
      </trkpt>
      <trkpt lat="44.49697" lon="4.24009">
        <ele>188.3</ele>
        <time>2020-07-21T06:27:18Z</time>
      </trkpt>
      <trkpt lat="44.49691" lon="4.24006">
        <ele>188.2</ele>
        <time>2020-07-21T06:27:17Z</time>
      </trkpt>
      <trkpt lat="44.4968" lon="4.24003">
        <ele>187.9</ele>
        <time>2020-07-21T06:27:15Z</time>
      </trkpt>
      <trkpt lat="44.49669" lon="4.23999">
        <ele>187.7</ele>
        <time>2020-07-21T06:27:13Z</time>
      </trkpt>
      <trkpt lat="44.49659" lon="4.23995">
        <ele>187.4</ele>
        <time>2020-07-21T06:27:11Z</time>
      </trkpt>
      <trkpt lat="44.49654" lon="4.23993">
        <ele>187.2</ele>
        <time>2020-07-21T06:27:10Z</time>
      </trkpt>
      <trkpt lat="44.49649" lon="4.2399">
        <ele>187</ele>
        <time>2020-07-21T06:27:09Z</time>
      </trkpt>
      <trkpt lat="44.4964" lon="4.23984">
        <ele>186.6</ele>
        <time>2020-07-21T06:27:07Z</time>
      </trkpt>
      <trkpt lat="44.49635" lon="4.23982">
        <ele>186.5</ele>
        <time>2020-07-21T06:27:06Z</time>
      </trkpt>
      <trkpt lat="44.49629" lon="4.23979">
        <ele>186.3</ele>
        <time>2020-07-21T06:27:05Z</time>
      </trkpt>
      <trkpt lat="44.49619" lon="4.23974">
        <ele>186.1</ele>
        <time>2020-07-21T06:27:03Z</time>
      </trkpt>
      <trkpt lat="44.49609" lon="4.2397">
        <ele>185.9</ele>
        <time>2020-07-21T06:27:01Z</time>
      </trkpt>
      <trkpt lat="44.49603" lon="4.23969">
        <ele>185.7</ele>
        <time>2020-07-21T06:27:00Z</time>
      </trkpt>
      <trkpt lat="44.49593" lon="4.23965">
        <ele>185.3</ele>
        <time>2020-07-21T06:26:58Z</time>
      </trkpt>
      <trkpt lat="44.49587" lon="4.23964">
        <ele>185.2</ele>
        <time>2020-07-21T06:26:57Z</time>
      </trkpt>
      <trkpt lat="44.49575" lon="4.23961">
        <ele>185</ele>
        <time>2020-07-21T06:26:55Z</time>
      </trkpt>
      <trkpt lat="44.49569" lon="4.23961">
        <ele>184.9</ele>
        <time>2020-07-21T06:26:54Z</time>
      </trkpt>
      <trkpt lat="44.49553" lon="4.23961">
        <ele>184.6</ele>
        <time>2020-07-21T06:26:52Z</time>
      </trkpt>
      <trkpt lat="44.49546" lon="4.2396">
        <ele>184.5</ele>
        <time>2020-07-21T06:26:51Z</time>
      </trkpt>
      <trkpt lat="44.4954" lon="4.2396">
        <ele>184.4</ele>
        <time>2020-07-21T06:26:50Z</time>
      </trkpt>
      <trkpt lat="44.49526" lon="4.23959">
        <ele>184.2</ele>
        <time>2020-07-21T06:26:48Z</time>
      </trkpt>
      <trkpt lat="44.4951" lon="4.23959">
        <ele>183.9</ele>
        <time>2020-07-21T06:26:46Z</time>
      </trkpt>
      <trkpt lat="44.49495" lon="4.23959">
        <ele>183.5</ele>
        <time>2020-07-21T06:26:44Z</time>
      </trkpt>
      <trkpt lat="44.49478" lon="4.2396">
        <ele>183.2</ele>
        <time>2020-07-21T06:26:42Z</time>
      </trkpt>
      <trkpt lat="44.4947" lon="4.2396">
        <ele>183</ele>
        <time>2020-07-21T06:26:41Z</time>
      </trkpt>
      <trkpt lat="44.49455" lon="4.23961">
        <ele>182.8</ele>
        <time>2020-07-21T06:26:39Z</time>
      </trkpt>
      <trkpt lat="44.4945" lon="4.23963">
        <ele>182.7</ele>
        <time>2020-07-21T06:26:37Z</time>
      </trkpt>
      <trkpt lat="44.49459" lon="4.23963">
        <ele>182.5</ele>
        <time>2020-07-21T06:26:36Z</time>
      </trkpt>
      <trkpt lat="44.49454" lon="4.23964">
        <ele>182.5</ele>
        <time>2020-07-21T06:26:35Z</time>
      </trkpt>
      <trkpt lat="44.49451" lon="4.23965">
        <ele>182.4</ele>
        <time>2020-07-21T06:26:34Z</time>
      </trkpt>
      <trkpt lat="44.49438" lon="4.2397">
        <ele>182.1</ele>
        <time>2020-07-21T06:26:32Z</time>
      </trkpt>
      <trkpt lat="44.49425" lon="4.23975">
        <ele>181.9</ele>
        <time>2020-07-21T06:26:30Z</time>
      </trkpt>
      <trkpt lat="44.49421" lon="4.23978">
        <ele>181.8</ele>
        <time>2020-07-21T06:26:29Z</time>
      </trkpt>
      <trkpt lat="44.49418" lon="4.23983">
        <ele>181.7</ele>
        <time>2020-07-21T06:26:28Z</time>
      </trkpt>
      <trkpt lat="44.49413" lon="4.23986">
        <ele>181.5</ele>
        <time>2020-07-21T06:26:26Z</time>
      </trkpt>
      <trkpt lat="44.49409" lon="4.23989">
        <ele>181.4</ele>
        <time>2020-07-21T06:26:25Z</time>
      </trkpt>
      <trkpt lat="44.49405" lon="4.23992">
        <ele>181.3</ele>
        <time>2020-07-21T06:26:24Z</time>
      </trkpt>
      <trkpt lat="44.49401" lon="4.23992">
        <ele>181.2</ele>
        <time>2020-07-21T06:26:22Z</time>
      </trkpt>
      <trkpt lat="44.49398" lon="4.23988">
        <ele>181.1</ele>
        <time>2020-07-21T06:26:21Z</time>
      </trkpt>
      <trkpt lat="44.49395" lon="4.23981">
        <ele>181</ele>
        <time>2020-07-21T06:26:19Z</time>
      </trkpt>
      <trkpt lat="44.49394" lon="4.23976">
        <ele>180.9</ele>
        <time>2020-07-21T06:26:18Z</time>
      </trkpt>
      <trkpt lat="44.49396" lon="4.23969">
        <ele>180.8</ele>
        <time>2020-07-21T06:26:17Z</time>
      </trkpt>
      <trkpt lat="44.49397" lon="4.23964">
        <ele>180.7</ele>
        <time>2020-07-21T06:26:15Z</time>
      </trkpt>
      <trkpt lat="44.49399" lon="4.23958">
        <ele>180.6</ele>
        <time>2020-07-21T06:26:14Z</time>
      </trkpt>
      <trkpt lat="44.49398" lon="4.23951">
        <ele>180.5</ele>
        <time>2020-07-21T06:26:13Z</time>
      </trkpt>
      <trkpt lat="44.49385" lon="4.23958">
        <ele>180.2</ele>
        <time>2020-07-21T06:26:11Z</time>
      </trkpt>
      <trkpt lat="44.49381" lon="4.23961">
        <ele>180.1</ele>
        <time>2020-07-21T06:26:10Z</time>
      </trkpt>
      <trkpt lat="44.49374" lon="4.23967">
        <ele>179.9</ele>
        <time>2020-07-21T06:26:08Z</time>
      </trkpt>
      <trkpt lat="44.4937" lon="4.23971">
        <ele>179.8</ele>
        <time>2020-07-21T06:26:07Z</time>
      </trkpt>
      <trkpt lat="44.49366" lon="4.23975">
        <ele>179.7</ele>
        <time>2020-07-21T06:26:06Z</time>
      </trkpt>
      <trkpt lat="44.49357" lon="4.23983">
        <ele>179.4</ele>
        <time>2020-07-21T06:26:04Z</time>
      </trkpt>
      <trkpt lat="44.49353" lon="4.23987">
        <ele>179.3</ele>
        <time>2020-07-21T06:26:03Z</time>
      </trkpt>
      <trkpt lat="44.49348" lon="4.2399">
        <ele>179.1</ele>
        <time>2020-07-21T06:26:02Z</time>
      </trkpt>
      <trkpt lat="44.49338" lon="4.23996">
        <ele>178.8</ele>
        <time>2020-07-21T06:26:00Z</time>
      </trkpt>
      <trkpt lat="44.49331" lon="4.24">
        <ele>178.6</ele>
        <time>2020-07-21T06:25:59Z</time>
      </trkpt>
      <trkpt lat="44.49325" lon="4.24003">
        <ele>178.5</ele>
        <time>2020-07-21T06:25:58Z</time>
      </trkpt>
      <trkpt lat="44.49313" lon="4.24008">
        <ele>178.2</ele>
        <time>2020-07-21T06:25:56Z</time>
      </trkpt>
      <trkpt lat="44.49307" lon="4.24009">
        <ele>178</ele>
        <time>2020-07-21T06:25:55Z</time>
      </trkpt>
      <trkpt lat="44.49302" lon="4.24011">
        <ele>177.9</ele>
        <time>2020-07-21T06:25:54Z</time>
      </trkpt>
      <trkpt lat="44.4929" lon="4.24013">
        <ele>177.5</ele>
        <time>2020-07-21T06:25:52Z</time>
      </trkpt>
      <trkpt lat="44.49284" lon="4.24014">
        <ele>177.3</ele>
        <time>2020-07-21T06:25:51Z</time>
      </trkpt>
      <trkpt lat="44.49271" lon="4.24015">
        <ele>177</ele>
        <time>2020-07-21T06:25:49Z</time>
      </trkpt>
      <trkpt lat="44.49265" lon="4.24015">
        <ele>176.8</ele>
        <time>2020-07-21T06:25:48Z</time>
      </trkpt>
      <trkpt lat="44.49258" lon="4.24016">
        <ele>176.7</ele>
        <time>2020-07-21T06:25:47Z</time>
      </trkpt>
      <trkpt lat="44.49244" lon="4.24016">
        <ele>176.2</ele>
        <time>2020-07-21T06:25:45Z</time>
      </trkpt>
      <trkpt lat="44.49236" lon="4.24017">
        <ele>175.9</ele>
        <time>2020-07-21T06:25:44Z</time>
      </trkpt>
      <trkpt lat="44.49221" lon="4.24018">
        <ele>175.4</ele>
        <time>2020-07-21T06:25:42Z</time>
      </trkpt>
      <trkpt lat="44.49207" lon="4.2402">
        <ele>175.1</ele>
        <time>2020-07-21T06:25:40Z</time>
      </trkpt>
      <trkpt lat="44.49193" lon="4.24024">
        <ele>174.6</ele>
        <time>2020-07-21T06:25:38Z</time>
      </trkpt>
      <trkpt lat="44.49184" lon="4.2403">
        <ele>174.3</ele>
        <time>2020-07-21T06:25:36Z</time>
      </trkpt>
      <trkpt lat="44.49184" lon="4.24034">
        <ele>174.2</ele>
        <time>2020-07-21T06:25:35Z</time>
      </trkpt>
      <trkpt lat="44.49184" lon="4.24038">
        <ele>174.1</ele>
        <time>2020-07-21T06:25:33Z</time>
      </trkpt>
      <trkpt lat="44.49186" lon="4.24044">
        <ele>174</ele>
        <time>2020-07-21T06:25:32Z</time>
      </trkpt>
      <trkpt lat="44.49187" lon="4.24049">
        <ele>173.8</ele>
        <time>2020-07-21T06:25:31Z</time>
      </trkpt>
      <trkpt lat="44.49189" lon="4.24056">
        <ele>173.6</ele>
        <time>2020-07-21T06:25:30Z</time>
      </trkpt>
      <trkpt lat="44.49189" lon="4.2406">
        <ele>173.5</ele>
        <time>2020-07-21T06:25:28Z</time>
      </trkpt>
      <trkpt lat="44.49185" lon="4.24062">
        <ele>173.4</ele>
        <time>2020-07-21T06:25:27Z</time>
      </trkpt>
      <trkpt lat="44.4918" lon="4.24063">
        <ele>173.2</ele>
        <time>2020-07-21T06:25:26Z</time>
      </trkpt>
      <trkpt lat="44.4917" lon="4.24066">
        <ele>172.9</ele>
        <time>2020-07-21T06:25:24Z</time>
      </trkpt>
      <trkpt lat="44.4916" lon="4.24066">
        <ele>172.5</ele>
        <time>2020-07-21T06:25:22Z</time>
      </trkpt>
      <trkpt lat="44.49156" lon="4.24066">
        <ele>172.4</ele>
        <time>2020-07-21T06:25:21Z</time>
      </trkpt>
      <trkpt lat="44.49147" lon="4.24066">
        <ele>172.1</ele>
        <time>2020-07-21T06:25:19Z</time>
      </trkpt>
      <trkpt lat="44.49143" lon="4.24066">
        <ele>171.9</ele>
        <time>2020-07-21T06:25:18Z</time>
      </trkpt>
      <trkpt lat="44.49137" lon="4.24067">
        <ele>171.7</ele>
        <time>2020-07-21T06:25:16Z</time>
      </trkpt>
      <trkpt lat="44.49135" lon="4.24068">
        <ele>171.7</ele>
        <time>2020-07-21T06:25:15Z</time>
      </trkpt>
      <trkpt lat="44.49132" lon="4.24069">
        <ele>171.6</ele>
        <time>2020-07-21T06:25:14Z</time>
      </trkpt>
      <trkpt lat="44.49124" lon="4.24071">
        <ele>171.3</ele>
        <time>2020-07-21T06:25:12Z</time>
      </trkpt>
      <trkpt lat="44.49113" lon="4.24072">
        <ele>171</ele>
        <time>2020-07-21T06:25:10Z</time>
      </trkpt>
      <trkpt lat="44.49102" lon="4.24071">
        <ele>170.6</ele>
        <time>2020-07-21T06:25:08Z</time>
      </trkpt>
      <trkpt lat="44.49096" lon="4.2407">
        <ele>170.4</ele>
        <time>2020-07-21T06:25:07Z</time>
      </trkpt>
      <trkpt lat="44.49086" lon="4.24069">
        <ele>170.1</ele>
        <time>2020-07-21T06:25:05Z</time>
      </trkpt>
      <trkpt lat="44.49081" lon="4.24068">
        <ele>169.9</ele>
        <time>2020-07-21T06:25:04Z</time>
      </trkpt>
      <trkpt lat="44.49076" lon="4.24068">
        <ele>169.8</ele>
        <time>2020-07-21T06:25:03Z</time>
      </trkpt>
      <trkpt lat="44.49067" lon="4.24068">
        <ele>169.5</ele>
        <time>2020-07-21T06:25:01Z</time>
      </trkpt>
      <trkpt lat="44.49061" lon="4.2407">
        <ele>169.4</ele>
        <time>2020-07-21T06:25:00Z</time>
      </trkpt>
      <trkpt lat="44.49051" lon="4.24073">
        <ele>169</ele>
        <time>2020-07-21T06:24:58Z</time>
      </trkpt>
      <trkpt lat="44.49046" lon="4.24076">
        <ele>168.8</ele>
        <time>2020-07-21T06:24:57Z</time>
      </trkpt>
      <trkpt lat="44.4904" lon="4.24078">
        <ele>168.7</ele>
        <time>2020-07-21T06:24:56Z</time>
      </trkpt>
      <trkpt lat="44.49029" lon="4.24082">
        <ele>168.4</ele>
        <time>2020-07-21T06:24:54Z</time>
      </trkpt>
      <trkpt lat="44.49018" lon="4.24086">
        <ele>168.1</ele>
        <time>2020-07-21T06:24:52Z</time>
      </trkpt>
      <trkpt lat="44.49013" lon="4.24088">
        <ele>168</ele>
        <time>2020-07-21T06:24:51Z</time>
      </trkpt>
      <trkpt lat="44.49002" lon="4.24092">
        <ele>167.6</ele>
        <time>2020-07-21T06:24:49Z</time>
      </trkpt>
      <trkpt lat="44.48997" lon="4.24094">
        <ele>167.5</ele>
        <time>2020-07-21T06:24:48Z</time>
      </trkpt>
      <trkpt lat="44.48988" lon="4.241">
        <ele>167.2</ele>
        <time>2020-07-21T06:24:46Z</time>
      </trkpt>
      <trkpt lat="44.48983" lon="4.24104">
        <ele>167.1</ele>
        <time>2020-07-21T06:24:45Z</time>
      </trkpt>
      <trkpt lat="44.48974" lon="4.24112">
        <ele>166.9</ele>
        <time>2020-07-21T06:24:43Z</time>
      </trkpt>
      <trkpt lat="44.48964" lon="4.24119">
        <ele>166.8</ele>
        <time>2020-07-21T06:24:41Z</time>
      </trkpt>
      <trkpt lat="44.48954" lon="4.24125">
        <ele>166.6</ele>
        <time>2020-07-21T06:24:39Z</time>
      </trkpt>
      <trkpt lat="44.48941" lon="4.24131">
        <ele>166.4</ele>
        <time>2020-07-21T06:24:37Z</time>
      </trkpt>
      <trkpt lat="44.48928" lon="4.24136">
        <ele>166.2</ele>
        <time>2020-07-21T06:24:35Z</time>
      </trkpt>
      <trkpt lat="44.48915" lon="4.2414">
        <ele>166.1</ele>
        <time>2020-07-21T06:24:33Z</time>
      </trkpt>
      <trkpt lat="44.48909" lon="4.24141">
        <ele>166</ele>
        <time>2020-07-21T06:24:32Z</time>
      </trkpt>
      <trkpt lat="44.48902" lon="4.24141">
        <ele>165.9</ele>
        <time>2020-07-21T06:24:31Z</time>
      </trkpt>
      <trkpt lat="44.48889" lon="4.24141">
        <ele>165.8</ele>
        <time>2020-07-21T06:24:29Z</time>
      </trkpt>
      <trkpt lat="44.48877" lon="4.24139">
        <ele>165.6</ele>
        <time>2020-07-21T06:24:27Z</time>
      </trkpt>
      <trkpt lat="44.4887" lon="4.24138">
        <ele>165.6</ele>
        <time>2020-07-21T06:24:26Z</time>
      </trkpt>
      <trkpt lat="44.48864" lon="4.24138">
        <ele>165.5</ele>
        <time>2020-07-21T06:24:25Z</time>
      </trkpt>
      <trkpt lat="44.48858" lon="4.24138">
        <ele>165.4</ele>
        <time>2020-07-21T06:24:24Z</time>
      </trkpt>
      <trkpt lat="44.48846" lon="4.2414">
        <ele>165.3</ele>
        <time>2020-07-21T06:24:22Z</time>
      </trkpt>
      <trkpt lat="44.48834" lon="4.24142">
        <ele>165.2</ele>
        <time>2020-07-21T06:24:20Z</time>
      </trkpt>
      <trkpt lat="44.48828" lon="4.24144">
        <ele>165.1</ele>
        <time>2020-07-21T06:24:19Z</time>
      </trkpt>
      <trkpt lat="44.48816" lon="4.24147">
        <ele>164.9</ele>
        <time>2020-07-21T06:24:17Z</time>
      </trkpt>
      <trkpt lat="44.48811" lon="4.24148">
        <ele>164.8</ele>
        <time>2020-07-21T06:24:16Z</time>
      </trkpt>
      <trkpt lat="44.48805" lon="4.24149">
        <ele>164.8</ele>
        <time>2020-07-21T06:24:15Z</time>
      </trkpt>
      <trkpt lat="44.48794" lon="4.24151">
        <ele>164.6</ele>
        <time>2020-07-21T06:24:13Z</time>
      </trkpt>
      <trkpt lat="44.48783" lon="4.24154">
        <ele>164.5</ele>
        <time>2020-07-21T06:24:11Z</time>
      </trkpt>
      <trkpt lat="44.48778" lon="4.24156">
        <ele>164.4</ele>
        <time>2020-07-21T06:24:10Z</time>
      </trkpt>
      <trkpt lat="44.48768" lon="4.24159">
        <ele>164.3</ele>
        <time>2020-07-21T06:24:08Z</time>
      </trkpt>
      <trkpt lat="44.48762" lon="4.24161">
        <ele>164.2</ele>
        <time>2020-07-21T06:24:07Z</time>
      </trkpt>
      <trkpt lat="44.48751" lon="4.24164">
        <ele>164.1</ele>
        <time>2020-07-21T06:24:05Z</time>
      </trkpt>
      <trkpt lat="44.48741" lon="4.24167">
        <ele>164</ele>
        <time>2020-07-21T06:24:03Z</time>
      </trkpt>
      <trkpt lat="44.48737" lon="4.24168">
        <ele>163.9</ele>
        <time>2020-07-21T06:24:02Z</time>
      </trkpt>
      <trkpt lat="44.48727" lon="4.24172">
        <ele>163.7</ele>
        <time>2020-07-21T06:24:00Z</time>
      </trkpt>
      <trkpt lat="44.48722" lon="4.24174">
        <ele>163.6</ele>
        <time>2020-07-21T06:23:59Z</time>
      </trkpt>
      <trkpt lat="44.48712" lon="4.24179">
        <ele>163.4</ele>
        <time>2020-07-21T06:23:57Z</time>
      </trkpt>
      <trkpt lat="44.487" lon="4.24184">
        <ele>163.2</ele>
        <time>2020-07-21T06:23:55Z</time>
      </trkpt>
      <trkpt lat="44.48689" lon="4.2419">
        <ele>163.1</ele>
        <time>2020-07-21T06:23:53Z</time>
      </trkpt>
      <trkpt lat="44.48678" lon="4.24197">
        <ele>162.9</ele>
        <time>2020-07-21T06:23:51Z</time>
      </trkpt>
      <trkpt lat="44.48673" lon="4.24201">
        <ele>162.9</ele>
        <time>2020-07-21T06:23:50Z</time>
      </trkpt>
      <trkpt lat="44.48662" lon="4.24208">
        <ele>162.8</ele>
        <time>2020-07-21T06:23:48Z</time>
      </trkpt>
      <trkpt lat="44.48652" lon="4.24215">
        <ele>162.7</ele>
        <time>2020-07-21T06:23:46Z</time>
      </trkpt>
      <trkpt lat="44.48642" lon="4.24221">
        <ele>162.4</ele>
        <time>2020-07-21T06:23:44Z</time>
      </trkpt>
      <trkpt lat="44.48632" lon="4.24228">
        <ele>162.2</ele>
        <time>2020-07-21T06:23:42Z</time>
      </trkpt>
      <trkpt lat="44.48622" lon="4.24233">
        <ele>162</ele>
        <time>2020-07-21T06:23:40Z</time>
      </trkpt>
      <trkpt lat="44.48611" lon="4.24239">
        <ele>161.9</ele>
        <time>2020-07-21T06:23:38Z</time>
      </trkpt>
      <trkpt lat="44.48606" lon="4.24243">
        <ele>161.8</ele>
        <time>2020-07-21T06:23:37Z</time>
      </trkpt>
      <trkpt lat="44.48601" lon="4.24246">
        <ele>161.7</ele>
        <time>2020-07-21T06:23:36Z</time>
      </trkpt>
      <trkpt lat="44.4859" lon="4.24253">
        <ele>161.4</ele>
        <time>2020-07-21T06:23:34Z</time>
      </trkpt>
      <trkpt lat="44.4858" lon="4.2426">
        <ele>161.2</ele>
        <time>2020-07-21T06:23:32Z</time>
      </trkpt>
      <trkpt lat="44.48575" lon="4.24264">
        <ele>161.1</ele>
        <time>2020-07-21T06:23:31Z</time>
      </trkpt>
      <trkpt lat="44.48565" lon="4.24272">
        <ele>160.9</ele>
        <time>2020-07-21T06:23:29Z</time>
      </trkpt>
      <trkpt lat="44.48553" lon="4.24277">
        <ele>160.8</ele>
        <time>2020-07-21T06:23:27Z</time>
      </trkpt>
      <trkpt lat="44.48547" lon="4.24279">
        <ele>160.7</ele>
        <time>2020-07-21T06:23:26Z</time>
      </trkpt>
      <trkpt lat="44.48535" lon="4.24281">
        <ele>160.6</ele>
        <time>2020-07-21T06:23:24Z</time>
      </trkpt>
      <trkpt lat="44.48523" lon="4.24282">
        <ele>160.3</ele>
        <time>2020-07-21T06:23:22Z</time>
      </trkpt>
      <trkpt lat="44.48516" lon="4.24283">
        <ele>160.2</ele>
        <time>2020-07-21T06:23:21Z</time>
      </trkpt>
      <trkpt lat="44.48504" lon="4.24286">
        <ele>160</ele>
        <time>2020-07-21T06:23:19Z</time>
      </trkpt>
      <trkpt lat="44.48491" lon="4.24288">
        <ele>159.8</ele>
        <time>2020-07-21T06:23:17Z</time>
      </trkpt>
      <trkpt lat="44.48484" lon="4.24289">
        <ele>159.8</ele>
        <time>2020-07-21T06:23:16Z</time>
      </trkpt>
      <trkpt lat="44.48477" lon="4.2429">
        <ele>159.7</ele>
        <time>2020-07-21T06:23:15Z</time>
      </trkpt>
      <trkpt lat="44.4847" lon="4.24292">
        <ele>159.6</ele>
        <time>2020-07-21T06:23:14Z</time>
      </trkpt>
      <trkpt lat="44.48457" lon="4.24297">
        <ele>159.6</ele>
        <time>2020-07-21T06:23:12Z</time>
      </trkpt>
      <trkpt lat="44.4845" lon="4.24301">
        <ele>159.6</ele>
        <time>2020-07-21T06:23:11Z</time>
      </trkpt>
      <trkpt lat="44.48438" lon="4.24311">
        <ele>159.7</ele>
        <time>2020-07-21T06:23:09Z</time>
      </trkpt>
      <trkpt lat="44.48428" lon="4.24322">
        <ele>159.8</ele>
        <time>2020-07-21T06:23:07Z</time>
      </trkpt>
      <trkpt lat="44.4842" lon="4.24335">
        <ele>159.8</ele>
        <time>2020-07-21T06:23:05Z</time>
      </trkpt>
      <trkpt lat="44.48417" lon="4.24341">
        <ele>159.8</ele>
        <time>2020-07-21T06:23:04Z</time>
      </trkpt>
      <trkpt lat="44.48414" lon="4.24348">
        <ele>159.8</ele>
        <time>2020-07-21T06:23:03Z</time>
      </trkpt>
      <trkpt lat="44.4841" lon="4.24363">
        <ele>159.8</ele>
        <time>2020-07-21T06:23:01Z</time>
      </trkpt>
      <trkpt lat="44.48404" lon="4.24378">
        <ele>159.7</ele>
        <time>2020-07-21T06:22:59Z</time>
      </trkpt>
      <trkpt lat="44.48399" lon="4.24394">
        <ele>159.6</ele>
        <time>2020-07-21T06:22:57Z</time>
      </trkpt>
      <trkpt lat="44.48397" lon="4.24403">
        <ele>159.6</ele>
        <time>2020-07-21T06:22:56Z</time>
      </trkpt>
      <trkpt lat="44.48394" lon="4.24411">
        <ele>159.5</ele>
        <time>2020-07-21T06:22:55Z</time>
      </trkpt>
      <trkpt lat="44.48388" lon="4.24427">
        <ele>159.3</ele>
        <time>2020-07-21T06:22:53Z</time>
      </trkpt>
      <trkpt lat="44.48383" lon="4.24443">
        <ele>159.1</ele>
        <time>2020-07-21T06:22:51Z</time>
      </trkpt>
      <trkpt lat="44.4838" lon="4.24451">
        <ele>159.1</ele>
        <time>2020-07-21T06:22:50Z</time>
      </trkpt>
      <trkpt lat="44.48376" lon="4.24467">
        <ele>159</ele>
        <time>2020-07-21T06:22:48Z</time>
      </trkpt>
      <trkpt lat="44.48372" lon="4.24484">
        <ele>158.9</ele>
        <time>2020-07-21T06:22:46Z</time>
      </trkpt>
      <trkpt lat="44.4837" lon="4.24493">
        <ele>158.9</ele>
        <time>2020-07-21T06:22:45Z</time>
      </trkpt>
      <trkpt lat="44.48368" lon="4.24502">
        <ele>158.9</ele>
        <time>2020-07-21T06:22:44Z</time>
      </trkpt>
      <trkpt lat="44.48363" lon="4.24519">
        <ele>158.9</ele>
        <time>2020-07-21T06:22:42Z</time>
      </trkpt>
      <trkpt lat="44.48355" lon="4.24534">
        <ele>158.9</ele>
        <time>2020-07-21T06:22:40Z</time>
      </trkpt>
      <trkpt lat="44.48344" lon="4.24546">
        <ele>158.9</ele>
        <time>2020-07-21T06:22:38Z</time>
      </trkpt>
      <trkpt lat="44.48338" lon="4.24551">
        <ele>158.9</ele>
        <time>2020-07-21T06:22:37Z</time>
      </trkpt>
      <trkpt lat="44.48331" lon="4.24557">
        <ele>159</ele>
        <time>2020-07-21T06:22:36Z</time>
      </trkpt>
      <trkpt lat="44.48317" lon="4.24568">
        <ele>159.1</ele>
        <time>2020-07-21T06:22:34Z</time>
      </trkpt>
      <trkpt lat="44.4831" lon="4.24574">
        <ele>159.2</ele>
        <time>2020-07-21T06:22:33Z</time>
      </trkpt>
      <trkpt lat="44.48295" lon="4.24589">
        <ele>159.3</ele>
        <time>2020-07-21T06:22:31Z</time>
      </trkpt>
      <trkpt lat="44.4828" lon="4.24605">
        <ele>159.7</ele>
        <time>2020-07-21T06:22:29Z</time>
      </trkpt>
      <trkpt lat="44.48273" lon="4.24614">
        <ele>159.9</ele>
        <time>2020-07-21T06:22:28Z</time>
      </trkpt>
      <trkpt lat="44.4826" lon="4.24631">
        <ele>160.5</ele>
        <time>2020-07-21T06:22:26Z</time>
      </trkpt>
      <trkpt lat="44.48256" lon="4.24639">
        <ele>160.8</ele>
        <time>2020-07-21T06:22:25Z</time>
      </trkpt>
      <trkpt lat="44.48251" lon="4.24649">
        <ele>161.2</ele>
        <time>2020-07-21T06:22:23Z</time>
      </trkpt>
      <trkpt lat="44.48253" lon="4.24657">
        <ele>161.4</ele>
        <time>2020-07-21T06:22:21Z</time>
      </trkpt>
      <trkpt lat="44.48256" lon="4.24661">
        <ele>161.5</ele>
        <time>2020-07-21T06:22:20Z</time>
      </trkpt>
      <trkpt lat="44.48264" lon="4.24665">
        <ele>161.4</ele>
        <time>2020-07-21T06:22:18Z</time>
      </trkpt>
      <trkpt lat="44.48267" lon="4.24675">
        <ele>161.1</ele>
        <time>2020-07-21T06:22:16Z</time>
      </trkpt>
      <trkpt lat="44.48265" lon="4.2469">
        <ele>160.6</ele>
        <time>2020-07-21T06:22:14Z</time>
      </trkpt>
      <trkpt lat="44.48263" lon="4.24705">
        <ele>160</ele>
        <time>2020-07-21T06:22:12Z</time>
      </trkpt>
      <trkpt lat="44.48261" lon="4.24723">
        <ele>159.4</ele>
        <time>2020-07-21T06:22:10Z</time>
      </trkpt>
      <trkpt lat="44.4826" lon="4.24731">
        <ele>159.1</ele>
        <time>2020-07-21T06:22:09Z</time>
      </trkpt>
      <trkpt lat="44.48257" lon="4.24748">
        <ele>158.6</ele>
        <time>2020-07-21T06:22:07Z</time>
      </trkpt>
      <trkpt lat="44.48255" lon="4.24766">
        <ele>158.2</ele>
        <time>2020-07-21T06:22:05Z</time>
      </trkpt>
      <trkpt lat="44.48252" lon="4.24783">
        <ele>157.6</ele>
        <time>2020-07-21T06:22:03Z</time>
      </trkpt>
      <trkpt lat="44.48251" lon="4.24793">
        <ele>157.3</ele>
        <time>2020-07-21T06:22:02Z</time>
      </trkpt>
      <trkpt lat="44.48249" lon="4.24802">
        <ele>157</ele>
        <time>2020-07-21T06:22:01Z</time>
      </trkpt>
      <trkpt lat="44.48248" lon="4.24811">
        <ele>156.8</ele>
        <time>2020-07-21T06:22:00Z</time>
      </trkpt>
      <trkpt lat="44.48246" lon="4.2482">
        <ele>156.6</ele>
        <time>2020-07-21T06:21:59Z</time>
      </trkpt>
      <trkpt lat="44.48243" lon="4.24838">
        <ele>156.2</ele>
        <time>2020-07-21T06:21:57Z</time>
      </trkpt>
      <trkpt lat="44.48241" lon="4.24856">
        <ele>156</ele>
        <time>2020-07-21T06:21:55Z</time>
      </trkpt>
      <trkpt lat="44.48238" lon="4.24876">
        <ele>155.7</ele>
        <time>2020-07-21T06:21:53Z</time>
      </trkpt>
      <trkpt lat="44.48235" lon="4.24886">
        <ele>155.6</ele>
        <time>2020-07-21T06:21:52Z</time>
      </trkpt>
      <trkpt lat="44.48231" lon="4.24908">
        <ele>155.2</ele>
        <time>2020-07-21T06:21:50Z</time>
      </trkpt>
      <trkpt lat="44.48228" lon="4.24919">
        <ele>155</ele>
        <time>2020-07-21T06:21:49Z</time>
      </trkpt>
      <trkpt lat="44.48225" lon="4.24931">
        <ele>154.9</ele>
        <time>2020-07-21T06:21:48Z</time>
      </trkpt>
      <trkpt lat="44.48217" lon="4.24954">
        <ele>154.8</ele>
        <time>2020-07-21T06:21:46Z</time>
      </trkpt>
      <trkpt lat="44.48207" lon="4.24978">
        <ele>154.9</ele>
        <time>2020-07-21T06:21:44Z</time>
      </trkpt>
      <trkpt lat="44.48198" lon="4.25002">
        <ele>155.1</ele>
        <time>2020-07-21T06:21:42Z</time>
      </trkpt>
      <trkpt lat="44.48189" lon="4.25026">
        <ele>155.3</ele>
        <time>2020-07-21T06:21:40Z</time>
      </trkpt>
      <trkpt lat="44.48181" lon="4.2505">
        <ele>155.6</ele>
        <time>2020-07-21T06:21:38Z</time>
      </trkpt>
      <trkpt lat="44.48178" lon="4.25062">
        <ele>155.8</ele>
        <time>2020-07-21T06:21:37Z</time>
      </trkpt>
      <trkpt lat="44.48175" lon="4.25074">
        <ele>156</ele>
        <time>2020-07-21T06:21:36Z</time>
      </trkpt>
      <trkpt lat="44.4817" lon="4.25098">
        <ele>156.5</ele>
        <time>2020-07-21T06:21:34Z</time>
      </trkpt>
      <trkpt lat="44.48169" lon="4.2511">
        <ele>156.9</ele>
        <time>2020-07-21T06:21:33Z</time>
      </trkpt>
      <trkpt lat="44.48168" lon="4.25122">
        <ele>157.3</ele>
        <time>2020-07-21T06:21:32Z</time>
      </trkpt>
      <trkpt lat="44.48166" lon="4.25146">
        <ele>158.2</ele>
        <time>2020-07-21T06:21:30Z</time>
      </trkpt>
      <trkpt lat="44.48166" lon="4.25158">
        <ele>158.6</ele>
        <time>2020-07-21T06:21:29Z</time>
      </trkpt>
      <trkpt lat="44.48165" lon="4.25169">
        <ele>158.9</ele>
        <time>2020-07-21T06:21:28Z</time>
      </trkpt>
      <trkpt lat="44.48166" lon="4.25194">
        <ele>158.9</ele>
        <time>2020-07-21T06:21:26Z</time>
      </trkpt>
      <trkpt lat="44.48167" lon="4.25207">
        <ele>158.9</ele>
        <time>2020-07-21T06:21:25Z</time>
      </trkpt>
      <trkpt lat="44.48169" lon="4.25235">
        <ele>158.9</ele>
        <time>2020-07-21T06:21:23Z</time>
      </trkpt>
      <trkpt lat="44.48169" lon="4.25263">
        <ele>159.4</ele>
        <time>2020-07-21T06:21:21Z</time>
      </trkpt>
      <trkpt lat="44.48171" lon="4.25289">
        <ele>159.9</ele>
        <time>2020-07-21T06:21:19Z</time>
      </trkpt>
      <trkpt lat="44.48174" lon="4.25314">
        <ele>160.4</ele>
        <time>2020-07-21T06:21:17Z</time>
      </trkpt>
      <trkpt lat="44.48177" lon="4.25326">
        <ele>160.4</ele>
        <time>2020-07-21T06:21:16Z</time>
      </trkpt>
      <trkpt lat="44.48184" lon="4.2535">
        <ele>161</ele>
        <time>2020-07-21T06:21:14Z</time>
      </trkpt>
      <trkpt lat="44.48192" lon="4.25373">
        <ele>161.6</ele>
        <time>2020-07-21T06:21:12Z</time>
      </trkpt>
      <trkpt lat="44.482" lon="4.25394">
        <ele>162.2</ele>
        <time>2020-07-21T06:21:10Z</time>
      </trkpt>
      <trkpt lat="44.48209" lon="4.25413">
        <ele>162.6</ele>
        <time>2020-07-21T06:21:08Z</time>
      </trkpt>
      <trkpt lat="44.48218" lon="4.25433">
        <ele>162.9</ele>
        <time>2020-07-21T06:21:06Z</time>
      </trkpt>
      <trkpt lat="44.48222" lon="4.25443">
        <ele>163.1</ele>
        <time>2020-07-21T06:21:05Z</time>
      </trkpt>
      <trkpt lat="44.4823" lon="4.25462">
        <ele>163.3</ele>
        <time>2020-07-21T06:21:03Z</time>
      </trkpt>
      <trkpt lat="44.48234" lon="4.25472">
        <ele>163.4</ele>
        <time>2020-07-21T06:21:02Z</time>
      </trkpt>
      <trkpt lat="44.48243" lon="4.2549">
        <ele>163.6</ele>
        <time>2020-07-21T06:21:00Z</time>
      </trkpt>
      <trkpt lat="44.48247" lon="4.255">
        <ele>163.7</ele>
        <time>2020-07-21T06:20:59Z</time>
      </trkpt>
      <trkpt lat="44.48253" lon="4.25519">
        <ele>163.6</ele>
        <time>2020-07-21T06:20:57Z</time>
      </trkpt>
      <trkpt lat="44.48256" lon="4.25529">
        <ele>163.6</ele>
        <time>2020-07-21T06:20:56Z</time>
      </trkpt>
      <trkpt lat="44.48263" lon="4.25551">
        <ele>163.6</ele>
        <time>2020-07-21T06:20:54Z</time>
      </trkpt>
      <trkpt lat="44.48267" lon="4.25562">
        <ele>163.7</ele>
        <time>2020-07-21T06:20:53Z</time>
      </trkpt>
      <trkpt lat="44.48276" lon="4.25586">
        <ele>163.9</ele>
        <time>2020-07-21T06:20:51Z</time>
      </trkpt>
      <trkpt lat="44.48285" lon="4.25611">
        <ele>164.1</ele>
        <time>2020-07-21T06:20:49Z</time>
      </trkpt>
      <trkpt lat="44.4829" lon="4.25623">
        <ele>164.2</ele>
        <time>2020-07-21T06:20:48Z</time>
      </trkpt>
      <trkpt lat="44.48301" lon="4.2565">
        <ele>164.5</ele>
        <time>2020-07-21T06:20:46Z</time>
      </trkpt>
      <trkpt lat="44.48308" lon="4.25665">
        <ele>164.7</ele>
        <time>2020-07-21T06:20:45Z</time>
      </trkpt>
      <trkpt lat="44.48315" lon="4.25679">
        <ele>165</ele>
        <time>2020-07-21T06:20:44Z</time>
      </trkpt>
      <trkpt lat="44.4833" lon="4.25707">
        <ele>165.2</ele>
        <time>2020-07-21T06:20:42Z</time>
      </trkpt>
      <trkpt lat="44.48341" lon="4.25725">
        <ele>165.4</ele>
        <time>2020-07-21T06:20:40Z</time>
      </trkpt>
      <trkpt lat="44.48346" lon="4.25731">
        <ele>165.4</ele>
        <time>2020-07-21T06:20:39Z</time>
      </trkpt>
      <trkpt lat="44.48353" lon="4.25733">
        <ele>165.5</ele>
        <time>2020-07-21T06:20:37Z</time>
      </trkpt>
      <trkpt lat="44.48353" lon="4.2573">
        <ele>165.5</ele>
        <time>2020-07-21T06:20:36Z</time>
      </trkpt>
      <trkpt lat="44.48353" lon="4.25727">
        <ele>165.6</ele>
        <time>2020-07-21T06:20:34Z</time>
      </trkpt>
      <trkpt lat="44.48353" lon="4.25725">
        <ele>165.6</ele>
        <time>2020-07-21T06:20:33Z</time>
      </trkpt>
      <trkpt lat="44.48353" lon="4.25723">
        <ele>165.6</ele>
        <time>2020-07-21T06:20:32Z</time>
      </trkpt>
      <trkpt lat="44.48355" lon="4.25719">
        <ele>165.6</ele>
        <time>2020-07-21T06:20:31Z</time>
      </trkpt>
      <trkpt lat="44.4836" lon="4.25722">
        <ele>165.7</ele>
        <time>2020-07-21T06:20:29Z</time>
      </trkpt>
      <trkpt lat="44.48364" lon="4.25725">
        <ele>165.7</ele>
        <time>2020-07-21T06:20:27Z</time>
      </trkpt>
      <trkpt lat="44.48364" lon="4.25728">
        <ele>165.7</ele>
        <time>2020-07-21T06:20:25Z</time>
      </trkpt>
      <trkpt lat="44.48364" lon="4.25728">
        <ele>165.7</ele>
        <time>2020-07-21T06:20:24Z</time>
      </trkpt>
      <trkpt lat="44.48364" lon="4.25729">
        <ele>165.7</ele>
        <time>2020-07-21T06:20:22Z</time>
      </trkpt>
      <trkpt lat="44.48361" lon="4.25728">
        <ele>165.8</ele>
        <time>2020-07-21T06:20:20Z</time>
      </trkpt>
      <trkpt lat="44.4836" lon="4.25728">
        <ele>165.8</ele>
        <time>2020-07-21T06:20:19Z</time>
      </trkpt>
      <trkpt lat="44.48351" lon="4.25723">
        <ele>165.9</ele>
        <time>2020-07-21T06:20:18Z</time>
      </trkpt>
      <trkpt lat="44.48344" lon="4.25719">
        <ele>165.9</ele>
        <time>2020-07-21T06:20:16Z</time>
      </trkpt>
      <trkpt lat="44.48343" lon="4.25717">
        <ele>165.9</ele>
        <time>2020-07-21T06:20:15Z</time>
      </trkpt>
      <trkpt lat="44.48342" lon="4.25712">
        <ele>166</ele>
        <time>2020-07-21T06:20:13Z</time>
      </trkpt>
      <trkpt lat="44.48345" lon="4.25714">
        <ele>166</ele>
        <time>2020-07-21T06:20:11Z</time>
      </trkpt>
      <trkpt lat="44.48349" lon="4.25719">
        <ele>166.1</ele>
        <time>2020-07-21T06:20:10Z</time>
      </trkpt>
      <trkpt lat="44.48358" lon="4.25729">
        <ele>166.3</ele>
        <time>2020-07-21T06:20:08Z</time>
      </trkpt>
      <trkpt lat="44.48367" lon="4.25741">
        <ele>166.8</ele>
        <time>2020-07-21T06:20:06Z</time>
      </trkpt>
      <trkpt lat="44.48376" lon="4.25755">
        <ele>167</ele>
        <time>2020-07-21T06:20:04Z</time>
      </trkpt>
      <trkpt lat="44.4838" lon="4.25762">
        <ele>167</ele>
        <time>2020-07-21T06:20:03Z</time>
      </trkpt>
      <trkpt lat="44.48388" lon="4.25777">
        <ele>167</ele>
        <time>2020-07-21T06:20:01Z</time>
      </trkpt>
      <trkpt lat="44.48392" lon="4.25784">
        <ele>166.9</ele>
        <time>2020-07-21T06:20:00Z</time>
      </trkpt>
      <trkpt lat="44.48401" lon="4.25799">
        <ele>166.8</ele>
        <time>2020-07-21T06:19:58Z</time>
      </trkpt>
      <trkpt lat="44.48409" lon="4.25815">
        <ele>166.7</ele>
        <time>2020-07-21T06:19:56Z</time>
      </trkpt>
      <trkpt lat="44.48416" lon="4.2583">
        <ele>166.6</ele>
        <time>2020-07-21T06:19:54Z</time>
      </trkpt>
      <trkpt lat="44.48421" lon="4.25845">
        <ele>166.5</ele>
        <time>2020-07-21T06:19:52Z</time>
      </trkpt>
      <trkpt lat="44.48426" lon="4.2586">
        <ele>166.4</ele>
        <time>2020-07-21T06:19:50Z</time>
      </trkpt>
      <trkpt lat="44.48431" lon="4.25875">
        <ele>166.3</ele>
        <time>2020-07-21T06:19:48Z</time>
      </trkpt>
      <trkpt lat="44.48437" lon="4.25889">
        <ele>165.8</ele>
        <time>2020-07-21T06:19:46Z</time>
      </trkpt>
      <trkpt lat="44.4844" lon="4.25897">
        <ele>165.6</ele>
        <time>2020-07-21T06:19:45Z</time>
      </trkpt>
      <trkpt lat="44.48447" lon="4.25911">
        <ele>165.1</ele>
        <time>2020-07-21T06:19:43Z</time>
      </trkpt>
      <trkpt lat="44.48452" lon="4.25926">
        <ele>164.7</ele>
        <time>2020-07-21T06:19:41Z</time>
      </trkpt>
      <trkpt lat="44.48455" lon="4.25933">
        <ele>164.5</ele>
        <time>2020-07-21T06:19:40Z</time>
      </trkpt>
      <trkpt lat="44.4846" lon="4.25946">
        <ele>164.2</ele>
        <time>2020-07-21T06:19:38Z</time>
      </trkpt>
      <trkpt lat="44.48466" lon="4.25959">
        <ele>163.9</ele>
        <time>2020-07-21T06:19:36Z</time>
      </trkpt>
      <trkpt lat="44.48469" lon="4.25965">
        <ele>163.8</ele>
        <time>2020-07-21T06:19:35Z</time>
      </trkpt>
      <trkpt lat="44.48475" lon="4.25977">
        <ele>163.5</ele>
        <time>2020-07-21T06:19:33Z</time>
      </trkpt>
      <trkpt lat="44.48481" lon="4.25989">
        <ele>163.2</ele>
        <time>2020-07-21T06:19:31Z</time>
      </trkpt>
      <trkpt lat="44.48486" lon="4.26003">
        <ele>162.8</ele>
        <time>2020-07-21T06:19:29Z</time>
      </trkpt>
      <trkpt lat="44.48489" lon="4.2601">
        <ele>162.6</ele>
        <time>2020-07-21T06:19:28Z</time>
      </trkpt>
      <trkpt lat="44.48495" lon="4.26025">
        <ele>162.3</ele>
        <time>2020-07-21T06:19:26Z</time>
      </trkpt>
      <trkpt lat="44.48498" lon="4.26032">
        <ele>162.2</ele>
        <time>2020-07-21T06:19:25Z</time>
      </trkpt>
      <trkpt lat="44.48503" lon="4.26048">
        <ele>162</ele>
        <time>2020-07-21T06:19:23Z</time>
      </trkpt>
      <trkpt lat="44.48507" lon="4.26065">
        <ele>161.8</ele>
        <time>2020-07-21T06:19:21Z</time>
      </trkpt>
      <trkpt lat="44.48513" lon="4.26082">
        <ele>161.6</ele>
        <time>2020-07-21T06:19:19Z</time>
      </trkpt>
      <trkpt lat="44.48524" lon="4.26097">
        <ele>161.4</ele>
        <time>2020-07-21T06:19:17Z</time>
      </trkpt>
      <trkpt lat="44.48535" lon="4.26111">
        <ele>161.3</ele>
        <time>2020-07-21T06:19:15Z</time>
      </trkpt>
      <trkpt lat="44.4854" lon="4.26118">
        <ele>161.2</ele>
        <time>2020-07-21T06:19:14Z</time>
      </trkpt>
      <trkpt lat="44.48545" lon="4.26126">
        <ele>161.2</ele>
        <time>2020-07-21T06:19:13Z</time>
      </trkpt>
      <trkpt lat="44.4855" lon="4.26134">
        <ele>161.2</ele>
        <time>2020-07-21T06:19:12Z</time>
      </trkpt>
      <trkpt lat="44.48557" lon="4.26144">
        <ele>161.2</ele>
        <time>2020-07-21T06:19:10Z</time>
      </trkpt>
      <trkpt lat="44.48558" lon="4.26143">
        <ele>161.2</ele>
        <time>2020-07-21T06:19:09Z</time>
      </trkpt>
      <trkpt lat="44.48561" lon="4.26142">
        <ele>161.2</ele>
        <time>2020-07-21T06:19:08Z</time>
      </trkpt>
      <trkpt lat="44.48561" lon="4.26141">
        <ele>161.2</ele>
        <time>2020-07-21T06:19:07Z</time>
      </trkpt>
      <trkpt lat="44.48564" lon="4.2614">
        <ele>161.2</ele>
        <time>2020-07-21T06:19:05Z</time>
      </trkpt>
      <trkpt lat="44.48567" lon="4.26139">
        <ele>161.2</ele>
        <time>2020-07-21T06:19:04Z</time>
      </trkpt>
      <trkpt lat="44.4857" lon="4.26138">
        <ele>161.3</ele>
        <time>2020-07-21T06:19:02Z</time>
      </trkpt>
      <trkpt lat="44.48572" lon="4.26139">
        <ele>161.3</ele>
        <time>2020-07-21T06:19:01Z</time>
      </trkpt>
      <trkpt lat="44.48572" lon="4.2614">
        <ele>161.3</ele>
        <time>2020-07-21T06:19:00Z</time>
      </trkpt>
      <trkpt lat="44.4857" lon="4.26141">
        <ele>161.3</ele>
        <time>2020-07-21T06:18:59Z</time>
      </trkpt>
      <trkpt lat="44.48567" lon="4.2614">
        <ele>161.3</ele>
        <time>2020-07-21T06:18:57Z</time>
      </trkpt>
      <trkpt lat="44.48563" lon="4.26135">
        <ele>161.3</ele>
        <time>2020-07-21T06:18:56Z</time>
      </trkpt>
      <trkpt lat="44.48553" lon="4.26121">
        <ele>161.2</ele>
        <time>2020-07-21T06:18:54Z</time>
      </trkpt>
      <trkpt lat="44.48543" lon="4.26104">
        <ele>161.2</ele>
        <time>2020-07-21T06:18:52Z</time>
      </trkpt>
      <trkpt lat="44.48532" lon="4.26096">
        <ele>161.3</ele>
        <time>2020-07-21T06:18:50Z</time>
      </trkpt>
      <trkpt lat="44.48525" lon="4.26096">
        <ele>161.4</ele>
        <time>2020-07-21T06:18:48Z</time>
      </trkpt>
      <trkpt lat="44.48523" lon="4.26102">
        <ele>161.2</ele>
        <time>2020-07-21T06:18:47Z</time>
      </trkpt>
      <trkpt lat="44.48522" lon="4.26117">
        <ele>160.9</ele>
        <time>2020-07-21T06:18:45Z</time>
      </trkpt>
      <trkpt lat="44.48522" lon="4.26126">
        <ele>160.7</ele>
        <time>2020-07-21T06:18:44Z</time>
      </trkpt>
      <trkpt lat="44.48523" lon="4.26144">
        <ele>160.4</ele>
        <time>2020-07-21T06:18:42Z</time>
      </trkpt>
      <trkpt lat="44.48523" lon="4.26164">
        <ele>160.1</ele>
        <time>2020-07-21T06:18:40Z</time>
      </trkpt>
      <trkpt lat="44.48522" lon="4.26174">
        <ele>159.9</ele>
        <time>2020-07-21T06:18:39Z</time>
      </trkpt>
      <trkpt lat="44.48521" lon="4.26193">
        <ele>159.6</ele>
        <time>2020-07-21T06:18:37Z</time>
      </trkpt>
      <trkpt lat="44.4852" lon="4.26204">
        <ele>159.5</ele>
        <time>2020-07-21T06:18:36Z</time>
      </trkpt>
      <trkpt lat="44.48516" lon="4.26223">
        <ele>159.3</ele>
        <time>2020-07-21T06:18:34Z</time>
      </trkpt>
      <trkpt lat="44.48514" lon="4.26234">
        <ele>159.2</ele>
        <time>2020-07-21T06:18:33Z</time>
      </trkpt>
      <trkpt lat="44.48507" lon="4.26252">
        <ele>159</ele>
        <time>2020-07-21T06:18:31Z</time>
      </trkpt>
      <trkpt lat="44.48503" lon="4.26261">
        <ele>158.9</ele>
        <time>2020-07-21T06:18:30Z</time>
      </trkpt>
      <trkpt lat="44.48494" lon="4.26277">
        <ele>158.7</ele>
        <time>2020-07-21T06:18:28Z</time>
      </trkpt>
      <trkpt lat="44.48484" lon="4.26293">
        <ele>158.7</ele>
        <time>2020-07-21T06:18:26Z</time>
      </trkpt>
      <trkpt lat="44.48479" lon="4.26301">
        <ele>158.7</ele>
        <time>2020-07-21T06:18:25Z</time>
      </trkpt>
      <trkpt lat="44.48469" lon="4.26316">
        <ele>158.6</ele>
        <time>2020-07-21T06:18:23Z</time>
      </trkpt>
      <trkpt lat="44.48458" lon="4.26332">
        <ele>158.6</ele>
        <time>2020-07-21T06:18:21Z</time>
      </trkpt>
      <trkpt lat="44.48447" lon="4.26348">
        <ele>158.8</ele>
        <time>2020-07-21T06:18:19Z</time>
      </trkpt>
      <trkpt lat="44.48441" lon="4.26356">
        <ele>159</ele>
        <time>2020-07-21T06:18:18Z</time>
      </trkpt>
      <trkpt lat="44.48428" lon="4.26374">
        <ele>159.5</ele>
        <time>2020-07-21T06:18:16Z</time>
      </trkpt>
      <trkpt lat="44.48416" lon="4.26393">
        <ele>159.6</ele>
        <time>2020-07-21T06:18:14Z</time>
      </trkpt>
      <trkpt lat="44.48406" lon="4.26413">
        <ele>159.6</ele>
        <time>2020-07-21T06:18:12Z</time>
      </trkpt>
      <trkpt lat="44.48402" lon="4.26423">
        <ele>159.7</ele>
        <time>2020-07-21T06:18:11Z</time>
      </trkpt>
      <trkpt lat="44.48399" lon="4.26433">
        <ele>159.7</ele>
        <time>2020-07-21T06:18:10Z</time>
      </trkpt>
      <trkpt lat="44.48394" lon="4.26454">
        <ele>159.8</ele>
        <time>2020-07-21T06:18:08Z</time>
      </trkpt>
      <trkpt lat="44.48392" lon="4.26464">
        <ele>159.8</ele>
        <time>2020-07-21T06:18:07Z</time>
      </trkpt>
      <trkpt lat="44.48391" lon="4.26475">
        <ele>159.8</ele>
        <time>2020-07-21T06:18:06Z</time>
      </trkpt>
      <trkpt lat="44.4839" lon="4.26495">
        <ele>159.8</ele>
        <time>2020-07-21T06:18:04Z</time>
      </trkpt>
      <trkpt lat="44.4839" lon="4.26506">
        <ele>159.9</ele>
        <time>2020-07-21T06:18:03Z</time>
      </trkpt>
      <trkpt lat="44.48389" lon="4.26527">
        <ele>160</ele>
        <time>2020-07-21T06:18:01Z</time>
      </trkpt>
      <trkpt lat="44.48389" lon="4.26549">
        <ele>160.2</ele>
        <time>2020-07-21T06:17:59Z</time>
      </trkpt>
      <trkpt lat="44.48389" lon="4.2656">
        <ele>160.3</ele>
        <time>2020-07-21T06:17:58Z</time>
      </trkpt>
      <trkpt lat="44.48387" lon="4.26582">
        <ele>161</ele>
        <time>2020-07-21T06:17:56Z</time>
      </trkpt>
      <trkpt lat="44.48385" lon="4.26602">
        <ele>161.7</ele>
        <time>2020-07-21T06:17:54Z</time>
      </trkpt>
      <trkpt lat="44.48384" lon="4.26612">
        <ele>162</ele>
        <time>2020-07-21T06:17:53Z</time>
      </trkpt>
      <trkpt lat="44.48385" lon="4.26631">
        <ele>162.4</ele>
        <time>2020-07-21T06:17:51Z</time>
      </trkpt>
      <trkpt lat="44.48385" lon="4.26642">
        <ele>162.2</ele>
        <time>2020-07-21T06:17:50Z</time>
      </trkpt>
      <trkpt lat="44.48379" lon="4.26659">
        <ele>161.7</ele>
        <time>2020-07-21T06:17:48Z</time>
      </trkpt>
      <trkpt lat="44.48368" lon="4.26669">
        <ele>162.2</ele>
        <time>2020-07-21T06:17:46Z</time>
      </trkpt>
      <trkpt lat="44.48362" lon="4.26672">
        <ele>162.3</ele>
        <time>2020-07-21T06:17:45Z</time>
      </trkpt>
      <trkpt lat="44.48355" lon="4.26675">
        <ele>162.1</ele>
        <time>2020-07-21T06:17:44Z</time>
      </trkpt>
      <trkpt lat="44.48348" lon="4.26681">
        <ele>162.4</ele>
        <time>2020-07-21T06:17:43Z</time>
      </trkpt>
      <trkpt lat="44.48336" lon="4.26695">
        <ele>163</ele>
        <time>2020-07-21T06:17:41Z</time>
      </trkpt>
      <trkpt lat="44.4833" lon="4.26703">
        <ele>163.2</ele>
        <time>2020-07-21T06:17:40Z</time>
      </trkpt>
      <trkpt lat="44.48324" lon="4.26711">
        <ele>163.7</ele>
        <time>2020-07-21T06:17:39Z</time>
      </trkpt>
      <trkpt lat="44.48312" lon="4.26727">
        <ele>164.7</ele>
        <time>2020-07-21T06:17:37Z</time>
      </trkpt>
      <trkpt lat="44.48306" lon="4.26736">
        <ele>164.9</ele>
        <time>2020-07-21T06:17:36Z</time>
      </trkpt>
      <trkpt lat="44.48294" lon="4.26753">
        <ele>165.2</ele>
        <time>2020-07-21T06:17:34Z</time>
      </trkpt>
      <trkpt lat="44.48281" lon="4.2677">
        <ele>166.2</ele>
        <time>2020-07-21T06:17:32Z</time>
      </trkpt>
      <trkpt lat="44.48274" lon="4.2678">
        <ele>166.5</ele>
        <time>2020-07-21T06:17:31Z</time>
      </trkpt>
      <trkpt lat="44.48257" lon="4.26798">
        <ele>166.4</ele>
        <time>2020-07-21T06:17:29Z</time>
      </trkpt>
      <trkpt lat="44.48247" lon="4.26803">
        <ele>166.3</ele>
        <time>2020-07-21T06:17:27Z</time>
      </trkpt>
      <trkpt lat="44.48242" lon="4.26803">
        <ele>166.2</ele>
        <time>2020-07-21T06:17:26Z</time>
      </trkpt>
      <trkpt lat="44.48239" lon="4.26803">
        <ele>166.2</ele>
        <time>2020-07-21T06:17:24Z</time>
      </trkpt>
      <trkpt lat="44.48235" lon="4.26804">
        <ele>166.1</ele>
        <time>2020-07-21T06:17:23Z</time>
      </trkpt>
      <trkpt lat="44.48233" lon="4.26805">
        <ele>166</ele>
        <time>2020-07-21T06:17:22Z</time>
      </trkpt>
      <trkpt lat="44.4823" lon="4.26807">
        <ele>165.9</ele>
        <time>2020-07-21T06:17:21Z</time>
      </trkpt>
      <trkpt lat="44.48225" lon="4.26809">
        <ele>165.8</ele>
        <time>2020-07-21T06:17:19Z</time>
      </trkpt>
      <trkpt lat="44.48216" lon="4.26812">
        <ele>165.6</ele>
        <time>2020-07-21T06:17:18Z</time>
      </trkpt>
      <trkpt lat="44.48209" lon="4.26815">
        <ele>165.3</ele>
        <time>2020-07-21T06:17:16Z</time>
      </trkpt>
      <trkpt lat="44.48202" lon="4.26819">
        <ele>165.1</ele>
        <time>2020-07-21T06:17:14Z</time>
      </trkpt>
      <trkpt lat="44.48194" lon="4.2682">
        <ele>164.7</ele>
        <time>2020-07-21T06:17:11Z</time>
      </trkpt>
      <trkpt lat="44.48186" lon="4.26823">
        <ele>164.5</ele>
        <time>2020-07-21T06:17:10Z</time>
      </trkpt>
      <trkpt lat="44.48181" lon="4.26821">
        <ele>164.3</ele>
        <time>2020-07-21T06:17:08Z</time>
      </trkpt>
      <trkpt lat="44.48173" lon="4.26811">
        <ele>163.9</ele>
        <time>2020-07-21T06:17:07Z</time>
      </trkpt>
      <trkpt lat="44.48172" lon="4.26808">
        <ele>163.8</ele>
        <time>2020-07-21T06:17:06Z</time>
      </trkpt>
      <trkpt lat="44.48171" lon="4.26801">
        <ele>163.6</ele>
        <time>2020-07-21T06:17:04Z</time>
      </trkpt>
      <trkpt lat="44.48173" lon="4.26798">
        <ele>163.4</ele>
        <time>2020-07-21T06:17:03Z</time>
      </trkpt>
      <trkpt lat="44.48177" lon="4.26794">
        <ele>163.2</ele>
        <time>2020-07-21T06:17:01Z</time>
      </trkpt>
      <trkpt lat="44.48182" lon="4.26792">
        <ele>163</ele>
        <time>2020-07-21T06:17:00Z</time>
      </trkpt>
      <trkpt lat="44.48185" lon="4.26796">
        <ele>162.8</ele>
        <time>2020-07-21T06:16:58Z</time>
      </trkpt>
      <trkpt lat="44.48173" lon="4.26801">
        <ele>162.3</ele>
        <time>2020-07-21T06:16:57Z</time>
      </trkpt>
      <trkpt lat="44.48166" lon="4.26804">
        <ele>162</ele>
        <time>2020-07-21T06:16:55Z</time>
      </trkpt>
      <trkpt lat="44.48158" lon="4.26806">
        <ele>161.7</ele>
        <time>2020-07-21T06:16:53Z</time>
      </trkpt>
      <trkpt lat="44.4815" lon="4.2681">
        <ele>161.3</ele>
        <time>2020-07-21T06:16:51Z</time>
      </trkpt>
      <trkpt lat="44.48146" lon="4.26812">
        <ele>161.2</ele>
        <time>2020-07-21T06:16:50Z</time>
      </trkpt>
      <trkpt lat="44.48138" lon="4.26818">
        <ele>160.7</ele>
        <time>2020-07-21T06:16:48Z</time>
      </trkpt>
      <trkpt lat="44.48129" lon="4.26825">
        <ele>160.4</ele>
        <time>2020-07-21T06:16:46Z</time>
      </trkpt>
      <trkpt lat="44.48125" lon="4.26829">
        <ele>160.2</ele>
        <time>2020-07-21T06:16:45Z</time>
      </trkpt>
      <trkpt lat="44.48121" lon="4.26833">
        <ele>160</ele>
        <time>2020-07-21T06:16:44Z</time>
      </trkpt>
      <trkpt lat="44.48116" lon="4.26837">
        <ele>159.8</ele>
        <time>2020-07-21T06:16:43Z</time>
      </trkpt>
      <trkpt lat="44.48106" lon="4.26846">
        <ele>159.5</ele>
        <time>2020-07-21T06:16:41Z</time>
      </trkpt>
      <trkpt lat="44.48101" lon="4.26851">
        <ele>159.3</ele>
        <time>2020-07-21T06:16:40Z</time>
      </trkpt>
      <trkpt lat="44.48097" lon="4.26856">
        <ele>159.1</ele>
        <time>2020-07-21T06:16:39Z</time>
      </trkpt>
      <trkpt lat="44.48092" lon="4.26861">
        <ele>158.9</ele>
        <time>2020-07-21T06:16:38Z</time>
      </trkpt>
      <trkpt lat="44.48083" lon="4.26871">
        <ele>158.6</ele>
        <time>2020-07-21T06:16:36Z</time>
      </trkpt>
      <trkpt lat="44.48078" lon="4.26874">
        <ele>158.5</ele>
        <time>2020-07-21T06:16:35Z</time>
      </trkpt>
      <trkpt lat="44.48073" lon="4.26876">
        <ele>158.5</ele>
        <time>2020-07-21T06:16:34Z</time>
      </trkpt>
      <trkpt lat="44.48062" lon="4.26875">
        <ele>158.1</ele>
        <time>2020-07-21T06:16:32Z</time>
      </trkpt>
      <trkpt lat="44.48056" lon="4.26873">
        <ele>157.8</ele>
        <time>2020-07-21T06:16:31Z</time>
      </trkpt>
      <trkpt lat="44.48046" lon="4.26867">
        <ele>157.3</ele>
        <time>2020-07-21T06:16:29Z</time>
      </trkpt>
      <trkpt lat="44.4804" lon="4.26864">
        <ele>157.1</ele>
        <time>2020-07-21T06:16:28Z</time>
      </trkpt>
      <trkpt lat="44.48034" lon="4.26861">
        <ele>156.9</ele>
        <time>2020-07-21T06:16:27Z</time>
      </trkpt>
      <trkpt lat="44.48028" lon="4.26858">
        <ele>156.6</ele>
        <time>2020-07-21T06:16:26Z</time>
      </trkpt>
      <trkpt lat="44.48022" lon="4.26855">
        <ele>156.5</ele>
        <time>2020-07-21T06:16:25Z</time>
      </trkpt>
      <trkpt lat="44.48012" lon="4.2685">
        <ele>156.2</ele>
        <time>2020-07-21T06:16:23Z</time>
      </trkpt>
      <trkpt lat="44.48006" lon="4.26848">
        <ele>156</ele>
        <time>2020-07-21T06:16:22Z</time>
      </trkpt>
      <trkpt lat="44.48001" lon="4.26846">
        <ele>155.9</ele>
        <time>2020-07-21T06:16:21Z</time>
      </trkpt>
      <trkpt lat="44.47995" lon="4.26845">
        <ele>155.7</ele>
        <time>2020-07-21T06:16:20Z</time>
      </trkpt>
      <trkpt lat="44.47984" lon="4.26842">
        <ele>155.5</ele>
        <time>2020-07-21T06:16:18Z</time>
      </trkpt>
      <trkpt lat="44.47973" lon="4.26841">
        <ele>155.2</ele>
        <time>2020-07-21T06:16:16Z</time>
      </trkpt>
      <trkpt lat="44.47962" lon="4.26843">
        <ele>155</ele>
        <time>2020-07-21T06:16:14Z</time>
      </trkpt>
      <trkpt lat="44.47951" lon="4.2685">
        <ele>154.8</ele>
        <time>2020-07-21T06:16:12Z</time>
      </trkpt>
      <trkpt lat="44.47946" lon="4.26855">
        <ele>154.6</ele>
        <time>2020-07-21T06:16:11Z</time>
      </trkpt>
      <trkpt lat="44.4794" lon="4.26861">
        <ele>154.5</ele>
        <time>2020-07-21T06:16:10Z</time>
      </trkpt>
      <trkpt lat="44.47935" lon="4.26867">
        <ele>154.4</ele>
        <time>2020-07-21T06:16:09Z</time>
      </trkpt>
      <trkpt lat="44.47924" lon="4.26873">
        <ele>154.1</ele>
        <time>2020-07-21T06:16:07Z</time>
      </trkpt>
      <trkpt lat="44.47919" lon="4.26872">
        <ele>153.9</ele>
        <time>2020-07-21T06:16:06Z</time>
      </trkpt>
      <trkpt lat="44.47914" lon="4.26869">
        <ele>153.8</ele>
        <time>2020-07-21T06:16:05Z</time>
      </trkpt>
      <trkpt lat="44.4791" lon="4.26864">
        <ele>153.6</ele>
        <time>2020-07-21T06:16:04Z</time>
      </trkpt>
      <trkpt lat="44.47907" lon="4.26857">
        <ele>153.5</ele>
        <time>2020-07-21T06:16:03Z</time>
      </trkpt>
      <trkpt lat="44.47903" lon="4.26843">
        <ele>153.1</ele>
        <time>2020-07-21T06:16:01Z</time>
      </trkpt>
      <trkpt lat="44.479" lon="4.26829">
        <ele>152.9</ele>
        <time>2020-07-21T06:15:59Z</time>
      </trkpt>
      <trkpt lat="44.47895" lon="4.26815">
        <ele>152.5</ele>
        <time>2020-07-21T06:15:57Z</time>
      </trkpt>
      <trkpt lat="44.47893" lon="4.26808">
        <ele>152.4</ele>
        <time>2020-07-21T06:15:56Z</time>
      </trkpt>
      <trkpt lat="44.47891" lon="4.26801">
        <ele>152.2</ele>
        <time>2020-07-21T06:15:55Z</time>
      </trkpt>
      <trkpt lat="44.47887" lon="4.26787">
        <ele>151.9</ele>
        <time>2020-07-21T06:15:53Z</time>
      </trkpt>
      <trkpt lat="44.47884" lon="4.2678">
        <ele>151.8</ele>
        <time>2020-07-21T06:15:52Z</time>
      </trkpt>
      <trkpt lat="44.47878" lon="4.26766">
        <ele>151.4</ele>
        <time>2020-07-21T06:15:50Z</time>
      </trkpt>
      <trkpt lat="44.47873" lon="4.26752">
        <ele>151.1</ele>
        <time>2020-07-21T06:15:48Z</time>
      </trkpt>
      <trkpt lat="44.47867" lon="4.2674">
        <ele>150.9</ele>
        <time>2020-07-21T06:15:46Z</time>
      </trkpt>
      <trkpt lat="44.47865" lon="4.26733">
        <ele>150.8</ele>
        <time>2020-07-21T06:15:45Z</time>
      </trkpt>
      <trkpt lat="44.47862" lon="4.26726">
        <ele>150.6</ele>
        <time>2020-07-21T06:15:44Z</time>
      </trkpt>
      <trkpt lat="44.47858" lon="4.26711">
        <ele>150.4</ele>
        <time>2020-07-21T06:15:42Z</time>
      </trkpt>
      <trkpt lat="44.47856" lon="4.26703">
        <ele>150.3</ele>
        <time>2020-07-21T06:15:41Z</time>
      </trkpt>
      <trkpt lat="44.47853" lon="4.26687">
        <ele>150.1</ele>
        <time>2020-07-21T06:15:39Z</time>
      </trkpt>
      <trkpt lat="44.4785" lon="4.26671">
        <ele>149.9</ele>
        <time>2020-07-21T06:15:37Z</time>
      </trkpt>
      <trkpt lat="44.47847" lon="4.26654">
        <ele>149.8</ele>
        <time>2020-07-21T06:15:35Z</time>
      </trkpt>
      <trkpt lat="44.47843" lon="4.26637">
        <ele>149.8</ele>
        <time>2020-07-21T06:15:33Z</time>
      </trkpt>
      <trkpt lat="44.47842" lon="4.26629">
        <ele>149.7</ele>
        <time>2020-07-21T06:15:32Z</time>
      </trkpt>
      <trkpt lat="44.4784" lon="4.2662">
        <ele>149.7</ele>
        <time>2020-07-21T06:15:31Z</time>
      </trkpt>
      <trkpt lat="44.47839" lon="4.2661">
        <ele>149.7</ele>
        <time>2020-07-21T06:15:30Z</time>
      </trkpt>
      <trkpt lat="44.47838" lon="4.26601">
        <ele>149.8</ele>
        <time>2020-07-21T06:15:29Z</time>
      </trkpt>
      <trkpt lat="44.47835" lon="4.26581">
        <ele>149.9</ele>
        <time>2020-07-21T06:15:27Z</time>
      </trkpt>
      <trkpt lat="44.4783" lon="4.26566">
        <ele>149.9</ele>
        <time>2020-07-21T06:15:25Z</time>
      </trkpt>
      <trkpt lat="44.47827" lon="4.26562">
        <ele>149.8</ele>
        <time>2020-07-21T06:15:24Z</time>
      </trkpt>
      <trkpt lat="44.47819" lon="4.26561">
        <ele>149.8</ele>
        <time>2020-07-21T06:15:22Z</time>
      </trkpt>
      <trkpt lat="44.47816" lon="4.26563">
        <ele>149.7</ele>
        <time>2020-07-21T06:15:21Z</time>
      </trkpt>
      <trkpt lat="44.47809" lon="4.26571">
        <ele>149.7</ele>
        <time>2020-07-21T06:15:19Z</time>
      </trkpt>
      <trkpt lat="44.47804" lon="4.26574">
        <ele>149.6</ele>
        <time>2020-07-21T06:15:18Z</time>
      </trkpt>
      <trkpt lat="44.478" lon="4.26578">
        <ele>149.6</ele>
        <time>2020-07-21T06:15:17Z</time>
      </trkpt>
      <trkpt lat="44.47789" lon="4.26585">
        <ele>149.5</ele>
        <time>2020-07-21T06:15:15Z</time>
      </trkpt>
      <trkpt lat="44.47784" lon="4.26589">
        <ele>149.5</ele>
        <time>2020-07-21T06:15:14Z</time>
      </trkpt>
      <trkpt lat="44.47775" lon="4.266">
        <ele>149.3</ele>
        <time>2020-07-21T06:15:12Z</time>
      </trkpt>
      <trkpt lat="44.47771" lon="4.26613">
        <ele>149.1</ele>
        <time>2020-07-21T06:15:10Z</time>
      </trkpt>
      <trkpt lat="44.47767" lon="4.26629">
        <ele>148.9</ele>
        <time>2020-07-21T06:15:08Z</time>
      </trkpt>
      <trkpt lat="44.47763" lon="4.26643">
        <ele>148.7</ele>
        <time>2020-07-21T06:15:06Z</time>
      </trkpt>
      <trkpt lat="44.4776" lon="4.2665">
        <ele>148.6</ele>
        <time>2020-07-21T06:15:05Z</time>
      </trkpt>
      <trkpt lat="44.47757" lon="4.26657">
        <ele>148.5</ele>
        <time>2020-07-21T06:15:04Z</time>
      </trkpt>
      <trkpt lat="44.47753" lon="4.26663">
        <ele>148.3</ele>
        <time>2020-07-21T06:15:03Z</time>
      </trkpt>
      <trkpt lat="44.47747" lon="4.26675">
        <ele>148.1</ele>
        <time>2020-07-21T06:15:01Z</time>
      </trkpt>
      <trkpt lat="44.47744" lon="4.26682">
        <ele>148</ele>
        <time>2020-07-21T06:15:00Z</time>
      </trkpt>
      <trkpt lat="44.4774" lon="4.26688">
        <ele>147.9</ele>
        <time>2020-07-21T06:14:59Z</time>
      </trkpt>
      <trkpt lat="44.47737" lon="4.26695">
        <ele>147.8</ele>
        <time>2020-07-21T06:14:58Z</time>
      </trkpt>
      <trkpt lat="44.47729" lon="4.26708">
        <ele>147.6</ele>
        <time>2020-07-21T06:14:56Z</time>
      </trkpt>
      <trkpt lat="44.4772" lon="4.26721">
        <ele>147.4</ele>
        <time>2020-07-21T06:14:54Z</time>
      </trkpt>
      <trkpt lat="44.47716" lon="4.26728">
        <ele>147.3</ele>
        <time>2020-07-21T06:14:53Z</time>
      </trkpt>
      <trkpt lat="44.47711" lon="4.26734">
        <ele>147.2</ele>
        <time>2020-07-21T06:14:52Z</time>
      </trkpt>
      <trkpt lat="44.47702" lon="4.26746">
        <ele>147.1</ele>
        <time>2020-07-21T06:14:50Z</time>
      </trkpt>
      <trkpt lat="44.47692" lon="4.26756">
        <ele>146.9</ele>
        <time>2020-07-21T06:14:48Z</time>
      </trkpt>
      <trkpt lat="44.47687" lon="4.26761">
        <ele>146.8</ele>
        <time>2020-07-21T06:14:47Z</time>
      </trkpt>
      <trkpt lat="44.47677" lon="4.26769">
        <ele>146.7</ele>
        <time>2020-07-21T06:14:45Z</time>
      </trkpt>
      <trkpt lat="44.47671" lon="4.26773">
        <ele>146.6</ele>
        <time>2020-07-21T06:14:44Z</time>
      </trkpt>
      <trkpt lat="44.47659" lon="4.26778">
        <ele>146.6</ele>
        <time>2020-07-21T06:14:42Z</time>
      </trkpt>
      <trkpt lat="44.47649" lon="4.26788">
        <ele>146.5</ele>
        <time>2020-07-21T06:14:40Z</time>
      </trkpt>
      <trkpt lat="44.47644" lon="4.26805">
        <ele>146.4</ele>
        <time>2020-07-21T06:14:38Z</time>
      </trkpt>
      <trkpt lat="44.47643" lon="4.26815">
        <ele>146.4</ele>
        <time>2020-07-21T06:14:37Z</time>
      </trkpt>
      <trkpt lat="44.47639" lon="4.26836">
        <ele>146.3</ele>
        <time>2020-07-21T06:14:35Z</time>
      </trkpt>
      <trkpt lat="44.47629" lon="4.2685">
        <ele>146.4</ele>
        <time>2020-07-21T06:14:33Z</time>
      </trkpt>
      <trkpt lat="44.47616" lon="4.26857">
        <ele>146.6</ele>
        <time>2020-07-21T06:14:31Z</time>
      </trkpt>
      <trkpt lat="44.47601" lon="4.26863">
        <ele>146.7</ele>
        <time>2020-07-21T06:14:29Z</time>
      </trkpt>
      <trkpt lat="44.47594" lon="4.26866">
        <ele>146.9</ele>
        <time>2020-07-21T06:14:28Z</time>
      </trkpt>
      <trkpt lat="44.4758" lon="4.2687">
        <ele>147.2</ele>
        <time>2020-07-21T06:14:26Z</time>
      </trkpt>
      <trkpt lat="44.47566" lon="4.26878">
        <ele>147.6</ele>
        <time>2020-07-21T06:14:24Z</time>
      </trkpt>
      <trkpt lat="44.4756" lon="4.26883">
        <ele>147.8</ele>
        <time>2020-07-21T06:14:23Z</time>
      </trkpt>
      <trkpt lat="44.47551" lon="4.26897">
        <ele>148.3</ele>
        <time>2020-07-21T06:14:21Z</time>
      </trkpt>
      <trkpt lat="44.47547" lon="4.26904">
        <ele>148.4</ele>
        <time>2020-07-21T06:14:20Z</time>
      </trkpt>
      <trkpt lat="44.47542" lon="4.2691">
        <ele>148.5</ele>
        <time>2020-07-21T06:14:19Z</time>
      </trkpt>
      <trkpt lat="44.47538" lon="4.26915">
        <ele>148.6</ele>
        <time>2020-07-21T06:14:18Z</time>
      </trkpt>
      <trkpt lat="44.47533" lon="4.2692">
        <ele>148.6</ele>
        <time>2020-07-21T06:14:17Z</time>
      </trkpt>
      <trkpt lat="44.47524" lon="4.26927">
        <ele>148.7</ele>
        <time>2020-07-21T06:14:15Z</time>
      </trkpt>
      <trkpt lat="44.47518" lon="4.2693">
        <ele>148.7</ele>
        <time>2020-07-21T06:14:14Z</time>
      </trkpt>
      <trkpt lat="44.47509" lon="4.26934">
        <ele>148.6</ele>
        <time>2020-07-21T06:14:12Z</time>
      </trkpt>
      <trkpt lat="44.47504" lon="4.26935">
        <ele>148.5</ele>
        <time>2020-07-21T06:14:11Z</time>
      </trkpt>
      <trkpt lat="44.47494" lon="4.26938">
        <ele>148.4</ele>
        <time>2020-07-21T06:14:09Z</time>
      </trkpt>
      <trkpt lat="44.47484" lon="4.26942">
        <ele>148.3</ele>
        <time>2020-07-21T06:14:07Z</time>
      </trkpt>
      <trkpt lat="44.47473" lon="4.26947">
        <ele>148.1</ele>
        <time>2020-07-21T06:14:05Z</time>
      </trkpt>
      <trkpt lat="44.47468" lon="4.2695">
        <ele>148.1</ele>
        <time>2020-07-21T06:14:04Z</time>
      </trkpt>
      <trkpt lat="44.47456" lon="4.26956">
        <ele>148</ele>
        <time>2020-07-21T06:14:02Z</time>
      </trkpt>
      <trkpt lat="44.47451" lon="4.26958">
        <ele>148</ele>
        <time>2020-07-21T06:14:01Z</time>
      </trkpt>
      <trkpt lat="44.47445" lon="4.26961">
        <ele>147.9</ele>
        <time>2020-07-21T06:14:00Z</time>
      </trkpt>
      <trkpt lat="44.4744" lon="4.26965">
        <ele>147.9</ele>
        <time>2020-07-21T06:13:59Z</time>
      </trkpt>
      <trkpt lat="44.47434" lon="4.26969">
        <ele>147.9</ele>
        <time>2020-07-21T06:13:58Z</time>
      </trkpt>
      <trkpt lat="44.47423" lon="4.26978">
        <ele>147.9</ele>
        <time>2020-07-21T06:13:56Z</time>
      </trkpt>
      <trkpt lat="44.47413" lon="4.26988">
        <ele>147.9</ele>
        <time>2020-07-21T06:13:54Z</time>
      </trkpt>
      <trkpt lat="44.47408" lon="4.26993">
        <ele>148</ele>
        <time>2020-07-21T06:13:53Z</time>
      </trkpt>
      <trkpt lat="44.47397" lon="4.27002">
        <ele>148</ele>
        <time>2020-07-21T06:13:51Z</time>
      </trkpt>
      <trkpt lat="44.47391" lon="4.27007">
        <ele>148</ele>
        <time>2020-07-21T06:13:50Z</time>
      </trkpt>
      <trkpt lat="44.47381" lon="4.27015">
        <ele>148</ele>
        <time>2020-07-21T06:13:48Z</time>
      </trkpt>
      <trkpt lat="44.4737" lon="4.27024">
        <ele>148</ele>
        <time>2020-07-21T06:13:46Z</time>
      </trkpt>
      <trkpt lat="44.47359" lon="4.27034">
        <ele>148</ele>
        <time>2020-07-21T06:13:44Z</time>
      </trkpt>
      <trkpt lat="44.47354" lon="4.2704">
        <ele>148</ele>
        <time>2020-07-21T06:13:43Z</time>
      </trkpt>
      <trkpt lat="44.47346" lon="4.27053">
        <ele>148</ele>
        <time>2020-07-21T06:13:41Z</time>
      </trkpt>
      <trkpt lat="44.47341" lon="4.2706">
        <ele>147.9</ele>
        <time>2020-07-21T06:13:40Z</time>
      </trkpt>
      <trkpt lat="44.47333" lon="4.27071">
        <ele>147.8</ele>
        <time>2020-07-21T06:13:38Z</time>
      </trkpt>
      <trkpt lat="44.47325" lon="4.27081">
        <ele>147.6</ele>
        <time>2020-07-21T06:13:36Z</time>
      </trkpt>
      <trkpt lat="44.47321" lon="4.27085">
        <ele>147.5</ele>
        <time>2020-07-21T06:13:35Z</time>
      </trkpt>
      <trkpt lat="44.47315" lon="4.27091">
        <ele>147.4</ele>
        <time>2020-07-21T06:13:33Z</time>
      </trkpt>
      <trkpt lat="44.4731" lon="4.27092">
        <ele>147.3</ele>
        <time>2020-07-21T06:13:32Z</time>
      </trkpt>
      <trkpt lat="44.47301" lon="4.27093">
        <ele>147.1</ele>
        <time>2020-07-21T06:13:30Z</time>
      </trkpt>
      <trkpt lat="44.47291" lon="4.27094">
        <ele>147</ele>
        <time>2020-07-21T06:13:28Z</time>
      </trkpt>
      <trkpt lat="44.47282" lon="4.27098">
        <ele>146.9</ele>
        <time>2020-07-21T06:13:26Z</time>
      </trkpt>
      <trkpt lat="44.47277" lon="4.27101">
        <ele>146.9</ele>
        <time>2020-07-21T06:13:25Z</time>
      </trkpt>
      <trkpt lat="44.47269" lon="4.2711">
        <ele>146.7</ele>
        <time>2020-07-21T06:13:23Z</time>
      </trkpt>
      <trkpt lat="44.47264" lon="4.27115">
        <ele>146.6</ele>
        <time>2020-07-21T06:13:22Z</time>
      </trkpt>
      <trkpt lat="44.4726" lon="4.2712">
        <ele>146.6</ele>
        <time>2020-07-21T06:13:21Z</time>
      </trkpt>
      <trkpt lat="44.47251" lon="4.2713">
        <ele>146.4</ele>
        <time>2020-07-21T06:13:19Z</time>
      </trkpt>
      <trkpt lat="44.47246" lon="4.27134">
        <ele>146.4</ele>
        <time>2020-07-21T06:13:18Z</time>
      </trkpt>
      <trkpt lat="44.47235" lon="4.27142">
        <ele>146.3</ele>
        <time>2020-07-21T06:13:16Z</time>
      </trkpt>
      <trkpt lat="44.47229" lon="4.27146">
        <ele>146.3</ele>
        <time>2020-07-21T06:13:15Z</time>
      </trkpt>
      <trkpt lat="44.47217" lon="4.27154">
        <ele>146.2</ele>
        <time>2020-07-21T06:13:13Z</time>
      </trkpt>
      <trkpt lat="44.47204" lon="4.27161">
        <ele>146.1</ele>
        <time>2020-07-21T06:13:11Z</time>
      </trkpt>
      <trkpt lat="44.47191" lon="4.27166">
        <ele>146</ele>
        <time>2020-07-21T06:13:09Z</time>
      </trkpt>
      <trkpt lat="44.47181" lon="4.27161">
        <ele>145.9</ele>
        <time>2020-07-21T06:13:07Z</time>
      </trkpt>
      <trkpt lat="44.47178" lon="4.27156">
        <ele>145.9</ele>
        <time>2020-07-21T06:13:06Z</time>
      </trkpt>
      <trkpt lat="44.47175" lon="4.27149">
        <ele>145.8</ele>
        <time>2020-07-21T06:13:05Z</time>
      </trkpt>
      <trkpt lat="44.47171" lon="4.27135">
        <ele>145.6</ele>
        <time>2020-07-21T06:13:03Z</time>
      </trkpt>
      <trkpt lat="44.47169" lon="4.27127">
        <ele>145.5</ele>
        <time>2020-07-21T06:13:02Z</time>
      </trkpt>
      <trkpt lat="44.47167" lon="4.27119">
        <ele>145.4</ele>
        <time>2020-07-21T06:13:01Z</time>
      </trkpt>
      <trkpt lat="44.47165" lon="4.27111">
        <ele>145.3</ele>
        <time>2020-07-21T06:13:00Z</time>
      </trkpt>
      <trkpt lat="44.47162" lon="4.27095">
        <ele>145.1</ele>
        <time>2020-07-21T06:12:58Z</time>
      </trkpt>
      <trkpt lat="44.47159" lon="4.27081">
        <ele>145</ele>
        <time>2020-07-21T06:12:56Z</time>
      </trkpt>
      <trkpt lat="44.47158" lon="4.27074">
        <ele>144.9</ele>
        <time>2020-07-21T06:12:55Z</time>
      </trkpt>
      <trkpt lat="44.47156" lon="4.2706">
        <ele>144.8</ele>
        <time>2020-07-21T06:12:53Z</time>
      </trkpt>
      <trkpt lat="44.47151" lon="4.27045">
        <ele>144.5</ele>
        <time>2020-07-21T06:12:51Z</time>
      </trkpt>
      <trkpt lat="44.47147" lon="4.27038">
        <ele>144.3</ele>
        <time>2020-07-21T06:12:50Z</time>
      </trkpt>
      <trkpt lat="44.47138" lon="4.27025">
        <ele>144</ele>
        <time>2020-07-21T06:12:48Z</time>
      </trkpt>
      <trkpt lat="44.47133" lon="4.27019">
        <ele>143.9</ele>
        <time>2020-07-21T06:12:47Z</time>
      </trkpt>
      <trkpt lat="44.47128" lon="4.27013">
        <ele>143.8</ele>
        <time>2020-07-21T06:12:46Z</time>
      </trkpt>
      <trkpt lat="44.47117" lon="4.27001">
        <ele>143.8</ele>
        <time>2020-07-21T06:12:44Z</time>
      </trkpt>
      <trkpt lat="44.47107" lon="4.2699">
        <ele>143.7</ele>
        <time>2020-07-21T06:12:42Z</time>
      </trkpt>
      <trkpt lat="44.47102" lon="4.26985">
        <ele>143.7</ele>
        <time>2020-07-21T06:12:41Z</time>
      </trkpt>
      <trkpt lat="44.47097" lon="4.2698">
        <ele>143.7</ele>
        <time>2020-07-21T06:12:40Z</time>
      </trkpt>
      <trkpt lat="44.47086" lon="4.2697">
        <ele>143.8</ele>
        <time>2020-07-21T06:12:38Z</time>
      </trkpt>
      <trkpt lat="44.47081" lon="4.26965">
        <ele>143.8</ele>
        <time>2020-07-21T06:12:37Z</time>
      </trkpt>
      <trkpt lat="44.4707" lon="4.26956">
        <ele>143.7</ele>
        <time>2020-07-21T06:12:35Z</time>
      </trkpt>
      <trkpt lat="44.47064" lon="4.26951">
        <ele>143.7</ele>
        <time>2020-07-21T06:12:34Z</time>
      </trkpt>
      <trkpt lat="44.47052" lon="4.26941">
        <ele>143.7</ele>
        <time>2020-07-21T06:12:32Z</time>
      </trkpt>
      <trkpt lat="44.47041" lon="4.26935">
        <ele>143.7</ele>
        <time>2020-07-21T06:12:30Z</time>
      </trkpt>
      <trkpt lat="44.47036" lon="4.26934">
        <ele>143.6</ele>
        <time>2020-07-21T06:12:29Z</time>
      </trkpt>
      <trkpt lat="44.47026" lon="4.26935">
        <ele>143.5</ele>
        <time>2020-07-21T06:12:27Z</time>
      </trkpt>
      <trkpt lat="44.47021" lon="4.26938">
        <ele>143.5</ele>
        <time>2020-07-21T06:12:26Z</time>
      </trkpt>
      <trkpt lat="44.47016" lon="4.26942">
        <ele>143.4</ele>
        <time>2020-07-21T06:12:25Z</time>
      </trkpt>
      <trkpt lat="44.47007" lon="4.2695">
        <ele>143.3</ele>
        <time>2020-07-21T06:12:23Z</time>
      </trkpt>
      <trkpt lat="44.47003" lon="4.26955">
        <ele>143.3</ele>
        <time>2020-07-21T06:12:22Z</time>
      </trkpt>
      <trkpt lat="44.46995" lon="4.26963">
        <ele>143.3</ele>
        <time>2020-07-21T06:12:20Z</time>
      </trkpt>
      <trkpt lat="44.46986" lon="4.26971">
        <ele>143.3</ele>
        <time>2020-07-21T06:12:18Z</time>
      </trkpt>
      <trkpt lat="44.46981" lon="4.26976">
        <ele>143.3</ele>
        <time>2020-07-21T06:12:17Z</time>
      </trkpt>
      <trkpt lat="44.46971" lon="4.26984">
        <ele>143.3</ele>
        <time>2020-07-21T06:12:15Z</time>
      </trkpt>
      <trkpt lat="44.4696" lon="4.26992">
        <ele>143.3</ele>
        <time>2020-07-21T06:12:13Z</time>
      </trkpt>
      <trkpt lat="44.46948" lon="4.27">
        <ele>143.3</ele>
        <time>2020-07-21T06:12:11Z</time>
      </trkpt>
      <trkpt lat="44.46935" lon="4.27009">
        <ele>143.3</ele>
        <time>2020-07-21T06:12:09Z</time>
      </trkpt>
      <trkpt lat="44.46929" lon="4.27013">
        <ele>143.3</ele>
        <time>2020-07-21T06:12:08Z</time>
      </trkpt>
      <trkpt lat="44.46916" lon="4.27023">
        <ele>143.3</ele>
        <time>2020-07-21T06:12:06Z</time>
      </trkpt>
      <trkpt lat="44.4691" lon="4.27028">
        <ele>143.3</ele>
        <time>2020-07-21T06:12:05Z</time>
      </trkpt>
      <trkpt lat="44.46903" lon="4.27034">
        <ele>143.3</ele>
        <time>2020-07-21T06:12:04Z</time>
      </trkpt>
      <trkpt lat="44.46897" lon="4.27039">
        <ele>143.3</ele>
        <time>2020-07-21T06:12:03Z</time>
      </trkpt>
      <trkpt lat="44.46886" lon="4.27048">
        <ele>143.3</ele>
        <time>2020-07-21T06:12:01Z</time>
      </trkpt>
      <trkpt lat="44.46874" lon="4.27055">
        <ele>143.3</ele>
        <time>2020-07-21T06:11:59Z</time>
      </trkpt>
      <trkpt lat="44.46861" lon="4.27058">
        <ele>143.3</ele>
        <time>2020-07-21T06:11:57Z</time>
      </trkpt>
      <trkpt lat="44.46847" lon="4.27061">
        <ele>143.2</ele>
        <time>2020-07-21T06:11:55Z</time>
      </trkpt>
      <trkpt lat="44.4684" lon="4.27063">
        <ele>143.2</ele>
        <time>2020-07-21T06:11:54Z</time>
      </trkpt>
      <trkpt lat="44.46825" lon="4.27068">
        <ele>143.1</ele>
        <time>2020-07-21T06:11:52Z</time>
      </trkpt>
      <trkpt lat="44.46818" lon="4.27071">
        <ele>143.1</ele>
        <time>2020-07-21T06:11:51Z</time>
      </trkpt>
      <trkpt lat="44.4681" lon="4.27075">
        <ele>143.1</ele>
        <time>2020-07-21T06:11:50Z</time>
      </trkpt>
      <trkpt lat="44.46795" lon="4.27082">
        <ele>143</ele>
        <time>2020-07-21T06:11:48Z</time>
      </trkpt>
      <trkpt lat="44.46786" lon="4.27086">
        <ele>143</ele>
        <time>2020-07-21T06:11:47Z</time>
      </trkpt>
      <trkpt lat="44.46769" lon="4.27094">
        <ele>143</ele>
        <time>2020-07-21T06:11:45Z</time>
      </trkpt>
      <trkpt lat="44.46751" lon="4.27104">
        <ele>143</ele>
        <time>2020-07-21T06:11:43Z</time>
      </trkpt>
      <trkpt lat="44.46733" lon="4.27115">
        <ele>143</ele>
        <time>2020-07-21T06:11:41Z</time>
      </trkpt>
      <trkpt lat="44.46725" lon="4.27121">
        <ele>143.1</ele>
        <time>2020-07-21T06:11:40Z</time>
      </trkpt>
      <trkpt lat="44.46715" lon="4.27128">
        <ele>143.3</ele>
        <time>2020-07-21T06:11:39Z</time>
      </trkpt>
      <trkpt lat="44.46698" lon="4.27142">
        <ele>143.7</ele>
        <time>2020-07-21T06:11:37Z</time>
      </trkpt>
      <trkpt lat="44.46688" lon="4.27154">
        <ele>143.9</ele>
        <time>2020-07-21T06:11:35Z</time>
      </trkpt>
      <trkpt lat="44.46691" lon="4.27153">
        <ele>144</ele>
        <time>2020-07-21T06:11:34Z</time>
      </trkpt>
      <trkpt lat="44.46695" lon="4.27154">
        <ele>144</ele>
        <time>2020-07-21T06:11:32Z</time>
      </trkpt>
      <trkpt lat="44.467" lon="4.27152">
        <ele>144.1</ele>
        <time>2020-07-21T06:11:31Z</time>
      </trkpt>
      <trkpt lat="44.46703" lon="4.27152">
        <ele>144.1</ele>
        <time>2020-07-21T06:11:29Z</time>
      </trkpt>
      <trkpt lat="44.46688" lon="4.27158">
        <ele>144.2</ele>
        <time>2020-07-21T06:11:27Z</time>
      </trkpt>
      <trkpt lat="44.46673" lon="4.27163">
        <ele>144.3</ele>
        <time>2020-07-21T06:11:25Z</time>
      </trkpt>
      <trkpt lat="44.46666" lon="4.27165">
        <ele>144.4</ele>
        <time>2020-07-21T06:11:24Z</time>
      </trkpt>
      <trkpt lat="44.46659" lon="4.27167">
        <ele>144.6</ele>
        <time>2020-07-21T06:11:22Z</time>
      </trkpt>
      <trkpt lat="44.46662" lon="4.27168">
        <ele>144.6</ele>
        <time>2020-07-21T06:11:21Z</time>
      </trkpt>
      <trkpt lat="44.46665" lon="4.27169">
        <ele>144.7</ele>
        <time>2020-07-21T06:11:20Z</time>
      </trkpt>
      <trkpt lat="44.46669" lon="4.27169">
        <ele>144.8</ele>
        <time>2020-07-21T06:11:19Z</time>
      </trkpt>
      <trkpt lat="44.46672" lon="4.2717">
        <ele>144.8</ele>
        <time>2020-07-21T06:11:18Z</time>
      </trkpt>
      <trkpt lat="44.46675" lon="4.27169">
        <ele>144.9</ele>
        <time>2020-07-21T06:11:16Z</time>
      </trkpt>
      <trkpt lat="44.46677" lon="4.27169">
        <ele>144.9</ele>
        <time>2020-07-21T06:11:15Z</time>
      </trkpt>
      <trkpt lat="44.46677" lon="4.2717">
        <ele>144.9</ele>
        <time>2020-07-21T06:11:14Z</time>
      </trkpt>
      <trkpt lat="44.46677" lon="4.2717">
        <ele>144.9</ele>
        <time>2020-07-21T06:11:12Z</time>
      </trkpt>
      <trkpt lat="44.46677" lon="4.2717">
        <ele>144.9</ele>
        <time>2020-07-21T06:11:11Z</time>
      </trkpt>
      <trkpt lat="44.46677" lon="4.2717">
        <ele>144.9</ele>
        <time>2020-07-21T06:11:10Z</time>
      </trkpt>
      <trkpt lat="44.46678" lon="4.27168">
        <ele>145</ele>
        <time>2020-07-21T06:11:08Z</time>
      </trkpt>
      <trkpt lat="44.46681" lon="4.27166">
        <ele>145</ele>
        <time>2020-07-21T06:11:07Z</time>
      </trkpt>
      <trkpt lat="44.46681" lon="4.27166">
        <ele>145</ele>
        <time>2020-07-21T06:11:07Z</time>
      </trkpt>
      <trkpt lat="44.46362" lon="4.27292">
        <ele>143.7</ele>
      </trkpt>
      <trkpt lat="44.46306" lon="4.27328">
        <ele>139.8</ele>
      </trkpt>
      <trkpt lat="44.46329" lon="4.27386">
        <ele>148.2</ele>
      </trkpt>
      <trkpt lat="44.46389" lon="4.27317">
        <ele>146.1</ele>
      </trkpt>
      <trkpt lat="44.46438" lon="4.27304">
        <ele>151.6</ele>
      </trkpt>
      <trkpt lat="44.46503" lon="4.27281">
        <ele>158.9</ele>
      </trkpt>
      <trkpt lat="44.4665" lon="4.27179">
        <ele>148.6</ele>
      </trkpt>
      <trkpt lat="44.46701" lon="4.27158">
        <ele>145.1</ele>
      </trkpt>
      <trkpt lat="44.46733" lon="4.27142">
        <ele>146.8</ele>
      </trkpt>
      <trkpt lat="44.46767" lon="4.27118">
        <ele>150.8</ele>
      </trkpt>
      <trkpt lat="44.46836" lon="4.27084">
        <ele>148.7</ele>
      </trkpt>
      <trkpt lat="44.4686" lon="4.27075">
        <ele>144.8</ele>
      </trkpt>
      <trkpt lat="44.46904" lon="4.2705">
        <ele>144.1</ele>
      </trkpt>
      <trkpt lat="44.4695" lon="4.2701">
        <ele>141</ele>
      </trkpt>
      <trkpt lat="44.47018" lon="4.26946">
        <ele>139</ele>
      </trkpt>
      <trkpt lat="44.47034" lon="4.26938">
        <ele>139.1</ele>
      </trkpt>
      <trkpt lat="44.47068" lon="4.26948">
        <ele>139.5</ele>
      </trkpt>
      <trkpt lat="44.47104" lon="4.26982">
        <ele>140.7</ele>
      </trkpt>
      <trkpt lat="44.4715" lon="4.27052">
        <ele>142.1</ele>
      </trkpt>
      <trkpt lat="44.47185" lon="4.27151">
        <ele>156.6</ele>
      </trkpt>
      <trkpt lat="44.4721" lon="4.27152">
        <ele>154.7</ele>
      </trkpt>
      <trkpt lat="44.47265" lon="4.27103">
        <ele>149</ele>
      </trkpt>
      <trkpt lat="44.47308" lon="4.27103">
        <ele>150.2</ele>
      </trkpt>
      <trkpt lat="44.47373" lon="4.27029">
        <ele>145.6</ele>
      </trkpt>
      <trkpt lat="44.4744" lon="4.26974">
        <ele>146</ele>
      </trkpt>
      <trkpt lat="44.47521" lon="4.2694">
        <ele>146.4</ele>
      </trkpt>
      <trkpt lat="44.47571" lon="4.26884">
        <ele>144.9</ele>
      </trkpt>
      <trkpt lat="44.47626" lon="4.26858">
        <ele>144.5</ele>
      </trkpt>
      <trkpt lat="44.47632" lon="4.26819">
        <ele>143.6</ele>
      </trkpt>
      <trkpt lat="44.47662" lon="4.26784">
        <ele>143.5</ele>
      </trkpt>
      <trkpt lat="44.47683" lon="4.26773">
        <ele>143.8</ele>
      </trkpt>
      <trkpt lat="44.47742" lon="4.26693">
        <ele>144.3</ele>
      </trkpt>
      <trkpt lat="44.47781" lon="4.266">
        <ele>144.9</ele>
      </trkpt>
      <trkpt lat="44.47828" lon="4.26584">
        <ele>145.8</ele>
      </trkpt>
      <trkpt lat="44.47857" lon="4.26675">
        <ele>146.2</ele>
      </trkpt>
      <trkpt lat="44.47885" lon="4.26768">
        <ele>150</ele>
      </trkpt>
      <trkpt lat="44.47925" lon="4.26858">
        <ele>153.3</ele>
      </trkpt>
      <trkpt lat="44.47983" lon="4.26838">
        <ele>153.4</ele>
      </trkpt>
      <trkpt lat="44.48023" lon="4.2685">
        <ele>155.1</ele>
      </trkpt>
      <trkpt lat="44.48075" lon="4.26869">
        <ele>156.5</ele>
      </trkpt>
      <trkpt lat="44.48198" lon="4.26798">
        <ele>164.9</ele>
      </trkpt>
      <trkpt lat="44.48298" lon="4.2679">
        <ele>165.6</ele>
      </trkpt>
      <trkpt lat="44.48338" lon="4.26634">
        <ele>158.9</ele>
      </trkpt>
      <trkpt lat="44.48369" lon="4.26622">
        <ele>159.1</ele>
      </trkpt>
      <trkpt lat="44.48395" lon="4.26711">
        <ele>161.4</ele>
      </trkpt>
      <trkpt lat="44.4848" lon="4.26862">
        <ele>161.9</ele>
      </trkpt>
      <trkpt lat="44.48577" lon="4.26941">
        <ele>163.4</ele>
      </trkpt>
      <trkpt lat="44.48714" lon="4.27009">
        <ele>164</ele>
      </trkpt>
      <trkpt lat="44.48888" lon="4.27128">
        <ele>166.5</ele>
      </trkpt>
      <trkpt lat="44.49122" lon="4.27429">
        <ele>174.2</ele>
      </trkpt>
      <trkpt lat="44.49061" lon="4.27706">
        <ele>183.3</ele>
      </trkpt>
      <trkpt lat="44.49081" lon="4.27871">
        <ele>198.3</ele>
      </trkpt>
      <trkpt lat="44.49106" lon="4.28041">
        <ele>209.1</ele>
      </trkpt>
      <trkpt lat="44.4909" lon="4.28177">
        <ele>226.1</ele>
      </trkpt>
      <trkpt lat="44.4913" lon="4.28182">
        <ele>229.9</ele>
      </trkpt>
      <trkpt lat="44.49231" lon="4.28109">
        <ele>217.5</ele>
      </trkpt>
      <trkpt lat="44.49267" lon="4.28114">
        <ele>212.1</ele>
      </trkpt>
      <trkpt lat="44.49279" lon="4.28245">
        <ele>226.1</ele>
      </trkpt>
      <trkpt lat="44.49332" lon="4.28415">
        <ele>232.5</ele>
      </trkpt>
      <trkpt lat="44.49239" lon="4.28364">
        <ele>248.1</ele>
      </trkpt>
      <trkpt lat="44.49106" lon="4.285">
        <ele>253.7</ele>
      </trkpt>
      <trkpt lat="44.48863" lon="4.29021">
        <ele>251.1</ele>
      </trkpt>
      <trkpt lat="44.48839" lon="4.29208">
        <ele>247</ele>
      </trkpt>
      <trkpt lat="44.48799" lon="4.29248">
        <ele>245.8</ele>
      </trkpt>
      <trkpt lat="44.4854" lon="4.29344">
        <ele>248.3</ele>
      </trkpt>
      <trkpt lat="44.48362" lon="4.29355">
        <ele>248.8</ele>
      </trkpt>
      <trkpt lat="44.48185" lon="4.29389">
        <ele>253.3</ele>
      </trkpt>
      <trkpt lat="44.48047" lon="4.29389">
        <ele>252.3</ele>
      </trkpt>
      <trkpt lat="44.47898" lon="4.29293">
        <ele>249.8</ele>
      </trkpt>
      <trkpt lat="44.47587" lon="4.29117">
        <ele>247.7</ele>
      </trkpt>
      <trkpt lat="44.47421" lon="4.29066">
        <ele>245.4</ele>
      </trkpt>
      <trkpt lat="44.47029" lon="4.28749">
        <ele>269.7</ele>
      </trkpt>
      <trkpt lat="44.46936" lon="4.28613">
        <ele>275.3</ele>
      </trkpt>
      <trkpt lat="44.47009" lon="4.28789">
        <ele>267.8</ele>
      </trkpt>
      <trkpt lat="44.47086" lon="4.28789">
        <ele>264.3</ele>
      </trkpt>
      <trkpt lat="44.47187" lon="4.28862">
        <ele>262</ele>
      </trkpt>
      <trkpt lat="44.47211" lon="4.28947">
        <ele>263.4</ele>
      </trkpt>
      <trkpt lat="44.47276" lon="4.28964">
        <ele>256.6</ele>
      </trkpt>
      <trkpt lat="44.47372" lon="4.29032">
        <ele>247.4</ele>
      </trkpt>
      <trkpt lat="44.47356" lon="4.29078">
        <ele>247.4</ele>
      </trkpt>
      <trkpt lat="44.47348" lon="4.29174">
        <ele>245.5</ele>
      </trkpt>
      <trkpt lat="44.47316" lon="4.29242">
        <ele>245.2</ele>
      </trkpt>
      <trkpt lat="44.47231" lon="4.29406">
        <ele>242.4</ele>
      </trkpt>
      <trkpt lat="44.4711" lon="4.29463">
        <ele>242.6</ele>
      </trkpt>
      <trkpt lat="44.46981" lon="4.29576">
        <ele>242.1</ele>
      </trkpt>
      <trkpt lat="44.46884" lon="4.29576">
        <ele>245.2</ele>
      </trkpt>
      <trkpt lat="44.46702" lon="4.29758">
        <ele>242.4</ele>
      </trkpt>
      <trkpt lat="44.46641" lon="4.2986">
        <ele>240.1</ele>
      </trkpt>
      <trkpt lat="44.46544" lon="4.29905">
        <ele>236.6</ele>
      </trkpt>
      <trkpt lat="44.46488" lon="4.30007">
        <ele>233.3</ele>
      </trkpt>
      <trkpt lat="44.46415" lon="4.30058">
        <ele>229.5</ele>
      </trkpt>
      <trkpt lat="44.4635" lon="4.30132">
        <ele>230.3</ele>
      </trkpt>
      <trkpt lat="44.46281" lon="4.30211">
        <ele>225</ele>
      </trkpt>
      <trkpt lat="44.46192" lon="4.30251">
        <ele>222</ele>
      </trkpt>
      <trkpt lat="44.46003" lon="4.30385">
        <ele>221.6</ele>
      </trkpt>
      <trkpt lat="44.45939" lon="4.30532">
        <ele>221.3</ele>
      </trkpt>
      <trkpt lat="44.45866" lon="4.30555">
        <ele>221.1</ele>
      </trkpt>
      <trkpt lat="44.45745" lon="4.30623">
        <ele>213.6</ele>
      </trkpt>
      <trkpt lat="44.45623" lon="4.30691">
        <ele>207.9</ele>
      </trkpt>
      <trkpt lat="44.45567" lon="4.30997">
        <ele>202.5</ele>
      </trkpt>
      <trkpt lat="44.45413" lon="4.31371">
        <ele>188.9</ele>
      </trkpt>
      <trkpt lat="44.45494" lon="4.31507">
        <ele>190.1</ele>
      </trkpt>
      <trkpt lat="44.45494" lon="4.31654">
        <ele>186</ele>
      </trkpt>
      <trkpt lat="44.45494" lon="4.31994">
        <ele>171.4</ele>
      </trkpt>
      <trkpt lat="44.45543" lon="4.3213">
        <ele>169.7</ele>
      </trkpt>
      <trkpt lat="44.45607" lon="4.32175">
        <ele>168.2</ele>
      </trkpt>
      <trkpt lat="44.45664" lon="4.32255">
        <ele>165.7</ele>
      </trkpt>
      <trkpt lat="44.45745" lon="4.32277">
        <ele>168.7</ele>
      </trkpt>
      <trkpt lat="44.45785" lon="4.32379">
        <ele>169.4</ele>
      </trkpt>
      <trkpt lat="44.45704" lon="4.32651">
        <ele>163</ele>
      </trkpt>
      <trkpt lat="44.45704" lon="4.32799">
        <ele>154.5</ele>
      </trkpt>
    </trkseg>
  </trk>
</gpx>